<?xml version="1.0" encoding="UTF-8" standalone="no" ?>
<gpx xmlns="http://www.topografix.com/GPX/1/1" xmlns:xsi="http://www.w3.org/2001/XMLSchema-instance" xsi:schemaLocation="http://www.topografix.com/GPX/1/1 http://www.topografix.com/GPX/1/1/gpx.xsd" version="1.1" creator="VisuGPX - https://www.visugpx.com">
  <metadata>
    <name>ski Pointe de Plovezan</name>
  </metadata>
  <trk>
    <name><![CDATA[ski Pointe de Plovezan]]></name>
    <extensions>
      <line xmlns="http://www.topografix.com/GPX/gpx_style/0/2">
        <color>0000FF</color>
        <width>4</width>
      </line>
    </extensions>
    <trkseg>
      <trkpt lat="45.59188" lon="6.67088">
        <ele>1402.8000488281</ele>
        <time>2021-02-23T08:05:16.000Z</time>
      </trkpt>
      <trkpt lat="45.59188" lon="6.67089">
        <ele>1403.4000244141</ele>
        <time>2021-02-23T08:05:25.000Z</time>
      </trkpt>
      <trkpt lat="45.59187" lon="6.6709">
        <ele>1402.5999755859</ele>
        <time>2021-02-23T08:05:34.000Z</time>
      </trkpt>
      <trkpt lat="45.59187" lon="6.67091">
        <ele>1402.5999755859</ele>
        <time>2021-02-23T08:05:43.000Z</time>
      </trkpt>
      <trkpt lat="45.59187" lon="6.67091">
        <ele>1401.4000244141</ele>
        <time>2021-02-23T08:05:45.000Z</time>
      </trkpt>
      <trkpt lat="45.59187" lon="6.67091">
        <ele>1402.4000244141</ele>
        <time>2021-02-23T08:05:49.000Z</time>
      </trkpt>
      <trkpt lat="45.59187" lon="6.67091">
        <ele>1403.8000488281</ele>
        <time>2021-02-23T08:05:51.000Z</time>
      </trkpt>
      <trkpt lat="45.59187" lon="6.67091">
        <ele>1404.8000488281</ele>
        <time>2021-02-23T08:05:53.000Z</time>
      </trkpt>
      <trkpt lat="45.59187" lon="6.67091">
        <ele>1403</ele>
        <time>2021-02-23T08:05:56.000Z</time>
      </trkpt>
      <trkpt lat="45.59187" lon="6.67091">
        <ele>1402.5999755859</ele>
        <time>2021-02-23T08:05:57.000Z</time>
      </trkpt>
      <trkpt lat="45.59187" lon="6.67091">
        <ele>1402</ele>
        <time>2021-02-23T08:05:58.000Z</time>
      </trkpt>
      <trkpt lat="45.59188" lon="6.67091">
        <ele>1403.5999755859</ele>
        <time>2021-02-23T08:06:03.000Z</time>
      </trkpt>
      <trkpt lat="45.5919" lon="6.6708">
        <ele>1403</ele>
        <time>2021-02-23T08:06:12.000Z</time>
      </trkpt>
      <trkpt lat="45.5919" lon="6.6708">
        <ele>1402.4000244141</ele>
        <time>2021-02-23T08:06:15.000Z</time>
      </trkpt>
      <trkpt lat="45.5919" lon="6.6708">
        <ele>1402.4000244141</ele>
        <time>2021-02-23T08:06:32.000Z</time>
      </trkpt>
      <trkpt lat="45.5919" lon="6.67079">
        <ele>1402.4000244141</ele>
        <time>2021-02-23T08:06:54.000Z</time>
      </trkpt>
      <trkpt lat="45.5919" lon="6.67079">
        <ele>1402.4000244141</ele>
        <time>2021-02-23T08:07:06.000Z</time>
      </trkpt>
      <trkpt lat="45.5919" lon="6.67079">
        <ele>1402.4000244141</ele>
        <time>2021-02-23T08:07:17.000Z</time>
      </trkpt>
      <trkpt lat="45.5919" lon="6.67079">
        <ele>1402.4000244141</ele>
        <time>2021-02-23T08:07:27.000Z</time>
      </trkpt>
      <trkpt lat="45.5919" lon="6.67079">
        <ele>1403.1999511719</ele>
        <time>2021-02-23T08:07:40.000Z</time>
      </trkpt>
      <trkpt lat="45.5919" lon="6.67079">
        <ele>1402.5999755859</ele>
        <time>2021-02-23T08:07:55.000Z</time>
      </trkpt>
      <trkpt lat="45.5919" lon="6.67079">
        <ele>1401.4000244141</ele>
        <time>2021-02-23T08:08:04.000Z</time>
      </trkpt>
      <trkpt lat="45.5919" lon="6.67079">
        <ele>1400.4000244141</ele>
        <time>2021-02-23T08:08:05.000Z</time>
      </trkpt>
      <trkpt lat="45.5919" lon="6.67079">
        <ele>1401.8000488281</ele>
        <time>2021-02-23T08:08:13.000Z</time>
      </trkpt>
      <trkpt lat="45.5919" lon="6.67079">
        <ele>1402.8000488281</ele>
        <time>2021-02-23T08:08:16.000Z</time>
      </trkpt>
      <trkpt lat="45.5919" lon="6.67079">
        <ele>1403.8000488281</ele>
        <time>2021-02-23T08:08:17.000Z</time>
      </trkpt>
      <trkpt lat="45.59195" lon="6.6708">
        <ele>1402.5999755859</ele>
        <time>2021-02-23T08:08:24.000Z</time>
      </trkpt>
      <trkpt lat="45.59201" lon="6.67081">
        <ele>1402.1999511719</ele>
        <time>2021-02-23T08:08:32.000Z</time>
      </trkpt>
      <trkpt lat="45.59209" lon="6.67081">
        <ele>1402.8000488281</ele>
        <time>2021-02-23T08:08:41.000Z</time>
      </trkpt>
      <trkpt lat="45.59221" lon="6.67079">
        <ele>1403.1999511719</ele>
        <time>2021-02-23T08:08:50.000Z</time>
      </trkpt>
      <trkpt lat="45.5923" lon="6.67079">
        <ele>1403.1999511719</ele>
        <time>2021-02-23T08:09:00.000Z</time>
      </trkpt>
      <trkpt lat="45.59233" lon="6.67078">
        <ele>1402</ele>
        <time>2021-02-23T08:09:07.000Z</time>
      </trkpt>
      <trkpt lat="45.59233" lon="6.67078">
        <ele>1399</ele>
        <time>2021-02-23T08:09:08.000Z</time>
      </trkpt>
      <trkpt lat="45.59233" lon="6.67078">
        <ele>1400.8000488281</ele>
        <time>2021-02-23T08:09:12.000Z</time>
      </trkpt>
      <trkpt lat="45.59233" lon="6.67078">
        <ele>1402.1999511719</ele>
        <time>2021-02-23T08:09:13.000Z</time>
      </trkpt>
      <trkpt lat="45.59233" lon="6.67078">
        <ele>1403.4000244141</ele>
        <time>2021-02-23T08:09:14.000Z</time>
      </trkpt>
      <trkpt lat="45.59233" lon="6.67078">
        <ele>1404.5999755859</ele>
        <time>2021-02-23T08:09:16.000Z</time>
      </trkpt>
      <trkpt lat="45.59233" lon="6.67078">
        <ele>1406</ele>
        <time>2021-02-23T08:09:18.000Z</time>
      </trkpt>
      <trkpt lat="45.59233" lon="6.67078">
        <ele>1406.5999755859</ele>
        <time>2021-02-23T08:09:21.000Z</time>
      </trkpt>
      <trkpt lat="45.59233" lon="6.67078">
        <ele>1404.4000244141</ele>
        <time>2021-02-23T08:09:23.000Z</time>
      </trkpt>
      <trkpt lat="45.59233" lon="6.67078">
        <ele>1403.4000244141</ele>
        <time>2021-02-23T08:09:25.000Z</time>
      </trkpt>
      <trkpt lat="45.59233" lon="6.67078">
        <ele>1402</ele>
        <time>2021-02-23T08:09:30.000Z</time>
      </trkpt>
      <trkpt lat="45.59233" lon="6.67078">
        <ele>1400.4000244141</ele>
        <time>2021-02-23T08:09:31.000Z</time>
      </trkpt>
      <trkpt lat="45.59233" lon="6.67078">
        <ele>1399</ele>
        <time>2021-02-23T08:09:32.000Z</time>
      </trkpt>
      <trkpt lat="45.59233" lon="6.67078">
        <ele>1400.5999755859</ele>
        <time>2021-02-23T08:09:34.000Z</time>
      </trkpt>
      <trkpt lat="45.59233" lon="6.67078">
        <ele>1403.8000488281</ele>
        <time>2021-02-23T08:09:35.000Z</time>
      </trkpt>
      <trkpt lat="45.59233" lon="6.67078">
        <ele>1405.5999755859</ele>
        <time>2021-02-23T08:09:36.000Z</time>
      </trkpt>
      <trkpt lat="45.59233" lon="6.67078">
        <ele>1407.1999511719</ele>
        <time>2021-02-23T08:09:38.000Z</time>
      </trkpt>
      <trkpt lat="45.59233" lon="6.67078">
        <ele>1403.1999511719</ele>
        <time>2021-02-23T08:09:40.000Z</time>
      </trkpt>
      <trkpt lat="45.59233" lon="6.67078">
        <ele>1401.5999755859</ele>
        <time>2021-02-23T08:09:41.000Z</time>
      </trkpt>
      <trkpt lat="45.59235" lon="6.67078">
        <ele>1403.8000488281</ele>
        <time>2021-02-23T08:09:44.000Z</time>
      </trkpt>
      <trkpt lat="45.59235" lon="6.67078">
        <ele>1406</ele>
        <time>2021-02-23T08:09:45.000Z</time>
      </trkpt>
      <trkpt lat="45.59235" lon="6.67078">
        <ele>1407.1999511719</ele>
        <time>2021-02-23T08:09:46.000Z</time>
      </trkpt>
      <trkpt lat="45.59241" lon="6.67077">
        <ele>1406</ele>
        <time>2021-02-23T08:09:48.000Z</time>
      </trkpt>
      <trkpt lat="45.59244" lon="6.67077">
        <ele>1404.8000488281</ele>
        <time>2021-02-23T08:09:49.000Z</time>
      </trkpt>
      <trkpt lat="45.59251" lon="6.67077">
        <ele>1403.5999755859</ele>
        <time>2021-02-23T08:09:52.000Z</time>
      </trkpt>
      <trkpt lat="45.59257" lon="6.67076">
        <ele>1403.1999511719</ele>
        <time>2021-02-23T08:09:55.000Z</time>
      </trkpt>
      <trkpt lat="45.59271" lon="6.67075">
        <ele>1403</ele>
        <time>2021-02-23T08:10:04.000Z</time>
      </trkpt>
      <trkpt lat="45.5928" lon="6.67073">
        <ele>1403.4000244141</ele>
        <time>2021-02-23T08:10:12.000Z</time>
      </trkpt>
      <trkpt lat="45.593" lon="6.67072">
        <ele>1403.8000488281</ele>
        <time>2021-02-23T08:10:23.000Z</time>
      </trkpt>
      <trkpt lat="45.59325" lon="6.67074">
        <ele>1403.8000488281</ele>
        <time>2021-02-23T08:10:35.000Z</time>
      </trkpt>
      <trkpt lat="45.59332" lon="6.67075">
        <ele>1404</ele>
        <time>2021-02-23T08:10:43.000Z</time>
      </trkpt>
      <trkpt lat="45.59339" lon="6.67079">
        <ele>1403.8000488281</ele>
        <time>2021-02-23T08:10:52.000Z</time>
      </trkpt>
      <trkpt lat="45.59348" lon="6.67084">
        <ele>1403.8000488281</ele>
        <time>2021-02-23T08:10:56.000Z</time>
      </trkpt>
      <trkpt lat="45.59359" lon="6.67085">
        <ele>1404</ele>
        <time>2021-02-23T08:11:02.000Z</time>
      </trkpt>
      <trkpt lat="45.59372" lon="6.67083">
        <ele>1404</ele>
        <time>2021-02-23T08:11:10.000Z</time>
      </trkpt>
      <trkpt lat="45.59381" lon="6.67079">
        <ele>1404</ele>
        <time>2021-02-23T08:11:19.000Z</time>
      </trkpt>
      <trkpt lat="45.59393" lon="6.67074">
        <ele>1404.4000244141</ele>
        <time>2021-02-23T08:11:29.000Z</time>
      </trkpt>
      <trkpt lat="45.59396" lon="6.6707">
        <ele>1405</ele>
        <time>2021-02-23T08:11:32.000Z</time>
      </trkpt>
      <trkpt lat="45.59401" lon="6.67067">
        <ele>1404.5999755859</ele>
        <time>2021-02-23T08:11:36.000Z</time>
      </trkpt>
      <trkpt lat="45.59405" lon="6.67065">
        <ele>1404</ele>
        <time>2021-02-23T08:11:39.000Z</time>
      </trkpt>
      <trkpt lat="45.59406" lon="6.67064">
        <ele>1403.8000488281</ele>
        <time>2021-02-23T08:11:40.000Z</time>
      </trkpt>
      <trkpt lat="45.59409" lon="6.67063">
        <ele>1404.5999755859</ele>
        <time>2021-02-23T08:11:43.000Z</time>
      </trkpt>
      <trkpt lat="45.5941" lon="6.67062">
        <ele>1405</ele>
        <time>2021-02-23T08:11:44.000Z</time>
      </trkpt>
      <trkpt lat="45.59412" lon="6.6706">
        <ele>1405.8000488281</ele>
        <time>2021-02-23T08:11:46.000Z</time>
      </trkpt>
      <trkpt lat="45.59414" lon="6.67058">
        <ele>1406.1999511719</ele>
        <time>2021-02-23T08:11:48.000Z</time>
      </trkpt>
      <trkpt lat="45.59416" lon="6.67057">
        <ele>1406.4000244141</ele>
        <time>2021-02-23T08:11:50.000Z</time>
      </trkpt>
      <trkpt lat="45.59417" lon="6.67056">
        <ele>1406.5999755859</ele>
        <time>2021-02-23T08:11:51.000Z</time>
      </trkpt>
      <trkpt lat="45.59422" lon="6.67054">
        <ele>1406.5999755859</ele>
        <time>2021-02-23T08:11:55.000Z</time>
      </trkpt>
      <trkpt lat="45.59428" lon="6.67049">
        <ele>1407.1999511719</ele>
        <time>2021-02-23T08:12:02.000Z</time>
      </trkpt>
      <trkpt lat="45.59433" lon="6.67045">
        <ele>1407.5999755859</ele>
        <time>2021-02-23T08:12:08.000Z</time>
      </trkpt>
      <trkpt lat="45.59434" lon="6.67044">
        <ele>1407.8000488281</ele>
        <time>2021-02-23T08:12:09.000Z</time>
      </trkpt>
      <trkpt lat="45.59437" lon="6.67042">
        <ele>1408.1999511719</ele>
        <time>2021-02-23T08:12:12.000Z</time>
      </trkpt>
      <trkpt lat="45.59439" lon="6.67041">
        <ele>1408.4000244141</ele>
        <time>2021-02-23T08:12:14.000Z</time>
      </trkpt>
      <trkpt lat="45.59443" lon="6.67039">
        <ele>1408.1999511719</ele>
        <time>2021-02-23T08:12:19.000Z</time>
      </trkpt>
      <trkpt lat="45.59452" lon="6.67035">
        <ele>1409</ele>
        <time>2021-02-23T08:12:28.000Z</time>
      </trkpt>
      <trkpt lat="45.59455" lon="6.67035">
        <ele>1409.4000244141</ele>
        <time>2021-02-23T08:12:30.000Z</time>
      </trkpt>
      <trkpt lat="45.59465" lon="6.67033">
        <ele>1410</ele>
        <time>2021-02-23T08:12:38.000Z</time>
      </trkpt>
      <trkpt lat="45.59473" lon="6.67023">
        <ele>1410</ele>
        <time>2021-02-23T08:12:46.000Z</time>
      </trkpt>
      <trkpt lat="45.59475" lon="6.67019">
        <ele>1410.5999755859</ele>
        <time>2021-02-23T08:12:49.000Z</time>
      </trkpt>
      <trkpt lat="45.59477" lon="6.67013">
        <ele>1411</ele>
        <time>2021-02-23T08:12:52.000Z</time>
      </trkpt>
      <trkpt lat="45.59484" lon="6.67006">
        <ele>1411.4000244141</ele>
        <time>2021-02-23T08:12:59.000Z</time>
      </trkpt>
      <trkpt lat="45.59491" lon="6.67001">
        <ele>1411.5999755859</ele>
        <time>2021-02-23T08:13:05.000Z</time>
      </trkpt>
      <trkpt lat="45.59492" lon="6.67">
        <ele>1411.8000488281</ele>
        <time>2021-02-23T08:13:06.000Z</time>
      </trkpt>
      <trkpt lat="45.59503" lon="6.66996">
        <ele>1412.1999511719</ele>
        <time>2021-02-23T08:13:13.000Z</time>
      </trkpt>
      <trkpt lat="45.59511" lon="6.66993">
        <ele>1412.8000488281</ele>
        <time>2021-02-23T08:13:19.000Z</time>
      </trkpt>
      <trkpt lat="45.59513" lon="6.66992">
        <ele>1413</ele>
        <time>2021-02-23T08:13:21.000Z</time>
      </trkpt>
      <trkpt lat="45.59524" lon="6.66991">
        <ele>1413.8000488281</ele>
        <time>2021-02-23T08:13:31.000Z</time>
      </trkpt>
      <trkpt lat="45.59538" lon="6.66994">
        <ele>1414.4000244141</ele>
        <time>2021-02-23T08:13:41.000Z</time>
      </trkpt>
      <trkpt lat="45.59543" lon="6.66995">
        <ele>1415</ele>
        <time>2021-02-23T08:13:45.000Z</time>
      </trkpt>
      <trkpt lat="45.59551" lon="6.66999">
        <ele>1415.1999511719</ele>
        <time>2021-02-23T08:13:51.000Z</time>
      </trkpt>
      <trkpt lat="45.59561" lon="6.67">
        <ele>1415.8000488281</ele>
        <time>2021-02-23T08:14:01.000Z</time>
      </trkpt>
      <trkpt lat="45.59565" lon="6.67">
        <ele>1416</ele>
        <time>2021-02-23T08:14:04.000Z</time>
      </trkpt>
      <trkpt lat="45.59565" lon="6.67">
        <ele>1416.4000244141</ele>
        <time>2021-02-23T08:14:11.000Z</time>
      </trkpt>
      <trkpt lat="45.59569" lon="6.66999">
        <ele>1417</ele>
        <time>2021-02-23T08:14:17.000Z</time>
      </trkpt>
      <trkpt lat="45.59577" lon="6.66999">
        <ele>1417.4000244141</ele>
        <time>2021-02-23T08:14:22.000Z</time>
      </trkpt>
      <trkpt lat="45.59585" lon="6.67">
        <ele>1418</ele>
        <time>2021-02-23T08:14:25.000Z</time>
      </trkpt>
      <trkpt lat="45.59597" lon="6.67001">
        <ele>1418.1999511719</ele>
        <time>2021-02-23T08:14:32.000Z</time>
      </trkpt>
      <trkpt lat="45.59605" lon="6.67004">
        <ele>1418.8000488281</ele>
        <time>2021-02-23T08:14:41.000Z</time>
      </trkpt>
      <trkpt lat="45.59606" lon="6.67005">
        <ele>1419</ele>
        <time>2021-02-23T08:14:43.000Z</time>
      </trkpt>
      <trkpt lat="45.59616" lon="6.6701">
        <ele>1419.8000488281</ele>
        <time>2021-02-23T08:14:51.000Z</time>
      </trkpt>
      <trkpt lat="45.59617" lon="6.6701">
        <ele>1420.1999511719</ele>
        <time>2021-02-23T08:14:53.000Z</time>
      </trkpt>
      <trkpt lat="45.5962" lon="6.67011">
        <ele>1420.5999755859</ele>
        <time>2021-02-23T08:15:01.000Z</time>
      </trkpt>
      <trkpt lat="45.59622" lon="6.67011">
        <ele>1421.1999511719</ele>
        <time>2021-02-23T08:15:10.000Z</time>
      </trkpt>
      <trkpt lat="45.59625" lon="6.67011">
        <ele>1421.4000244141</ele>
        <time>2021-02-23T08:15:12.000Z</time>
      </trkpt>
      <trkpt lat="45.59639" lon="6.67007">
        <ele>1422</ele>
        <time>2021-02-23T08:15:20.000Z</time>
      </trkpt>
      <trkpt lat="45.59646" lon="6.66993">
        <ele>1422.4000244141</ele>
        <time>2021-02-23T08:15:31.000Z</time>
      </trkpt>
      <trkpt lat="45.59642" lon="6.66978">
        <ele>1423.5999755859</ele>
        <time>2021-02-23T08:15:39.000Z</time>
      </trkpt>
      <trkpt lat="45.59641" lon="6.66973">
        <ele>1424</ele>
        <time>2021-02-23T08:15:41.000Z</time>
      </trkpt>
      <trkpt lat="45.59638" lon="6.66964">
        <ele>1424.5999755859</ele>
        <time>2021-02-23T08:15:45.000Z</time>
      </trkpt>
      <trkpt lat="45.59636" lon="6.66959">
        <ele>1424.5999755859</ele>
        <time>2021-02-23T08:15:49.000Z</time>
      </trkpt>
      <trkpt lat="45.59631" lon="6.66951">
        <ele>1425.1999511719</ele>
        <time>2021-02-23T08:15:56.000Z</time>
      </trkpt>
      <trkpt lat="45.5963" lon="6.66946">
        <ele>1425.5999755859</ele>
        <time>2021-02-23T08:15:59.000Z</time>
      </trkpt>
      <trkpt lat="45.5963" lon="6.66938">
        <ele>1426.5999755859</ele>
        <time>2021-02-23T08:16:04.000Z</time>
      </trkpt>
      <trkpt lat="45.5963" lon="6.66933">
        <ele>1426.5999755859</ele>
        <time>2021-02-23T08:16:06.000Z</time>
      </trkpt>
      <trkpt lat="45.59631" lon="6.66921">
        <ele>1427.5999755859</ele>
        <time>2021-02-23T08:16:13.000Z</time>
      </trkpt>
      <trkpt lat="45.59632" lon="6.66917">
        <ele>1427.8000488281</ele>
        <time>2021-02-23T08:16:15.000Z</time>
      </trkpt>
      <trkpt lat="45.59633" lon="6.66911">
        <ele>1428.1999511719</ele>
        <time>2021-02-23T08:16:20.000Z</time>
      </trkpt>
      <trkpt lat="45.59635" lon="6.66902">
        <ele>1428.8000488281</ele>
        <time>2021-02-23T08:16:26.000Z</time>
      </trkpt>
      <trkpt lat="45.59635" lon="6.66899">
        <ele>1429.1999511719</ele>
        <time>2021-02-23T08:16:28.000Z</time>
      </trkpt>
      <trkpt lat="45.59635" lon="6.66892">
        <ele>1430</ele>
        <time>2021-02-23T08:16:33.000Z</time>
      </trkpt>
      <trkpt lat="45.59636" lon="6.66887">
        <ele>1430.4000244141</ele>
        <time>2021-02-23T08:16:37.000Z</time>
      </trkpt>
      <trkpt lat="45.59636" lon="6.66869">
        <ele>1431</ele>
        <time>2021-02-23T08:16:47.000Z</time>
      </trkpt>
      <trkpt lat="45.59636" lon="6.66867">
        <ele>1431</ele>
        <time>2021-02-23T08:16:48.000Z</time>
      </trkpt>
      <trkpt lat="45.59637" lon="6.66857">
        <ele>1432.1999511719</ele>
        <time>2021-02-23T08:16:54.000Z</time>
      </trkpt>
      <trkpt lat="45.59637" lon="6.66856">
        <ele>1432.4000244141</ele>
        <time>2021-02-23T08:16:55.000Z</time>
      </trkpt>
      <trkpt lat="45.59636" lon="6.6684">
        <ele>1433</ele>
        <time>2021-02-23T08:17:03.000Z</time>
      </trkpt>
      <trkpt lat="45.59636" lon="6.6684">
        <ele>1433.4000244141</ele>
        <time>2021-02-23T08:17:07.000Z</time>
      </trkpt>
      <trkpt lat="45.59636" lon="6.6684">
        <ele>1433.8000488281</ele>
        <time>2021-02-23T08:17:12.000Z</time>
      </trkpt>
      <trkpt lat="45.59633" lon="6.66834">
        <ele>1434.1999511719</ele>
        <time>2021-02-23T08:17:17.000Z</time>
      </trkpt>
      <trkpt lat="45.59633" lon="6.66833">
        <ele>1434.4000244141</ele>
        <time>2021-02-23T08:17:18.000Z</time>
      </trkpt>
      <trkpt lat="45.59629" lon="6.66824">
        <ele>1435.1999511719</ele>
        <time>2021-02-23T08:17:24.000Z</time>
      </trkpt>
      <trkpt lat="45.59628" lon="6.66822">
        <ele>1435.4000244141</ele>
        <time>2021-02-23T08:17:26.000Z</time>
      </trkpt>
      <trkpt lat="45.59624" lon="6.66814">
        <ele>1436</ele>
        <time>2021-02-23T08:17:31.000Z</time>
      </trkpt>
      <trkpt lat="45.59622" lon="6.6681">
        <ele>1436.4000244141</ele>
        <time>2021-02-23T08:17:34.000Z</time>
      </trkpt>
      <trkpt lat="45.59618" lon="6.66803">
        <ele>1437</ele>
        <time>2021-02-23T08:17:40.000Z</time>
      </trkpt>
      <trkpt lat="45.59615" lon="6.66799">
        <ele>1437.4000244141</ele>
        <time>2021-02-23T08:17:44.000Z</time>
      </trkpt>
      <trkpt lat="45.59613" lon="6.66796">
        <ele>1437.5999755859</ele>
        <time>2021-02-23T08:17:47.000Z</time>
      </trkpt>
      <trkpt lat="45.59609" lon="6.66791">
        <ele>1438.5999755859</ele>
        <time>2021-02-23T08:17:52.000Z</time>
      </trkpt>
      <trkpt lat="45.59606" lon="6.66788">
        <ele>1438.8000488281</ele>
        <time>2021-02-23T08:17:55.000Z</time>
      </trkpt>
      <trkpt lat="45.59602" lon="6.66785">
        <ele>1439.5999755859</ele>
        <time>2021-02-23T08:18:00.000Z</time>
      </trkpt>
      <trkpt lat="45.59602" lon="6.66783">
        <ele>1439.5999755859</ele>
        <time>2021-02-23T08:18:02.000Z</time>
      </trkpt>
      <trkpt lat="45.596" lon="6.6678">
        <ele>1440.4000244141</ele>
        <time>2021-02-23T08:18:10.000Z</time>
      </trkpt>
      <trkpt lat="45.596" lon="6.6678">
        <ele>1440.5999755859</ele>
        <time>2021-02-23T08:18:13.000Z</time>
      </trkpt>
      <trkpt lat="45.596" lon="6.6678">
        <ele>1441.1999511719</ele>
        <time>2021-02-23T08:18:18.000Z</time>
      </trkpt>
      <trkpt lat="45.596" lon="6.6678">
        <ele>1441.5999755859</ele>
        <time>2021-02-23T08:18:22.000Z</time>
      </trkpt>
      <trkpt lat="45.59606" lon="6.66778">
        <ele>1442.4000244141</ele>
        <time>2021-02-23T08:18:28.000Z</time>
      </trkpt>
      <trkpt lat="45.59611" lon="6.66777">
        <ele>1442.8000488281</ele>
        <time>2021-02-23T08:18:33.000Z</time>
      </trkpt>
      <trkpt lat="45.59617" lon="6.66772">
        <ele>1443.5999755859</ele>
        <time>2021-02-23T08:18:38.000Z</time>
      </trkpt>
      <trkpt lat="45.59618" lon="6.66771">
        <ele>1443.8000488281</ele>
        <time>2021-02-23T08:18:40.000Z</time>
      </trkpt>
      <trkpt lat="45.59618" lon="6.66771">
        <ele>1444.4000244141</ele>
        <time>2021-02-23T08:18:47.000Z</time>
      </trkpt>
      <trkpt lat="45.59618" lon="6.66771">
        <ele>1445</ele>
        <time>2021-02-23T08:18:53.000Z</time>
      </trkpt>
      <trkpt lat="45.59618" lon="6.66771">
        <ele>1445.1999511719</ele>
        <time>2021-02-23T08:18:54.000Z</time>
      </trkpt>
      <trkpt lat="45.59618" lon="6.66771">
        <ele>1446</ele>
        <time>2021-02-23T08:18:57.000Z</time>
      </trkpt>
      <trkpt lat="45.59618" lon="6.66771">
        <ele>1446.4000244141</ele>
        <time>2021-02-23T08:19:04.000Z</time>
      </trkpt>
      <trkpt lat="45.59621" lon="6.66771">
        <ele>1447</ele>
        <time>2021-02-23T08:19:08.000Z</time>
      </trkpt>
      <trkpt lat="45.59628" lon="6.66769">
        <ele>1447.4000244141</ele>
        <time>2021-02-23T08:19:11.000Z</time>
      </trkpt>
      <trkpt lat="45.59635" lon="6.66769">
        <ele>1447.8000488281</ele>
        <time>2021-02-23T08:19:14.000Z</time>
      </trkpt>
      <trkpt lat="45.5964" lon="6.66769">
        <ele>1448.1999511719</ele>
        <time>2021-02-23T08:19:16.000Z</time>
      </trkpt>
      <trkpt lat="45.59649" lon="6.66769">
        <ele>1448.8000488281</ele>
        <time>2021-02-23T08:19:21.000Z</time>
      </trkpt>
      <trkpt lat="45.59665" lon="6.66772">
        <ele>1449.5999755859</ele>
        <time>2021-02-23T08:19:30.000Z</time>
      </trkpt>
      <trkpt lat="45.59667" lon="6.66773">
        <ele>1449.8000488281</ele>
        <time>2021-02-23T08:19:31.000Z</time>
      </trkpt>
      <trkpt lat="45.59674" lon="6.66776">
        <ele>1450.5999755859</ele>
        <time>2021-02-23T08:19:35.000Z</time>
      </trkpt>
      <trkpt lat="45.59681" lon="6.66777">
        <ele>1450.5999755859</ele>
        <time>2021-02-23T08:19:40.000Z</time>
      </trkpt>
      <trkpt lat="45.59691" lon="6.66785">
        <ele>1451.8000488281</ele>
        <time>2021-02-23T08:19:46.000Z</time>
      </trkpt>
      <trkpt lat="45.59694" lon="6.66787">
        <ele>1452</ele>
        <time>2021-02-23T08:19:49.000Z</time>
      </trkpt>
      <trkpt lat="45.59701" lon="6.66791">
        <ele>1453</ele>
        <time>2021-02-23T08:19:56.000Z</time>
      </trkpt>
      <trkpt lat="45.59706" lon="6.66795">
        <ele>1453.4000244141</ele>
        <time>2021-02-23T08:20:00.000Z</time>
      </trkpt>
      <trkpt lat="45.59709" lon="6.66806">
        <ele>1454.4000244141</ele>
        <time>2021-02-23T08:20:05.000Z</time>
      </trkpt>
      <trkpt lat="45.59718" lon="6.66818">
        <ele>1454.8000488281</ele>
        <time>2021-02-23T08:20:14.000Z</time>
      </trkpt>
      <trkpt lat="45.59724" lon="6.66823">
        <ele>1455.4000244141</ele>
        <time>2021-02-23T08:20:18.000Z</time>
      </trkpt>
      <trkpt lat="45.59726" lon="6.66829">
        <ele>1456</ele>
        <time>2021-02-23T08:20:21.000Z</time>
      </trkpt>
      <trkpt lat="45.59733" lon="6.66835">
        <ele>1456.1999511719</ele>
        <time>2021-02-23T08:20:23.000Z</time>
      </trkpt>
      <trkpt lat="45.59734" lon="6.66837">
        <ele>1456.4000244141</ele>
        <time>2021-02-23T08:20:24.000Z</time>
      </trkpt>
      <trkpt lat="45.59736" lon="6.66851">
        <ele>1456.8000488281</ele>
        <time>2021-02-23T08:20:30.000Z</time>
      </trkpt>
      <trkpt lat="45.59737" lon="6.66862">
        <ele>1457.5999755859</ele>
        <time>2021-02-23T08:20:36.000Z</time>
      </trkpt>
      <trkpt lat="45.59737" lon="6.66865">
        <ele>1457.8000488281</ele>
        <time>2021-02-23T08:20:38.000Z</time>
      </trkpt>
      <trkpt lat="45.59737" lon="6.66877">
        <ele>1458.8000488281</ele>
        <time>2021-02-23T08:20:47.000Z</time>
      </trkpt>
      <trkpt lat="45.59737" lon="6.66888">
        <ele>1460</ele>
        <time>2021-02-23T08:20:54.000Z</time>
      </trkpt>
      <trkpt lat="45.59737" lon="6.66893">
        <ele>1460.4000244141</ele>
        <time>2021-02-23T08:20:57.000Z</time>
      </trkpt>
      <trkpt lat="45.59737" lon="6.66904">
        <ele>1460.8000488281</ele>
        <time>2021-02-23T08:21:04.000Z</time>
      </trkpt>
      <trkpt lat="45.59737" lon="6.66908">
        <ele>1461</ele>
        <time>2021-02-23T08:21:06.000Z</time>
      </trkpt>
      <trkpt lat="45.59736" lon="6.66925">
        <ele>1461.8000488281</ele>
        <time>2021-02-23T08:21:14.000Z</time>
      </trkpt>
      <trkpt lat="45.59736" lon="6.66926">
        <ele>1462</ele>
        <time>2021-02-23T08:21:15.000Z</time>
      </trkpt>
      <trkpt lat="45.5974" lon="6.66935">
        <ele>1462.5999755859</ele>
        <time>2021-02-23T08:21:22.000Z</time>
      </trkpt>
      <trkpt lat="45.59742" lon="6.66938">
        <ele>1463.1999511719</ele>
        <time>2021-02-23T08:21:26.000Z</time>
      </trkpt>
      <trkpt lat="45.59744" lon="6.66942">
        <ele>1463.5999755859</ele>
        <time>2021-02-23T08:21:29.000Z</time>
      </trkpt>
      <trkpt lat="45.59753" lon="6.66951">
        <ele>1464.4000244141</ele>
        <time>2021-02-23T08:21:36.000Z</time>
      </trkpt>
      <trkpt lat="45.59754" lon="6.66951">
        <ele>1464.5999755859</ele>
        <time>2021-02-23T08:21:38.000Z</time>
      </trkpt>
      <trkpt lat="45.59759" lon="6.6695">
        <ele>1465.4000244141</ele>
        <time>2021-02-23T08:21:43.000Z</time>
      </trkpt>
      <trkpt lat="45.59765" lon="6.6695">
        <ele>1466</ele>
        <time>2021-02-23T08:21:49.000Z</time>
      </trkpt>
      <trkpt lat="45.59777" lon="6.6695">
        <ele>1466.5999755859</ele>
        <time>2021-02-23T08:21:57.000Z</time>
      </trkpt>
      <trkpt lat="45.59786" lon="6.66948">
        <ele>1467.5999755859</ele>
        <time>2021-02-23T08:22:04.000Z</time>
      </trkpt>
      <trkpt lat="45.59786" lon="6.66948">
        <ele>1468</ele>
        <time>2021-02-23T08:22:07.000Z</time>
      </trkpt>
      <trkpt lat="45.59787" lon="6.66948">
        <ele>1468.4000244141</ele>
        <time>2021-02-23T08:22:16.000Z</time>
      </trkpt>
      <trkpt lat="45.59787" lon="6.66948">
        <ele>1468.8000488281</ele>
        <time>2021-02-23T08:22:28.000Z</time>
      </trkpt>
      <trkpt lat="45.59787" lon="6.66948">
        <ele>1467.5999755859</ele>
        <time>2021-02-23T08:22:42.000Z</time>
      </trkpt>
      <trkpt lat="45.59787" lon="6.66948">
        <ele>1467.4000244141</ele>
        <time>2021-02-23T08:22:44.000Z</time>
      </trkpt>
      <trkpt lat="45.59787" lon="6.66949">
        <ele>1468.8000488281</ele>
        <time>2021-02-23T08:22:48.000Z</time>
      </trkpt>
      <trkpt lat="45.59787" lon="6.66949">
        <ele>1468.1999511719</ele>
        <time>2021-02-23T08:22:56.000Z</time>
      </trkpt>
      <trkpt lat="45.59793" lon="6.66956">
        <ele>1468.1999511719</ele>
        <time>2021-02-23T08:23:04.000Z</time>
      </trkpt>
      <trkpt lat="45.59793" lon="6.66956">
        <ele>1468.8000488281</ele>
        <time>2021-02-23T08:23:18.000Z</time>
      </trkpt>
      <trkpt lat="45.59794" lon="6.66955">
        <ele>1468.8000488281</ele>
        <time>2021-02-23T08:23:32.000Z</time>
      </trkpt>
      <trkpt lat="45.59801" lon="6.66951">
        <ele>1469.4000244141</ele>
        <time>2021-02-23T08:23:40.000Z</time>
      </trkpt>
      <trkpt lat="45.59801" lon="6.6695">
        <ele>1469.4000244141</ele>
        <time>2021-02-23T08:23:51.000Z</time>
      </trkpt>
      <trkpt lat="45.59803" lon="6.66949">
        <ele>1469.5999755859</ele>
        <time>2021-02-23T08:24:03.000Z</time>
      </trkpt>
      <trkpt lat="45.59804" lon="6.66949">
        <ele>1469.8000488281</ele>
        <time>2021-02-23T08:24:05.000Z</time>
      </trkpt>
      <trkpt lat="45.59805" lon="6.66949">
        <ele>1468</ele>
        <time>2021-02-23T08:24:08.000Z</time>
      </trkpt>
      <trkpt lat="45.59805" lon="6.66949">
        <ele>1466.5999755859</ele>
        <time>2021-02-23T08:24:09.000Z</time>
      </trkpt>
      <trkpt lat="45.59805" lon="6.66949">
        <ele>1465.5999755859</ele>
        <time>2021-02-23T08:24:11.000Z</time>
      </trkpt>
      <trkpt lat="45.59806" lon="6.66948">
        <ele>1469.8000488281</ele>
        <time>2021-02-23T08:24:13.000Z</time>
      </trkpt>
      <trkpt lat="45.59808" lon="6.66948">
        <ele>1472</ele>
        <time>2021-02-23T08:24:14.000Z</time>
      </trkpt>
      <trkpt lat="45.5981" lon="6.66947">
        <ele>1473.1999511719</ele>
        <time>2021-02-23T08:24:15.000Z</time>
      </trkpt>
      <trkpt lat="45.59814" lon="6.66946">
        <ele>1472</ele>
        <time>2021-02-23T08:24:18.000Z</time>
      </trkpt>
      <trkpt lat="45.59817" lon="6.66946">
        <ele>1471.1999511719</ele>
        <time>2021-02-23T08:24:20.000Z</time>
      </trkpt>
      <trkpt lat="45.59817" lon="6.66946">
        <ele>1471</ele>
        <time>2021-02-23T08:24:21.000Z</time>
      </trkpt>
      <trkpt lat="45.59824" lon="6.66943">
        <ele>1471.5999755859</ele>
        <time>2021-02-23T08:24:27.000Z</time>
      </trkpt>
      <trkpt lat="45.59833" lon="6.66943">
        <ele>1472.1999511719</ele>
        <time>2021-02-23T08:24:33.000Z</time>
      </trkpt>
      <trkpt lat="45.59835" lon="6.66943">
        <ele>1472.1999511719</ele>
        <time>2021-02-23T08:24:34.000Z</time>
      </trkpt>
      <trkpt lat="45.59841" lon="6.66941">
        <ele>1472.8000488281</ele>
        <time>2021-02-23T08:24:43.000Z</time>
      </trkpt>
      <trkpt lat="45.59843" lon="6.6694">
        <ele>1473.1999511719</ele>
        <time>2021-02-23T08:24:45.000Z</time>
      </trkpt>
      <trkpt lat="45.59854" lon="6.66939">
        <ele>1474.1999511719</ele>
        <time>2021-02-23T08:24:52.000Z</time>
      </trkpt>
      <trkpt lat="45.59857" lon="6.66939">
        <ele>1474.4000244141</ele>
        <time>2021-02-23T08:24:54.000Z</time>
      </trkpt>
      <trkpt lat="45.59864" lon="6.6694">
        <ele>1475.4000244141</ele>
        <time>2021-02-23T08:24:58.000Z</time>
      </trkpt>
      <trkpt lat="45.59865" lon="6.66941">
        <ele>1476</ele>
        <time>2021-02-23T08:25:00.000Z</time>
      </trkpt>
      <trkpt lat="45.59869" lon="6.66943">
        <ele>1476.1999511719</ele>
        <time>2021-02-23T08:25:06.000Z</time>
      </trkpt>
      <trkpt lat="45.59875" lon="6.66947">
        <ele>1476.1999511719</ele>
        <time>2021-02-23T08:25:13.000Z</time>
      </trkpt>
      <trkpt lat="45.59878" lon="6.66948">
        <ele>1476.4000244141</ele>
        <time>2021-02-23T08:25:15.000Z</time>
      </trkpt>
      <trkpt lat="45.59884" lon="6.66953">
        <ele>1477.1999511719</ele>
        <time>2021-02-23T08:25:21.000Z</time>
      </trkpt>
      <trkpt lat="45.59889" lon="6.66959">
        <ele>1477.5999755859</ele>
        <time>2021-02-23T08:25:26.000Z</time>
      </trkpt>
      <trkpt lat="45.59891" lon="6.66963">
        <ele>1477.8000488281</ele>
        <time>2021-02-23T08:25:29.000Z</time>
      </trkpt>
      <trkpt lat="45.59894" lon="6.66969">
        <ele>1478.8000488281</ele>
        <time>2021-02-23T08:25:35.000Z</time>
      </trkpt>
      <trkpt lat="45.59896" lon="6.66971">
        <ele>1479.4000244141</ele>
        <time>2021-02-23T08:25:38.000Z</time>
      </trkpt>
      <trkpt lat="45.59898" lon="6.66973">
        <ele>1480</ele>
        <time>2021-02-23T08:25:41.000Z</time>
      </trkpt>
      <trkpt lat="45.59903" lon="6.66981">
        <ele>1480.1999511719</ele>
        <time>2021-02-23T08:25:48.000Z</time>
      </trkpt>
      <trkpt lat="45.59909" lon="6.66991">
        <ele>1481</ele>
        <time>2021-02-23T08:25:56.000Z</time>
      </trkpt>
      <trkpt lat="45.59912" lon="6.66993">
        <ele>1481.4000244141</ele>
        <time>2021-02-23T08:25:59.000Z</time>
      </trkpt>
      <trkpt lat="45.59918" lon="6.67">
        <ele>1482</ele>
        <time>2021-02-23T08:26:05.000Z</time>
      </trkpt>
      <trkpt lat="45.59921" lon="6.67002">
        <ele>1482.4000244141</ele>
        <time>2021-02-23T08:26:08.000Z</time>
      </trkpt>
      <trkpt lat="45.59926" lon="6.67005">
        <ele>1483</ele>
        <time>2021-02-23T08:26:14.000Z</time>
      </trkpt>
      <trkpt lat="45.5993" lon="6.67007">
        <ele>1483.4000244141</ele>
        <time>2021-02-23T08:26:18.000Z</time>
      </trkpt>
      <trkpt lat="45.59936" lon="6.67007">
        <ele>1484.1999511719</ele>
        <time>2021-02-23T08:26:23.000Z</time>
      </trkpt>
      <trkpt lat="45.59942" lon="6.67009">
        <ele>1484.4000244141</ele>
        <time>2021-02-23T08:26:29.000Z</time>
      </trkpt>
      <trkpt lat="45.59948" lon="6.67012">
        <ele>1485.4000244141</ele>
        <time>2021-02-23T08:26:37.000Z</time>
      </trkpt>
      <trkpt lat="45.59948" lon="6.67012">
        <ele>1485.4000244141</ele>
        <time>2021-02-23T08:26:39.000Z</time>
      </trkpt>
      <trkpt lat="45.59949" lon="6.67012">
        <ele>1486.4000244141</ele>
        <time>2021-02-23T08:26:45.000Z</time>
      </trkpt>
      <trkpt lat="45.59951" lon="6.67013">
        <ele>1486.8000488281</ele>
        <time>2021-02-23T08:26:48.000Z</time>
      </trkpt>
      <trkpt lat="45.59963" lon="6.67018">
        <ele>1487.4000244141</ele>
        <time>2021-02-23T08:26:54.000Z</time>
      </trkpt>
      <trkpt lat="45.59966" lon="6.67018">
        <ele>1487.8000488281</ele>
        <time>2021-02-23T08:26:58.000Z</time>
      </trkpt>
      <trkpt lat="45.59972" lon="6.67019">
        <ele>1488.4000244141</ele>
        <time>2021-02-23T08:27:02.000Z</time>
      </trkpt>
      <trkpt lat="45.59985" lon="6.67019">
        <ele>1488.5999755859</ele>
        <time>2021-02-23T08:27:08.000Z</time>
      </trkpt>
      <trkpt lat="45.59988" lon="6.6702">
        <ele>1489.5999755859</ele>
        <time>2021-02-23T08:27:12.000Z</time>
      </trkpt>
      <trkpt lat="45.59988" lon="6.6702">
        <ele>1490.1999511719</ele>
        <time>2021-02-23T08:27:19.000Z</time>
      </trkpt>
      <trkpt lat="45.59988" lon="6.6702">
        <ele>1490.5999755859</ele>
        <time>2021-02-23T08:27:22.000Z</time>
      </trkpt>
      <trkpt lat="45.59992" lon="6.6702">
        <ele>1491.4000244141</ele>
        <time>2021-02-23T08:27:30.000Z</time>
      </trkpt>
      <trkpt lat="45.59997" lon="6.67021">
        <ele>1491.8000488281</ele>
        <time>2021-02-23T08:27:33.000Z</time>
      </trkpt>
      <trkpt lat="45.60012" lon="6.67029">
        <ele>1492.5999755859</ele>
        <time>2021-02-23T08:27:41.000Z</time>
      </trkpt>
      <trkpt lat="45.60013" lon="6.6703">
        <ele>1492.8000488281</ele>
        <time>2021-02-23T08:27:42.000Z</time>
      </trkpt>
      <trkpt lat="45.60027" lon="6.67029">
        <ele>1493.8000488281</ele>
        <time>2021-02-23T08:27:50.000Z</time>
      </trkpt>
      <trkpt lat="45.60028" lon="6.67029">
        <ele>1494</ele>
        <time>2021-02-23T08:27:51.000Z</time>
      </trkpt>
      <trkpt lat="45.60036" lon="6.67036">
        <ele>1495</ele>
        <time>2021-02-23T08:27:58.000Z</time>
      </trkpt>
      <trkpt lat="45.60037" lon="6.67038">
        <ele>1495.1999511719</ele>
        <time>2021-02-23T08:27:59.000Z</time>
      </trkpt>
      <trkpt lat="45.60044" lon="6.67049">
        <ele>1495.8000488281</ele>
        <time>2021-02-23T08:28:07.000Z</time>
      </trkpt>
      <trkpt lat="45.60046" lon="6.67053">
        <ele>1496</ele>
        <time>2021-02-23T08:28:10.000Z</time>
      </trkpt>
      <trkpt lat="45.60051" lon="6.67061">
        <ele>1496.5999755859</ele>
        <time>2021-02-23T08:28:17.000Z</time>
      </trkpt>
      <trkpt lat="45.60053" lon="6.67068">
        <ele>1497.1999511719</ele>
        <time>2021-02-23T08:28:21.000Z</time>
      </trkpt>
      <trkpt lat="45.60055" lon="6.67073">
        <ele>1497.5999755859</ele>
        <time>2021-02-23T08:28:24.000Z</time>
      </trkpt>
      <trkpt lat="45.60057" lon="6.67084">
        <ele>1498.1999511719</ele>
        <time>2021-02-23T08:28:31.000Z</time>
      </trkpt>
      <trkpt lat="45.60057" lon="6.67086">
        <ele>1498.4000244141</ele>
        <time>2021-02-23T08:28:32.000Z</time>
      </trkpt>
      <trkpt lat="45.60059" lon="6.67095">
        <ele>1499.1999511719</ele>
        <time>2021-02-23T08:28:39.000Z</time>
      </trkpt>
      <trkpt lat="45.60059" lon="6.67096">
        <ele>1499.4000244141</ele>
        <time>2021-02-23T08:28:40.000Z</time>
      </trkpt>
      <trkpt lat="45.6006" lon="6.67105">
        <ele>1499.5999755859</ele>
        <time>2021-02-23T08:28:47.000Z</time>
      </trkpt>
      <trkpt lat="45.60061" lon="6.67112">
        <ele>1500.4000244141</ele>
        <time>2021-02-23T08:28:51.000Z</time>
      </trkpt>
      <trkpt lat="45.60061" lon="6.67115">
        <ele>1500.8000488281</ele>
        <time>2021-02-23T08:28:54.000Z</time>
      </trkpt>
      <trkpt lat="45.60062" lon="6.67126">
        <ele>1501.8000488281</ele>
        <time>2021-02-23T08:29:02.000Z</time>
      </trkpt>
      <trkpt lat="45.60062" lon="6.67128">
        <ele>1502.5999755859</ele>
        <time>2021-02-23T08:29:03.000Z</time>
      </trkpt>
      <trkpt lat="45.60065" lon="6.67137">
        <ele>1502</ele>
        <time>2021-02-23T08:29:09.000Z</time>
      </trkpt>
      <trkpt lat="45.60069" lon="6.67141">
        <ele>1503</ele>
        <time>2021-02-23T08:29:19.000Z</time>
      </trkpt>
      <trkpt lat="45.60079" lon="6.67136">
        <ele>1503.8000488281</ele>
        <time>2021-02-23T08:29:30.000Z</time>
      </trkpt>
      <trkpt lat="45.6008" lon="6.67135">
        <ele>1504</ele>
        <time>2021-02-23T08:29:31.000Z</time>
      </trkpt>
      <trkpt lat="45.60082" lon="6.67131">
        <ele>1505</ele>
        <time>2021-02-23T08:29:34.000Z</time>
      </trkpt>
      <trkpt lat="45.60082" lon="6.67127">
        <ele>1505.5999755859</ele>
        <time>2021-02-23T08:29:37.000Z</time>
      </trkpt>
      <trkpt lat="45.60083" lon="6.67123">
        <ele>1506.1999511719</ele>
        <time>2021-02-23T08:29:40.000Z</time>
      </trkpt>
      <trkpt lat="45.60086" lon="6.67119">
        <ele>1507.1999511719</ele>
        <time>2021-02-23T08:29:45.000Z</time>
      </trkpt>
      <trkpt lat="45.60087" lon="6.67118">
        <ele>1507.4000244141</ele>
        <time>2021-02-23T08:29:46.000Z</time>
      </trkpt>
      <trkpt lat="45.6009" lon="6.67114">
        <ele>1508.4000244141</ele>
        <time>2021-02-23T08:29:53.000Z</time>
      </trkpt>
      <trkpt lat="45.6009" lon="6.67114">
        <ele>1508.5999755859</ele>
        <time>2021-02-23T08:29:54.000Z</time>
      </trkpt>
      <trkpt lat="45.60094" lon="6.6711">
        <ele>1509.5999755859</ele>
        <time>2021-02-23T08:29:58.000Z</time>
      </trkpt>
      <trkpt lat="45.60096" lon="6.67108">
        <ele>1509.8000488281</ele>
        <time>2021-02-23T08:30:01.000Z</time>
      </trkpt>
      <trkpt lat="45.601" lon="6.67108">
        <ele>1510.8000488281</ele>
        <time>2021-02-23T08:30:06.000Z</time>
      </trkpt>
      <trkpt lat="45.60103" lon="6.67108">
        <ele>1512</ele>
        <time>2021-02-23T08:30:11.000Z</time>
      </trkpt>
      <trkpt lat="45.60104" lon="6.67109">
        <ele>1512.4000244141</ele>
        <time>2021-02-23T08:30:13.000Z</time>
      </trkpt>
      <trkpt lat="45.60108" lon="6.67116">
        <ele>1513</ele>
        <time>2021-02-23T08:30:18.000Z</time>
      </trkpt>
      <trkpt lat="45.6011" lon="6.6712">
        <ele>1514.1999511719</ele>
        <time>2021-02-23T08:30:22.000Z</time>
      </trkpt>
      <trkpt lat="45.60111" lon="6.6712">
        <ele>1514.4000244141</ele>
        <time>2021-02-23T08:30:23.000Z</time>
      </trkpt>
      <trkpt lat="45.60114" lon="6.67125">
        <ele>1515.4000244141</ele>
        <time>2021-02-23T08:30:29.000Z</time>
      </trkpt>
      <trkpt lat="45.60118" lon="6.67128">
        <ele>1516.4000244141</ele>
        <time>2021-02-23T08:30:34.000Z</time>
      </trkpt>
      <trkpt lat="45.6012" lon="6.6713">
        <ele>1516.8000488281</ele>
        <time>2021-02-23T08:30:37.000Z</time>
      </trkpt>
      <trkpt lat="45.60125" lon="6.67131">
        <ele>1517.4000244141</ele>
        <time>2021-02-23T08:30:43.000Z</time>
      </trkpt>
      <trkpt lat="45.60128" lon="6.67131">
        <ele>1518.1999511719</ele>
        <time>2021-02-23T08:30:46.000Z</time>
      </trkpt>
      <trkpt lat="45.6013" lon="6.67131">
        <ele>1518.5999755859</ele>
        <time>2021-02-23T08:30:48.000Z</time>
      </trkpt>
      <trkpt lat="45.60134" lon="6.67132">
        <ele>1519.8000488281</ele>
        <time>2021-02-23T08:30:53.000Z</time>
      </trkpt>
      <trkpt lat="45.60137" lon="6.67133">
        <ele>1520</ele>
        <time>2021-02-23T08:30:55.000Z</time>
      </trkpt>
      <trkpt lat="45.60143" lon="6.67129">
        <ele>1520.8000488281</ele>
        <time>2021-02-23T08:31:00.000Z</time>
      </trkpt>
      <trkpt lat="45.60142" lon="6.67127">
        <ele>1521.1999511719</ele>
        <time>2021-02-23T08:31:02.000Z</time>
      </trkpt>
      <trkpt lat="45.60143" lon="6.67124">
        <ele>1522</ele>
        <time>2021-02-23T08:31:05.000Z</time>
      </trkpt>
      <trkpt lat="45.60146" lon="6.67121">
        <ele>1522.8000488281</ele>
        <time>2021-02-23T08:31:09.000Z</time>
      </trkpt>
      <trkpt lat="45.60148" lon="6.6712">
        <ele>1523</ele>
        <time>2021-02-23T08:31:11.000Z</time>
      </trkpt>
      <trkpt lat="45.60153" lon="6.67122">
        <ele>1524</ele>
        <time>2021-02-23T08:31:16.000Z</time>
      </trkpt>
      <trkpt lat="45.60155" lon="6.67124">
        <ele>1525</ele>
        <time>2021-02-23T08:31:19.000Z</time>
      </trkpt>
      <trkpt lat="45.60156" lon="6.67124">
        <ele>1525</ele>
        <time>2021-02-23T08:31:20.000Z</time>
      </trkpt>
      <trkpt lat="45.60163" lon="6.67124">
        <ele>1526.1999511719</ele>
        <time>2021-02-23T08:31:27.000Z</time>
      </trkpt>
      <trkpt lat="45.60163" lon="6.67124">
        <ele>1526.4000244141</ele>
        <time>2021-02-23T08:31:28.000Z</time>
      </trkpt>
      <trkpt lat="45.60168" lon="6.67124">
        <ele>1527.1999511719</ele>
        <time>2021-02-23T08:31:34.000Z</time>
      </trkpt>
      <trkpt lat="45.60171" lon="6.67125">
        <ele>1528</ele>
        <time>2021-02-23T08:31:38.000Z</time>
      </trkpt>
      <trkpt lat="45.60171" lon="6.67125">
        <ele>1528.4000244141</ele>
        <time>2021-02-23T08:31:39.000Z</time>
      </trkpt>
      <trkpt lat="45.60173" lon="6.67125">
        <ele>1529.4000244141</ele>
        <time>2021-02-23T08:31:44.000Z</time>
      </trkpt>
      <trkpt lat="45.60178" lon="6.67123">
        <ele>1530.5999755859</ele>
        <time>2021-02-23T08:31:53.000Z</time>
      </trkpt>
      <trkpt lat="45.60183" lon="6.67127">
        <ele>1531.8000488281</ele>
        <time>2021-02-23T08:31:59.000Z</time>
      </trkpt>
      <trkpt lat="45.60184" lon="6.67133">
        <ele>1532.8000488281</ele>
        <time>2021-02-23T08:32:03.000Z</time>
      </trkpt>
      <trkpt lat="45.60184" lon="6.67135">
        <ele>1533</ele>
        <time>2021-02-23T08:32:04.000Z</time>
      </trkpt>
      <trkpt lat="45.60182" lon="6.67142">
        <ele>1533.5999755859</ele>
        <time>2021-02-23T08:32:09.000Z</time>
      </trkpt>
      <trkpt lat="45.60181" lon="6.67146">
        <ele>1534</ele>
        <time>2021-02-23T08:32:12.000Z</time>
      </trkpt>
      <trkpt lat="45.60179" lon="6.67154">
        <ele>1534.5999755859</ele>
        <time>2021-02-23T08:32:18.000Z</time>
      </trkpt>
      <trkpt lat="45.60175" lon="6.67161">
        <ele>1534.5999755859</ele>
        <time>2021-02-23T08:32:25.000Z</time>
      </trkpt>
      <trkpt lat="45.60172" lon="6.67168">
        <ele>1535.1999511719</ele>
        <time>2021-02-23T08:32:30.000Z</time>
      </trkpt>
      <trkpt lat="45.60172" lon="6.6717">
        <ele>1535.5999755859</ele>
        <time>2021-02-23T08:32:32.000Z</time>
      </trkpt>
      <trkpt lat="45.60169" lon="6.67177">
        <ele>1535.8000488281</ele>
        <time>2021-02-23T08:32:36.000Z</time>
      </trkpt>
      <trkpt lat="45.60167" lon="6.67182">
        <ele>1536.1999511719</ele>
        <time>2021-02-23T08:32:39.000Z</time>
      </trkpt>
      <trkpt lat="45.60166" lon="6.67184">
        <ele>1536.1999511719</ele>
        <time>2021-02-23T08:32:41.000Z</time>
      </trkpt>
      <trkpt lat="45.60164" lon="6.67189">
        <ele>1537.1999511719</ele>
        <time>2021-02-23T08:32:46.000Z</time>
      </trkpt>
      <trkpt lat="45.6016" lon="6.67197">
        <ele>1538.1999511719</ele>
        <time>2021-02-23T08:32:54.000Z</time>
      </trkpt>
      <trkpt lat="45.60159" lon="6.67202">
        <ele>1538.4000244141</ele>
        <time>2021-02-23T08:32:57.000Z</time>
      </trkpt>
      <trkpt lat="45.60158" lon="6.67212">
        <ele>1538.8000488281</ele>
        <time>2021-02-23T08:33:02.000Z</time>
      </trkpt>
      <trkpt lat="45.60158" lon="6.67219">
        <ele>1539.4000244141</ele>
        <time>2021-02-23T08:33:07.000Z</time>
      </trkpt>
      <trkpt lat="45.6016" lon="6.67223">
        <ele>1539.5999755859</ele>
        <time>2021-02-23T08:33:09.000Z</time>
      </trkpt>
      <trkpt lat="45.60166" lon="6.67231">
        <ele>1540.4000244141</ele>
        <time>2021-02-23T08:33:18.000Z</time>
      </trkpt>
      <trkpt lat="45.60167" lon="6.67232">
        <ele>1540.4000244141</ele>
        <time>2021-02-23T08:33:19.000Z</time>
      </trkpt>
      <trkpt lat="45.60172" lon="6.67238">
        <ele>1541</ele>
        <time>2021-02-23T08:33:26.000Z</time>
      </trkpt>
      <trkpt lat="45.60177" lon="6.67237">
        <ele>1541.5999755859</ele>
        <time>2021-02-23T08:33:30.000Z</time>
      </trkpt>
      <trkpt lat="45.60183" lon="6.6724">
        <ele>1542</ele>
        <time>2021-02-23T08:33:35.000Z</time>
      </trkpt>
      <trkpt lat="45.60189" lon="6.67242">
        <ele>1542.8000488281</ele>
        <time>2021-02-23T08:33:41.000Z</time>
      </trkpt>
      <trkpt lat="45.60191" lon="6.67245">
        <ele>1543.5999755859</ele>
        <time>2021-02-23T08:33:44.000Z</time>
      </trkpt>
      <trkpt lat="45.60195" lon="6.67249">
        <ele>1543.8000488281</ele>
        <time>2021-02-23T08:33:48.000Z</time>
      </trkpt>
      <trkpt lat="45.60204" lon="6.67252">
        <ele>1544.1999511719</ele>
        <time>2021-02-23T08:33:54.000Z</time>
      </trkpt>
      <trkpt lat="45.60216" lon="6.67254">
        <ele>1545</ele>
        <time>2021-02-23T08:34:02.000Z</time>
      </trkpt>
      <trkpt lat="45.60218" lon="6.67254">
        <ele>1545.4000244141</ele>
        <time>2021-02-23T08:34:04.000Z</time>
      </trkpt>
      <trkpt lat="45.60225" lon="6.67255">
        <ele>1546</ele>
        <time>2021-02-23T08:34:13.000Z</time>
      </trkpt>
      <trkpt lat="45.60226" lon="6.67255">
        <ele>1546</ele>
        <time>2021-02-23T08:34:14.000Z</time>
      </trkpt>
      <trkpt lat="45.60235" lon="6.67261">
        <ele>1546.5999755859</ele>
        <time>2021-02-23T08:34:24.000Z</time>
      </trkpt>
      <trkpt lat="45.60238" lon="6.67262">
        <ele>1547</ele>
        <time>2021-02-23T08:34:27.000Z</time>
      </trkpt>
      <trkpt lat="45.60248" lon="6.67263">
        <ele>1547.8000488281</ele>
        <time>2021-02-23T08:34:36.000Z</time>
      </trkpt>
      <trkpt lat="45.60252" lon="6.67263">
        <ele>1548.1999511719</ele>
        <time>2021-02-23T08:34:40.000Z</time>
      </trkpt>
      <trkpt lat="45.60254" lon="6.67261">
        <ele>1548.4000244141</ele>
        <time>2021-02-23T08:34:45.000Z</time>
      </trkpt>
      <trkpt lat="45.60261" lon="6.67264">
        <ele>1549.1999511719</ele>
        <time>2021-02-23T08:34:54.000Z</time>
      </trkpt>
      <trkpt lat="45.60263" lon="6.67264">
        <ele>1549.1999511719</ele>
        <time>2021-02-23T08:34:55.000Z</time>
      </trkpt>
      <trkpt lat="45.60269" lon="6.67266">
        <ele>1549.5999755859</ele>
        <time>2021-02-23T08:35:01.000Z</time>
      </trkpt>
      <trkpt lat="45.60279" lon="6.67272">
        <ele>1550.1999511719</ele>
        <time>2021-02-23T08:35:10.000Z</time>
      </trkpt>
      <trkpt lat="45.60287" lon="6.67277">
        <ele>1551.4000244141</ele>
        <time>2021-02-23T08:35:20.000Z</time>
      </trkpt>
      <trkpt lat="45.60296" lon="6.67282">
        <ele>1552.1999511719</ele>
        <time>2021-02-23T08:35:29.000Z</time>
      </trkpt>
      <trkpt lat="45.60297" lon="6.67283">
        <ele>1552.4000244141</ele>
        <time>2021-02-23T08:35:31.000Z</time>
      </trkpt>
      <trkpt lat="45.60302" lon="6.67287">
        <ele>1553</ele>
        <time>2021-02-23T08:35:38.000Z</time>
      </trkpt>
      <trkpt lat="45.60305" lon="6.67288">
        <ele>1553.4000244141</ele>
        <time>2021-02-23T08:35:41.000Z</time>
      </trkpt>
      <trkpt lat="45.60311" lon="6.67291">
        <ele>1553.8000488281</ele>
        <time>2021-02-23T08:35:47.000Z</time>
      </trkpt>
      <trkpt lat="45.60315" lon="6.67293">
        <ele>1554.5999755859</ele>
        <time>2021-02-23T08:35:52.000Z</time>
      </trkpt>
      <trkpt lat="45.6032" lon="6.67296">
        <ele>1554.8000488281</ele>
        <time>2021-02-23T08:35:56.000Z</time>
      </trkpt>
      <trkpt lat="45.60328" lon="6.673">
        <ele>1555.4000244141</ele>
        <time>2021-02-23T08:36:05.000Z</time>
      </trkpt>
      <trkpt lat="45.60329" lon="6.673">
        <ele>1555.5999755859</ele>
        <time>2021-02-23T08:36:06.000Z</time>
      </trkpt>
      <trkpt lat="45.6034" lon="6.67306">
        <ele>1556.5999755859</ele>
        <time>2021-02-23T08:36:16.000Z</time>
      </trkpt>
      <trkpt lat="45.60343" lon="6.67308">
        <ele>1556.5999755859</ele>
        <time>2021-02-23T08:36:19.000Z</time>
      </trkpt>
      <trkpt lat="45.60349" lon="6.6731">
        <ele>1557.8000488281</ele>
        <time>2021-02-23T08:36:26.000Z</time>
      </trkpt>
      <trkpt lat="45.60361" lon="6.67315">
        <ele>1558</ele>
        <time>2021-02-23T08:36:36.000Z</time>
      </trkpt>
      <trkpt lat="45.60367" lon="6.67319">
        <ele>1558.4000244141</ele>
        <time>2021-02-23T08:36:43.000Z</time>
      </trkpt>
      <trkpt lat="45.60367" lon="6.67319">
        <ele>1558.8000488281</ele>
        <time>2021-02-23T08:36:46.000Z</time>
      </trkpt>
      <trkpt lat="45.60367" lon="6.67319">
        <ele>1558.8000488281</ele>
        <time>2021-02-23T08:36:55.000Z</time>
      </trkpt>
      <trkpt lat="45.60372" lon="6.67322">
        <ele>1559.1999511719</ele>
        <time>2021-02-23T08:37:02.000Z</time>
      </trkpt>
      <trkpt lat="45.60376" lon="6.67324">
        <ele>1559.8000488281</ele>
        <time>2021-02-23T08:37:07.000Z</time>
      </trkpt>
      <trkpt lat="45.60381" lon="6.67327">
        <ele>1560.1999511719</ele>
        <time>2021-02-23T08:37:11.000Z</time>
      </trkpt>
      <trkpt lat="45.60387" lon="6.67332">
        <ele>1560.4000244141</ele>
        <time>2021-02-23T08:37:19.000Z</time>
      </trkpt>
      <trkpt lat="45.60387" lon="6.67332">
        <ele>1561</ele>
        <time>2021-02-23T08:37:23.000Z</time>
      </trkpt>
      <trkpt lat="45.60388" lon="6.67333">
        <ele>1561.8000488281</ele>
        <time>2021-02-23T08:37:31.000Z</time>
      </trkpt>
      <trkpt lat="45.60394" lon="6.6733">
        <ele>1561.5999755859</ele>
        <time>2021-02-23T08:37:43.000Z</time>
      </trkpt>
      <trkpt lat="45.60395" lon="6.67329">
        <ele>1562</ele>
        <time>2021-02-23T08:37:49.000Z</time>
      </trkpt>
      <trkpt lat="45.60397" lon="6.67329">
        <ele>1562.1999511719</ele>
        <time>2021-02-23T08:37:51.000Z</time>
      </trkpt>
      <trkpt lat="45.60403" lon="6.67332">
        <ele>1562.1999511719</ele>
        <time>2021-02-23T08:38:00.000Z</time>
      </trkpt>
      <trkpt lat="45.60409" lon="6.67331">
        <ele>1563.1999511719</ele>
        <time>2021-02-23T08:38:07.000Z</time>
      </trkpt>
      <trkpt lat="45.60414" lon="6.67332">
        <ele>1563.5999755859</ele>
        <time>2021-02-23T08:38:12.000Z</time>
      </trkpt>
      <trkpt lat="45.60419" lon="6.67334">
        <ele>1564.1999511719</ele>
        <time>2021-02-23T08:38:16.000Z</time>
      </trkpt>
      <trkpt lat="45.60424" lon="6.67337">
        <ele>1564.5999755859</ele>
        <time>2021-02-23T08:38:20.000Z</time>
      </trkpt>
      <trkpt lat="45.60433" lon="6.67344">
        <ele>1564.8000488281</ele>
        <time>2021-02-23T08:38:28.000Z</time>
      </trkpt>
      <trkpt lat="45.60439" lon="6.67349">
        <ele>1565.1999511719</ele>
        <time>2021-02-23T08:38:37.000Z</time>
      </trkpt>
      <trkpt lat="45.60441" lon="6.67349">
        <ele>1565.5999755859</ele>
        <time>2021-02-23T08:38:40.000Z</time>
      </trkpt>
      <trkpt lat="45.60452" lon="6.67355">
        <ele>1566.1999511719</ele>
        <time>2021-02-23T08:38:47.000Z</time>
      </trkpt>
      <trkpt lat="45.60455" lon="6.67359">
        <ele>1566.4000244141</ele>
        <time>2021-02-23T08:38:50.000Z</time>
      </trkpt>
      <trkpt lat="45.60462" lon="6.67365">
        <ele>1567.1999511719</ele>
        <time>2021-02-23T08:39:00.000Z</time>
      </trkpt>
      <trkpt lat="45.60463" lon="6.67365">
        <ele>1567.4000244141</ele>
        <time>2021-02-23T08:39:01.000Z</time>
      </trkpt>
      <trkpt lat="45.60469" lon="6.67372">
        <ele>1568</ele>
        <time>2021-02-23T08:39:11.000Z</time>
      </trkpt>
      <trkpt lat="45.6047" lon="6.67375">
        <ele>1568.4000244141</ele>
        <time>2021-02-23T08:39:14.000Z</time>
      </trkpt>
      <trkpt lat="45.60478" lon="6.67381">
        <ele>1569.4000244141</ele>
        <time>2021-02-23T08:39:22.000Z</time>
      </trkpt>
      <trkpt lat="45.60487" lon="6.67391">
        <ele>1570.4000244141</ele>
        <time>2021-02-23T08:39:33.000Z</time>
      </trkpt>
      <trkpt lat="45.60488" lon="6.67392">
        <ele>1570.5999755859</ele>
        <time>2021-02-23T08:39:34.000Z</time>
      </trkpt>
      <trkpt lat="45.60494" lon="6.67397">
        <ele>1571.5999755859</ele>
        <time>2021-02-23T08:39:41.000Z</time>
      </trkpt>
      <trkpt lat="45.60498" lon="6.674">
        <ele>1571.8000488281</ele>
        <time>2021-02-23T08:39:46.000Z</time>
      </trkpt>
      <trkpt lat="45.60504" lon="6.67402">
        <ele>1572.5999755859</ele>
        <time>2021-02-23T08:39:51.000Z</time>
      </trkpt>
      <trkpt lat="45.6051" lon="6.67408">
        <ele>1572.5999755859</ele>
        <time>2021-02-23T08:39:55.000Z</time>
      </trkpt>
      <trkpt lat="45.60516" lon="6.67415">
        <ele>1573.8000488281</ele>
        <time>2021-02-23T08:40:05.000Z</time>
      </trkpt>
      <trkpt lat="45.60517" lon="6.67416">
        <ele>1574</ele>
        <time>2021-02-23T08:40:06.000Z</time>
      </trkpt>
      <trkpt lat="45.6052" lon="6.67419">
        <ele>1574.8000488281</ele>
        <time>2021-02-23T08:40:12.000Z</time>
      </trkpt>
      <trkpt lat="45.60523" lon="6.67422">
        <ele>1575.1999511719</ele>
        <time>2021-02-23T08:40:17.000Z</time>
      </trkpt>
      <trkpt lat="45.60528" lon="6.67425">
        <ele>1575.8000488281</ele>
        <time>2021-02-23T08:40:22.000Z</time>
      </trkpt>
      <trkpt lat="45.60533" lon="6.67427">
        <ele>1576.4000244141</ele>
        <time>2021-02-23T08:40:28.000Z</time>
      </trkpt>
      <trkpt lat="45.60536" lon="6.67431">
        <ele>1576.8000488281</ele>
        <time>2021-02-23T08:40:33.000Z</time>
      </trkpt>
      <trkpt lat="45.6054" lon="6.67433">
        <ele>1577.5999755859</ele>
        <time>2021-02-23T08:40:37.000Z</time>
      </trkpt>
      <trkpt lat="45.60544" lon="6.67437">
        <ele>1577.8000488281</ele>
        <time>2021-02-23T08:40:41.000Z</time>
      </trkpt>
      <trkpt lat="45.6055" lon="6.6744">
        <ele>1579</ele>
        <time>2021-02-23T08:40:48.000Z</time>
      </trkpt>
      <trkpt lat="45.60555" lon="6.67444">
        <ele>1579.4000244141</ele>
        <time>2021-02-23T08:40:51.000Z</time>
      </trkpt>
      <trkpt lat="45.60563" lon="6.67446">
        <ele>1579.8000488281</ele>
        <time>2021-02-23T08:41:00.000Z</time>
      </trkpt>
      <trkpt lat="45.60564" lon="6.67446">
        <ele>1580</ele>
        <time>2021-02-23T08:41:01.000Z</time>
      </trkpt>
      <trkpt lat="45.60572" lon="6.67454">
        <ele>1580.8000488281</ele>
        <time>2021-02-23T08:41:10.000Z</time>
      </trkpt>
      <trkpt lat="45.60573" lon="6.67455">
        <ele>1581</ele>
        <time>2021-02-23T08:41:12.000Z</time>
      </trkpt>
      <trkpt lat="45.60577" lon="6.67456">
        <ele>1581.1999511719</ele>
        <time>2021-02-23T08:41:16.000Z</time>
      </trkpt>
      <trkpt lat="45.60581" lon="6.67459">
        <ele>1581</ele>
        <time>2021-02-23T08:41:19.000Z</time>
      </trkpt>
      <trkpt lat="45.60591" lon="6.67471">
        <ele>1580</ele>
        <time>2021-02-23T08:41:27.000Z</time>
      </trkpt>
      <trkpt lat="45.60601" lon="6.67479">
        <ele>1578.8000488281</ele>
        <time>2021-02-23T08:41:34.000Z</time>
      </trkpt>
      <trkpt lat="45.60604" lon="6.67481">
        <ele>1578</ele>
        <time>2021-02-23T08:41:38.000Z</time>
      </trkpt>
      <trkpt lat="45.60606" lon="6.67481">
        <ele>1577.8000488281</ele>
        <time>2021-02-23T08:41:40.000Z</time>
      </trkpt>
      <trkpt lat="45.60614" lon="6.67483">
        <ele>1577.5999755859</ele>
        <time>2021-02-23T08:41:47.000Z</time>
      </trkpt>
      <trkpt lat="45.60628" lon="6.67484">
        <ele>1578</ele>
        <time>2021-02-23T08:41:59.000Z</time>
      </trkpt>
      <trkpt lat="45.60638" lon="6.67483">
        <ele>1578.8000488281</ele>
        <time>2021-02-23T08:42:08.000Z</time>
      </trkpt>
      <trkpt lat="45.60639" lon="6.67482">
        <ele>1578.8000488281</ele>
        <time>2021-02-23T08:42:09.000Z</time>
      </trkpt>
      <trkpt lat="45.60651" lon="6.67482">
        <ele>1579.1999511719</ele>
        <time>2021-02-23T08:42:20.000Z</time>
      </trkpt>
      <trkpt lat="45.6066" lon="6.67485">
        <ele>1579.4000244141</ele>
        <time>2021-02-23T08:42:30.000Z</time>
      </trkpt>
      <trkpt lat="45.60669" lon="6.67488">
        <ele>1580</ele>
        <time>2021-02-23T08:42:38.000Z</time>
      </trkpt>
      <trkpt lat="45.60671" lon="6.67492">
        <ele>1580.4000244141</ele>
        <time>2021-02-23T08:42:41.000Z</time>
      </trkpt>
      <trkpt lat="45.60679" lon="6.67501">
        <ele>1580.4000244141</ele>
        <time>2021-02-23T08:42:50.000Z</time>
      </trkpt>
      <trkpt lat="45.60686" lon="6.67508">
        <ele>1580.5999755859</ele>
        <time>2021-02-23T08:43:00.000Z</time>
      </trkpt>
      <trkpt lat="45.60693" lon="6.67513">
        <ele>1581</ele>
        <time>2021-02-23T08:43:07.000Z</time>
      </trkpt>
      <trkpt lat="45.60696" lon="6.67517">
        <ele>1581.1999511719</ele>
        <time>2021-02-23T08:43:11.000Z</time>
      </trkpt>
      <trkpt lat="45.60702" lon="6.6753">
        <ele>1581</ele>
        <time>2021-02-23T08:43:19.000Z</time>
      </trkpt>
      <trkpt lat="45.60704" lon="6.67546">
        <ele>1580.8000488281</ele>
        <time>2021-02-23T08:43:29.000Z</time>
      </trkpt>
      <trkpt lat="45.60709" lon="6.67556">
        <ele>1581.4000244141</ele>
        <time>2021-02-23T08:43:37.000Z</time>
      </trkpt>
      <trkpt lat="45.60713" lon="6.6756">
        <ele>1582.1999511719</ele>
        <time>2021-02-23T08:43:42.000Z</time>
      </trkpt>
      <trkpt lat="45.60718" lon="6.67562">
        <ele>1583.1999511719</ele>
        <time>2021-02-23T08:43:47.000Z</time>
      </trkpt>
      <trkpt lat="45.60727" lon="6.67567">
        <ele>1584</ele>
        <time>2021-02-23T08:43:56.000Z</time>
      </trkpt>
      <trkpt lat="45.60727" lon="6.67567">
        <ele>1584.1999511719</ele>
        <time>2021-02-23T08:43:57.000Z</time>
      </trkpt>
      <trkpt lat="45.60731" lon="6.67568">
        <ele>1585.1999511719</ele>
        <time>2021-02-23T08:44:01.000Z</time>
      </trkpt>
      <trkpt lat="45.60737" lon="6.67566">
        <ele>1585.8000488281</ele>
        <time>2021-02-23T08:44:06.000Z</time>
      </trkpt>
      <trkpt lat="45.60745" lon="6.67569">
        <ele>1586.4000244141</ele>
        <time>2021-02-23T08:44:12.000Z</time>
      </trkpt>
      <trkpt lat="45.60747" lon="6.67571">
        <ele>1587.1999511719</ele>
        <time>2021-02-23T08:44:16.000Z</time>
      </trkpt>
      <trkpt lat="45.60749" lon="6.67573">
        <ele>1587.5999755859</ele>
        <time>2021-02-23T08:44:19.000Z</time>
      </trkpt>
      <trkpt lat="45.60753" lon="6.67575">
        <ele>1588.4000244141</ele>
        <time>2021-02-23T08:44:25.000Z</time>
      </trkpt>
      <trkpt lat="45.60758" lon="6.67578">
        <ele>1588.5999755859</ele>
        <time>2021-02-23T08:44:32.000Z</time>
      </trkpt>
      <trkpt lat="45.6076" lon="6.67579">
        <ele>1588.8000488281</ele>
        <time>2021-02-23T08:44:34.000Z</time>
      </trkpt>
      <trkpt lat="45.60766" lon="6.67576">
        <ele>1589.5999755859</ele>
        <time>2021-02-23T08:44:41.000Z</time>
      </trkpt>
      <trkpt lat="45.60767" lon="6.67576">
        <ele>1589.8000488281</ele>
        <time>2021-02-23T08:44:42.000Z</time>
      </trkpt>
      <trkpt lat="45.60774" lon="6.67574">
        <ele>1590.4000244141</ele>
        <time>2021-02-23T08:44:49.000Z</time>
      </trkpt>
      <trkpt lat="45.60776" lon="6.67576">
        <ele>1591</ele>
        <time>2021-02-23T08:44:52.000Z</time>
      </trkpt>
      <trkpt lat="45.6078" lon="6.67583">
        <ele>1591.4000244141</ele>
        <time>2021-02-23T08:44:59.000Z</time>
      </trkpt>
      <trkpt lat="45.60782" lon="6.6759">
        <ele>1592</ele>
        <time>2021-02-23T08:45:05.000Z</time>
      </trkpt>
      <trkpt lat="45.60785" lon="6.67598">
        <ele>1593</ele>
        <time>2021-02-23T08:45:10.000Z</time>
      </trkpt>
      <trkpt lat="45.60786" lon="6.676">
        <ele>1593</ele>
        <time>2021-02-23T08:45:12.000Z</time>
      </trkpt>
      <trkpt lat="45.6079" lon="6.67606">
        <ele>1594</ele>
        <time>2021-02-23T08:45:20.000Z</time>
      </trkpt>
      <trkpt lat="45.60791" lon="6.67608">
        <ele>1594.4000244141</ele>
        <time>2021-02-23T08:45:22.000Z</time>
      </trkpt>
      <trkpt lat="45.60796" lon="6.67613">
        <ele>1595.1999511719</ele>
        <time>2021-02-23T08:45:27.000Z</time>
      </trkpt>
      <trkpt lat="45.60797" lon="6.67613">
        <ele>1595.5999755859</ele>
        <time>2021-02-23T08:45:30.000Z</time>
      </trkpt>
      <trkpt lat="45.60804" lon="6.67618">
        <ele>1595.8000488281</ele>
        <time>2021-02-23T08:45:38.000Z</time>
      </trkpt>
      <trkpt lat="45.60807" lon="6.67621">
        <ele>1596.5999755859</ele>
        <time>2021-02-23T08:45:42.000Z</time>
      </trkpt>
      <trkpt lat="45.60814" lon="6.67627">
        <ele>1597</ele>
        <time>2021-02-23T08:45:49.000Z</time>
      </trkpt>
      <trkpt lat="45.60816" lon="6.67628">
        <ele>1597.5999755859</ele>
        <time>2021-02-23T08:45:52.000Z</time>
      </trkpt>
      <trkpt lat="45.60824" lon="6.67636">
        <ele>1598.1999511719</ele>
        <time>2021-02-23T08:45:59.000Z</time>
      </trkpt>
      <trkpt lat="45.60826" lon="6.67637">
        <ele>1598.8000488281</ele>
        <time>2021-02-23T08:46:02.000Z</time>
      </trkpt>
      <trkpt lat="45.60833" lon="6.67645">
        <ele>1599</ele>
        <time>2021-02-23T08:46:09.000Z</time>
      </trkpt>
      <trkpt lat="45.60834" lon="6.67647">
        <ele>1600</ele>
        <time>2021-02-23T08:46:15.000Z</time>
      </trkpt>
      <trkpt lat="45.60838" lon="6.67651">
        <ele>1600.5999755859</ele>
        <time>2021-02-23T08:46:19.000Z</time>
      </trkpt>
      <trkpt lat="45.60842" lon="6.67656">
        <ele>1601</ele>
        <time>2021-02-23T08:46:24.000Z</time>
      </trkpt>
      <trkpt lat="45.60848" lon="6.67661">
        <ele>1601.4000244141</ele>
        <time>2021-02-23T08:46:29.000Z</time>
      </trkpt>
      <trkpt lat="45.60851" lon="6.67665">
        <ele>1602.1999511719</ele>
        <time>2021-02-23T08:46:34.000Z</time>
      </trkpt>
      <trkpt lat="45.60854" lon="6.67667">
        <ele>1602.4000244141</ele>
        <time>2021-02-23T08:46:38.000Z</time>
      </trkpt>
      <trkpt lat="45.60862" lon="6.67675">
        <ele>1603</ele>
        <time>2021-02-23T08:46:48.000Z</time>
      </trkpt>
      <trkpt lat="45.60864" lon="6.67678">
        <ele>1603.1999511719</ele>
        <time>2021-02-23T08:46:51.000Z</time>
      </trkpt>
      <trkpt lat="45.60872" lon="6.67683">
        <ele>1603.4000244141</ele>
        <time>2021-02-23T08:46:57.000Z</time>
      </trkpt>
      <trkpt lat="45.60879" lon="6.6769">
        <ele>1604</ele>
        <time>2021-02-23T08:47:05.000Z</time>
      </trkpt>
      <trkpt lat="45.6088" lon="6.67691">
        <ele>1604.1999511719</ele>
        <time>2021-02-23T08:47:07.000Z</time>
      </trkpt>
      <trkpt lat="45.60889" lon="6.67697">
        <ele>1604.5999755859</ele>
        <time>2021-02-23T08:47:16.000Z</time>
      </trkpt>
      <trkpt lat="45.60892" lon="6.677">
        <ele>1605.4000244141</ele>
        <time>2021-02-23T08:47:21.000Z</time>
      </trkpt>
      <trkpt lat="45.60895" lon="6.67706">
        <ele>1606</ele>
        <time>2021-02-23T08:47:25.000Z</time>
      </trkpt>
      <trkpt lat="45.60903" lon="6.67716">
        <ele>1606</ele>
        <time>2021-02-23T08:47:32.000Z</time>
      </trkpt>
      <trkpt lat="45.60911" lon="6.67724">
        <ele>1606.1999511719</ele>
        <time>2021-02-23T08:47:40.000Z</time>
      </trkpt>
      <trkpt lat="45.60914" lon="6.67729">
        <ele>1606.4000244141</ele>
        <time>2021-02-23T08:47:46.000Z</time>
      </trkpt>
      <trkpt lat="45.60915" lon="6.6774">
        <ele>1606.4000244141</ele>
        <time>2021-02-23T08:47:52.000Z</time>
      </trkpt>
      <trkpt lat="45.60917" lon="6.6775">
        <ele>1606.4000244141</ele>
        <time>2021-02-23T08:47:59.000Z</time>
      </trkpt>
      <trkpt lat="45.60919" lon="6.67758">
        <ele>1606.8000488281</ele>
        <time>2021-02-23T08:48:06.000Z</time>
      </trkpt>
      <trkpt lat="45.60924" lon="6.67767">
        <ele>1606.8000488281</ele>
        <time>2021-02-23T08:48:13.000Z</time>
      </trkpt>
      <trkpt lat="45.60929" lon="6.67775">
        <ele>1606.8000488281</ele>
        <time>2021-02-23T08:48:19.000Z</time>
      </trkpt>
      <trkpt lat="45.60933" lon="6.67786">
        <ele>1606.8000488281</ele>
        <time>2021-02-23T08:48:28.000Z</time>
      </trkpt>
      <trkpt lat="45.60938" lon="6.67796">
        <ele>1607</ele>
        <time>2021-02-23T08:48:38.000Z</time>
      </trkpt>
      <trkpt lat="45.60947" lon="6.67808">
        <ele>1607.1999511719</ele>
        <time>2021-02-23T08:48:47.000Z</time>
      </trkpt>
      <trkpt lat="45.60954" lon="6.67821">
        <ele>1606.5999755859</ele>
        <time>2021-02-23T08:48:57.000Z</time>
      </trkpt>
      <trkpt lat="45.60963" lon="6.6783">
        <ele>1606.4000244141</ele>
        <time>2021-02-23T08:49:06.000Z</time>
      </trkpt>
      <trkpt lat="45.6097" lon="6.67838">
        <ele>1606</ele>
        <time>2021-02-23T08:49:15.000Z</time>
      </trkpt>
      <trkpt lat="45.60978" lon="6.67851">
        <ele>1605.4000244141</ele>
        <time>2021-02-23T08:49:25.000Z</time>
      </trkpt>
      <trkpt lat="45.6098" lon="6.67852">
        <ele>1605.4000244141</ele>
        <time>2021-02-23T08:49:27.000Z</time>
      </trkpt>
      <trkpt lat="45.60988" lon="6.67856">
        <ele>1605.4000244141</ele>
        <time>2021-02-23T08:49:35.000Z</time>
      </trkpt>
      <trkpt lat="45.60998" lon="6.67859">
        <ele>1605.8000488281</ele>
        <time>2021-02-23T08:49:43.000Z</time>
      </trkpt>
      <trkpt lat="45.61008" lon="6.67865">
        <ele>1605.8000488281</ele>
        <time>2021-02-23T08:49:53.000Z</time>
      </trkpt>
      <trkpt lat="45.61013" lon="6.67877">
        <ele>1605.8000488281</ele>
        <time>2021-02-23T08:50:02.000Z</time>
      </trkpt>
      <trkpt lat="45.61023" lon="6.67885">
        <ele>1606</ele>
        <time>2021-02-23T08:50:11.000Z</time>
      </trkpt>
      <trkpt lat="45.61033" lon="6.67887">
        <ele>1606.4000244141</ele>
        <time>2021-02-23T08:50:20.000Z</time>
      </trkpt>
      <trkpt lat="45.61042" lon="6.67889">
        <ele>1607.1999511719</ele>
        <time>2021-02-23T08:50:30.000Z</time>
      </trkpt>
      <trkpt lat="45.61045" lon="6.6789">
        <ele>1607.5999755859</ele>
        <time>2021-02-23T08:50:32.000Z</time>
      </trkpt>
      <trkpt lat="45.61054" lon="6.67891">
        <ele>1608.1999511719</ele>
        <time>2021-02-23T08:50:41.000Z</time>
      </trkpt>
      <trkpt lat="45.61059" lon="6.67893">
        <ele>1608.5999755859</ele>
        <time>2021-02-23T08:50:49.000Z</time>
      </trkpt>
      <trkpt lat="45.61063" lon="6.67895">
        <ele>1608.8000488281</ele>
        <time>2021-02-23T08:50:52.000Z</time>
      </trkpt>
      <trkpt lat="45.6107" lon="6.67902">
        <ele>1609</ele>
        <time>2021-02-23T08:51:00.000Z</time>
      </trkpt>
      <trkpt lat="45.61079" lon="6.67907">
        <ele>1609.5999755859</ele>
        <time>2021-02-23T08:51:08.000Z</time>
      </trkpt>
      <trkpt lat="45.61081" lon="6.67907">
        <ele>1609.5999755859</ele>
        <time>2021-02-23T08:51:09.000Z</time>
      </trkpt>
      <trkpt lat="45.61082" lon="6.67908">
        <ele>1609.8000488281</ele>
        <time>2021-02-23T08:51:11.000Z</time>
      </trkpt>
      <trkpt lat="45.61088" lon="6.67915">
        <ele>1610.4000244141</ele>
        <time>2021-02-23T08:51:20.000Z</time>
      </trkpt>
      <trkpt lat="45.61091" lon="6.67917">
        <ele>1610.8000488281</ele>
        <time>2021-02-23T08:51:24.000Z</time>
      </trkpt>
      <trkpt lat="45.61095" lon="6.67919">
        <ele>1611</ele>
        <time>2021-02-23T08:51:28.000Z</time>
      </trkpt>
      <trkpt lat="45.61104" lon="6.67924">
        <ele>1611.8000488281</ele>
        <time>2021-02-23T08:51:35.000Z</time>
      </trkpt>
      <trkpt lat="45.61106" lon="6.67925">
        <ele>1611.8000488281</ele>
        <time>2021-02-23T08:51:37.000Z</time>
      </trkpt>
      <trkpt lat="45.61118" lon="6.67931">
        <ele>1612.5999755859</ele>
        <time>2021-02-23T08:51:48.000Z</time>
      </trkpt>
      <trkpt lat="45.61122" lon="6.67931">
        <ele>1612.8000488281</ele>
        <time>2021-02-23T08:51:51.000Z</time>
      </trkpt>
      <trkpt lat="45.61131" lon="6.67933">
        <ele>1613.1999511719</ele>
        <time>2021-02-23T08:51:58.000Z</time>
      </trkpt>
      <trkpt lat="45.61133" lon="6.67939">
        <ele>1613.5999755859</ele>
        <time>2021-02-23T08:52:06.000Z</time>
      </trkpt>
      <trkpt lat="45.61135" lon="6.6794">
        <ele>1614</ele>
        <time>2021-02-23T08:52:08.000Z</time>
      </trkpt>
      <trkpt lat="45.61141" lon="6.67943">
        <ele>1614</ele>
        <time>2021-02-23T08:52:14.000Z</time>
      </trkpt>
      <trkpt lat="45.61144" lon="6.67945">
        <ele>1614</ele>
        <time>2021-02-23T08:52:16.000Z</time>
      </trkpt>
      <trkpt lat="45.61151" lon="6.67949">
        <ele>1614.5999755859</ele>
        <time>2021-02-23T08:52:24.000Z</time>
      </trkpt>
      <trkpt lat="45.61153" lon="6.67951">
        <ele>1615</ele>
        <time>2021-02-23T08:52:29.000Z</time>
      </trkpt>
      <trkpt lat="45.61159" lon="6.67955">
        <ele>1615.4000244141</ele>
        <time>2021-02-23T08:52:34.000Z</time>
      </trkpt>
      <trkpt lat="45.61171" lon="6.67958">
        <ele>1615.4000244141</ele>
        <time>2021-02-23T08:52:42.000Z</time>
      </trkpt>
      <trkpt lat="45.61179" lon="6.67963">
        <ele>1616</ele>
        <time>2021-02-23T08:52:49.000Z</time>
      </trkpt>
      <trkpt lat="45.61182" lon="6.67964">
        <ele>1616.4000244141</ele>
        <time>2021-02-23T08:52:52.000Z</time>
      </trkpt>
      <trkpt lat="45.61187" lon="6.67968">
        <ele>1617</ele>
        <time>2021-02-23T08:52:59.000Z</time>
      </trkpt>
      <trkpt lat="45.61189" lon="6.67968">
        <ele>1617</ele>
        <time>2021-02-23T08:53:02.000Z</time>
      </trkpt>
      <trkpt lat="45.61193" lon="6.67971">
        <ele>1617.5999755859</ele>
        <time>2021-02-23T08:53:10.000Z</time>
      </trkpt>
      <trkpt lat="45.61199" lon="6.67973">
        <ele>1618</ele>
        <time>2021-02-23T08:53:15.000Z</time>
      </trkpt>
      <trkpt lat="45.61205" lon="6.67972">
        <ele>1618.5999755859</ele>
        <time>2021-02-23T08:53:19.000Z</time>
      </trkpt>
      <trkpt lat="45.61217" lon="6.67971">
        <ele>1618.8000488281</ele>
        <time>2021-02-23T08:53:28.000Z</time>
      </trkpt>
      <trkpt lat="45.61225" lon="6.67972">
        <ele>1619.1999511719</ele>
        <time>2021-02-23T08:53:37.000Z</time>
      </trkpt>
      <trkpt lat="45.61226" lon="6.67971">
        <ele>1619.4000244141</ele>
        <time>2021-02-23T08:53:38.000Z</time>
      </trkpt>
      <trkpt lat="45.61233" lon="6.67974">
        <ele>1620.1999511719</ele>
        <time>2021-02-23T08:53:47.000Z</time>
      </trkpt>
      <trkpt lat="45.61234" lon="6.67974">
        <ele>1620.1999511719</ele>
        <time>2021-02-23T08:53:48.000Z</time>
      </trkpt>
      <trkpt lat="45.61246" lon="6.67976">
        <ele>1621.4000244141</ele>
        <time>2021-02-23T08:53:56.000Z</time>
      </trkpt>
      <trkpt lat="45.61255" lon="6.67976">
        <ele>1622</ele>
        <time>2021-02-23T08:54:04.000Z</time>
      </trkpt>
      <trkpt lat="45.61257" lon="6.67976">
        <ele>1622.4000244141</ele>
        <time>2021-02-23T08:54:06.000Z</time>
      </trkpt>
      <trkpt lat="45.6126" lon="6.67976">
        <ele>1622.8000488281</ele>
        <time>2021-02-23T08:54:13.000Z</time>
      </trkpt>
      <trkpt lat="45.61261" lon="6.67977">
        <ele>1623.4000244141</ele>
        <time>2021-02-23T08:54:18.000Z</time>
      </trkpt>
      <trkpt lat="45.61265" lon="6.67977">
        <ele>1624.8000488281</ele>
        <time>2021-02-23T08:54:23.000Z</time>
      </trkpt>
      <trkpt lat="45.61272" lon="6.67976">
        <ele>1625.1999511719</ele>
        <time>2021-02-23T08:54:29.000Z</time>
      </trkpt>
      <trkpt lat="45.61278" lon="6.67977">
        <ele>1625.1999511719</ele>
        <time>2021-02-23T08:54:32.000Z</time>
      </trkpt>
      <trkpt lat="45.61283" lon="6.67975">
        <ele>1626</ele>
        <time>2021-02-23T08:54:38.000Z</time>
      </trkpt>
      <trkpt lat="45.61285" lon="6.67974">
        <ele>1626.4000244141</ele>
        <time>2021-02-23T08:54:41.000Z</time>
      </trkpt>
      <trkpt lat="45.61287" lon="6.67975">
        <ele>1627</ele>
        <time>2021-02-23T08:54:43.000Z</time>
      </trkpt>
      <trkpt lat="45.61297" lon="6.67976">
        <ele>1628</ele>
        <time>2021-02-23T08:54:50.000Z</time>
      </trkpt>
      <trkpt lat="45.61298" lon="6.67975">
        <ele>1628</ele>
        <time>2021-02-23T08:54:51.000Z</time>
      </trkpt>
      <trkpt lat="45.61304" lon="6.67974">
        <ele>1629.1999511719</ele>
        <time>2021-02-23T08:54:59.000Z</time>
      </trkpt>
      <trkpt lat="45.61305" lon="6.67974">
        <ele>1629.1999511719</ele>
        <time>2021-02-23T08:55:00.000Z</time>
      </trkpt>
      <trkpt lat="45.6131" lon="6.6797">
        <ele>1630</ele>
        <time>2021-02-23T08:55:08.000Z</time>
      </trkpt>
      <trkpt lat="45.61312" lon="6.67969">
        <ele>1630.1999511719</ele>
        <time>2021-02-23T08:55:10.000Z</time>
      </trkpt>
      <trkpt lat="45.61319" lon="6.67967">
        <ele>1631.4000244141</ele>
        <time>2021-02-23T08:55:17.000Z</time>
      </trkpt>
      <trkpt lat="45.61319" lon="6.67968">
        <ele>1631.5999755859</ele>
        <time>2021-02-23T08:55:18.000Z</time>
      </trkpt>
      <trkpt lat="45.61321" lon="6.67972">
        <ele>1632.4000244141</ele>
        <time>2021-02-23T08:55:26.000Z</time>
      </trkpt>
      <trkpt lat="45.61321" lon="6.67973">
        <ele>1632.8000488281</ele>
        <time>2021-02-23T08:55:27.000Z</time>
      </trkpt>
      <trkpt lat="45.61322" lon="6.67973">
        <ele>1633.5999755859</ele>
        <time>2021-02-23T08:55:31.000Z</time>
      </trkpt>
      <trkpt lat="45.61326" lon="6.67974">
        <ele>1634</ele>
        <time>2021-02-23T08:55:36.000Z</time>
      </trkpt>
      <trkpt lat="45.6133" lon="6.67977">
        <ele>1634.8000488281</ele>
        <time>2021-02-23T08:55:41.000Z</time>
      </trkpt>
      <trkpt lat="45.61334" lon="6.67979">
        <ele>1635.4000244141</ele>
        <time>2021-02-23T08:55:45.000Z</time>
      </trkpt>
      <trkpt lat="45.61337" lon="6.67977">
        <ele>1635.8000488281</ele>
        <time>2021-02-23T08:55:48.000Z</time>
      </trkpt>
      <trkpt lat="45.61339" lon="6.67975">
        <ele>1636</ele>
        <time>2021-02-23T08:55:54.000Z</time>
      </trkpt>
      <trkpt lat="45.61339" lon="6.67975">
        <ele>1636</ele>
        <time>2021-02-23T08:56:04.000Z</time>
      </trkpt>
      <trkpt lat="45.6134" lon="6.67977">
        <ele>1636</ele>
        <time>2021-02-23T08:56:17.000Z</time>
      </trkpt>
      <trkpt lat="45.61357" lon="6.67981">
        <ele>1636</ele>
        <time>2021-02-23T08:56:27.000Z</time>
      </trkpt>
      <trkpt lat="45.61365" lon="6.6798">
        <ele>1636.4000244141</ele>
        <time>2021-02-23T08:56:38.000Z</time>
      </trkpt>
      <trkpt lat="45.61366" lon="6.67979">
        <ele>1636.8000488281</ele>
        <time>2021-02-23T08:56:41.000Z</time>
      </trkpt>
      <trkpt lat="45.61363" lon="6.67982">
        <ele>1637.1999511719</ele>
        <time>2021-02-23T08:56:47.000Z</time>
      </trkpt>
      <trkpt lat="45.61371" lon="6.67977">
        <ele>1637.8000488281</ele>
        <time>2021-02-23T08:56:56.000Z</time>
      </trkpt>
      <trkpt lat="45.61372" lon="6.67976">
        <ele>1638.1999511719</ele>
        <time>2021-02-23T08:56:57.000Z</time>
      </trkpt>
      <trkpt lat="45.61379" lon="6.67971">
        <ele>1638.1999511719</ele>
        <time>2021-02-23T08:57:05.000Z</time>
      </trkpt>
      <trkpt lat="45.61387" lon="6.6797">
        <ele>1638.8000488281</ele>
        <time>2021-02-23T08:57:15.000Z</time>
      </trkpt>
      <trkpt lat="45.61392" lon="6.6797">
        <ele>1639</ele>
        <time>2021-02-23T08:57:22.000Z</time>
      </trkpt>
      <trkpt lat="45.61398" lon="6.67966">
        <ele>1639.4000244141</ele>
        <time>2021-02-23T08:57:30.000Z</time>
      </trkpt>
      <trkpt lat="45.61409" lon="6.67967">
        <ele>1639.1999511719</ele>
        <time>2021-02-23T08:57:39.000Z</time>
      </trkpt>
      <trkpt lat="45.61419" lon="6.67966">
        <ele>1639</ele>
        <time>2021-02-23T08:57:49.000Z</time>
      </trkpt>
      <trkpt lat="45.61426" lon="6.67971">
        <ele>1638.5999755859</ele>
        <time>2021-02-23T08:57:59.000Z</time>
      </trkpt>
      <trkpt lat="45.61436" lon="6.67972">
        <ele>1638.8000488281</ele>
        <time>2021-02-23T08:58:09.000Z</time>
      </trkpt>
      <trkpt lat="45.61443" lon="6.6797">
        <ele>1639.5999755859</ele>
        <time>2021-02-23T08:58:16.000Z</time>
      </trkpt>
      <trkpt lat="45.61451" lon="6.67967">
        <ele>1639</ele>
        <time>2021-02-23T08:58:23.000Z</time>
      </trkpt>
      <trkpt lat="45.6146" lon="6.67962">
        <ele>1639</ele>
        <time>2021-02-23T08:58:30.000Z</time>
      </trkpt>
      <trkpt lat="45.61465" lon="6.67956">
        <ele>1637.8000488281</ele>
        <time>2021-02-23T08:58:40.000Z</time>
      </trkpt>
      <trkpt lat="45.6147" lon="6.67955">
        <ele>1637.8000488281</ele>
        <time>2021-02-23T08:58:48.000Z</time>
      </trkpt>
      <trkpt lat="45.61478" lon="6.67949">
        <ele>1637.5999755859</ele>
        <time>2021-02-23T08:58:55.000Z</time>
      </trkpt>
      <trkpt lat="45.61483" lon="6.67949">
        <ele>1637.5999755859</ele>
        <time>2021-02-23T08:59:03.000Z</time>
      </trkpt>
      <trkpt lat="45.6149" lon="6.67948">
        <ele>1638.4000244141</ele>
        <time>2021-02-23T08:59:11.000Z</time>
      </trkpt>
      <trkpt lat="45.61501" lon="6.67947">
        <ele>1638.1999511719</ele>
        <time>2021-02-23T08:59:21.000Z</time>
      </trkpt>
      <trkpt lat="45.6151" lon="6.67949">
        <ele>1638.5999755859</ele>
        <time>2021-02-23T08:59:29.000Z</time>
      </trkpt>
      <trkpt lat="45.61511" lon="6.67949">
        <ele>1638.8000488281</ele>
        <time>2021-02-23T08:59:30.000Z</time>
      </trkpt>
      <trkpt lat="45.61518" lon="6.67948">
        <ele>1639.5999755859</ele>
        <time>2021-02-23T08:59:38.000Z</time>
      </trkpt>
      <trkpt lat="45.61519" lon="6.67949">
        <ele>1640</ele>
        <time>2021-02-23T08:59:46.000Z</time>
      </trkpt>
      <trkpt lat="45.61519" lon="6.67949">
        <ele>1640.4000244141</ele>
        <time>2021-02-23T08:59:48.000Z</time>
      </trkpt>
      <trkpt lat="45.61513" lon="6.67949">
        <ele>1640</ele>
        <time>2021-02-23T08:59:53.000Z</time>
      </trkpt>
      <trkpt lat="45.61512" lon="6.67948">
        <ele>1640</ele>
        <time>2021-02-23T08:59:54.000Z</time>
      </trkpt>
      <trkpt lat="45.61504" lon="6.67944">
        <ele>1639</ele>
        <time>2021-02-23T09:00:01.000Z</time>
      </trkpt>
      <trkpt lat="45.61499" lon="6.67942">
        <ele>1638.5999755859</ele>
        <time>2021-02-23T09:00:05.000Z</time>
      </trkpt>
      <trkpt lat="45.61498" lon="6.67944">
        <ele>1637.8000488281</ele>
        <time>2021-02-23T09:00:09.000Z</time>
      </trkpt>
      <trkpt lat="45.61502" lon="6.67939">
        <ele>1638</ele>
        <time>2021-02-23T09:00:12.000Z</time>
      </trkpt>
      <trkpt lat="45.61509" lon="6.67943">
        <ele>1638.5999755859</ele>
        <time>2021-02-23T09:00:20.000Z</time>
      </trkpt>
      <trkpt lat="45.6151" lon="6.67947">
        <ele>1639</ele>
        <time>2021-02-23T09:00:22.000Z</time>
      </trkpt>
      <trkpt lat="45.61525" lon="6.6795">
        <ele>1639.8000488281</ele>
        <time>2021-02-23T09:00:32.000Z</time>
      </trkpt>
      <trkpt lat="45.61527" lon="6.67952">
        <ele>1640</ele>
        <time>2021-02-23T09:00:35.000Z</time>
      </trkpt>
      <trkpt lat="45.61527" lon="6.67953">
        <ele>1640.4000244141</ele>
        <time>2021-02-23T09:00:39.000Z</time>
      </trkpt>
      <trkpt lat="45.61535" lon="6.67952">
        <ele>1641</ele>
        <time>2021-02-23T09:00:47.000Z</time>
      </trkpt>
      <trkpt lat="45.61535" lon="6.67952">
        <ele>1641</ele>
        <time>2021-02-23T09:00:51.000Z</time>
      </trkpt>
      <trkpt lat="45.61542" lon="6.67947">
        <ele>1641.4000244141</ele>
        <time>2021-02-23T09:00:55.000Z</time>
      </trkpt>
      <trkpt lat="45.61551" lon="6.67943">
        <ele>1641.8000488281</ele>
        <time>2021-02-23T09:01:03.000Z</time>
      </trkpt>
      <trkpt lat="45.61551" lon="6.67943">
        <ele>1642.1999511719</ele>
        <time>2021-02-23T09:01:10.000Z</time>
      </trkpt>
      <trkpt lat="45.61549" lon="6.67945">
        <ele>1642.8000488281</ele>
        <time>2021-02-23T09:01:13.000Z</time>
      </trkpt>
      <trkpt lat="45.61549" lon="6.67945">
        <ele>1642.8000488281</ele>
        <time>2021-02-23T09:01:20.000Z</time>
      </trkpt>
      <trkpt lat="45.61549" lon="6.67945">
        <ele>1642.4000244141</ele>
        <time>2021-02-23T09:01:36.000Z</time>
      </trkpt>
      <trkpt lat="45.61549" lon="6.67945">
        <ele>1642.5999755859</ele>
        <time>2021-02-23T09:01:49.000Z</time>
      </trkpt>
      <trkpt lat="45.61548" lon="6.67946">
        <ele>1642.5999755859</ele>
        <time>2021-02-23T09:02:03.000Z</time>
      </trkpt>
      <trkpt lat="45.61552" lon="6.67944">
        <ele>1642.4000244141</ele>
        <time>2021-02-23T09:02:12.000Z</time>
      </trkpt>
      <trkpt lat="45.6156" lon="6.6794">
        <ele>1642.5999755859</ele>
        <time>2021-02-23T09:02:20.000Z</time>
      </trkpt>
      <trkpt lat="45.61565" lon="6.67938">
        <ele>1643.1999511719</ele>
        <time>2021-02-23T09:02:25.000Z</time>
      </trkpt>
      <trkpt lat="45.61569" lon="6.67935">
        <ele>1644.4000244141</ele>
        <time>2021-02-23T09:02:29.000Z</time>
      </trkpt>
      <trkpt lat="45.61571" lon="6.67934">
        <ele>1644.4000244141</ele>
        <time>2021-02-23T09:02:30.000Z</time>
      </trkpt>
      <trkpt lat="45.6158" lon="6.67929">
        <ele>1644.4000244141</ele>
        <time>2021-02-23T09:02:37.000Z</time>
      </trkpt>
      <trkpt lat="45.61589" lon="6.67929">
        <ele>1644.8000488281</ele>
        <time>2021-02-23T09:02:45.000Z</time>
      </trkpt>
      <trkpt lat="45.61593" lon="6.67929">
        <ele>1645.4000244141</ele>
        <time>2021-02-23T09:02:48.000Z</time>
      </trkpt>
      <trkpt lat="45.61598" lon="6.6793">
        <ele>1645.5999755859</ele>
        <time>2021-02-23T09:02:53.000Z</time>
      </trkpt>
      <trkpt lat="45.61602" lon="6.6793">
        <ele>1646.4000244141</ele>
        <time>2021-02-23T09:02:58.000Z</time>
      </trkpt>
      <trkpt lat="45.61605" lon="6.67931">
        <ele>1646.8000488281</ele>
        <time>2021-02-23T09:03:00.000Z</time>
      </trkpt>
      <trkpt lat="45.61613" lon="6.6793">
        <ele>1647.5999755859</ele>
        <time>2021-02-23T09:03:05.000Z</time>
      </trkpt>
      <trkpt lat="45.61613" lon="6.67931">
        <ele>1647.8000488281</ele>
        <time>2021-02-23T09:03:07.000Z</time>
      </trkpt>
      <trkpt lat="45.61616" lon="6.67931">
        <ele>1648.8000488281</ele>
        <time>2021-02-23T09:03:13.000Z</time>
      </trkpt>
      <trkpt lat="45.61618" lon="6.6793">
        <ele>1649.1999511719</ele>
        <time>2021-02-23T09:03:16.000Z</time>
      </trkpt>
      <trkpt lat="45.61628" lon="6.67927">
        <ele>1649.8000488281</ele>
        <time>2021-02-23T09:03:24.000Z</time>
      </trkpt>
      <trkpt lat="45.61634" lon="6.67925">
        <ele>1651</ele>
        <time>2021-02-23T09:03:31.000Z</time>
      </trkpt>
      <trkpt lat="45.61633" lon="6.67926">
        <ele>1651.1999511719</ele>
        <time>2021-02-23T09:03:32.000Z</time>
      </trkpt>
      <trkpt lat="45.61634" lon="6.67928">
        <ele>1652.1999511719</ele>
        <time>2021-02-23T09:03:40.000Z</time>
      </trkpt>
      <trkpt lat="45.61636" lon="6.67929">
        <ele>1652.1999511719</ele>
        <time>2021-02-23T09:03:42.000Z</time>
      </trkpt>
      <trkpt lat="45.6164" lon="6.67931">
        <ele>1653.1999511719</ele>
        <time>2021-02-23T09:03:48.000Z</time>
      </trkpt>
      <trkpt lat="45.61642" lon="6.67933">
        <ele>1654</ele>
        <time>2021-02-23T09:03:52.000Z</time>
      </trkpt>
      <trkpt lat="45.61643" lon="6.67941">
        <ele>1654.1999511719</ele>
        <time>2021-02-23T09:03:59.000Z</time>
      </trkpt>
      <trkpt lat="45.61643" lon="6.67941">
        <ele>1655</ele>
        <time>2021-02-23T09:04:01.000Z</time>
      </trkpt>
      <trkpt lat="45.61643" lon="6.67941">
        <ele>1655.4000244141</ele>
        <time>2021-02-23T09:04:02.000Z</time>
      </trkpt>
      <trkpt lat="45.61646" lon="6.67939">
        <ele>1655.8000488281</ele>
        <time>2021-02-23T09:04:10.000Z</time>
      </trkpt>
      <trkpt lat="45.61655" lon="6.67934">
        <ele>1655.4000244141</ele>
        <time>2021-02-23T09:04:20.000Z</time>
      </trkpt>
      <trkpt lat="45.61656" lon="6.67934">
        <ele>1656</ele>
        <time>2021-02-23T09:04:30.000Z</time>
      </trkpt>
      <trkpt lat="45.61659" lon="6.67935">
        <ele>1656</ele>
        <time>2021-02-23T09:04:40.000Z</time>
      </trkpt>
      <trkpt lat="45.6166" lon="6.67935">
        <ele>1656.4000244141</ele>
        <time>2021-02-23T09:04:41.000Z</time>
      </trkpt>
      <trkpt lat="45.61662" lon="6.67933">
        <ele>1656.8000488281</ele>
        <time>2021-02-23T09:04:49.000Z</time>
      </trkpt>
      <trkpt lat="45.61663" lon="6.67932">
        <ele>1655.5999755859</ele>
        <time>2021-02-23T09:04:59.000Z</time>
      </trkpt>
      <trkpt lat="45.61664" lon="6.67934">
        <ele>1656.5999755859</ele>
        <time>2021-02-23T09:05:08.000Z</time>
      </trkpt>
      <trkpt lat="45.6167" lon="6.67926">
        <ele>1657.5999755859</ele>
        <time>2021-02-23T09:05:17.000Z</time>
      </trkpt>
      <trkpt lat="45.6167" lon="6.67925">
        <ele>1657.8000488281</ele>
        <time>2021-02-23T09:05:18.000Z</time>
      </trkpt>
      <trkpt lat="45.61672" lon="6.67925">
        <ele>1657.8000488281</ele>
        <time>2021-02-23T09:05:27.000Z</time>
      </trkpt>
      <trkpt lat="45.61674" lon="6.67932">
        <ele>1658.5999755859</ele>
        <time>2021-02-23T09:05:34.000Z</time>
      </trkpt>
      <trkpt lat="45.61674" lon="6.67934">
        <ele>1658.8000488281</ele>
        <time>2021-02-23T09:05:35.000Z</time>
      </trkpt>
      <trkpt lat="45.61678" lon="6.67941">
        <ele>1659.8000488281</ele>
        <time>2021-02-23T09:05:43.000Z</time>
      </trkpt>
      <trkpt lat="45.61678" lon="6.67942">
        <ele>1660.1999511719</ele>
        <time>2021-02-23T09:05:44.000Z</time>
      </trkpt>
      <trkpt lat="45.61678" lon="6.67945">
        <ele>1661.1999511719</ele>
        <time>2021-02-23T09:05:47.000Z</time>
      </trkpt>
      <trkpt lat="45.61678" lon="6.6795">
        <ele>1661.8000488281</ele>
        <time>2021-02-23T09:05:52.000Z</time>
      </trkpt>
      <trkpt lat="45.61678" lon="6.67952">
        <ele>1662.1999511719</ele>
        <time>2021-02-23T09:05:54.000Z</time>
      </trkpt>
      <trkpt lat="45.61679" lon="6.67954">
        <ele>1663.1999511719</ele>
        <time>2021-02-23T09:05:57.000Z</time>
      </trkpt>
      <trkpt lat="45.6168" lon="6.67956">
        <ele>1663.5999755859</ele>
        <time>2021-02-23T09:06:00.000Z</time>
      </trkpt>
      <trkpt lat="45.6168" lon="6.67956">
        <ele>1664.4000244141</ele>
        <time>2021-02-23T09:06:03.000Z</time>
      </trkpt>
      <trkpt lat="45.61679" lon="6.67962">
        <ele>1665.5999755859</ele>
        <time>2021-02-23T09:06:08.000Z</time>
      </trkpt>
      <trkpt lat="45.61679" lon="6.67963">
        <ele>1665.5999755859</ele>
        <time>2021-02-23T09:06:09.000Z</time>
      </trkpt>
      <trkpt lat="45.61681" lon="6.67964">
        <ele>1665.5999755859</ele>
        <time>2021-02-23T09:06:17.000Z</time>
      </trkpt>
      <trkpt lat="45.61686" lon="6.67959">
        <ele>1667</ele>
        <time>2021-02-23T09:06:20.000Z</time>
      </trkpt>
      <trkpt lat="45.61689" lon="6.67956">
        <ele>1668.1999511719</ele>
        <time>2021-02-23T09:06:23.000Z</time>
      </trkpt>
      <trkpt lat="45.61693" lon="6.67953">
        <ele>1668.8000488281</ele>
        <time>2021-02-23T09:06:26.000Z</time>
      </trkpt>
      <trkpt lat="45.61694" lon="6.67952">
        <ele>1669.1999511719</ele>
        <time>2021-02-23T09:06:28.000Z</time>
      </trkpt>
      <trkpt lat="45.617" lon="6.67947">
        <ele>1670</ele>
        <time>2021-02-23T09:06:35.000Z</time>
      </trkpt>
      <trkpt lat="45.61701" lon="6.67946">
        <ele>1670.1999511719</ele>
        <time>2021-02-23T09:06:37.000Z</time>
      </trkpt>
      <trkpt lat="45.61711" lon="6.67944">
        <ele>1670.4000244141</ele>
        <time>2021-02-23T09:06:43.000Z</time>
      </trkpt>
      <trkpt lat="45.61713" lon="6.67942">
        <ele>1671.1999511719</ele>
        <time>2021-02-23T09:06:45.000Z</time>
      </trkpt>
      <trkpt lat="45.61716" lon="6.67939">
        <ele>1672.1999511719</ele>
        <time>2021-02-23T09:06:50.000Z</time>
      </trkpt>
      <trkpt lat="45.61717" lon="6.67938">
        <ele>1672.5999755859</ele>
        <time>2021-02-23T09:06:51.000Z</time>
      </trkpt>
      <trkpt lat="45.61719" lon="6.67938">
        <ele>1673.4000244141</ele>
        <time>2021-02-23T09:06:54.000Z</time>
      </trkpt>
      <trkpt lat="45.61722" lon="6.67936">
        <ele>1674.1999511719</ele>
        <time>2021-02-23T09:06:59.000Z</time>
      </trkpt>
      <trkpt lat="45.61723" lon="6.67935">
        <ele>1674.5999755859</ele>
        <time>2021-02-23T09:07:02.000Z</time>
      </trkpt>
      <trkpt lat="45.61725" lon="6.67933">
        <ele>1675.5999755859</ele>
        <time>2021-02-23T09:07:06.000Z</time>
      </trkpt>
      <trkpt lat="45.61725" lon="6.67933">
        <ele>1675.8000488281</ele>
        <time>2021-02-23T09:07:08.000Z</time>
      </trkpt>
      <trkpt lat="45.61724" lon="6.67935">
        <ele>1677</ele>
        <time>2021-02-23T09:07:13.000Z</time>
      </trkpt>
      <trkpt lat="45.61724" lon="6.67936">
        <ele>1677.4000244141</ele>
        <time>2021-02-23T09:07:16.000Z</time>
      </trkpt>
      <trkpt lat="45.61724" lon="6.67937">
        <ele>1678</ele>
        <time>2021-02-23T09:07:20.000Z</time>
      </trkpt>
      <trkpt lat="45.61724" lon="6.67939">
        <ele>1678.8000488281</ele>
        <time>2021-02-23T09:07:23.000Z</time>
      </trkpt>
      <trkpt lat="45.61725" lon="6.67942">
        <ele>1679.1999511719</ele>
        <time>2021-02-23T09:07:25.000Z</time>
      </trkpt>
      <trkpt lat="45.61724" lon="6.67946">
        <ele>1680.1999511719</ele>
        <time>2021-02-23T09:07:30.000Z</time>
      </trkpt>
      <trkpt lat="45.61726" lon="6.67952">
        <ele>1681.4000244141</ele>
        <time>2021-02-23T09:07:35.000Z</time>
      </trkpt>
      <trkpt lat="45.61727" lon="6.67953">
        <ele>1681.8000488281</ele>
        <time>2021-02-23T09:07:37.000Z</time>
      </trkpt>
      <trkpt lat="45.61727" lon="6.67956">
        <ele>1682.4000244141</ele>
        <time>2021-02-23T09:07:43.000Z</time>
      </trkpt>
      <trkpt lat="45.61727" lon="6.67958">
        <ele>1683.1999511719</ele>
        <time>2021-02-23T09:07:45.000Z</time>
      </trkpt>
      <trkpt lat="45.61726" lon="6.67959">
        <ele>1683.5999755859</ele>
        <time>2021-02-23T09:07:46.000Z</time>
      </trkpt>
      <trkpt lat="45.61724" lon="6.67966">
        <ele>1684.5999755859</ele>
        <time>2021-02-23T09:07:52.000Z</time>
      </trkpt>
      <trkpt lat="45.61723" lon="6.67967">
        <ele>1685</ele>
        <time>2021-02-23T09:07:53.000Z</time>
      </trkpt>
      <trkpt lat="45.61722" lon="6.67973">
        <ele>1685.5999755859</ele>
        <time>2021-02-23T09:07:58.000Z</time>
      </trkpt>
      <trkpt lat="45.61721" lon="6.67977">
        <ele>1686.5999755859</ele>
        <time>2021-02-23T09:08:01.000Z</time>
      </trkpt>
      <trkpt lat="45.61719" lon="6.6798">
        <ele>1687.8000488281</ele>
        <time>2021-02-23T09:08:06.000Z</time>
      </trkpt>
      <trkpt lat="45.61718" lon="6.67983">
        <ele>1688.4000244141</ele>
        <time>2021-02-23T09:08:10.000Z</time>
      </trkpt>
      <trkpt lat="45.61718" lon="6.67985">
        <ele>1688.8000488281</ele>
        <time>2021-02-23T09:08:14.000Z</time>
      </trkpt>
      <trkpt lat="45.61717" lon="6.67989">
        <ele>1689.4000244141</ele>
        <time>2021-02-23T09:08:18.000Z</time>
      </trkpt>
      <trkpt lat="45.61716" lon="6.67991">
        <ele>1689.8000488281</ele>
        <time>2021-02-23T09:08:21.000Z</time>
      </trkpt>
      <trkpt lat="45.61715" lon="6.67993">
        <ele>1691.1999511719</ele>
        <time>2021-02-23T09:08:25.000Z</time>
      </trkpt>
      <trkpt lat="45.61713" lon="6.67997">
        <ele>1691.8000488281</ele>
        <time>2021-02-23T09:08:29.000Z</time>
      </trkpt>
      <trkpt lat="45.61712" lon="6.67999">
        <ele>1692.5999755859</ele>
        <time>2021-02-23T09:08:32.000Z</time>
      </trkpt>
      <trkpt lat="45.61709" lon="6.68002">
        <ele>1693.5999755859</ele>
        <time>2021-02-23T09:08:38.000Z</time>
      </trkpt>
      <trkpt lat="45.61709" lon="6.68002">
        <ele>1693.8000488281</ele>
        <time>2021-02-23T09:08:39.000Z</time>
      </trkpt>
      <trkpt lat="45.61708" lon="6.68004">
        <ele>1694.8000488281</ele>
        <time>2021-02-23T09:08:45.000Z</time>
      </trkpt>
      <trkpt lat="45.61708" lon="6.68008">
        <ele>1695.4000244141</ele>
        <time>2021-02-23T09:08:49.000Z</time>
      </trkpt>
      <trkpt lat="45.61708" lon="6.68009">
        <ele>1696.1999511719</ele>
        <time>2021-02-23T09:08:52.000Z</time>
      </trkpt>
      <trkpt lat="45.6171" lon="6.68009">
        <ele>1697.4000244141</ele>
        <time>2021-02-23T09:08:55.000Z</time>
      </trkpt>
      <trkpt lat="45.61711" lon="6.68012">
        <ele>1698.4000244141</ele>
        <time>2021-02-23T09:08:59.000Z</time>
      </trkpt>
      <trkpt lat="45.61715" lon="6.68014">
        <ele>1699.8000488281</ele>
        <time>2021-02-23T09:09:06.000Z</time>
      </trkpt>
      <trkpt lat="45.61718" lon="6.68015">
        <ele>1700.1999511719</ele>
        <time>2021-02-23T09:09:11.000Z</time>
      </trkpt>
      <trkpt lat="45.6172" lon="6.68015">
        <ele>1700.8000488281</ele>
        <time>2021-02-23T09:09:13.000Z</time>
      </trkpt>
      <trkpt lat="45.61722" lon="6.68016">
        <ele>1702</ele>
        <time>2021-02-23T09:09:17.000Z</time>
      </trkpt>
      <trkpt lat="45.61726" lon="6.68017">
        <ele>1702.8000488281</ele>
        <time>2021-02-23T09:09:22.000Z</time>
      </trkpt>
      <trkpt lat="45.61728" lon="6.68018">
        <ele>1703.1999511719</ele>
        <time>2021-02-23T09:09:24.000Z</time>
      </trkpt>
      <trkpt lat="45.61731" lon="6.68019">
        <ele>1704.4000244141</ele>
        <time>2021-02-23T09:09:29.000Z</time>
      </trkpt>
      <trkpt lat="45.61734" lon="6.68018">
        <ele>1705</ele>
        <time>2021-02-23T09:09:33.000Z</time>
      </trkpt>
      <trkpt lat="45.61737" lon="6.68018">
        <ele>1705.5999755859</ele>
        <time>2021-02-23T09:09:37.000Z</time>
      </trkpt>
      <trkpt lat="45.61739" lon="6.6802">
        <ele>1706.5999755859</ele>
        <time>2021-02-23T09:09:43.000Z</time>
      </trkpt>
      <trkpt lat="45.6174" lon="6.68021">
        <ele>1707.4000244141</ele>
        <time>2021-02-23T09:09:45.000Z</time>
      </trkpt>
      <trkpt lat="45.6174" lon="6.68022">
        <ele>1707.8000488281</ele>
        <time>2021-02-23T09:09:46.000Z</time>
      </trkpt>
      <trkpt lat="45.61744" lon="6.68024">
        <ele>1708.8000488281</ele>
        <time>2021-02-23T09:09:53.000Z</time>
      </trkpt>
      <trkpt lat="45.61745" lon="6.68024">
        <ele>1709.8000488281</ele>
        <time>2021-02-23T09:09:55.000Z</time>
      </trkpt>
      <trkpt lat="45.61746" lon="6.68024">
        <ele>1710</ele>
        <time>2021-02-23T09:09:56.000Z</time>
      </trkpt>
      <trkpt lat="45.61752" lon="6.68023">
        <ele>1711</ele>
        <time>2021-02-23T09:10:03.000Z</time>
      </trkpt>
      <trkpt lat="45.61754" lon="6.68021">
        <ele>1711.1999511719</ele>
        <time>2021-02-23T09:10:04.000Z</time>
      </trkpt>
      <trkpt lat="45.61758" lon="6.68019">
        <ele>1712</ele>
        <time>2021-02-23T09:10:08.000Z</time>
      </trkpt>
      <trkpt lat="45.61757" lon="6.68022">
        <ele>1713.1999511719</ele>
        <time>2021-02-23T09:10:12.000Z</time>
      </trkpt>
      <trkpt lat="45.61758" lon="6.68022">
        <ele>1713.1999511719</ele>
        <time>2021-02-23T09:10:13.000Z</time>
      </trkpt>
      <trkpt lat="45.61765" lon="6.68021">
        <ele>1714.1999511719</ele>
        <time>2021-02-23T09:10:21.000Z</time>
      </trkpt>
      <trkpt lat="45.61766" lon="6.68021">
        <ele>1714.4000244141</ele>
        <time>2021-02-23T09:10:22.000Z</time>
      </trkpt>
      <trkpt lat="45.6177" lon="6.68021">
        <ele>1715.1999511719</ele>
        <time>2021-02-23T09:10:27.000Z</time>
      </trkpt>
      <trkpt lat="45.61773" lon="6.68021">
        <ele>1716.4000244141</ele>
        <time>2021-02-23T09:10:31.000Z</time>
      </trkpt>
      <trkpt lat="45.61779" lon="6.68022">
        <ele>1717.5999755859</ele>
        <time>2021-02-23T09:10:38.000Z</time>
      </trkpt>
      <trkpt lat="45.61778" lon="6.68021">
        <ele>1718.4000244141</ele>
        <time>2021-02-23T09:10:43.000Z</time>
      </trkpt>
      <trkpt lat="45.61776" lon="6.68021">
        <ele>1718.5999755859</ele>
        <time>2021-02-23T09:10:44.000Z</time>
      </trkpt>
      <trkpt lat="45.61774" lon="6.68024">
        <ele>1719.5999755859</ele>
        <time>2021-02-23T09:10:49.000Z</time>
      </trkpt>
      <trkpt lat="45.61771" lon="6.68031">
        <ele>1720.8000488281</ele>
        <time>2021-02-23T09:10:56.000Z</time>
      </trkpt>
      <trkpt lat="45.6177" lon="6.68033">
        <ele>1721.4000244141</ele>
        <time>2021-02-23T09:10:59.000Z</time>
      </trkpt>
      <trkpt lat="45.61769" lon="6.68037">
        <ele>1722</ele>
        <time>2021-02-23T09:11:03.000Z</time>
      </trkpt>
      <trkpt lat="45.61768" lon="6.68042">
        <ele>1722.8000488281</ele>
        <time>2021-02-23T09:11:07.000Z</time>
      </trkpt>
      <trkpt lat="45.61768" lon="6.68044">
        <ele>1723</ele>
        <time>2021-02-23T09:11:09.000Z</time>
      </trkpt>
      <trkpt lat="45.61767" lon="6.68048">
        <ele>1724.1999511719</ele>
        <time>2021-02-23T09:11:13.000Z</time>
      </trkpt>
      <trkpt lat="45.61765" lon="6.68052">
        <ele>1725</ele>
        <time>2021-02-23T09:11:17.000Z</time>
      </trkpt>
      <trkpt lat="45.61764" lon="6.68053">
        <ele>1725.1999511719</ele>
        <time>2021-02-23T09:11:18.000Z</time>
      </trkpt>
      <trkpt lat="45.6176" lon="6.68059">
        <ele>1726.4000244141</ele>
        <time>2021-02-23T09:11:24.000Z</time>
      </trkpt>
      <trkpt lat="45.61758" lon="6.68065">
        <ele>1727.1999511719</ele>
        <time>2021-02-23T09:11:29.000Z</time>
      </trkpt>
      <trkpt lat="45.61758" lon="6.68066">
        <ele>1727.4000244141</ele>
        <time>2021-02-23T09:11:32.000Z</time>
      </trkpt>
      <trkpt lat="45.61759" lon="6.68066">
        <ele>1728.8000488281</ele>
        <time>2021-02-23T09:11:36.000Z</time>
      </trkpt>
      <trkpt lat="45.61768" lon="6.68063">
        <ele>1729.8000488281</ele>
        <time>2021-02-23T09:11:42.000Z</time>
      </trkpt>
      <trkpt lat="45.61774" lon="6.68062">
        <ele>1731</ele>
        <time>2021-02-23T09:11:48.000Z</time>
      </trkpt>
      <trkpt lat="45.6178" lon="6.68064">
        <ele>1732</ele>
        <time>2021-02-23T09:11:55.000Z</time>
      </trkpt>
      <trkpt lat="45.61783" lon="6.68066">
        <ele>1733.1999511719</ele>
        <time>2021-02-23T09:12:00.000Z</time>
      </trkpt>
      <trkpt lat="45.61784" lon="6.68066">
        <ele>1733.4000244141</ele>
        <time>2021-02-23T09:12:01.000Z</time>
      </trkpt>
      <trkpt lat="45.61789" lon="6.68067">
        <ele>1734.1999511719</ele>
        <time>2021-02-23T09:12:06.000Z</time>
      </trkpt>
      <trkpt lat="45.61791" lon="6.68068">
        <ele>1735.1999511719</ele>
        <time>2021-02-23T09:12:09.000Z</time>
      </trkpt>
      <trkpt lat="45.61794" lon="6.68068">
        <ele>1735.8000488281</ele>
        <time>2021-02-23T09:12:12.000Z</time>
      </trkpt>
      <trkpt lat="45.61804" lon="6.68067">
        <ele>1736.4000244141</ele>
        <time>2021-02-23T09:12:21.000Z</time>
      </trkpt>
      <trkpt lat="45.61806" lon="6.68069">
        <ele>1737.8000488281</ele>
        <time>2021-02-23T09:12:24.000Z</time>
      </trkpt>
      <trkpt lat="45.61812" lon="6.68069">
        <ele>1738.8000488281</ele>
        <time>2021-02-23T09:12:30.000Z</time>
      </trkpt>
      <trkpt lat="45.61813" lon="6.6807">
        <ele>1739.1999511719</ele>
        <time>2021-02-23T09:12:33.000Z</time>
      </trkpt>
      <trkpt lat="45.61817" lon="6.68069">
        <ele>1740</ele>
        <time>2021-02-23T09:12:38.000Z</time>
      </trkpt>
      <trkpt lat="45.61817" lon="6.68071">
        <ele>1740.5999755859</ele>
        <time>2021-02-23T09:12:41.000Z</time>
      </trkpt>
      <trkpt lat="45.61819" lon="6.6807">
        <ele>1741.1999511719</ele>
        <time>2021-02-23T09:12:45.000Z</time>
      </trkpt>
      <trkpt lat="45.61822" lon="6.68068">
        <ele>1742.4000244141</ele>
        <time>2021-02-23T09:12:50.000Z</time>
      </trkpt>
      <trkpt lat="45.61822" lon="6.68068">
        <ele>1742.1999511719</ele>
        <time>2021-02-23T09:12:51.000Z</time>
      </trkpt>
      <trkpt lat="45.61828" lon="6.68064">
        <ele>1743.4000244141</ele>
        <time>2021-02-23T09:13:00.000Z</time>
      </trkpt>
      <trkpt lat="45.61828" lon="6.68064">
        <ele>1743.5999755859</ele>
        <time>2021-02-23T09:13:01.000Z</time>
      </trkpt>
      <trkpt lat="45.61828" lon="6.68064">
        <ele>1744</ele>
        <time>2021-02-23T09:13:02.000Z</time>
      </trkpt>
      <trkpt lat="45.61828" lon="6.68065">
        <ele>1744.5999755859</ele>
        <time>2021-02-23T09:13:04.000Z</time>
      </trkpt>
      <trkpt lat="45.61827" lon="6.6806">
        <ele>1744.5999755859</ele>
        <time>2021-02-23T09:13:16.000Z</time>
      </trkpt>
      <trkpt lat="45.61829" lon="6.68058">
        <ele>1744.4000244141</ele>
        <time>2021-02-23T09:13:30.000Z</time>
      </trkpt>
      <trkpt lat="45.61834" lon="6.68058">
        <ele>1744.4000244141</ele>
        <time>2021-02-23T09:13:46.000Z</time>
      </trkpt>
      <trkpt lat="45.61837" lon="6.6806">
        <ele>1745.1999511719</ele>
        <time>2021-02-23T09:14:00.000Z</time>
      </trkpt>
      <trkpt lat="45.61837" lon="6.6806">
        <ele>1744.4000244141</ele>
        <time>2021-02-23T09:14:14.000Z</time>
      </trkpt>
      <trkpt lat="45.61837" lon="6.6806">
        <ele>1744.1999511719</ele>
        <time>2021-02-23T09:14:29.000Z</time>
      </trkpt>
      <trkpt lat="45.61838" lon="6.6806">
        <ele>1745.8000488281</ele>
        <time>2021-02-23T09:14:38.000Z</time>
      </trkpt>
      <trkpt lat="45.61838" lon="6.6806">
        <ele>1746.5999755859</ele>
        <time>2021-02-23T09:14:40.000Z</time>
      </trkpt>
      <trkpt lat="45.61838" lon="6.6806">
        <ele>1747</ele>
        <time>2021-02-23T09:14:42.000Z</time>
      </trkpt>
      <trkpt lat="45.61838" lon="6.6806">
        <ele>1748.1999511719</ele>
        <time>2021-02-23T09:14:45.000Z</time>
      </trkpt>
      <trkpt lat="45.61838" lon="6.68064">
        <ele>1749.1999511719</ele>
        <time>2021-02-23T09:14:50.000Z</time>
      </trkpt>
      <trkpt lat="45.61839" lon="6.68064">
        <ele>1749.4000244141</ele>
        <time>2021-02-23T09:14:51.000Z</time>
      </trkpt>
      <trkpt lat="45.61838" lon="6.68069">
        <ele>1750.4000244141</ele>
        <time>2021-02-23T09:14:55.000Z</time>
      </trkpt>
      <trkpt lat="45.61838" lon="6.68072">
        <ele>1750.8000488281</ele>
        <time>2021-02-23T09:14:58.000Z</time>
      </trkpt>
      <trkpt lat="45.61837" lon="6.68076">
        <ele>1751.5999755859</ele>
        <time>2021-02-23T09:15:02.000Z</time>
      </trkpt>
      <trkpt lat="45.61834" lon="6.6808">
        <ele>1752.1999511719</ele>
        <time>2021-02-23T09:15:06.000Z</time>
      </trkpt>
      <trkpt lat="45.61831" lon="6.68083">
        <ele>1752.5999755859</ele>
        <time>2021-02-23T09:15:12.000Z</time>
      </trkpt>
      <trkpt lat="45.6183" lon="6.68085">
        <ele>1753.5999755859</ele>
        <time>2021-02-23T09:15:15.000Z</time>
      </trkpt>
      <trkpt lat="45.61824" lon="6.68095">
        <ele>1754.8000488281</ele>
        <time>2021-02-23T09:15:25.000Z</time>
      </trkpt>
      <trkpt lat="45.61822" lon="6.68098">
        <ele>1755.8000488281</ele>
        <time>2021-02-23T09:15:30.000Z</time>
      </trkpt>
      <trkpt lat="45.61822" lon="6.68098">
        <ele>1756.5999755859</ele>
        <time>2021-02-23T09:15:34.000Z</time>
      </trkpt>
      <trkpt lat="45.61822" lon="6.68098">
        <ele>1757</ele>
        <time>2021-02-23T09:15:35.000Z</time>
      </trkpt>
      <trkpt lat="45.61822" lon="6.68098">
        <ele>1758</ele>
        <time>2021-02-23T09:15:38.000Z</time>
      </trkpt>
      <trkpt lat="45.61822" lon="6.68098">
        <ele>1758.8000488281</ele>
        <time>2021-02-23T09:15:43.000Z</time>
      </trkpt>
      <trkpt lat="45.61822" lon="6.68098">
        <ele>1759</ele>
        <time>2021-02-23T09:15:44.000Z</time>
      </trkpt>
      <trkpt lat="45.61822" lon="6.68098">
        <ele>1760</ele>
        <time>2021-02-23T09:15:52.000Z</time>
      </trkpt>
      <trkpt lat="45.61822" lon="6.68098">
        <ele>1760.4000244141</ele>
        <time>2021-02-23T09:15:53.000Z</time>
      </trkpt>
      <trkpt lat="45.61822" lon="6.68098">
        <ele>1761</ele>
        <time>2021-02-23T09:15:56.000Z</time>
      </trkpt>
      <trkpt lat="45.61822" lon="6.68098">
        <ele>1762</ele>
        <time>2021-02-23T09:16:01.000Z</time>
      </trkpt>
      <trkpt lat="45.61822" lon="6.68098">
        <ele>1763</ele>
        <time>2021-02-23T09:16:04.000Z</time>
      </trkpt>
      <trkpt lat="45.61822" lon="6.68098">
        <ele>1763.1999511719</ele>
        <time>2021-02-23T09:16:05.000Z</time>
      </trkpt>
      <trkpt lat="45.61823" lon="6.68099">
        <ele>1764.4000244141</ele>
        <time>2021-02-23T09:16:10.000Z</time>
      </trkpt>
      <trkpt lat="45.61823" lon="6.68099">
        <ele>1764.5999755859</ele>
        <time>2021-02-23T09:16:12.000Z</time>
      </trkpt>
      <trkpt lat="45.61823" lon="6.68099">
        <ele>1765.4000244141</ele>
        <time>2021-02-23T09:16:19.000Z</time>
      </trkpt>
      <trkpt lat="45.61823" lon="6.68099">
        <ele>1766</ele>
        <time>2021-02-23T09:16:29.000Z</time>
      </trkpt>
      <trkpt lat="45.61823" lon="6.68099">
        <ele>1766.5999755859</ele>
        <time>2021-02-23T09:16:33.000Z</time>
      </trkpt>
      <trkpt lat="45.61823" lon="6.68099">
        <ele>1766.8000488281</ele>
        <time>2021-02-23T09:16:38.000Z</time>
      </trkpt>
      <trkpt lat="45.61824" lon="6.68102">
        <ele>1767.1999511719</ele>
        <time>2021-02-23T09:16:44.000Z</time>
      </trkpt>
      <trkpt lat="45.61826" lon="6.68105">
        <ele>1767.5999755859</ele>
        <time>2021-02-23T09:16:47.000Z</time>
      </trkpt>
      <trkpt lat="45.61829" lon="6.68109">
        <ele>1768.1999511719</ele>
        <time>2021-02-23T09:16:53.000Z</time>
      </trkpt>
      <trkpt lat="45.6183" lon="6.6811">
        <ele>1768.8000488281</ele>
        <time>2021-02-23T09:17:01.000Z</time>
      </trkpt>
      <trkpt lat="45.6183" lon="6.6811">
        <ele>1769</ele>
        <time>2021-02-23T09:17:02.000Z</time>
      </trkpt>
      <trkpt lat="45.6183" lon="6.68113">
        <ele>1770</ele>
        <time>2021-02-23T09:17:09.000Z</time>
      </trkpt>
      <trkpt lat="45.6183" lon="6.68116">
        <ele>1770</ele>
        <time>2021-02-23T09:17:11.000Z</time>
      </trkpt>
      <trkpt lat="45.61829" lon="6.68122">
        <ele>1771</ele>
        <time>2021-02-23T09:17:17.000Z</time>
      </trkpt>
      <trkpt lat="45.61828" lon="6.68125">
        <ele>1771.5999755859</ele>
        <time>2021-02-23T09:17:22.000Z</time>
      </trkpt>
      <trkpt lat="45.61826" lon="6.68126">
        <ele>1772</ele>
        <time>2021-02-23T09:17:26.000Z</time>
      </trkpt>
      <trkpt lat="45.61825" lon="6.68128">
        <ele>1772.5999755859</ele>
        <time>2021-02-23T09:17:31.000Z</time>
      </trkpt>
      <trkpt lat="45.61825" lon="6.68128">
        <ele>1773</ele>
        <time>2021-02-23T09:17:34.000Z</time>
      </trkpt>
      <trkpt lat="45.61825" lon="6.68128">
        <ele>1773.1999511719</ele>
        <time>2021-02-23T09:17:40.000Z</time>
      </trkpt>
      <trkpt lat="45.61825" lon="6.68128">
        <ele>1774.1999511719</ele>
        <time>2021-02-23T09:17:47.000Z</time>
      </trkpt>
      <trkpt lat="45.61825" lon="6.68128">
        <ele>1774.5999755859</ele>
        <time>2021-02-23T09:17:49.000Z</time>
      </trkpt>
      <trkpt lat="45.61825" lon="6.68128">
        <ele>1775.4000244141</ele>
        <time>2021-02-23T09:17:54.000Z</time>
      </trkpt>
      <trkpt lat="45.61825" lon="6.68128">
        <ele>1776</ele>
        <time>2021-02-23T09:17:58.000Z</time>
      </trkpt>
      <trkpt lat="45.61822" lon="6.68131">
        <ele>1776.4000244141</ele>
        <time>2021-02-23T09:18:05.000Z</time>
      </trkpt>
      <trkpt lat="45.61821" lon="6.68133">
        <ele>1776.5999755859</ele>
        <time>2021-02-23T09:18:07.000Z</time>
      </trkpt>
      <trkpt lat="45.61818" lon="6.68135">
        <ele>1777.4000244141</ele>
        <time>2021-02-23T09:18:14.000Z</time>
      </trkpt>
      <trkpt lat="45.61817" lon="6.68135">
        <ele>1778</ele>
        <time>2021-02-23T09:18:17.000Z</time>
      </trkpt>
      <trkpt lat="45.61816" lon="6.68135">
        <ele>1778.4000244141</ele>
        <time>2021-02-23T09:18:20.000Z</time>
      </trkpt>
      <trkpt lat="45.61812" lon="6.68137">
        <ele>1779.5999755859</ele>
        <time>2021-02-23T09:18:26.000Z</time>
      </trkpt>
      <trkpt lat="45.61812" lon="6.68138">
        <ele>1780</ele>
        <time>2021-02-23T09:18:28.000Z</time>
      </trkpt>
      <trkpt lat="45.61806" lon="6.68142">
        <ele>1780.4000244141</ele>
        <time>2021-02-23T09:18:38.000Z</time>
      </trkpt>
      <trkpt lat="45.61803" lon="6.68146">
        <ele>1780.8000488281</ele>
        <time>2021-02-23T09:18:43.000Z</time>
      </trkpt>
      <trkpt lat="45.61798" lon="6.68152">
        <ele>1782</ele>
        <time>2021-02-23T09:18:50.000Z</time>
      </trkpt>
      <trkpt lat="45.61793" lon="6.6816">
        <ele>1783</ele>
        <time>2021-02-23T09:18:58.000Z</time>
      </trkpt>
      <trkpt lat="45.61791" lon="6.68162">
        <ele>1783.1999511719</ele>
        <time>2021-02-23T09:19:01.000Z</time>
      </trkpt>
      <trkpt lat="45.61789" lon="6.68168">
        <ele>1784.1999511719</ele>
        <time>2021-02-23T09:19:06.000Z</time>
      </trkpt>
      <trkpt lat="45.61788" lon="6.68172">
        <ele>1784.4000244141</ele>
        <time>2021-02-23T09:19:09.000Z</time>
      </trkpt>
      <trkpt lat="45.61789" lon="6.68175">
        <ele>1785.1999511719</ele>
        <time>2021-02-23T09:19:13.000Z</time>
      </trkpt>
      <trkpt lat="45.61793" lon="6.68178">
        <ele>1786.4000244141</ele>
        <time>2021-02-23T09:19:18.000Z</time>
      </trkpt>
      <trkpt lat="45.61798" lon="6.6818">
        <ele>1787.5999755859</ele>
        <time>2021-02-23T09:19:24.000Z</time>
      </trkpt>
      <trkpt lat="45.618" lon="6.6818">
        <ele>1788</ele>
        <time>2021-02-23T09:19:27.000Z</time>
      </trkpt>
      <trkpt lat="45.61803" lon="6.68181">
        <ele>1788.8000488281</ele>
        <time>2021-02-23T09:19:31.000Z</time>
      </trkpt>
      <trkpt lat="45.61804" lon="6.68182">
        <ele>1789.5999755859</ele>
        <time>2021-02-23T09:19:35.000Z</time>
      </trkpt>
      <trkpt lat="45.61804" lon="6.68182">
        <ele>1790</ele>
        <time>2021-02-23T09:19:38.000Z</time>
      </trkpt>
      <trkpt lat="45.61804" lon="6.68182">
        <ele>1790.5999755859</ele>
        <time>2021-02-23T09:19:44.000Z</time>
      </trkpt>
      <trkpt lat="45.61804" lon="6.68182">
        <ele>1791</ele>
        <time>2021-02-23T09:19:48.000Z</time>
      </trkpt>
      <trkpt lat="45.61804" lon="6.68182">
        <ele>1791.8000488281</ele>
        <time>2021-02-23T09:19:52.000Z</time>
      </trkpt>
      <trkpt lat="45.61804" lon="6.68182">
        <ele>1792.1999511719</ele>
        <time>2021-02-23T09:19:59.000Z</time>
      </trkpt>
      <trkpt lat="45.61802" lon="6.68185">
        <ele>1792.5999755859</ele>
        <time>2021-02-23T09:20:02.000Z</time>
      </trkpt>
      <trkpt lat="45.61801" lon="6.68185">
        <ele>1793.1999511719</ele>
        <time>2021-02-23T09:20:05.000Z</time>
      </trkpt>
      <trkpt lat="45.61801" lon="6.68185">
        <ele>1793.1999511719</ele>
        <time>2021-02-23T09:20:12.000Z</time>
      </trkpt>
      <trkpt lat="45.61801" lon="6.68185">
        <ele>1793.8000488281</ele>
        <time>2021-02-23T09:20:19.000Z</time>
      </trkpt>
      <trkpt lat="45.61801" lon="6.68185">
        <ele>1794.4000244141</ele>
        <time>2021-02-23T09:20:22.000Z</time>
      </trkpt>
      <trkpt lat="45.61801" lon="6.68185">
        <ele>1794.5999755859</ele>
        <time>2021-02-23T09:20:29.000Z</time>
      </trkpt>
      <trkpt lat="45.61801" lon="6.68185">
        <ele>1795.4000244141</ele>
        <time>2021-02-23T09:20:32.000Z</time>
      </trkpt>
      <trkpt lat="45.61801" lon="6.68185">
        <ele>1796</ele>
        <time>2021-02-23T09:20:38.000Z</time>
      </trkpt>
      <trkpt lat="45.61801" lon="6.68185">
        <ele>1796.4000244141</ele>
        <time>2021-02-23T09:20:41.000Z</time>
      </trkpt>
      <trkpt lat="45.618" lon="6.6819">
        <ele>1797.4000244141</ele>
        <time>2021-02-23T09:20:44.000Z</time>
      </trkpt>
      <trkpt lat="45.61798" lon="6.68195">
        <ele>1798.1999511719</ele>
        <time>2021-02-23T09:20:49.000Z</time>
      </trkpt>
      <trkpt lat="45.61797" lon="6.68197">
        <ele>1798.5999755859</ele>
        <time>2021-02-23T09:20:51.000Z</time>
      </trkpt>
      <trkpt lat="45.61795" lon="6.68201">
        <ele>1799.8000488281</ele>
        <time>2021-02-23T09:20:55.000Z</time>
      </trkpt>
      <trkpt lat="45.61795" lon="6.68202">
        <ele>1800</ele>
        <time>2021-02-23T09:20:59.000Z</time>
      </trkpt>
      <trkpt lat="45.61792" lon="6.68205">
        <ele>1800.8000488281</ele>
        <time>2021-02-23T09:21:07.000Z</time>
      </trkpt>
      <trkpt lat="45.61792" lon="6.68206">
        <ele>1800.5999755859</ele>
        <time>2021-02-23T09:21:09.000Z</time>
      </trkpt>
      <trkpt lat="45.61788" lon="6.68206">
        <ele>1802</ele>
        <time>2021-02-23T09:21:15.000Z</time>
      </trkpt>
      <trkpt lat="45.61784" lon="6.68209">
        <ele>1802.5999755859</ele>
        <time>2021-02-23T09:21:19.000Z</time>
      </trkpt>
      <trkpt lat="45.61782" lon="6.68212">
        <ele>1803</ele>
        <time>2021-02-23T09:21:23.000Z</time>
      </trkpt>
      <trkpt lat="45.61781" lon="6.68218">
        <ele>1804</ele>
        <time>2021-02-23T09:21:28.000Z</time>
      </trkpt>
      <trkpt lat="45.61781" lon="6.68219">
        <ele>1804</ele>
        <time>2021-02-23T09:21:29.000Z</time>
      </trkpt>
      <trkpt lat="45.6178" lon="6.68227">
        <ele>1805.1999511719</ele>
        <time>2021-02-23T09:21:37.000Z</time>
      </trkpt>
      <trkpt lat="45.6178" lon="6.68229">
        <ele>1806</ele>
        <time>2021-02-23T09:21:38.000Z</time>
      </trkpt>
      <trkpt lat="45.6178" lon="6.68233">
        <ele>1806.4000244141</ele>
        <time>2021-02-23T09:21:41.000Z</time>
      </trkpt>
      <trkpt lat="45.61779" lon="6.68236">
        <ele>1807.1999511719</ele>
        <time>2021-02-23T09:21:46.000Z</time>
      </trkpt>
      <trkpt lat="45.61779" lon="6.68237">
        <ele>1807.5999755859</ele>
        <time>2021-02-23T09:21:47.000Z</time>
      </trkpt>
      <trkpt lat="45.61777" lon="6.68243">
        <ele>1808.5999755859</ele>
        <time>2021-02-23T09:21:55.000Z</time>
      </trkpt>
      <trkpt lat="45.61776" lon="6.6825">
        <ele>1809.4000244141</ele>
        <time>2021-02-23T09:22:01.000Z</time>
      </trkpt>
      <trkpt lat="45.61776" lon="6.68251">
        <ele>1809.8000488281</ele>
        <time>2021-02-23T09:22:02.000Z</time>
      </trkpt>
      <trkpt lat="45.61778" lon="6.68258">
        <ele>1810.8000488281</ele>
        <time>2021-02-23T09:22:09.000Z</time>
      </trkpt>
      <trkpt lat="45.61778" lon="6.68259">
        <ele>1811</ele>
        <time>2021-02-23T09:22:10.000Z</time>
      </trkpt>
      <trkpt lat="45.61779" lon="6.68265">
        <ele>1812</ele>
        <time>2021-02-23T09:22:14.000Z</time>
      </trkpt>
      <trkpt lat="45.6178" lon="6.68267">
        <ele>1812.4000244141</ele>
        <time>2021-02-23T09:22:16.000Z</time>
      </trkpt>
      <trkpt lat="45.6178" lon="6.68273">
        <ele>1813.4000244141</ele>
        <time>2021-02-23T09:22:23.000Z</time>
      </trkpt>
      <trkpt lat="45.61781" lon="6.68275">
        <ele>1814.5999755859</ele>
        <time>2021-02-23T09:22:26.000Z</time>
      </trkpt>
      <trkpt lat="45.6178" lon="6.68279">
        <ele>1815</ele>
        <time>2021-02-23T09:22:30.000Z</time>
      </trkpt>
      <trkpt lat="45.61781" lon="6.68282">
        <ele>1815.5999755859</ele>
        <time>2021-02-23T09:22:35.000Z</time>
      </trkpt>
      <trkpt lat="45.61781" lon="6.68285">
        <ele>1816.4000244141</ele>
        <time>2021-02-23T09:22:38.000Z</time>
      </trkpt>
      <trkpt lat="45.61781" lon="6.68287">
        <ele>1816.8000488281</ele>
        <time>2021-02-23T09:22:40.000Z</time>
      </trkpt>
      <trkpt lat="45.61783" lon="6.68291">
        <ele>1817.1999511719</ele>
        <time>2021-02-23T09:22:45.000Z</time>
      </trkpt>
      <trkpt lat="45.61784" lon="6.68293">
        <ele>1818</ele>
        <time>2021-02-23T09:22:49.000Z</time>
      </trkpt>
      <trkpt lat="45.61784" lon="6.68293">
        <ele>1818.5999755859</ele>
        <time>2021-02-23T09:22:52.000Z</time>
      </trkpt>
      <trkpt lat="45.61784" lon="6.68293">
        <ele>1819</ele>
        <time>2021-02-23T09:22:55.000Z</time>
      </trkpt>
      <trkpt lat="45.61784" lon="6.68293">
        <ele>1820</ele>
        <time>2021-02-23T09:23:01.000Z</time>
      </trkpt>
      <trkpt lat="45.61784" lon="6.68293">
        <ele>1821.1999511719</ele>
        <time>2021-02-23T09:23:05.000Z</time>
      </trkpt>
      <trkpt lat="45.61785" lon="6.68292">
        <ele>1822.1999511719</ele>
        <time>2021-02-23T09:23:11.000Z</time>
      </trkpt>
      <trkpt lat="45.61787" lon="6.68289">
        <ele>1822.4000244141</ele>
        <time>2021-02-23T09:23:13.000Z</time>
      </trkpt>
      <trkpt lat="45.61791" lon="6.68285">
        <ele>1823.4000244141</ele>
        <time>2021-02-23T09:23:16.000Z</time>
      </trkpt>
      <trkpt lat="45.61796" lon="6.68282">
        <ele>1824.5999755859</ele>
        <time>2021-02-23T09:23:22.000Z</time>
      </trkpt>
      <trkpt lat="45.61802" lon="6.68279">
        <ele>1825.5999755859</ele>
        <time>2021-02-23T09:23:29.000Z</time>
      </trkpt>
      <trkpt lat="45.61803" lon="6.68279">
        <ele>1826.1999511719</ele>
        <time>2021-02-23T09:23:31.000Z</time>
      </trkpt>
      <trkpt lat="45.61805" lon="6.68278">
        <ele>1826.8000488281</ele>
        <time>2021-02-23T09:23:34.000Z</time>
      </trkpt>
      <trkpt lat="45.61806" lon="6.68278">
        <ele>1826.8000488281</ele>
        <time>2021-02-23T09:23:36.000Z</time>
      </trkpt>
      <trkpt lat="45.61809" lon="6.68278">
        <ele>1827</ele>
        <time>2021-02-23T09:23:40.000Z</time>
      </trkpt>
      <trkpt lat="45.61809" lon="6.68279">
        <ele>1828</ele>
        <time>2021-02-23T09:23:45.000Z</time>
      </trkpt>
      <trkpt lat="45.61809" lon="6.68279">
        <ele>1828.8000488281</ele>
        <time>2021-02-23T09:23:49.000Z</time>
      </trkpt>
      <trkpt lat="45.61809" lon="6.68279">
        <ele>1829.4000244141</ele>
        <time>2021-02-23T09:23:52.000Z</time>
      </trkpt>
      <trkpt lat="45.61809" lon="6.68279">
        <ele>1830.4000244141</ele>
        <time>2021-02-23T09:23:56.000Z</time>
      </trkpt>
      <trkpt lat="45.61809" lon="6.68279">
        <ele>1830.5999755859</ele>
        <time>2021-02-23T09:23:58.000Z</time>
      </trkpt>
      <trkpt lat="45.61809" lon="6.68279">
        <ele>1831.5999755859</ele>
        <time>2021-02-23T09:24:05.000Z</time>
      </trkpt>
      <trkpt lat="45.61809" lon="6.68279">
        <ele>1832</ele>
        <time>2021-02-23T09:24:07.000Z</time>
      </trkpt>
      <trkpt lat="45.61809" lon="6.68279">
        <ele>1833</ele>
        <time>2021-02-23T09:24:11.000Z</time>
      </trkpt>
      <trkpt lat="45.61809" lon="6.68279">
        <ele>1833.8000488281</ele>
        <time>2021-02-23T09:24:16.000Z</time>
      </trkpt>
      <trkpt lat="45.61809" lon="6.68279">
        <ele>1834</ele>
        <time>2021-02-23T09:24:17.000Z</time>
      </trkpt>
      <trkpt lat="45.6181" lon="6.68282">
        <ele>1835</ele>
        <time>2021-02-23T09:24:27.000Z</time>
      </trkpt>
      <trkpt lat="45.61812" lon="6.68296">
        <ele>1836.1999511719</ele>
        <time>2021-02-23T09:24:33.000Z</time>
      </trkpt>
      <trkpt lat="45.61812" lon="6.68299">
        <ele>1836.5999755859</ele>
        <time>2021-02-23T09:24:35.000Z</time>
      </trkpt>
      <trkpt lat="45.61812" lon="6.68303">
        <ele>1837.1999511719</ele>
        <time>2021-02-23T09:24:40.000Z</time>
      </trkpt>
      <trkpt lat="45.61813" lon="6.68306">
        <ele>1837.8000488281</ele>
        <time>2021-02-23T09:24:43.000Z</time>
      </trkpt>
      <trkpt lat="45.61813" lon="6.68306">
        <ele>1838.4000244141</ele>
        <time>2021-02-23T09:24:48.000Z</time>
      </trkpt>
      <trkpt lat="45.61813" lon="6.68306">
        <ele>1838.1999511719</ele>
        <time>2021-02-23T09:24:54.000Z</time>
      </trkpt>
      <trkpt lat="45.61813" lon="6.68306">
        <ele>1838.1999511719</ele>
        <time>2021-02-23T09:25:06.000Z</time>
      </trkpt>
      <trkpt lat="45.61813" lon="6.68306">
        <ele>1838.5999755859</ele>
        <time>2021-02-23T09:25:15.000Z</time>
      </trkpt>
      <trkpt lat="45.61813" lon="6.68306">
        <ele>1839.5999755859</ele>
        <time>2021-02-23T09:25:21.000Z</time>
      </trkpt>
      <trkpt lat="45.61815" lon="6.68303">
        <ele>1840</ele>
        <time>2021-02-23T09:25:24.000Z</time>
      </trkpt>
      <trkpt lat="45.61815" lon="6.68303">
        <ele>1840.5999755859</ele>
        <time>2021-02-23T09:25:26.000Z</time>
      </trkpt>
      <trkpt lat="45.61815" lon="6.68303">
        <ele>1841.5999755859</ele>
        <time>2021-02-23T09:25:29.000Z</time>
      </trkpt>
      <trkpt lat="45.61815" lon="6.68303">
        <ele>1842.8000488281</ele>
        <time>2021-02-23T09:25:32.000Z</time>
      </trkpt>
      <trkpt lat="45.61815" lon="6.68303">
        <ele>1843</ele>
        <time>2021-02-23T09:25:33.000Z</time>
      </trkpt>
      <trkpt lat="45.61815" lon="6.68303">
        <ele>1843.8000488281</ele>
        <time>2021-02-23T09:25:41.000Z</time>
      </trkpt>
      <trkpt lat="45.61815" lon="6.68303">
        <ele>1844</ele>
        <time>2021-02-23T09:25:43.000Z</time>
      </trkpt>
      <trkpt lat="45.61815" lon="6.68303">
        <ele>1845</ele>
        <time>2021-02-23T09:25:47.000Z</time>
      </trkpt>
      <trkpt lat="45.61815" lon="6.68303">
        <ele>1845.4000244141</ele>
        <time>2021-02-23T09:25:52.000Z</time>
      </trkpt>
      <trkpt lat="45.61815" lon="6.68303">
        <ele>1845.5999755859</ele>
        <time>2021-02-23T09:26:00.000Z</time>
      </trkpt>
      <trkpt lat="45.61815" lon="6.68303">
        <ele>1846.4000244141</ele>
        <time>2021-02-23T09:26:03.000Z</time>
      </trkpt>
      <trkpt lat="45.61815" lon="6.68303">
        <ele>1846.4000244141</ele>
        <time>2021-02-23T09:26:09.000Z</time>
      </trkpt>
      <trkpt lat="45.61816" lon="6.68308">
        <ele>1847.5999755859</ele>
        <time>2021-02-23T09:26:17.000Z</time>
      </trkpt>
      <trkpt lat="45.61817" lon="6.68309">
        <ele>1848</ele>
        <time>2021-02-23T09:26:18.000Z</time>
      </trkpt>
      <trkpt lat="45.61818" lon="6.68312">
        <ele>1848.8000488281</ele>
        <time>2021-02-23T09:26:22.000Z</time>
      </trkpt>
      <trkpt lat="45.6182" lon="6.68318">
        <ele>1850</ele>
        <time>2021-02-23T09:26:27.000Z</time>
      </trkpt>
      <trkpt lat="45.61821" lon="6.68322">
        <ele>1850.5999755859</ele>
        <time>2021-02-23T09:26:30.000Z</time>
      </trkpt>
      <trkpt lat="45.61824" lon="6.68326">
        <ele>1851</ele>
        <time>2021-02-23T09:26:36.000Z</time>
      </trkpt>
      <trkpt lat="45.61826" lon="6.68326">
        <ele>1851</ele>
        <time>2021-02-23T09:26:39.000Z</time>
      </trkpt>
      <trkpt lat="45.61828" lon="6.68327">
        <ele>1852.1999511719</ele>
        <time>2021-02-23T09:26:42.000Z</time>
      </trkpt>
      <trkpt lat="45.61829" lon="6.68326">
        <ele>1853</ele>
        <time>2021-02-23T09:26:44.000Z</time>
      </trkpt>
      <trkpt lat="45.61829" lon="6.68326">
        <ele>1853</ele>
        <time>2021-02-23T09:26:55.000Z</time>
      </trkpt>
      <trkpt lat="45.61829" lon="6.68326">
        <ele>1853.4000244141</ele>
        <time>2021-02-23T09:26:57.000Z</time>
      </trkpt>
      <trkpt lat="45.61829" lon="6.68326">
        <ele>1854.1999511719</ele>
        <time>2021-02-23T09:27:04.000Z</time>
      </trkpt>
      <trkpt lat="45.61829" lon="6.68326">
        <ele>1854.4000244141</ele>
        <time>2021-02-23T09:27:06.000Z</time>
      </trkpt>
      <trkpt lat="45.61829" lon="6.68326">
        <ele>1855.5999755859</ele>
        <time>2021-02-23T09:27:11.000Z</time>
      </trkpt>
      <trkpt lat="45.61829" lon="6.68326">
        <ele>1855.8000488281</ele>
        <time>2021-02-23T09:27:13.000Z</time>
      </trkpt>
      <trkpt lat="45.61829" lon="6.68326">
        <ele>1856.5999755859</ele>
        <time>2021-02-23T09:27:16.000Z</time>
      </trkpt>
      <trkpt lat="45.61829" lon="6.68326">
        <ele>1857</ele>
        <time>2021-02-23T09:27:20.000Z</time>
      </trkpt>
      <trkpt lat="45.6183" lon="6.68326">
        <ele>1858</ele>
        <time>2021-02-23T09:27:23.000Z</time>
      </trkpt>
      <trkpt lat="45.6183" lon="6.68326">
        <ele>1859</ele>
        <time>2021-02-23T09:27:28.000Z</time>
      </trkpt>
      <trkpt lat="45.6183" lon="6.68326">
        <ele>1860.1999511719</ele>
        <time>2021-02-23T09:27:35.000Z</time>
      </trkpt>
      <trkpt lat="45.6183" lon="6.68326">
        <ele>1861</ele>
        <time>2021-02-23T09:27:38.000Z</time>
      </trkpt>
      <trkpt lat="45.6183" lon="6.68326">
        <ele>1861.4000244141</ele>
        <time>2021-02-23T09:27:39.000Z</time>
      </trkpt>
      <trkpt lat="45.6183" lon="6.68326">
        <ele>1862.4000244141</ele>
        <time>2021-02-23T09:27:46.000Z</time>
      </trkpt>
      <trkpt lat="45.61834" lon="6.68324">
        <ele>1863</ele>
        <time>2021-02-23T09:27:48.000Z</time>
      </trkpt>
      <trkpt lat="45.61836" lon="6.68323">
        <ele>1863.5999755859</ele>
        <time>2021-02-23T09:27:53.000Z</time>
      </trkpt>
      <trkpt lat="45.61836" lon="6.68323">
        <ele>1864.8000488281</ele>
        <time>2021-02-23T09:27:57.000Z</time>
      </trkpt>
      <trkpt lat="45.61836" lon="6.68323">
        <ele>1865</ele>
        <time>2021-02-23T09:27:59.000Z</time>
      </trkpt>
      <trkpt lat="45.61836" lon="6.68323">
        <ele>1865.8000488281</ele>
        <time>2021-02-23T09:28:03.000Z</time>
      </trkpt>
      <trkpt lat="45.61836" lon="6.68323">
        <ele>1867</ele>
        <time>2021-02-23T09:28:08.000Z</time>
      </trkpt>
      <trkpt lat="45.61836" lon="6.68323">
        <ele>1868.1999511719</ele>
        <time>2021-02-23T09:28:16.000Z</time>
      </trkpt>
      <trkpt lat="45.61836" lon="6.68323">
        <ele>1868.4000244141</ele>
        <time>2021-02-23T09:28:17.000Z</time>
      </trkpt>
      <trkpt lat="45.61836" lon="6.68323">
        <ele>1869.4000244141</ele>
        <time>2021-02-23T09:28:25.000Z</time>
      </trkpt>
      <trkpt lat="45.61836" lon="6.68323">
        <ele>1869.4000244141</ele>
        <time>2021-02-23T09:28:27.000Z</time>
      </trkpt>
      <trkpt lat="45.61843" lon="6.68339">
        <ele>1870.4000244141</ele>
        <time>2021-02-23T09:28:31.000Z</time>
      </trkpt>
      <trkpt lat="45.61848" lon="6.68346">
        <ele>1871.1999511719</ele>
        <time>2021-02-23T09:28:37.000Z</time>
      </trkpt>
      <trkpt lat="45.61848" lon="6.68346">
        <ele>1871.4000244141</ele>
        <time>2021-02-23T09:28:39.000Z</time>
      </trkpt>
      <trkpt lat="45.61848" lon="6.68346">
        <ele>1872.5999755859</ele>
        <time>2021-02-23T09:28:44.000Z</time>
      </trkpt>
      <trkpt lat="45.61848" lon="6.68346">
        <ele>1872.8000488281</ele>
        <time>2021-02-23T09:28:45.000Z</time>
      </trkpt>
      <trkpt lat="45.61848" lon="6.68346">
        <ele>1873.5999755859</ele>
        <time>2021-02-23T09:28:48.000Z</time>
      </trkpt>
      <trkpt lat="45.61848" lon="6.68346">
        <ele>1874.1999511719</ele>
        <time>2021-02-23T09:28:56.000Z</time>
      </trkpt>
      <trkpt lat="45.61848" lon="6.68346">
        <ele>1874.8000488281</ele>
        <time>2021-02-23T09:28:59.000Z</time>
      </trkpt>
      <trkpt lat="45.61848" lon="6.68346">
        <ele>1876</ele>
        <time>2021-02-23T09:29:04.000Z</time>
      </trkpt>
      <trkpt lat="45.61848" lon="6.68346">
        <ele>1877</ele>
        <time>2021-02-23T09:29:08.000Z</time>
      </trkpt>
      <trkpt lat="45.61848" lon="6.68346">
        <ele>1877.4000244141</ele>
        <time>2021-02-23T09:29:10.000Z</time>
      </trkpt>
      <trkpt lat="45.61847" lon="6.68348">
        <ele>1877.5999755859</ele>
        <time>2021-02-23T09:29:18.000Z</time>
      </trkpt>
      <trkpt lat="45.61845" lon="6.68353">
        <ele>1878</ele>
        <time>2021-02-23T09:29:21.000Z</time>
      </trkpt>
      <trkpt lat="45.61846" lon="6.68361">
        <ele>1879.1999511719</ele>
        <time>2021-02-23T09:29:26.000Z</time>
      </trkpt>
      <trkpt lat="45.61855" lon="6.68375">
        <ele>1880.4000244141</ele>
        <time>2021-02-23T09:29:34.000Z</time>
      </trkpt>
      <trkpt lat="45.61862" lon="6.68383">
        <ele>1881.4000244141</ele>
        <time>2021-02-23T09:29:41.000Z</time>
      </trkpt>
      <trkpt lat="45.61864" lon="6.68385">
        <ele>1882.1999511719</ele>
        <time>2021-02-23T09:29:43.000Z</time>
      </trkpt>
      <trkpt lat="45.61864" lon="6.68385">
        <ele>1882.5999755859</ele>
        <time>2021-02-23T09:29:44.000Z</time>
      </trkpt>
      <trkpt lat="45.61869" lon="6.6839">
        <ele>1883.5999755859</ele>
        <time>2021-02-23T09:29:49.000Z</time>
      </trkpt>
      <trkpt lat="45.61873" lon="6.68393">
        <ele>1884</ele>
        <time>2021-02-23T09:29:53.000Z</time>
      </trkpt>
      <trkpt lat="45.61875" lon="6.68394">
        <ele>1884.8000488281</ele>
        <time>2021-02-23T09:29:56.000Z</time>
      </trkpt>
      <trkpt lat="45.61877" lon="6.68394">
        <ele>1885.8000488281</ele>
        <time>2021-02-23T09:30:01.000Z</time>
      </trkpt>
      <trkpt lat="45.61877" lon="6.68394">
        <ele>1887</ele>
        <time>2021-02-23T09:30:10.000Z</time>
      </trkpt>
      <trkpt lat="45.61877" lon="6.68394">
        <ele>1886.8000488281</ele>
        <time>2021-02-23T09:30:11.000Z</time>
      </trkpt>
      <trkpt lat="45.61877" lon="6.68394">
        <ele>1888.4000244141</ele>
        <time>2021-02-23T09:30:18.000Z</time>
      </trkpt>
      <trkpt lat="45.61877" lon="6.68394">
        <ele>1888.1999511719</ele>
        <time>2021-02-23T09:30:19.000Z</time>
      </trkpt>
      <trkpt lat="45.61883" lon="6.68387">
        <ele>1889.1999511719</ele>
        <time>2021-02-23T09:30:27.000Z</time>
      </trkpt>
      <trkpt lat="45.61884" lon="6.68386">
        <ele>1889.5999755859</ele>
        <time>2021-02-23T09:30:29.000Z</time>
      </trkpt>
      <trkpt lat="45.61884" lon="6.68386">
        <ele>1890.8000488281</ele>
        <time>2021-02-23T09:30:33.000Z</time>
      </trkpt>
      <trkpt lat="45.61884" lon="6.68386">
        <ele>1891.8000488281</ele>
        <time>2021-02-23T09:30:36.000Z</time>
      </trkpt>
      <trkpt lat="45.61885" lon="6.68386">
        <ele>1892</ele>
        <time>2021-02-23T09:30:37.000Z</time>
      </trkpt>
      <trkpt lat="45.61895" lon="6.68384">
        <ele>1892.8000488281</ele>
        <time>2021-02-23T09:30:45.000Z</time>
      </trkpt>
      <trkpt lat="45.61896" lon="6.68384">
        <ele>1893</ele>
        <time>2021-02-23T09:30:46.000Z</time>
      </trkpt>
      <trkpt lat="45.619" lon="6.68382">
        <ele>1894.4000244141</ele>
        <time>2021-02-23T09:30:51.000Z</time>
      </trkpt>
      <trkpt lat="45.61903" lon="6.68381">
        <ele>1894.8000488281</ele>
        <time>2021-02-23T09:30:54.000Z</time>
      </trkpt>
      <trkpt lat="45.6191" lon="6.68381">
        <ele>1895.5999755859</ele>
        <time>2021-02-23T09:31:02.000Z</time>
      </trkpt>
      <trkpt lat="45.61911" lon="6.68381">
        <ele>1895.5999755859</ele>
        <time>2021-02-23T09:31:03.000Z</time>
      </trkpt>
      <trkpt lat="45.61916" lon="6.68382">
        <ele>1896.5999755859</ele>
        <time>2021-02-23T09:31:07.000Z</time>
      </trkpt>
      <trkpt lat="45.61919" lon="6.68381">
        <ele>1897.1999511719</ele>
        <time>2021-02-23T09:31:12.000Z</time>
      </trkpt>
      <trkpt lat="45.61923" lon="6.68381">
        <ele>1897.8000488281</ele>
        <time>2021-02-23T09:31:18.000Z</time>
      </trkpt>
      <trkpt lat="45.61923" lon="6.68381">
        <ele>1898.1999511719</ele>
        <time>2021-02-23T09:31:21.000Z</time>
      </trkpt>
      <trkpt lat="45.61923" lon="6.68381">
        <ele>1899</ele>
        <time>2021-02-23T09:31:29.000Z</time>
      </trkpt>
      <trkpt lat="45.61923" lon="6.68381">
        <ele>1899.1999511719</ele>
        <time>2021-02-23T09:31:30.000Z</time>
      </trkpt>
      <trkpt lat="45.61923" lon="6.68381">
        <ele>1900</ele>
        <time>2021-02-23T09:31:37.000Z</time>
      </trkpt>
      <trkpt lat="45.61923" lon="6.68383">
        <ele>1900.5999755859</ele>
        <time>2021-02-23T09:31:40.000Z</time>
      </trkpt>
      <trkpt lat="45.61923" lon="6.68385">
        <ele>1901</ele>
        <time>2021-02-23T09:31:43.000Z</time>
      </trkpt>
      <trkpt lat="45.61924" lon="6.68389">
        <ele>1901.8000488281</ele>
        <time>2021-02-23T09:31:48.000Z</time>
      </trkpt>
      <trkpt lat="45.61924" lon="6.68389">
        <ele>1902</ele>
        <time>2021-02-23T09:31:52.000Z</time>
      </trkpt>
      <trkpt lat="45.61924" lon="6.68389">
        <ele>1902.8000488281</ele>
        <time>2021-02-23T09:31:57.000Z</time>
      </trkpt>
      <trkpt lat="45.61924" lon="6.68389">
        <ele>1903.4000244141</ele>
        <time>2021-02-23T09:31:58.000Z</time>
      </trkpt>
      <trkpt lat="45.61924" lon="6.68389">
        <ele>1904.8000488281</ele>
        <time>2021-02-23T09:32:03.000Z</time>
      </trkpt>
      <trkpt lat="45.61924" lon="6.68389">
        <ele>1905.1999511719</ele>
        <time>2021-02-23T09:32:06.000Z</time>
      </trkpt>
      <trkpt lat="45.61924" lon="6.68389">
        <ele>1906</ele>
        <time>2021-02-23T09:32:09.000Z</time>
      </trkpt>
      <trkpt lat="45.61924" lon="6.68389">
        <ele>1907</ele>
        <time>2021-02-23T09:32:16.000Z</time>
      </trkpt>
      <trkpt lat="45.61924" lon="6.68389">
        <ele>1907.8000488281</ele>
        <time>2021-02-23T09:32:24.000Z</time>
      </trkpt>
      <trkpt lat="45.61924" lon="6.68389">
        <ele>1908</ele>
        <time>2021-02-23T09:32:28.000Z</time>
      </trkpt>
      <trkpt lat="45.61924" lon="6.68389">
        <ele>1908.1999511719</ele>
        <time>2021-02-23T09:32:39.000Z</time>
      </trkpt>
      <trkpt lat="45.61924" lon="6.68389">
        <ele>1908</ele>
        <time>2021-02-23T09:32:52.000Z</time>
      </trkpt>
      <trkpt lat="45.61937" lon="6.68391">
        <ele>1908.8000488281</ele>
        <time>2021-02-23T09:32:59.000Z</time>
      </trkpt>
      <trkpt lat="45.61943" lon="6.68391">
        <ele>1909</ele>
        <time>2021-02-23T09:33:06.000Z</time>
      </trkpt>
      <trkpt lat="45.61945" lon="6.68391">
        <ele>1909.8000488281</ele>
        <time>2021-02-23T09:33:09.000Z</time>
      </trkpt>
      <trkpt lat="45.61946" lon="6.68391">
        <ele>1910.1999511719</ele>
        <time>2021-02-23T09:33:11.000Z</time>
      </trkpt>
      <trkpt lat="45.61949" lon="6.68392">
        <ele>1911.1999511719</ele>
        <time>2021-02-23T09:33:15.000Z</time>
      </trkpt>
      <trkpt lat="45.61952" lon="6.68392">
        <ele>1912</ele>
        <time>2021-02-23T09:33:18.000Z</time>
      </trkpt>
      <trkpt lat="45.61954" lon="6.68392">
        <ele>1912.4000244141</ele>
        <time>2021-02-23T09:33:20.000Z</time>
      </trkpt>
      <trkpt lat="45.61958" lon="6.68392">
        <ele>1913.4000244141</ele>
        <time>2021-02-23T09:33:25.000Z</time>
      </trkpt>
      <trkpt lat="45.61959" lon="6.68392">
        <ele>1913.8000488281</ele>
        <time>2021-02-23T09:33:27.000Z</time>
      </trkpt>
      <trkpt lat="45.61961" lon="6.68392">
        <ele>1914.5999755859</ele>
        <time>2021-02-23T09:33:29.000Z</time>
      </trkpt>
      <trkpt lat="45.61967" lon="6.68392">
        <ele>1915.5999755859</ele>
        <time>2021-02-23T09:33:36.000Z</time>
      </trkpt>
      <trkpt lat="45.61968" lon="6.68392">
        <ele>1915.8000488281</ele>
        <time>2021-02-23T09:33:37.000Z</time>
      </trkpt>
      <trkpt lat="45.61973" lon="6.68391">
        <ele>1916.8000488281</ele>
        <time>2021-02-23T09:33:43.000Z</time>
      </trkpt>
      <trkpt lat="45.61975" lon="6.6839">
        <ele>1917.1999511719</ele>
        <time>2021-02-23T09:33:46.000Z</time>
      </trkpt>
      <trkpt lat="45.61976" lon="6.6839">
        <ele>1917.8000488281</ele>
        <time>2021-02-23T09:33:48.000Z</time>
      </trkpt>
      <trkpt lat="45.61978" lon="6.68389">
        <ele>1918.4000244141</ele>
        <time>2021-02-23T09:33:54.000Z</time>
      </trkpt>
      <trkpt lat="45.61978" lon="6.68389">
        <ele>1919</ele>
        <time>2021-02-23T09:33:57.000Z</time>
      </trkpt>
      <trkpt lat="45.61978" lon="6.68389">
        <ele>1919.5999755859</ele>
        <time>2021-02-23T09:34:03.000Z</time>
      </trkpt>
      <trkpt lat="45.61978" lon="6.68389">
        <ele>1920</ele>
        <time>2021-02-23T09:34:05.000Z</time>
      </trkpt>
      <trkpt lat="45.61978" lon="6.68389">
        <ele>1921</ele>
        <time>2021-02-23T09:34:12.000Z</time>
      </trkpt>
      <trkpt lat="45.61975" lon="6.68402">
        <ele>1922</ele>
        <time>2021-02-23T09:34:21.000Z</time>
      </trkpt>
      <trkpt lat="45.61974" lon="6.68404">
        <ele>1922.1999511719</ele>
        <time>2021-02-23T09:34:22.000Z</time>
      </trkpt>
      <trkpt lat="45.61975" lon="6.68415">
        <ele>1923.4000244141</ele>
        <time>2021-02-23T09:34:28.000Z</time>
      </trkpt>
      <trkpt lat="45.61975" lon="6.68416">
        <ele>1923.5999755859</ele>
        <time>2021-02-23T09:34:29.000Z</time>
      </trkpt>
      <trkpt lat="45.6198" lon="6.68417">
        <ele>1924.4000244141</ele>
        <time>2021-02-23T09:34:36.000Z</time>
      </trkpt>
      <trkpt lat="45.6198" lon="6.68416">
        <ele>1924.5999755859</ele>
        <time>2021-02-23T09:34:37.000Z</time>
      </trkpt>
      <trkpt lat="45.61983" lon="6.68415">
        <ele>1925.8000488281</ele>
        <time>2021-02-23T09:34:41.000Z</time>
      </trkpt>
      <trkpt lat="45.61984" lon="6.68415">
        <ele>1926</ele>
        <time>2021-02-23T09:34:45.000Z</time>
      </trkpt>
      <trkpt lat="45.61984" lon="6.68415">
        <ele>1926.8000488281</ele>
        <time>2021-02-23T09:34:50.000Z</time>
      </trkpt>
      <trkpt lat="45.61984" lon="6.68415">
        <ele>1927.4000244141</ele>
        <time>2021-02-23T09:34:54.000Z</time>
      </trkpt>
      <trkpt lat="45.61984" lon="6.68415">
        <ele>1928</ele>
        <time>2021-02-23T09:34:56.000Z</time>
      </trkpt>
      <trkpt lat="45.61989" lon="6.68412">
        <ele>1929</ele>
        <time>2021-02-23T09:35:02.000Z</time>
      </trkpt>
      <trkpt lat="45.61989" lon="6.68411">
        <ele>1929.1999511719</ele>
        <time>2021-02-23T09:35:03.000Z</time>
      </trkpt>
      <trkpt lat="45.61995" lon="6.68409">
        <ele>1929.8000488281</ele>
        <time>2021-02-23T09:35:10.000Z</time>
      </trkpt>
      <trkpt lat="45.61996" lon="6.68408">
        <ele>1930.1999511719</ele>
        <time>2021-02-23T09:35:12.000Z</time>
      </trkpt>
      <trkpt lat="45.61998" lon="6.68408">
        <ele>1931.4000244141</ele>
        <time>2021-02-23T09:35:15.000Z</time>
      </trkpt>
      <trkpt lat="45.62001" lon="6.68407">
        <ele>1932</ele>
        <time>2021-02-23T09:35:19.000Z</time>
      </trkpt>
      <trkpt lat="45.62004" lon="6.68404">
        <ele>1932.4000244141</ele>
        <time>2021-02-23T09:35:26.000Z</time>
      </trkpt>
      <trkpt lat="45.62006" lon="6.68403">
        <ele>1933</ele>
        <time>2021-02-23T09:35:28.000Z</time>
      </trkpt>
      <trkpt lat="45.62008" lon="6.68402">
        <ele>1933.5999755859</ele>
        <time>2021-02-23T09:35:31.000Z</time>
      </trkpt>
      <trkpt lat="45.62011" lon="6.68401">
        <ele>1934.1999511719</ele>
        <time>2021-02-23T09:35:36.000Z</time>
      </trkpt>
      <trkpt lat="45.62012" lon="6.68401">
        <ele>1934.8000488281</ele>
        <time>2021-02-23T09:35:38.000Z</time>
      </trkpt>
      <trkpt lat="45.62014" lon="6.68401">
        <ele>1935.8000488281</ele>
        <time>2021-02-23T09:35:45.000Z</time>
      </trkpt>
      <trkpt lat="45.62014" lon="6.68401">
        <ele>1936.4000244141</ele>
        <time>2021-02-23T09:35:57.000Z</time>
      </trkpt>
      <trkpt lat="45.62014" lon="6.68401">
        <ele>1936.8000488281</ele>
        <time>2021-02-23T09:36:03.000Z</time>
      </trkpt>
      <trkpt lat="45.62014" lon="6.68401">
        <ele>1937.1999511719</ele>
        <time>2021-02-23T09:36:08.000Z</time>
      </trkpt>
      <trkpt lat="45.62013" lon="6.68402">
        <ele>1938</ele>
        <time>2021-02-23T09:36:13.000Z</time>
      </trkpt>
      <trkpt lat="45.62013" lon="6.68409">
        <ele>1938.1999511719</ele>
        <time>2021-02-23T09:36:17.000Z</time>
      </trkpt>
      <trkpt lat="45.6201" lon="6.68418">
        <ele>1939.1999511719</ele>
        <time>2021-02-23T09:36:25.000Z</time>
      </trkpt>
      <trkpt lat="45.62009" lon="6.68419">
        <ele>1939.1999511719</ele>
        <time>2021-02-23T09:36:26.000Z</time>
      </trkpt>
      <trkpt lat="45.62006" lon="6.68424">
        <ele>1940.1999511719</ele>
        <time>2021-02-23T09:36:31.000Z</time>
      </trkpt>
      <trkpt lat="45.62005" lon="6.68427">
        <ele>1941</ele>
        <time>2021-02-23T09:36:35.000Z</time>
      </trkpt>
      <trkpt lat="45.62" lon="6.68432">
        <ele>1941.1999511719</ele>
        <time>2021-02-23T09:36:42.000Z</time>
      </trkpt>
      <trkpt lat="45.61999" lon="6.68436">
        <ele>1941.4000244141</ele>
        <time>2021-02-23T09:36:45.000Z</time>
      </trkpt>
      <trkpt lat="45.61998" lon="6.68443">
        <ele>1942.4000244141</ele>
        <time>2021-02-23T09:36:51.000Z</time>
      </trkpt>
      <trkpt lat="45.61997" lon="6.68445">
        <ele>1942.8000488281</ele>
        <time>2021-02-23T09:36:53.000Z</time>
      </trkpt>
      <trkpt lat="45.61997" lon="6.68449">
        <ele>1943.5999755859</ele>
        <time>2021-02-23T09:37:01.000Z</time>
      </trkpt>
      <trkpt lat="45.61997" lon="6.68449">
        <ele>1944</ele>
        <time>2021-02-23T09:37:03.000Z</time>
      </trkpt>
      <trkpt lat="45.61997" lon="6.68449">
        <ele>1944.4000244141</ele>
        <time>2021-02-23T09:37:11.000Z</time>
      </trkpt>
      <trkpt lat="45.61999" lon="6.68447">
        <ele>1944.8000488281</ele>
        <time>2021-02-23T09:37:16.000Z</time>
      </trkpt>
      <trkpt lat="45.62" lon="6.68445">
        <ele>1945.8000488281</ele>
        <time>2021-02-23T09:37:19.000Z</time>
      </trkpt>
      <trkpt lat="45.62001" lon="6.68444">
        <ele>1946</ele>
        <time>2021-02-23T09:37:20.000Z</time>
      </trkpt>
      <trkpt lat="45.62005" lon="6.6844">
        <ele>1946.8000488281</ele>
        <time>2021-02-23T09:37:28.000Z</time>
      </trkpt>
      <trkpt lat="45.62007" lon="6.68439">
        <ele>1947.1999511719</ele>
        <time>2021-02-23T09:37:30.000Z</time>
      </trkpt>
      <trkpt lat="45.62011" lon="6.68437">
        <ele>1948.1999511719</ele>
        <time>2021-02-23T09:37:36.000Z</time>
      </trkpt>
      <trkpt lat="45.62012" lon="6.68436">
        <ele>1948.1999511719</ele>
        <time>2021-02-23T09:37:37.000Z</time>
      </trkpt>
      <trkpt lat="45.62014" lon="6.68436">
        <ele>1949.1999511719</ele>
        <time>2021-02-23T09:37:41.000Z</time>
      </trkpt>
      <trkpt lat="45.62017" lon="6.68434">
        <ele>1949.8000488281</ele>
        <time>2021-02-23T09:37:47.000Z</time>
      </trkpt>
      <trkpt lat="45.62019" lon="6.68434">
        <ele>1950.4000244141</ele>
        <time>2021-02-23T09:37:50.000Z</time>
      </trkpt>
      <trkpt lat="45.62023" lon="6.68433">
        <ele>1951.4000244141</ele>
        <time>2021-02-23T09:37:56.000Z</time>
      </trkpt>
      <trkpt lat="45.62027" lon="6.68433">
        <ele>1952.4000244141</ele>
        <time>2021-02-23T09:38:04.000Z</time>
      </trkpt>
      <trkpt lat="45.62028" lon="6.68432">
        <ele>1953.1999511719</ele>
        <time>2021-02-23T09:38:07.000Z</time>
      </trkpt>
      <trkpt lat="45.62029" lon="6.68432">
        <ele>1953.5999755859</ele>
        <time>2021-02-23T09:38:08.000Z</time>
      </trkpt>
      <trkpt lat="45.62034" lon="6.68431">
        <ele>1954</ele>
        <time>2021-02-23T09:38:17.000Z</time>
      </trkpt>
      <trkpt lat="45.62036" lon="6.68431">
        <ele>1954.8000488281</ele>
        <time>2021-02-23T09:38:20.000Z</time>
      </trkpt>
      <trkpt lat="45.62037" lon="6.68432">
        <ele>1956</ele>
        <time>2021-02-23T09:38:28.000Z</time>
      </trkpt>
      <trkpt lat="45.62037" lon="6.68432">
        <ele>1957.1999511719</ele>
        <time>2021-02-23T09:38:33.000Z</time>
      </trkpt>
      <trkpt lat="45.62037" lon="6.68432">
        <ele>1957.4000244141</ele>
        <time>2021-02-23T09:38:35.000Z</time>
      </trkpt>
      <trkpt lat="45.62037" lon="6.68432">
        <ele>1958.4000244141</ele>
        <time>2021-02-23T09:38:41.000Z</time>
      </trkpt>
      <trkpt lat="45.62037" lon="6.68432">
        <ele>1959.5999755859</ele>
        <time>2021-02-23T09:38:46.000Z</time>
      </trkpt>
      <trkpt lat="45.62037" lon="6.68432">
        <ele>1960.5999755859</ele>
        <time>2021-02-23T09:38:51.000Z</time>
      </trkpt>
      <trkpt lat="45.62037" lon="6.68432">
        <ele>1961.8000488281</ele>
        <time>2021-02-23T09:38:58.000Z</time>
      </trkpt>
      <trkpt lat="45.62037" lon="6.68434">
        <ele>1963</ele>
        <time>2021-02-23T09:39:06.000Z</time>
      </trkpt>
      <trkpt lat="45.62037" lon="6.68434">
        <ele>1963.1999511719</ele>
        <time>2021-02-23T09:39:07.000Z</time>
      </trkpt>
      <trkpt lat="45.62037" lon="6.68434">
        <ele>1963.1999511719</ele>
        <time>2021-02-23T09:39:20.000Z</time>
      </trkpt>
      <trkpt lat="45.62038" lon="6.6844">
        <ele>1963.8000488281</ele>
        <time>2021-02-23T09:39:30.000Z</time>
      </trkpt>
      <trkpt lat="45.62038" lon="6.68443">
        <ele>1964.1999511719</ele>
        <time>2021-02-23T09:39:32.000Z</time>
      </trkpt>
      <trkpt lat="45.62037" lon="6.68448">
        <ele>1965.1999511719</ele>
        <time>2021-02-23T09:39:37.000Z</time>
      </trkpt>
      <trkpt lat="45.62037" lon="6.6845">
        <ele>1965.5999755859</ele>
        <time>2021-02-23T09:39:39.000Z</time>
      </trkpt>
      <trkpt lat="45.62038" lon="6.68452">
        <ele>1966.1999511719</ele>
        <time>2021-02-23T09:39:42.000Z</time>
      </trkpt>
      <trkpt lat="45.62038" lon="6.68453">
        <ele>1966.5999755859</ele>
        <time>2021-02-23T09:39:49.000Z</time>
      </trkpt>
      <trkpt lat="45.62038" lon="6.68453">
        <ele>1966.8000488281</ele>
        <time>2021-02-23T09:39:58.000Z</time>
      </trkpt>
      <trkpt lat="45.62038" lon="6.68453">
        <ele>1967.4000244141</ele>
        <time>2021-02-23T09:40:00.000Z</time>
      </trkpt>
      <trkpt lat="45.62038" lon="6.68453">
        <ele>1968.4000244141</ele>
        <time>2021-02-23T09:40:05.000Z</time>
      </trkpt>
      <trkpt lat="45.62038" lon="6.68453">
        <ele>1968.5999755859</ele>
        <time>2021-02-23T09:40:06.000Z</time>
      </trkpt>
      <trkpt lat="45.62038" lon="6.68453">
        <ele>1969.5999755859</ele>
        <time>2021-02-23T09:40:15.000Z</time>
      </trkpt>
      <trkpt lat="45.62038" lon="6.68453">
        <ele>1970.5999755859</ele>
        <time>2021-02-23T09:40:19.000Z</time>
      </trkpt>
      <trkpt lat="45.62038" lon="6.68453">
        <ele>1971.5999755859</ele>
        <time>2021-02-23T09:40:23.000Z</time>
      </trkpt>
      <trkpt lat="45.62041" lon="6.6845">
        <ele>1971.8000488281</ele>
        <time>2021-02-23T09:40:26.000Z</time>
      </trkpt>
      <trkpt lat="45.62041" lon="6.6845">
        <ele>1972.4000244141</ele>
        <time>2021-02-23T09:40:31.000Z</time>
      </trkpt>
      <trkpt lat="45.62041" lon="6.6845">
        <ele>1973</ele>
        <time>2021-02-23T09:40:34.000Z</time>
      </trkpt>
      <trkpt lat="45.62041" lon="6.6845">
        <ele>1973.5999755859</ele>
        <time>2021-02-23T09:40:39.000Z</time>
      </trkpt>
      <trkpt lat="45.62041" lon="6.6845">
        <ele>1974</ele>
        <time>2021-02-23T09:40:41.000Z</time>
      </trkpt>
      <trkpt lat="45.62041" lon="6.6845">
        <ele>1975</ele>
        <time>2021-02-23T09:40:47.000Z</time>
      </trkpt>
      <trkpt lat="45.62043" lon="6.68457">
        <ele>1975.5999755859</ele>
        <time>2021-02-23T09:40:49.000Z</time>
      </trkpt>
      <trkpt lat="45.62046" lon="6.68461">
        <ele>1976.1999511719</ele>
        <time>2021-02-23T09:40:51.000Z</time>
      </trkpt>
      <trkpt lat="45.62051" lon="6.68467">
        <ele>1977</ele>
        <time>2021-02-23T09:40:55.000Z</time>
      </trkpt>
      <trkpt lat="45.62052" lon="6.68469">
        <ele>1977.5999755859</ele>
        <time>2021-02-23T09:40:56.000Z</time>
      </trkpt>
      <trkpt lat="45.62059" lon="6.68476">
        <ele>1978.4000244141</ele>
        <time>2021-02-23T09:41:03.000Z</time>
      </trkpt>
      <trkpt lat="45.6206" lon="6.68477">
        <ele>1978.5999755859</ele>
        <time>2021-02-23T09:41:04.000Z</time>
      </trkpt>
      <trkpt lat="45.62062" lon="6.68479">
        <ele>1979.4000244141</ele>
        <time>2021-02-23T09:41:09.000Z</time>
      </trkpt>
      <trkpt lat="45.62064" lon="6.68482">
        <ele>1979.5999755859</ele>
        <time>2021-02-23T09:41:12.000Z</time>
      </trkpt>
      <trkpt lat="45.62067" lon="6.68486">
        <ele>1980.5999755859</ele>
        <time>2021-02-23T09:41:16.000Z</time>
      </trkpt>
      <trkpt lat="45.62072" lon="6.68491">
        <ele>1982</ele>
        <time>2021-02-23T09:41:22.000Z</time>
      </trkpt>
      <trkpt lat="45.62072" lon="6.68492">
        <ele>1982.5999755859</ele>
        <time>2021-02-23T09:41:24.000Z</time>
      </trkpt>
      <trkpt lat="45.62075" lon="6.68496">
        <ele>1983.1999511719</ele>
        <time>2021-02-23T09:41:28.000Z</time>
      </trkpt>
      <trkpt lat="45.62077" lon="6.68499">
        <ele>1984.1999511719</ele>
        <time>2021-02-23T09:41:31.000Z</time>
      </trkpt>
      <trkpt lat="45.62078" lon="6.685">
        <ele>1985.4000244141</ele>
        <time>2021-02-23T09:41:35.000Z</time>
      </trkpt>
      <trkpt lat="45.62078" lon="6.685">
        <ele>1985.4000244141</ele>
        <time>2021-02-23T09:41:40.000Z</time>
      </trkpt>
      <trkpt lat="45.62078" lon="6.685">
        <ele>1985.5999755859</ele>
        <time>2021-02-23T09:41:47.000Z</time>
      </trkpt>
      <trkpt lat="45.62078" lon="6.685">
        <ele>1986.4000244141</ele>
        <time>2021-02-23T09:41:50.000Z</time>
      </trkpt>
      <trkpt lat="45.62081" lon="6.68504">
        <ele>1987.4000244141</ele>
        <time>2021-02-23T09:41:54.000Z</time>
      </trkpt>
      <trkpt lat="45.62081" lon="6.68505">
        <ele>1987.5999755859</ele>
        <time>2021-02-23T09:41:55.000Z</time>
      </trkpt>
      <trkpt lat="45.62084" lon="6.68509">
        <ele>1988.8000488281</ele>
        <time>2021-02-23T09:41:59.000Z</time>
      </trkpt>
      <trkpt lat="45.62086" lon="6.68513">
        <ele>1989.8000488281</ele>
        <time>2021-02-23T09:42:03.000Z</time>
      </trkpt>
      <trkpt lat="45.62087" lon="6.68514">
        <ele>1990.1999511719</ele>
        <time>2021-02-23T09:42:05.000Z</time>
      </trkpt>
      <trkpt lat="45.62089" lon="6.68515">
        <ele>1990.8000488281</ele>
        <time>2021-02-23T09:42:10.000Z</time>
      </trkpt>
      <trkpt lat="45.62089" lon="6.68515">
        <ele>1990.8000488281</ele>
        <time>2021-02-23T09:42:14.000Z</time>
      </trkpt>
      <trkpt lat="45.6209" lon="6.68513">
        <ele>1992</ele>
        <time>2021-02-23T09:42:22.000Z</time>
      </trkpt>
      <trkpt lat="45.62097" lon="6.68507">
        <ele>1993</ele>
        <time>2021-02-23T09:42:29.000Z</time>
      </trkpt>
      <trkpt lat="45.62098" lon="6.68505">
        <ele>1993</ele>
        <time>2021-02-23T09:42:30.000Z</time>
      </trkpt>
      <trkpt lat="45.62103" lon="6.68499">
        <ele>1993.1999511719</ele>
        <time>2021-02-23T09:42:37.000Z</time>
      </trkpt>
      <trkpt lat="45.62107" lon="6.68493">
        <ele>1994.4000244141</ele>
        <time>2021-02-23T09:42:43.000Z</time>
      </trkpt>
      <trkpt lat="45.62108" lon="6.68492">
        <ele>1994.5999755859</ele>
        <time>2021-02-23T09:42:45.000Z</time>
      </trkpt>
      <trkpt lat="45.62111" lon="6.68485">
        <ele>1995.1999511719</ele>
        <time>2021-02-23T09:42:53.000Z</time>
      </trkpt>
      <trkpt lat="45.62111" lon="6.68485">
        <ele>1995.4000244141</ele>
        <time>2021-02-23T09:42:54.000Z</time>
      </trkpt>
      <trkpt lat="45.62113" lon="6.68479">
        <ele>1996</ele>
        <time>2021-02-23T09:43:01.000Z</time>
      </trkpt>
      <trkpt lat="45.62116" lon="6.68479">
        <ele>1996.4000244141</ele>
        <time>2021-02-23T09:43:08.000Z</time>
      </trkpt>
      <trkpt lat="45.62116" lon="6.6848">
        <ele>1996.5999755859</ele>
        <time>2021-02-23T09:43:09.000Z</time>
      </trkpt>
      <trkpt lat="45.62118" lon="6.68485">
        <ele>1997.5999755859</ele>
        <time>2021-02-23T09:43:15.000Z</time>
      </trkpt>
      <trkpt lat="45.62118" lon="6.68485">
        <ele>1997.8000488281</ele>
        <time>2021-02-23T09:43:16.000Z</time>
      </trkpt>
      <trkpt lat="45.62121" lon="6.6849">
        <ele>1998.5999755859</ele>
        <time>2021-02-23T09:43:21.000Z</time>
      </trkpt>
      <trkpt lat="45.62122" lon="6.68493">
        <ele>1999.4000244141</ele>
        <time>2021-02-23T09:43:25.000Z</time>
      </trkpt>
      <trkpt lat="45.62122" lon="6.68493">
        <ele>1999.5999755859</ele>
        <time>2021-02-23T09:43:28.000Z</time>
      </trkpt>
      <trkpt lat="45.62122" lon="6.68493">
        <ele>2000</ele>
        <time>2021-02-23T09:43:32.000Z</time>
      </trkpt>
      <trkpt lat="45.62122" lon="6.68493">
        <ele>2000.8000488281</ele>
        <time>2021-02-23T09:43:35.000Z</time>
      </trkpt>
      <trkpt lat="45.62122" lon="6.68493">
        <ele>2002</ele>
        <time>2021-02-23T09:43:39.000Z</time>
      </trkpt>
      <trkpt lat="45.62122" lon="6.68493">
        <ele>2002.4000244141</ele>
        <time>2021-02-23T09:43:43.000Z</time>
      </trkpt>
      <trkpt lat="45.62124" lon="6.68487">
        <ele>2003.1999511719</ele>
        <time>2021-02-23T09:43:46.000Z</time>
      </trkpt>
      <trkpt lat="45.62127" lon="6.68482">
        <ele>2003.4000244141</ele>
        <time>2021-02-23T09:43:49.000Z</time>
      </trkpt>
      <trkpt lat="45.62129" lon="6.68476">
        <ele>2004.4000244141</ele>
        <time>2021-02-23T09:43:53.000Z</time>
      </trkpt>
      <trkpt lat="45.6213" lon="6.68472">
        <ele>2005</ele>
        <time>2021-02-23T09:43:57.000Z</time>
      </trkpt>
      <trkpt lat="45.62131" lon="6.68471">
        <ele>2005.4000244141</ele>
        <time>2021-02-23T09:43:59.000Z</time>
      </trkpt>
      <trkpt lat="45.62131" lon="6.68467">
        <ele>2006</ele>
        <time>2021-02-23T09:44:05.000Z</time>
      </trkpt>
      <trkpt lat="45.62131" lon="6.68466">
        <ele>2006.4000244141</ele>
        <time>2021-02-23T09:44:09.000Z</time>
      </trkpt>
      <trkpt lat="45.62131" lon="6.68466">
        <ele>2007</ele>
        <time>2021-02-23T09:44:12.000Z</time>
      </trkpt>
      <trkpt lat="45.62131" lon="6.68466">
        <ele>2007.5999755859</ele>
        <time>2021-02-23T09:44:14.000Z</time>
      </trkpt>
      <trkpt lat="45.62132" lon="6.68466">
        <ele>2008.4000244141</ele>
        <time>2021-02-23T09:44:23.000Z</time>
      </trkpt>
      <trkpt lat="45.62133" lon="6.68465">
        <ele>2008.5999755859</ele>
        <time>2021-02-23T09:44:24.000Z</time>
      </trkpt>
      <trkpt lat="45.62136" lon="6.68462">
        <ele>2009.5999755859</ele>
        <time>2021-02-23T09:44:28.000Z</time>
      </trkpt>
      <trkpt lat="45.62138" lon="6.68458">
        <ele>2010</ele>
        <time>2021-02-23T09:44:33.000Z</time>
      </trkpt>
      <trkpt lat="45.62141" lon="6.68454">
        <ele>2010.8000488281</ele>
        <time>2021-02-23T09:44:37.000Z</time>
      </trkpt>
      <trkpt lat="45.62143" lon="6.6845">
        <ele>2011.1999511719</ele>
        <time>2021-02-23T09:44:41.000Z</time>
      </trkpt>
      <trkpt lat="45.62145" lon="6.68445">
        <ele>2012.1999511719</ele>
        <time>2021-02-23T09:44:47.000Z</time>
      </trkpt>
      <trkpt lat="45.62145" lon="6.68443">
        <ele>2012.5999755859</ele>
        <time>2021-02-23T09:44:50.000Z</time>
      </trkpt>
      <trkpt lat="45.62145" lon="6.68441">
        <ele>2013.1999511719</ele>
        <time>2021-02-23T09:44:52.000Z</time>
      </trkpt>
      <trkpt lat="45.62145" lon="6.68441">
        <ele>2013.5999755859</ele>
        <time>2021-02-23T09:44:57.000Z</time>
      </trkpt>
      <trkpt lat="45.62145" lon="6.68442">
        <ele>2014.1999511719</ele>
        <time>2021-02-23T09:45:03.000Z</time>
      </trkpt>
      <trkpt lat="45.62145" lon="6.68444">
        <ele>2014.1999511719</ele>
        <time>2021-02-23T09:45:05.000Z</time>
      </trkpt>
      <trkpt lat="45.62143" lon="6.68453">
        <ele>2015.1999511719</ele>
        <time>2021-02-23T09:45:15.000Z</time>
      </trkpt>
      <trkpt lat="45.62142" lon="6.6846">
        <ele>2016.1999511719</ele>
        <time>2021-02-23T09:45:23.000Z</time>
      </trkpt>
      <trkpt lat="45.62141" lon="6.68461">
        <ele>2016.4000244141</ele>
        <time>2021-02-23T09:45:24.000Z</time>
      </trkpt>
      <trkpt lat="45.62141" lon="6.68469">
        <ele>2017.1999511719</ele>
        <time>2021-02-23T09:45:31.000Z</time>
      </trkpt>
      <trkpt lat="45.62141" lon="6.6847">
        <ele>2017.4000244141</ele>
        <time>2021-02-23T09:45:33.000Z</time>
      </trkpt>
      <trkpt lat="45.62141" lon="6.68471">
        <ele>2018.1999511719</ele>
        <time>2021-02-23T09:45:38.000Z</time>
      </trkpt>
      <trkpt lat="45.62141" lon="6.68471">
        <ele>2018.4000244141</ele>
        <time>2021-02-23T09:45:40.000Z</time>
      </trkpt>
      <trkpt lat="45.62144" lon="6.68466">
        <ele>2019</ele>
        <time>2021-02-23T09:45:48.000Z</time>
      </trkpt>
      <trkpt lat="45.62146" lon="6.68463">
        <ele>2019.5999755859</ele>
        <time>2021-02-23T09:45:52.000Z</time>
      </trkpt>
      <trkpt lat="45.62149" lon="6.68461">
        <ele>2020.5999755859</ele>
        <time>2021-02-23T09:45:56.000Z</time>
      </trkpt>
      <trkpt lat="45.62149" lon="6.6846">
        <ele>2020.8000488281</ele>
        <time>2021-02-23T09:45:57.000Z</time>
      </trkpt>
      <trkpt lat="45.6215" lon="6.6846">
        <ele>2021.4000244141</ele>
        <time>2021-02-23T09:46:03.000Z</time>
      </trkpt>
      <trkpt lat="45.6215" lon="6.6846">
        <ele>2021.8000488281</ele>
        <time>2021-02-23T09:46:04.000Z</time>
      </trkpt>
      <trkpt lat="45.62151" lon="6.68464">
        <ele>2022.1999511719</ele>
        <time>2021-02-23T09:46:10.000Z</time>
      </trkpt>
      <trkpt lat="45.62151" lon="6.68466">
        <ele>2022.8000488281</ele>
        <time>2021-02-23T09:46:12.000Z</time>
      </trkpt>
      <trkpt lat="45.6215" lon="6.68474">
        <ele>2023.8000488281</ele>
        <time>2021-02-23T09:46:20.000Z</time>
      </trkpt>
      <trkpt lat="45.62151" lon="6.68475">
        <ele>2024</ele>
        <time>2021-02-23T09:46:21.000Z</time>
      </trkpt>
      <trkpt lat="45.62152" lon="6.68477">
        <ele>2025</ele>
        <time>2021-02-23T09:46:27.000Z</time>
      </trkpt>
      <trkpt lat="45.62152" lon="6.68477">
        <ele>2025</ele>
        <time>2021-02-23T09:46:28.000Z</time>
      </trkpt>
      <trkpt lat="45.62152" lon="6.68477">
        <ele>2024.4000244141</ele>
        <time>2021-02-23T09:46:40.000Z</time>
      </trkpt>
      <trkpt lat="45.62152" lon="6.68477">
        <ele>2026</ele>
        <time>2021-02-23T09:46:49.000Z</time>
      </trkpt>
      <trkpt lat="45.62152" lon="6.68477">
        <ele>2026.8000488281</ele>
        <time>2021-02-23T09:46:58.000Z</time>
      </trkpt>
      <trkpt lat="45.62155" lon="6.6847">
        <ele>2027</ele>
        <time>2021-02-23T09:47:01.000Z</time>
      </trkpt>
      <trkpt lat="45.62157" lon="6.68466">
        <ele>2027.5999755859</ele>
        <time>2021-02-23T09:47:06.000Z</time>
      </trkpt>
      <trkpt lat="45.62157" lon="6.68466">
        <ele>2028.1999511719</ele>
        <time>2021-02-23T09:47:08.000Z</time>
      </trkpt>
      <trkpt lat="45.62157" lon="6.68466">
        <ele>2028.5999755859</ele>
        <time>2021-02-23T09:47:15.000Z</time>
      </trkpt>
      <trkpt lat="45.62157" lon="6.68466">
        <ele>2029</ele>
        <time>2021-02-23T09:47:23.000Z</time>
      </trkpt>
      <trkpt lat="45.62157" lon="6.68466">
        <ele>2029.1999511719</ele>
        <time>2021-02-23T09:47:25.000Z</time>
      </trkpt>
      <trkpt lat="45.62158" lon="6.68476">
        <ele>2030</ele>
        <time>2021-02-23T09:47:31.000Z</time>
      </trkpt>
      <trkpt lat="45.62158" lon="6.68478">
        <ele>2030.4000244141</ele>
        <time>2021-02-23T09:47:33.000Z</time>
      </trkpt>
      <trkpt lat="45.62159" lon="6.68481">
        <ele>2031</ele>
        <time>2021-02-23T09:47:38.000Z</time>
      </trkpt>
      <trkpt lat="45.62159" lon="6.68481">
        <ele>2032</ele>
        <time>2021-02-23T09:47:41.000Z</time>
      </trkpt>
      <trkpt lat="45.62159" lon="6.68481">
        <ele>2032.5999755859</ele>
        <time>2021-02-23T09:47:46.000Z</time>
      </trkpt>
      <trkpt lat="45.62159" lon="6.68481">
        <ele>2033</ele>
        <time>2021-02-23T09:47:49.000Z</time>
      </trkpt>
      <trkpt lat="45.62159" lon="6.68481">
        <ele>2033</ele>
        <time>2021-02-23T09:47:54.000Z</time>
      </trkpt>
      <trkpt lat="45.62161" lon="6.6848">
        <ele>2034.1999511719</ele>
        <time>2021-02-23T09:48:00.000Z</time>
      </trkpt>
      <trkpt lat="45.62161" lon="6.6848">
        <ele>2034.4000244141</ele>
        <time>2021-02-23T09:48:02.000Z</time>
      </trkpt>
      <trkpt lat="45.62161" lon="6.6848">
        <ele>2034</ele>
        <time>2021-02-23T09:48:19.000Z</time>
      </trkpt>
      <trkpt lat="45.62161" lon="6.6848">
        <ele>2035</ele>
        <time>2021-02-23T09:48:32.000Z</time>
      </trkpt>
      <trkpt lat="45.62161" lon="6.6848">
        <ele>2035.1999511719</ele>
        <time>2021-02-23T09:48:37.000Z</time>
      </trkpt>
      <trkpt lat="45.62162" lon="6.6848">
        <ele>2035.1999511719</ele>
        <time>2021-02-23T09:48:39.000Z</time>
      </trkpt>
      <trkpt lat="45.62162" lon="6.6848">
        <ele>2036.1999511719</ele>
        <time>2021-02-23T09:48:45.000Z</time>
      </trkpt>
      <trkpt lat="45.62162" lon="6.68484">
        <ele>2037</ele>
        <time>2021-02-23T09:48:54.000Z</time>
      </trkpt>
      <trkpt lat="45.62165" lon="6.68496">
        <ele>2037.4000244141</ele>
        <time>2021-02-23T09:49:01.000Z</time>
      </trkpt>
      <trkpt lat="45.62166" lon="6.68499">
        <ele>2038.4000244141</ele>
        <time>2021-02-23T09:49:06.000Z</time>
      </trkpt>
      <trkpt lat="45.62166" lon="6.68499">
        <ele>2039.1999511719</ele>
        <time>2021-02-23T09:49:09.000Z</time>
      </trkpt>
      <trkpt lat="45.62166" lon="6.68499">
        <ele>2039.5999755859</ele>
        <time>2021-02-23T09:49:11.000Z</time>
      </trkpt>
      <trkpt lat="45.62166" lon="6.68499">
        <ele>2039.5999755859</ele>
        <time>2021-02-23T09:49:23.000Z</time>
      </trkpt>
      <trkpt lat="45.62166" lon="6.68499">
        <ele>2040.8000488281</ele>
        <time>2021-02-23T09:49:28.000Z</time>
      </trkpt>
      <trkpt lat="45.62166" lon="6.68499">
        <ele>2041.1999511719</ele>
        <time>2021-02-23T09:49:31.000Z</time>
      </trkpt>
      <trkpt lat="45.62166" lon="6.68499">
        <ele>2041.4000244141</ele>
        <time>2021-02-23T09:49:40.000Z</time>
      </trkpt>
      <trkpt lat="45.62166" lon="6.68501">
        <ele>2042</ele>
        <time>2021-02-23T09:49:42.000Z</time>
      </trkpt>
      <trkpt lat="45.62169" lon="6.6851">
        <ele>2043</ele>
        <time>2021-02-23T09:49:49.000Z</time>
      </trkpt>
      <trkpt lat="45.6217" lon="6.68514">
        <ele>2044.1999511719</ele>
        <time>2021-02-23T09:49:52.000Z</time>
      </trkpt>
      <trkpt lat="45.62172" lon="6.68517">
        <ele>2044.8000488281</ele>
        <time>2021-02-23T09:49:58.000Z</time>
      </trkpt>
      <trkpt lat="45.62172" lon="6.68517">
        <ele>2045.1999511719</ele>
        <time>2021-02-23T09:50:00.000Z</time>
      </trkpt>
      <trkpt lat="45.62172" lon="6.68517">
        <ele>2044.8000488281</ele>
        <time>2021-02-23T09:50:06.000Z</time>
      </trkpt>
      <trkpt lat="45.62173" lon="6.68515">
        <ele>2046.4000244141</ele>
        <time>2021-02-23T09:50:10.000Z</time>
      </trkpt>
      <trkpt lat="45.62177" lon="6.68512">
        <ele>2047.4000244141</ele>
        <time>2021-02-23T09:50:14.000Z</time>
      </trkpt>
      <trkpt lat="45.62177" lon="6.68511">
        <ele>2047.5999755859</ele>
        <time>2021-02-23T09:50:15.000Z</time>
      </trkpt>
      <trkpt lat="45.6218" lon="6.68507">
        <ele>2048</ele>
        <time>2021-02-23T09:50:23.000Z</time>
      </trkpt>
      <trkpt lat="45.6218" lon="6.68507">
        <ele>2048.8000488281</ele>
        <time>2021-02-23T09:50:25.000Z</time>
      </trkpt>
      <trkpt lat="45.6218" lon="6.6851">
        <ele>2049</ele>
        <time>2021-02-23T09:50:31.000Z</time>
      </trkpt>
      <trkpt lat="45.62181" lon="6.68515">
        <ele>2049.8000488281</ele>
        <time>2021-02-23T09:50:35.000Z</time>
      </trkpt>
      <trkpt lat="45.62182" lon="6.68521">
        <ele>2050.1999511719</ele>
        <time>2021-02-23T09:50:40.000Z</time>
      </trkpt>
      <trkpt lat="45.62181" lon="6.68524">
        <ele>2050.8000488281</ele>
        <time>2021-02-23T09:50:43.000Z</time>
      </trkpt>
      <trkpt lat="45.62181" lon="6.68526">
        <ele>2052</ele>
        <time>2021-02-23T09:50:48.000Z</time>
      </trkpt>
      <trkpt lat="45.62181" lon="6.68526">
        <ele>2052.1999511719</ele>
        <time>2021-02-23T09:50:57.000Z</time>
      </trkpt>
      <trkpt lat="45.62181" lon="6.68526">
        <ele>2053</ele>
        <time>2021-02-23T09:51:00.000Z</time>
      </trkpt>
      <trkpt lat="45.62188" lon="6.68517">
        <ele>2053.8000488281</ele>
        <time>2021-02-23T09:51:06.000Z</time>
      </trkpt>
      <trkpt lat="45.62191" lon="6.68513">
        <ele>2054</ele>
        <time>2021-02-23T09:51:09.000Z</time>
      </trkpt>
      <trkpt lat="45.62193" lon="6.68511">
        <ele>2054.3999023438</ele>
        <time>2021-02-23T09:51:16.000Z</time>
      </trkpt>
      <trkpt lat="45.62193" lon="6.68511">
        <ele>2055.1999511719</ele>
        <time>2021-02-23T09:51:19.000Z</time>
      </trkpt>
      <trkpt lat="45.62193" lon="6.68511">
        <ele>2056</ele>
        <time>2021-02-23T09:51:24.000Z</time>
      </trkpt>
      <trkpt lat="45.62193" lon="6.68511">
        <ele>2056.3999023438</ele>
        <time>2021-02-23T09:51:30.000Z</time>
      </trkpt>
      <trkpt lat="45.62193" lon="6.68511">
        <ele>2056.6000976562</ele>
        <time>2021-02-23T09:51:32.000Z</time>
      </trkpt>
      <trkpt lat="45.62193" lon="6.6852">
        <ele>2057.6000976562</ele>
        <time>2021-02-23T09:51:38.000Z</time>
      </trkpt>
      <trkpt lat="45.62194" lon="6.68526">
        <ele>2058.6000976562</ele>
        <time>2021-02-23T09:51:42.000Z</time>
      </trkpt>
      <trkpt lat="45.62194" lon="6.68535">
        <ele>2059.6000976562</ele>
        <time>2021-02-23T09:51:49.000Z</time>
      </trkpt>
      <trkpt lat="45.62194" lon="6.68536">
        <ele>2060.1999511719</ele>
        <time>2021-02-23T09:51:51.000Z</time>
      </trkpt>
      <trkpt lat="45.62194" lon="6.68537">
        <ele>2060.6000976562</ele>
        <time>2021-02-23T09:51:53.000Z</time>
      </trkpt>
      <trkpt lat="45.62194" lon="6.68537">
        <ele>2061</ele>
        <time>2021-02-23T09:52:00.000Z</time>
      </trkpt>
      <trkpt lat="45.62194" lon="6.68537">
        <ele>2062.1999511719</ele>
        <time>2021-02-23T09:52:06.000Z</time>
      </trkpt>
      <trkpt lat="45.62197" lon="6.68532">
        <ele>2063.1999511719</ele>
        <time>2021-02-23T09:52:10.000Z</time>
      </trkpt>
      <trkpt lat="45.62198" lon="6.68531">
        <ele>2063.1999511719</ele>
        <time>2021-02-23T09:52:11.000Z</time>
      </trkpt>
      <trkpt lat="45.62203" lon="6.68527">
        <ele>2064.3999023438</ele>
        <time>2021-02-23T09:52:18.000Z</time>
      </trkpt>
      <trkpt lat="45.62205" lon="6.68525">
        <ele>2064.8000488281</ele>
        <time>2021-02-23T09:52:20.000Z</time>
      </trkpt>
      <trkpt lat="45.62205" lon="6.68525">
        <ele>2065.3999023438</ele>
        <time>2021-02-23T09:52:24.000Z</time>
      </trkpt>
      <trkpt lat="45.62205" lon="6.68525">
        <ele>2065.8000488281</ele>
        <time>2021-02-23T09:52:29.000Z</time>
      </trkpt>
      <trkpt lat="45.62205" lon="6.68525">
        <ele>2066.3999023438</ele>
        <time>2021-02-23T09:52:35.000Z</time>
      </trkpt>
      <trkpt lat="45.62206" lon="6.68527">
        <ele>2066.6000976562</ele>
        <time>2021-02-23T09:52:38.000Z</time>
      </trkpt>
      <trkpt lat="45.6221" lon="6.68536">
        <ele>2067.1999511719</ele>
        <time>2021-02-23T09:52:48.000Z</time>
      </trkpt>
      <trkpt lat="45.6221" lon="6.68538">
        <ele>2067.3999023438</ele>
        <time>2021-02-23T09:52:49.000Z</time>
      </trkpt>
      <trkpt lat="45.6221" lon="6.68541">
        <ele>2068.8000488281</ele>
        <time>2021-02-23T09:52:54.000Z</time>
      </trkpt>
      <trkpt lat="45.6221" lon="6.68545">
        <ele>2069.1999511719</ele>
        <time>2021-02-23T09:52:57.000Z</time>
      </trkpt>
      <trkpt lat="45.62209" lon="6.68549">
        <ele>2070</ele>
        <time>2021-02-23T09:53:02.000Z</time>
      </trkpt>
      <trkpt lat="45.6221" lon="6.68551">
        <ele>2070.3999023438</ele>
        <time>2021-02-23T09:53:05.000Z</time>
      </trkpt>
      <trkpt lat="45.6221" lon="6.68552">
        <ele>2071</ele>
        <time>2021-02-23T09:53:07.000Z</time>
      </trkpt>
      <trkpt lat="45.62209" lon="6.68559">
        <ele>2072</ele>
        <time>2021-02-23T09:53:13.000Z</time>
      </trkpt>
      <trkpt lat="45.62209" lon="6.6856">
        <ele>2072.1999511719</ele>
        <time>2021-02-23T09:53:14.000Z</time>
      </trkpt>
      <trkpt lat="45.62209" lon="6.68566">
        <ele>2073.1999511719</ele>
        <time>2021-02-23T09:53:21.000Z</time>
      </trkpt>
      <trkpt lat="45.62209" lon="6.68566">
        <ele>2073.3999023438</ele>
        <time>2021-02-23T09:53:22.000Z</time>
      </trkpt>
      <trkpt lat="45.62209" lon="6.68566">
        <ele>2074.3999023438</ele>
        <time>2021-02-23T09:53:26.000Z</time>
      </trkpt>
      <trkpt lat="45.62212" lon="6.68562">
        <ele>2075</ele>
        <time>2021-02-23T09:53:29.000Z</time>
      </trkpt>
      <trkpt lat="45.62216" lon="6.68558">
        <ele>2075.6000976562</ele>
        <time>2021-02-23T09:53:33.000Z</time>
      </trkpt>
      <trkpt lat="45.62219" lon="6.68555">
        <ele>2076.6000976562</ele>
        <time>2021-02-23T09:53:37.000Z</time>
      </trkpt>
      <trkpt lat="45.6222" lon="6.68555">
        <ele>2076.8000488281</ele>
        <time>2021-02-23T09:53:38.000Z</time>
      </trkpt>
      <trkpt lat="45.62223" lon="6.68552">
        <ele>2077.8000488281</ele>
        <time>2021-02-23T09:53:44.000Z</time>
      </trkpt>
      <trkpt lat="45.62224" lon="6.68551">
        <ele>2078.3999023438</ele>
        <time>2021-02-23T09:53:46.000Z</time>
      </trkpt>
      <trkpt lat="45.62225" lon="6.6855">
        <ele>2078.8000488281</ele>
        <time>2021-02-23T09:53:49.000Z</time>
      </trkpt>
      <trkpt lat="45.62229" lon="6.68547">
        <ele>2080</ele>
        <time>2021-02-23T09:53:54.000Z</time>
      </trkpt>
      <trkpt lat="45.62233" lon="6.68543">
        <ele>2081</ele>
        <time>2021-02-23T09:54:00.000Z</time>
      </trkpt>
      <trkpt lat="45.62233" lon="6.68542">
        <ele>2081.1999511719</ele>
        <time>2021-02-23T09:54:02.000Z</time>
      </trkpt>
      <trkpt lat="45.62233" lon="6.68542">
        <ele>2082</ele>
        <time>2021-02-23T09:54:06.000Z</time>
      </trkpt>
      <trkpt lat="45.62233" lon="6.68543">
        <ele>2082.6000976562</ele>
        <time>2021-02-23T09:54:09.000Z</time>
      </trkpt>
      <trkpt lat="45.62234" lon="6.68545">
        <ele>2083.1999511719</ele>
        <time>2021-02-23T09:54:11.000Z</time>
      </trkpt>
      <trkpt lat="45.62236" lon="6.68551">
        <ele>2083.6000976562</ele>
        <time>2021-02-23T09:54:16.000Z</time>
      </trkpt>
      <trkpt lat="45.62235" lon="6.68554">
        <ele>2084.1999511719</ele>
        <time>2021-02-23T09:54:19.000Z</time>
      </trkpt>
      <trkpt lat="45.62236" lon="6.68558">
        <ele>2085.1999511719</ele>
        <time>2021-02-23T09:54:24.000Z</time>
      </trkpt>
      <trkpt lat="45.62236" lon="6.68559">
        <ele>2085.3999023438</ele>
        <time>2021-02-23T09:54:25.000Z</time>
      </trkpt>
      <trkpt lat="45.62237" lon="6.68562">
        <ele>2086.1999511719</ele>
        <time>2021-02-23T09:54:30.000Z</time>
      </trkpt>
      <trkpt lat="45.6224" lon="6.68561">
        <ele>2087.1999511719</ele>
        <time>2021-02-23T09:54:34.000Z</time>
      </trkpt>
      <trkpt lat="45.6224" lon="6.68561">
        <ele>2087.3999023438</ele>
        <time>2021-02-23T09:54:35.000Z</time>
      </trkpt>
      <trkpt lat="45.62243" lon="6.6856">
        <ele>2088.6000976562</ele>
        <time>2021-02-23T09:54:41.000Z</time>
      </trkpt>
      <trkpt lat="45.62245" lon="6.68559">
        <ele>2088.8000488281</ele>
        <time>2021-02-23T09:54:43.000Z</time>
      </trkpt>
      <trkpt lat="45.62248" lon="6.68556">
        <ele>2089.6000976562</ele>
        <time>2021-02-23T09:54:49.000Z</time>
      </trkpt>
      <trkpt lat="45.6225" lon="6.68555">
        <ele>2089.8000488281</ele>
        <time>2021-02-23T09:54:52.000Z</time>
      </trkpt>
      <trkpt lat="45.62254" lon="6.68552">
        <ele>2090.8000488281</ele>
        <time>2021-02-23T09:54:57.000Z</time>
      </trkpt>
      <trkpt lat="45.62256" lon="6.68549">
        <ele>2091.1999511719</ele>
        <time>2021-02-23T09:55:00.000Z</time>
      </trkpt>
      <trkpt lat="45.62257" lon="6.68548">
        <ele>2091.8000488281</ele>
        <time>2021-02-23T09:55:02.000Z</time>
      </trkpt>
      <trkpt lat="45.62261" lon="6.68544">
        <ele>2092.6000976562</ele>
        <time>2021-02-23T09:55:09.000Z</time>
      </trkpt>
      <trkpt lat="45.62262" lon="6.68544">
        <ele>2093</ele>
        <time>2021-02-23T09:55:10.000Z</time>
      </trkpt>
      <trkpt lat="45.62264" lon="6.68544">
        <ele>2094</ele>
        <time>2021-02-23T09:55:14.000Z</time>
      </trkpt>
      <trkpt lat="45.62266" lon="6.68544">
        <ele>2094.8000488281</ele>
        <time>2021-02-23T09:55:18.000Z</time>
      </trkpt>
      <trkpt lat="45.62267" lon="6.68545">
        <ele>2095.3999023438</ele>
        <time>2021-02-23T09:55:20.000Z</time>
      </trkpt>
      <trkpt lat="45.62271" lon="6.68546">
        <ele>2096.3999023438</ele>
        <time>2021-02-23T09:55:25.000Z</time>
      </trkpt>
      <trkpt lat="45.62272" lon="6.68546">
        <ele>2096.6000976562</ele>
        <time>2021-02-23T09:55:27.000Z</time>
      </trkpt>
      <trkpt lat="45.62272" lon="6.68546">
        <ele>2097.3999023438</ele>
        <time>2021-02-23T09:55:31.000Z</time>
      </trkpt>
      <trkpt lat="45.62272" lon="6.68546">
        <ele>2098</ele>
        <time>2021-02-23T09:55:37.000Z</time>
      </trkpt>
      <trkpt lat="45.62273" lon="6.68546">
        <ele>2097.8000488281</ele>
        <time>2021-02-23T09:55:52.000Z</time>
      </trkpt>
      <trkpt lat="45.62278" lon="6.68547">
        <ele>2098.3999023438</ele>
        <time>2021-02-23T09:55:59.000Z</time>
      </trkpt>
      <trkpt lat="45.62279" lon="6.68547">
        <ele>2099</ele>
        <time>2021-02-23T09:56:01.000Z</time>
      </trkpt>
      <trkpt lat="45.62282" lon="6.68548">
        <ele>2099.6000976562</ele>
        <time>2021-02-23T09:56:05.000Z</time>
      </trkpt>
      <trkpt lat="45.62283" lon="6.68549">
        <ele>2100.8000488281</ele>
        <time>2021-02-23T09:56:09.000Z</time>
      </trkpt>
      <trkpt lat="45.62284" lon="6.68549">
        <ele>2100.8000488281</ele>
        <time>2021-02-23T09:56:10.000Z</time>
      </trkpt>
      <trkpt lat="45.62286" lon="6.6855">
        <ele>2101.8000488281</ele>
        <time>2021-02-23T09:56:18.000Z</time>
      </trkpt>
      <trkpt lat="45.62286" lon="6.6855">
        <ele>2101.8000488281</ele>
        <time>2021-02-23T09:56:22.000Z</time>
      </trkpt>
      <trkpt lat="45.62286" lon="6.6855">
        <ele>2102.6000976562</ele>
        <time>2021-02-23T09:56:33.000Z</time>
      </trkpt>
      <trkpt lat="45.62286" lon="6.6855">
        <ele>2102.3999023438</ele>
        <time>2021-02-23T09:56:50.000Z</time>
      </trkpt>
      <trkpt lat="45.62286" lon="6.6855">
        <ele>2102.1999511719</ele>
        <time>2021-02-23T09:57:04.000Z</time>
      </trkpt>
      <trkpt lat="45.62286" lon="6.6855">
        <ele>2102.1999511719</ele>
        <time>2021-02-23T09:57:19.000Z</time>
      </trkpt>
      <trkpt lat="45.62286" lon="6.6855">
        <ele>2102.1999511719</ele>
        <time>2021-02-23T09:57:37.000Z</time>
      </trkpt>
      <trkpt lat="45.62286" lon="6.6855">
        <ele>2102.1999511719</ele>
        <time>2021-02-23T09:57:51.000Z</time>
      </trkpt>
      <trkpt lat="45.62286" lon="6.6855">
        <ele>2102.1999511719</ele>
        <time>2021-02-23T09:58:06.000Z</time>
      </trkpt>
      <trkpt lat="45.62286" lon="6.6855">
        <ele>2102</ele>
        <time>2021-02-23T09:58:10.000Z</time>
      </trkpt>
      <trkpt lat="45.62287" lon="6.6855">
        <ele>2102</ele>
        <time>2021-02-23T09:58:21.000Z</time>
      </trkpt>
      <trkpt lat="45.62287" lon="6.6855">
        <ele>2101.8000488281</ele>
        <time>2021-02-23T09:58:37.000Z</time>
      </trkpt>
      <trkpt lat="45.62287" lon="6.6855">
        <ele>2101.6000976562</ele>
        <time>2021-02-23T09:58:47.000Z</time>
      </trkpt>
      <trkpt lat="45.62287" lon="6.6855">
        <ele>2102</ele>
        <time>2021-02-23T09:59:01.000Z</time>
      </trkpt>
      <trkpt lat="45.62287" lon="6.6855">
        <ele>2102</ele>
        <time>2021-02-23T09:59:15.000Z</time>
      </trkpt>
      <trkpt lat="45.62287" lon="6.6855">
        <ele>2101.8000488281</ele>
        <time>2021-02-23T09:59:28.000Z</time>
      </trkpt>
      <trkpt lat="45.62287" lon="6.6855">
        <ele>2101.8000488281</ele>
        <time>2021-02-23T09:59:44.000Z</time>
      </trkpt>
      <trkpt lat="45.62287" lon="6.6855">
        <ele>2101.3999023438</ele>
        <time>2021-02-23T09:59:59.000Z</time>
      </trkpt>
      <trkpt lat="45.62287" lon="6.6855">
        <ele>2101.8000488281</ele>
        <time>2021-02-23T10:00:11.000Z</time>
      </trkpt>
      <trkpt lat="45.62287" lon="6.6855">
        <ele>2102</ele>
        <time>2021-02-23T10:00:25.000Z</time>
      </trkpt>
      <trkpt lat="45.62287" lon="6.6855">
        <ele>2101.8000488281</ele>
        <time>2021-02-23T10:00:42.000Z</time>
      </trkpt>
      <trkpt lat="45.62287" lon="6.6855">
        <ele>2101.6000976562</ele>
        <time>2021-02-23T10:00:53.000Z</time>
      </trkpt>
      <trkpt lat="45.62287" lon="6.6855">
        <ele>2101.8000488281</ele>
        <time>2021-02-23T10:01:05.000Z</time>
      </trkpt>
      <trkpt lat="45.62287" lon="6.6855">
        <ele>2101.6000976562</ele>
        <time>2021-02-23T10:01:16.000Z</time>
      </trkpt>
      <trkpt lat="45.62287" lon="6.6855">
        <ele>2101.8000488281</ele>
        <time>2021-02-23T10:01:34.000Z</time>
      </trkpt>
      <trkpt lat="45.62287" lon="6.6855">
        <ele>2101.6000976562</ele>
        <time>2021-02-23T10:01:48.000Z</time>
      </trkpt>
      <trkpt lat="45.62287" lon="6.6855">
        <ele>2101.6000976562</ele>
        <time>2021-02-23T10:02:01.000Z</time>
      </trkpt>
      <trkpt lat="45.62287" lon="6.6855">
        <ele>2101.8000488281</ele>
        <time>2021-02-23T10:02:13.000Z</time>
      </trkpt>
      <trkpt lat="45.62288" lon="6.6855">
        <ele>2101.8000488281</ele>
        <time>2021-02-23T10:02:25.000Z</time>
      </trkpt>
      <trkpt lat="45.62288" lon="6.6855">
        <ele>2101.6000976562</ele>
        <time>2021-02-23T10:02:41.000Z</time>
      </trkpt>
      <trkpt lat="45.62288" lon="6.6855">
        <ele>2101.8000488281</ele>
        <time>2021-02-23T10:02:59.000Z</time>
      </trkpt>
      <trkpt lat="45.62288" lon="6.6855">
        <ele>2101.8000488281</ele>
        <time>2021-02-23T10:03:13.000Z</time>
      </trkpt>
      <trkpt lat="45.62288" lon="6.6855">
        <ele>2102</ele>
        <time>2021-02-23T10:03:25.000Z</time>
      </trkpt>
      <trkpt lat="45.62288" lon="6.6855">
        <ele>2103</ele>
        <time>2021-02-23T10:03:32.000Z</time>
      </trkpt>
      <trkpt lat="45.62288" lon="6.6855">
        <ele>2103.3999023438</ele>
        <time>2021-02-23T10:03:34.000Z</time>
      </trkpt>
      <trkpt lat="45.62292" lon="6.68551">
        <ele>2104</ele>
        <time>2021-02-23T10:03:39.000Z</time>
      </trkpt>
      <trkpt lat="45.62297" lon="6.68554">
        <ele>2104.6000976562</ele>
        <time>2021-02-23T10:03:43.000Z</time>
      </trkpt>
      <trkpt lat="45.62299" lon="6.68555">
        <ele>2105.1999511719</ele>
        <time>2021-02-23T10:03:46.000Z</time>
      </trkpt>
      <trkpt lat="45.62302" lon="6.68556">
        <ele>2105.1999511719</ele>
        <time>2021-02-23T10:03:52.000Z</time>
      </trkpt>
      <trkpt lat="45.62302" lon="6.68556">
        <ele>2105.6000976562</ele>
        <time>2021-02-23T10:04:09.000Z</time>
      </trkpt>
      <trkpt lat="45.62302" lon="6.68556">
        <ele>2105.3999023438</ele>
        <time>2021-02-23T10:04:23.000Z</time>
      </trkpt>
      <trkpt lat="45.62309" lon="6.68559">
        <ele>2106.1999511719</ele>
        <time>2021-02-23T10:04:31.000Z</time>
      </trkpt>
      <trkpt lat="45.6231" lon="6.68559">
        <ele>2106.3999023438</ele>
        <time>2021-02-23T10:04:32.000Z</time>
      </trkpt>
      <trkpt lat="45.62316" lon="6.68559">
        <ele>2107.3999023438</ele>
        <time>2021-02-23T10:04:37.000Z</time>
      </trkpt>
      <trkpt lat="45.6232" lon="6.6856">
        <ele>2108</ele>
        <time>2021-02-23T10:04:42.000Z</time>
      </trkpt>
      <trkpt lat="45.62322" lon="6.68559">
        <ele>2108.6000976562</ele>
        <time>2021-02-23T10:04:44.000Z</time>
      </trkpt>
      <trkpt lat="45.62328" lon="6.68562">
        <ele>2109.6000976562</ele>
        <time>2021-02-23T10:04:51.000Z</time>
      </trkpt>
      <trkpt lat="45.62331" lon="6.68563">
        <ele>2110.6000976562</ele>
        <time>2021-02-23T10:04:54.000Z</time>
      </trkpt>
      <trkpt lat="45.62332" lon="6.68564">
        <ele>2110.8000488281</ele>
        <time>2021-02-23T10:04:55.000Z</time>
      </trkpt>
      <trkpt lat="45.62338" lon="6.68567">
        <ele>2112</ele>
        <time>2021-02-23T10:05:03.000Z</time>
      </trkpt>
      <trkpt lat="45.62339" lon="6.68568">
        <ele>2112.3999023438</ele>
        <time>2021-02-23T10:05:04.000Z</time>
      </trkpt>
      <trkpt lat="45.62342" lon="6.6857">
        <ele>2113</ele>
        <time>2021-02-23T10:05:09.000Z</time>
      </trkpt>
      <trkpt lat="45.62345" lon="6.68572">
        <ele>2113.8000488281</ele>
        <time>2021-02-23T10:05:14.000Z</time>
      </trkpt>
      <trkpt lat="45.62346" lon="6.68573">
        <ele>2114.1999511719</ele>
        <time>2021-02-23T10:05:16.000Z</time>
      </trkpt>
      <trkpt lat="45.62349" lon="6.68575">
        <ele>2115.3999023438</ele>
        <time>2021-02-23T10:05:22.000Z</time>
      </trkpt>
      <trkpt lat="45.6235" lon="6.68576">
        <ele>2115.8000488281</ele>
        <time>2021-02-23T10:05:24.000Z</time>
      </trkpt>
      <trkpt lat="45.62352" lon="6.68577">
        <ele>2116.3999023438</ele>
        <time>2021-02-23T10:05:27.000Z</time>
      </trkpt>
      <trkpt lat="45.62355" lon="6.68579">
        <ele>2117.6000976562</ele>
        <time>2021-02-23T10:05:32.000Z</time>
      </trkpt>
      <trkpt lat="45.62356" lon="6.6858">
        <ele>2117.8000488281</ele>
        <time>2021-02-23T10:05:33.000Z</time>
      </trkpt>
      <trkpt lat="45.62359" lon="6.68584">
        <ele>2118.6000976562</ele>
        <time>2021-02-23T10:05:40.000Z</time>
      </trkpt>
      <trkpt lat="45.62361" lon="6.68586">
        <ele>2119</ele>
        <time>2021-02-23T10:05:42.000Z</time>
      </trkpt>
      <trkpt lat="45.62362" lon="6.68588">
        <ele>2119.8000488281</ele>
        <time>2021-02-23T10:05:47.000Z</time>
      </trkpt>
      <trkpt lat="45.62364" lon="6.6859">
        <ele>2120.6000976562</ele>
        <time>2021-02-23T10:05:50.000Z</time>
      </trkpt>
      <trkpt lat="45.62367" lon="6.68593">
        <ele>2121</ele>
        <time>2021-02-23T10:05:54.000Z</time>
      </trkpt>
      <trkpt lat="45.62369" lon="6.68596">
        <ele>2121.6000976562</ele>
        <time>2021-02-23T10:05:59.000Z</time>
      </trkpt>
      <trkpt lat="45.62371" lon="6.68597">
        <ele>2122.1999511719</ele>
        <time>2021-02-23T10:06:02.000Z</time>
      </trkpt>
      <trkpt lat="45.62374" lon="6.686">
        <ele>2123.1999511719</ele>
        <time>2021-02-23T10:06:07.000Z</time>
      </trkpt>
      <trkpt lat="45.62375" lon="6.68601">
        <ele>2123.8000488281</ele>
        <time>2021-02-23T10:06:09.000Z</time>
      </trkpt>
      <trkpt lat="45.62376" lon="6.68603">
        <ele>2124.1999511719</ele>
        <time>2021-02-23T10:06:12.000Z</time>
      </trkpt>
      <trkpt lat="45.6238" lon="6.68605">
        <ele>2125.3999023438</ele>
        <time>2021-02-23T10:06:17.000Z</time>
      </trkpt>
      <trkpt lat="45.6238" lon="6.68605">
        <ele>2125.6000976562</ele>
        <time>2021-02-23T10:06:18.000Z</time>
      </trkpt>
      <trkpt lat="45.62382" lon="6.68607">
        <ele>2126.3999023438</ele>
        <time>2021-02-23T10:06:23.000Z</time>
      </trkpt>
      <trkpt lat="45.62385" lon="6.68608">
        <ele>2127</ele>
        <time>2021-02-23T10:06:27.000Z</time>
      </trkpt>
      <trkpt lat="45.62387" lon="6.6861">
        <ele>2127.6000976562</ele>
        <time>2021-02-23T10:06:30.000Z</time>
      </trkpt>
      <trkpt lat="45.62389" lon="6.68612">
        <ele>2128.3999023438</ele>
        <time>2021-02-23T10:06:35.000Z</time>
      </trkpt>
      <trkpt lat="45.6239" lon="6.68613">
        <ele>2128.6000976562</ele>
        <time>2021-02-23T10:06:36.000Z</time>
      </trkpt>
      <trkpt lat="45.62395" lon="6.68617">
        <ele>2129.8000488281</ele>
        <time>2021-02-23T10:06:44.000Z</time>
      </trkpt>
      <trkpt lat="45.62399" lon="6.68619">
        <ele>2130.8000488281</ele>
        <time>2021-02-23T10:06:51.000Z</time>
      </trkpt>
      <trkpt lat="45.62399" lon="6.68619">
        <ele>2131</ele>
        <time>2021-02-23T10:06:52.000Z</time>
      </trkpt>
      <trkpt lat="45.624" lon="6.6862">
        <ele>2132</ele>
        <time>2021-02-23T10:06:55.000Z</time>
      </trkpt>
      <trkpt lat="45.62403" lon="6.68622">
        <ele>2133.1999511719</ele>
        <time>2021-02-23T10:07:01.000Z</time>
      </trkpt>
      <trkpt lat="45.62404" lon="6.68623">
        <ele>2133.3999023438</ele>
        <time>2021-02-23T10:07:02.000Z</time>
      </trkpt>
      <trkpt lat="45.62408" lon="6.68625">
        <ele>2134.1999511719</ele>
        <time>2021-02-23T10:07:09.000Z</time>
      </trkpt>
      <trkpt lat="45.62411" lon="6.68626">
        <ele>2134.3999023438</ele>
        <time>2021-02-23T10:07:12.000Z</time>
      </trkpt>
      <trkpt lat="45.62413" lon="6.68626">
        <ele>2135.3999023438</ele>
        <time>2021-02-23T10:07:17.000Z</time>
      </trkpt>
      <trkpt lat="45.62419" lon="6.68629">
        <ele>2136.3999023438</ele>
        <time>2021-02-23T10:07:23.000Z</time>
      </trkpt>
      <trkpt lat="45.62419" lon="6.68629">
        <ele>2136.3999023438</ele>
        <time>2021-02-23T10:07:24.000Z</time>
      </trkpt>
      <trkpt lat="45.62426" lon="6.68632">
        <ele>2137.1999511719</ele>
        <time>2021-02-23T10:07:34.000Z</time>
      </trkpt>
      <trkpt lat="45.62429" lon="6.68633">
        <ele>2137.6000976562</ele>
        <time>2021-02-23T10:07:39.000Z</time>
      </trkpt>
      <trkpt lat="45.62431" lon="6.68634">
        <ele>2138.6000976562</ele>
        <time>2021-02-23T10:07:43.000Z</time>
      </trkpt>
      <trkpt lat="45.62432" lon="6.68634">
        <ele>2139</ele>
        <time>2021-02-23T10:07:44.000Z</time>
      </trkpt>
      <trkpt lat="45.62435" lon="6.68635">
        <ele>2139.8000488281</ele>
        <time>2021-02-23T10:07:49.000Z</time>
      </trkpt>
      <trkpt lat="45.6244" lon="6.68636">
        <ele>2140.6000976562</ele>
        <time>2021-02-23T10:07:55.000Z</time>
      </trkpt>
      <trkpt lat="45.62445" lon="6.68638">
        <ele>2140.8000488281</ele>
        <time>2021-02-23T10:08:00.000Z</time>
      </trkpt>
      <trkpt lat="45.62446" lon="6.68638">
        <ele>2142</ele>
        <time>2021-02-23T10:08:03.000Z</time>
      </trkpt>
      <trkpt lat="45.62448" lon="6.68639">
        <ele>2142.1999511719</ele>
        <time>2021-02-23T10:08:05.000Z</time>
      </trkpt>
      <trkpt lat="45.62451" lon="6.6864">
        <ele>2143.1999511719</ele>
        <time>2021-02-23T10:08:09.000Z</time>
      </trkpt>
      <trkpt lat="45.62456" lon="6.68642">
        <ele>2144</ele>
        <time>2021-02-23T10:08:16.000Z</time>
      </trkpt>
      <trkpt lat="45.62458" lon="6.68642">
        <ele>2144.1999511719</ele>
        <time>2021-02-23T10:08:19.000Z</time>
      </trkpt>
      <trkpt lat="45.62464" lon="6.68645">
        <ele>2145</ele>
        <time>2021-02-23T10:08:27.000Z</time>
      </trkpt>
      <trkpt lat="45.62464" lon="6.68645">
        <ele>2145.3999023438</ele>
        <time>2021-02-23T10:08:28.000Z</time>
      </trkpt>
      <trkpt lat="45.62467" lon="6.68647">
        <ele>2146.3999023438</ele>
        <time>2021-02-23T10:08:33.000Z</time>
      </trkpt>
      <trkpt lat="45.6247" lon="6.68648">
        <ele>2147</ele>
        <time>2021-02-23T10:08:37.000Z</time>
      </trkpt>
      <trkpt lat="45.62471" lon="6.68648">
        <ele>2147.3999023438</ele>
        <time>2021-02-23T10:08:39.000Z</time>
      </trkpt>
      <trkpt lat="45.62476" lon="6.6865">
        <ele>2148.8000488281</ele>
        <time>2021-02-23T10:08:46.000Z</time>
      </trkpt>
      <trkpt lat="45.62477" lon="6.68651">
        <ele>2149.1999511719</ele>
        <time>2021-02-23T10:08:49.000Z</time>
      </trkpt>
      <trkpt lat="45.62481" lon="6.68653">
        <ele>2149.8000488281</ele>
        <time>2021-02-23T10:08:53.000Z</time>
      </trkpt>
      <trkpt lat="45.62484" lon="6.68654">
        <ele>2150.8000488281</ele>
        <time>2021-02-23T10:08:59.000Z</time>
      </trkpt>
      <trkpt lat="45.6249" lon="6.68655">
        <ele>2152</ele>
        <time>2021-02-23T10:09:07.000Z</time>
      </trkpt>
      <trkpt lat="45.62491" lon="6.68656">
        <ele>2152.3999023438</ele>
        <time>2021-02-23T10:09:09.000Z</time>
      </trkpt>
      <trkpt lat="45.62493" lon="6.68657">
        <ele>2153</ele>
        <time>2021-02-23T10:09:12.000Z</time>
      </trkpt>
      <trkpt lat="45.62496" lon="6.68658">
        <ele>2154</ele>
        <time>2021-02-23T10:09:17.000Z</time>
      </trkpt>
      <trkpt lat="45.62498" lon="6.68659">
        <ele>2154.1999511719</ele>
        <time>2021-02-23T10:09:19.000Z</time>
      </trkpt>
      <trkpt lat="45.625" lon="6.6866">
        <ele>2155.1999511719</ele>
        <time>2021-02-23T10:09:23.000Z</time>
      </trkpt>
      <trkpt lat="45.62506" lon="6.68663">
        <ele>2156.1999511719</ele>
        <time>2021-02-23T10:09:30.000Z</time>
      </trkpt>
      <trkpt lat="45.62506" lon="6.68662">
        <ele>2156.3999023438</ele>
        <time>2021-02-23T10:09:31.000Z</time>
      </trkpt>
      <trkpt lat="45.6251" lon="6.68666">
        <ele>2157.3999023438</ele>
        <time>2021-02-23T10:09:37.000Z</time>
      </trkpt>
      <trkpt lat="45.62511" lon="6.68668">
        <ele>2158</ele>
        <time>2021-02-23T10:09:40.000Z</time>
      </trkpt>
      <trkpt lat="45.6251" lon="6.68669">
        <ele>2158.6000976562</ele>
        <time>2021-02-23T10:09:43.000Z</time>
      </trkpt>
      <trkpt lat="45.62509" lon="6.68673">
        <ele>2159.6000976562</ele>
        <time>2021-02-23T10:09:48.000Z</time>
      </trkpt>
      <trkpt lat="45.62506" lon="6.68679">
        <ele>2160.6000976562</ele>
        <time>2021-02-23T10:09:56.000Z</time>
      </trkpt>
      <trkpt lat="45.62506" lon="6.6868">
        <ele>2160.8000488281</ele>
        <time>2021-02-23T10:09:57.000Z</time>
      </trkpt>
      <trkpt lat="45.62504" lon="6.68684">
        <ele>2161.6000976562</ele>
        <time>2021-02-23T10:10:05.000Z</time>
      </trkpt>
      <trkpt lat="45.62503" lon="6.68685">
        <ele>2162</ele>
        <time>2021-02-23T10:10:07.000Z</time>
      </trkpt>
      <trkpt lat="45.62502" lon="6.68686">
        <ele>2163.1999511719</ele>
        <time>2021-02-23T10:10:10.000Z</time>
      </trkpt>
      <trkpt lat="45.625" lon="6.68687">
        <ele>2163.8000488281</ele>
        <time>2021-02-23T10:10:13.000Z</time>
      </trkpt>
      <trkpt lat="45.62499" lon="6.68687">
        <ele>2164.3999023438</ele>
        <time>2021-02-23T10:10:16.000Z</time>
      </trkpt>
      <trkpt lat="45.62499" lon="6.68687">
        <ele>2164.6000976562</ele>
        <time>2021-02-23T10:10:18.000Z</time>
      </trkpt>
      <trkpt lat="45.62501" lon="6.68689">
        <ele>2165.6000976562</ele>
        <time>2021-02-23T10:10:22.000Z</time>
      </trkpt>
      <trkpt lat="45.62504" lon="6.68692">
        <ele>2166.6000976562</ele>
        <time>2021-02-23T10:10:27.000Z</time>
      </trkpt>
      <trkpt lat="45.62505" lon="6.68693">
        <ele>2166.8000488281</ele>
        <time>2021-02-23T10:10:28.000Z</time>
      </trkpt>
      <trkpt lat="45.62508" lon="6.68696">
        <ele>2168</ele>
        <time>2021-02-23T10:10:34.000Z</time>
      </trkpt>
      <trkpt lat="45.6251" lon="6.68698">
        <ele>2168.3999023438</ele>
        <time>2021-02-23T10:10:37.000Z</time>
      </trkpt>
      <trkpt lat="45.62513" lon="6.68702">
        <ele>2169.1999511719</ele>
        <time>2021-02-23T10:10:44.000Z</time>
      </trkpt>
      <trkpt lat="45.62516" lon="6.68704">
        <ele>2170.3999023438</ele>
        <time>2021-02-23T10:10:49.000Z</time>
      </trkpt>
      <trkpt lat="45.62517" lon="6.68704">
        <ele>2170.6000976562</ele>
        <time>2021-02-23T10:10:51.000Z</time>
      </trkpt>
      <trkpt lat="45.6252" lon="6.68706">
        <ele>2171.6000976562</ele>
        <time>2021-02-23T10:10:58.000Z</time>
      </trkpt>
      <trkpt lat="45.6252" lon="6.68706">
        <ele>2171.8000488281</ele>
        <time>2021-02-23T10:10:59.000Z</time>
      </trkpt>
      <trkpt lat="45.62518" lon="6.68708">
        <ele>2172.8000488281</ele>
        <time>2021-02-23T10:11:04.000Z</time>
      </trkpt>
      <trkpt lat="45.62518" lon="6.6871">
        <ele>2173</ele>
        <time>2021-02-23T10:11:06.000Z</time>
      </trkpt>
      <trkpt lat="45.62517" lon="6.68714">
        <ele>2173.6000976562</ele>
        <time>2021-02-23T10:11:13.000Z</time>
      </trkpt>
      <trkpt lat="45.62518" lon="6.68714">
        <ele>2174</ele>
        <time>2021-02-23T10:11:14.000Z</time>
      </trkpt>
      <trkpt lat="45.6252" lon="6.68716">
        <ele>2175.1999511719</ele>
        <time>2021-02-23T10:11:18.000Z</time>
      </trkpt>
      <trkpt lat="45.62522" lon="6.68717">
        <ele>2176.1999511719</ele>
        <time>2021-02-23T10:11:22.000Z</time>
      </trkpt>
      <trkpt lat="45.62523" lon="6.68717">
        <ele>2176.6000976562</ele>
        <time>2021-02-23T10:11:23.000Z</time>
      </trkpt>
      <trkpt lat="45.62528" lon="6.68719">
        <ele>2177.6000976562</ele>
        <time>2021-02-23T10:11:32.000Z</time>
      </trkpt>
      <trkpt lat="45.6253" lon="6.68719">
        <ele>2178</ele>
        <time>2021-02-23T10:11:34.000Z</time>
      </trkpt>
      <trkpt lat="45.62533" lon="6.68719">
        <ele>2178.8000488281</ele>
        <time>2021-02-23T10:11:39.000Z</time>
      </trkpt>
      <trkpt lat="45.62536" lon="6.68719">
        <ele>2179.3999023438</ele>
        <time>2021-02-23T10:11:44.000Z</time>
      </trkpt>
      <trkpt lat="45.62537" lon="6.68719">
        <ele>2179.8000488281</ele>
        <time>2021-02-23T10:11:46.000Z</time>
      </trkpt>
      <trkpt lat="45.62538" lon="6.68719">
        <ele>2180.8000488281</ele>
        <time>2021-02-23T10:11:50.000Z</time>
      </trkpt>
      <trkpt lat="45.62538" lon="6.68719">
        <ele>2181.6000976562</ele>
        <time>2021-02-23T10:11:53.000Z</time>
      </trkpt>
      <trkpt lat="45.62538" lon="6.68719">
        <ele>2182</ele>
        <time>2021-02-23T10:11:56.000Z</time>
      </trkpt>
      <trkpt lat="45.62538" lon="6.68719">
        <ele>2183</ele>
        <time>2021-02-23T10:12:02.000Z</time>
      </trkpt>
      <trkpt lat="45.6254" lon="6.68718">
        <ele>2183.3999023438</ele>
        <time>2021-02-23T10:12:05.000Z</time>
      </trkpt>
      <trkpt lat="45.62544" lon="6.68716">
        <ele>2184</ele>
        <time>2021-02-23T10:12:10.000Z</time>
      </trkpt>
      <trkpt lat="45.62547" lon="6.68714">
        <ele>2185</ele>
        <time>2021-02-23T10:12:14.000Z</time>
      </trkpt>
      <trkpt lat="45.62548" lon="6.68714">
        <ele>2185.1999511719</ele>
        <time>2021-02-23T10:12:16.000Z</time>
      </trkpt>
      <trkpt lat="45.62551" lon="6.68712">
        <ele>2186.1999511719</ele>
        <time>2021-02-23T10:12:21.000Z</time>
      </trkpt>
      <trkpt lat="45.62554" lon="6.6871">
        <ele>2187.3999023438</ele>
        <time>2021-02-23T10:12:27.000Z</time>
      </trkpt>
      <trkpt lat="45.62559" lon="6.68709">
        <ele>2188.6000976562</ele>
        <time>2021-02-23T10:12:33.000Z</time>
      </trkpt>
      <trkpt lat="45.62563" lon="6.6871">
        <ele>2189.6000976562</ele>
        <time>2021-02-23T10:12:38.000Z</time>
      </trkpt>
      <trkpt lat="45.62564" lon="6.6871">
        <ele>2189.8000488281</ele>
        <time>2021-02-23T10:12:39.000Z</time>
      </trkpt>
      <trkpt lat="45.6257" lon="6.68711">
        <ele>2191</ele>
        <time>2021-02-23T10:12:46.000Z</time>
      </trkpt>
      <trkpt lat="45.62573" lon="6.68711">
        <ele>2191.1999511719</ele>
        <time>2021-02-23T10:12:49.000Z</time>
      </trkpt>
      <trkpt lat="45.62576" lon="6.6871">
        <ele>2192.1999511719</ele>
        <time>2021-02-23T10:12:54.000Z</time>
      </trkpt>
      <trkpt lat="45.6258" lon="6.68709">
        <ele>2193.1999511719</ele>
        <time>2021-02-23T10:13:00.000Z</time>
      </trkpt>
      <trkpt lat="45.62581" lon="6.68709">
        <ele>2193.6000976562</ele>
        <time>2021-02-23T10:13:01.000Z</time>
      </trkpt>
      <trkpt lat="45.62584" lon="6.68709">
        <ele>2194.3999023438</ele>
        <time>2021-02-23T10:13:04.000Z</time>
      </trkpt>
      <trkpt lat="45.62589" lon="6.68709">
        <ele>2195.6000976562</ele>
        <time>2021-02-23T10:13:12.000Z</time>
      </trkpt>
      <trkpt lat="45.62592" lon="6.68709">
        <ele>2196.8000488281</ele>
        <time>2021-02-23T10:13:17.000Z</time>
      </trkpt>
      <trkpt lat="45.62596" lon="6.68711">
        <ele>2197.1999511719</ele>
        <time>2021-02-23T10:13:22.000Z</time>
      </trkpt>
      <trkpt lat="45.62599" lon="6.68711">
        <ele>2197.8000488281</ele>
        <time>2021-02-23T10:13:25.000Z</time>
      </trkpt>
      <trkpt lat="45.62602" lon="6.68716">
        <ele>2199</ele>
        <time>2021-02-23T10:13:31.000Z</time>
      </trkpt>
      <trkpt lat="45.62602" lon="6.68718">
        <ele>2200</ele>
        <time>2021-02-23T10:13:35.000Z</time>
      </trkpt>
      <trkpt lat="45.62604" lon="6.68722">
        <ele>2200.3999023438</ele>
        <time>2021-02-23T10:13:39.000Z</time>
      </trkpt>
      <trkpt lat="45.62605" lon="6.68723">
        <ele>2201</ele>
        <time>2021-02-23T10:13:42.000Z</time>
      </trkpt>
      <trkpt lat="45.62608" lon="6.68726">
        <ele>2201.8000488281</ele>
        <time>2021-02-23T10:13:47.000Z</time>
      </trkpt>
      <trkpt lat="45.62609" lon="6.68727">
        <ele>2202.3999023438</ele>
        <time>2021-02-23T10:13:49.000Z</time>
      </trkpt>
      <trkpt lat="45.62611" lon="6.68728">
        <ele>2203.6000976562</ele>
        <time>2021-02-23T10:13:56.000Z</time>
      </trkpt>
      <trkpt lat="45.62612" lon="6.68729">
        <ele>2204.6000976562</ele>
        <time>2021-02-23T10:14:02.000Z</time>
      </trkpt>
      <trkpt lat="45.62613" lon="6.6873">
        <ele>2205</ele>
        <time>2021-02-23T10:14:04.000Z</time>
      </trkpt>
      <trkpt lat="45.62615" lon="6.68732">
        <ele>2205.8000488281</ele>
        <time>2021-02-23T10:14:06.000Z</time>
      </trkpt>
      <trkpt lat="45.62619" lon="6.68737">
        <ele>2206.8000488281</ele>
        <time>2021-02-23T10:14:11.000Z</time>
      </trkpt>
      <trkpt lat="45.62619" lon="6.68737">
        <ele>2207.1999511719</ele>
        <time>2021-02-23T10:14:12.000Z</time>
      </trkpt>
      <trkpt lat="45.62624" lon="6.68742">
        <ele>2207.8000488281</ele>
        <time>2021-02-23T10:14:18.000Z</time>
      </trkpt>
      <trkpt lat="45.62625" lon="6.68745">
        <ele>2208.6000976562</ele>
        <time>2021-02-23T10:14:21.000Z</time>
      </trkpt>
      <trkpt lat="45.62626" lon="6.68746">
        <ele>2209</ele>
        <time>2021-02-23T10:14:24.000Z</time>
      </trkpt>
      <trkpt lat="45.62629" lon="6.6875">
        <ele>2210</ele>
        <time>2021-02-23T10:14:29.000Z</time>
      </trkpt>
      <trkpt lat="45.6263" lon="6.68755">
        <ele>2210.8000488281</ele>
        <time>2021-02-23T10:14:33.000Z</time>
      </trkpt>
      <trkpt lat="45.6263" lon="6.68755">
        <ele>2211</ele>
        <time>2021-02-23T10:14:34.000Z</time>
      </trkpt>
      <trkpt lat="45.62633" lon="6.68761">
        <ele>2212</ele>
        <time>2021-02-23T10:14:41.000Z</time>
      </trkpt>
      <trkpt lat="45.62633" lon="6.68762">
        <ele>2212.3999023438</ele>
        <time>2021-02-23T10:14:42.000Z</time>
      </trkpt>
      <trkpt lat="45.62634" lon="6.68766">
        <ele>2213.3999023438</ele>
        <time>2021-02-23T10:14:47.000Z</time>
      </trkpt>
      <trkpt lat="45.62636" lon="6.68769">
        <ele>2214</ele>
        <time>2021-02-23T10:14:50.000Z</time>
      </trkpt>
      <trkpt lat="45.62637" lon="6.68772">
        <ele>2214.3999023438</ele>
        <time>2021-02-23T10:14:54.000Z</time>
      </trkpt>
      <trkpt lat="45.62638" lon="6.68775">
        <ele>2215.6000976562</ele>
        <time>2021-02-23T10:14:58.000Z</time>
      </trkpt>
      <trkpt lat="45.62638" lon="6.68775">
        <ele>2215.8000488281</ele>
        <time>2021-02-23T10:14:59.000Z</time>
      </trkpt>
      <trkpt lat="45.62643" lon="6.68781">
        <ele>2217</ele>
        <time>2021-02-23T10:15:07.000Z</time>
      </trkpt>
      <trkpt lat="45.62645" lon="6.68783">
        <ele>2218</ele>
        <time>2021-02-23T10:15:11.000Z</time>
      </trkpt>
      <trkpt lat="45.62649" lon="6.68788">
        <ele>2218.6000976562</ele>
        <time>2021-02-23T10:15:16.000Z</time>
      </trkpt>
      <trkpt lat="45.62649" lon="6.68789">
        <ele>2219.1999511719</ele>
        <time>2021-02-23T10:15:18.000Z</time>
      </trkpt>
      <trkpt lat="45.62652" lon="6.68792">
        <ele>2220.1999511719</ele>
        <time>2021-02-23T10:15:23.000Z</time>
      </trkpt>
      <trkpt lat="45.62653" lon="6.68793">
        <ele>2220.3999023438</ele>
        <time>2021-02-23T10:15:24.000Z</time>
      </trkpt>
      <trkpt lat="45.62654" lon="6.68796">
        <ele>2221.1999511719</ele>
        <time>2021-02-23T10:15:28.000Z</time>
      </trkpt>
      <trkpt lat="45.62656" lon="6.68798">
        <ele>2222.1999511719</ele>
        <time>2021-02-23T10:15:33.000Z</time>
      </trkpt>
      <trkpt lat="45.62656" lon="6.68798">
        <ele>2222.3999023438</ele>
        <time>2021-02-23T10:15:34.000Z</time>
      </trkpt>
      <trkpt lat="45.62656" lon="6.68798">
        <ele>2222.8000488281</ele>
        <time>2021-02-23T10:15:49.000Z</time>
      </trkpt>
      <trkpt lat="45.62656" lon="6.68798">
        <ele>2223</ele>
        <time>2021-02-23T10:15:59.000Z</time>
      </trkpt>
      <trkpt lat="45.62656" lon="6.68798">
        <ele>2222.8000488281</ele>
        <time>2021-02-23T10:16:15.000Z</time>
      </trkpt>
      <trkpt lat="45.62657" lon="6.688">
        <ele>2222.8000488281</ele>
        <time>2021-02-23T10:16:25.000Z</time>
      </trkpt>
      <trkpt lat="45.6266" lon="6.68805">
        <ele>2223.6000976562</ele>
        <time>2021-02-23T10:16:30.000Z</time>
      </trkpt>
      <trkpt lat="45.62662" lon="6.68808">
        <ele>2224.1999511719</ele>
        <time>2021-02-23T10:16:33.000Z</time>
      </trkpt>
      <trkpt lat="45.62663" lon="6.6881">
        <ele>2224.6000976562</ele>
        <time>2021-02-23T10:16:36.000Z</time>
      </trkpt>
      <trkpt lat="45.62665" lon="6.68815">
        <ele>2225.3999023438</ele>
        <time>2021-02-23T10:16:41.000Z</time>
      </trkpt>
      <trkpt lat="45.62666" lon="6.68816">
        <ele>2225.6000976562</ele>
        <time>2021-02-23T10:16:42.000Z</time>
      </trkpt>
      <trkpt lat="45.62668" lon="6.68822">
        <ele>2226.8000488281</ele>
        <time>2021-02-23T10:16:48.000Z</time>
      </trkpt>
      <trkpt lat="45.6267" lon="6.68827">
        <ele>2227.8000488281</ele>
        <time>2021-02-23T10:16:55.000Z</time>
      </trkpt>
      <trkpt lat="45.6267" lon="6.68828">
        <ele>2228.1999511719</ele>
        <time>2021-02-23T10:16:56.000Z</time>
      </trkpt>
      <trkpt lat="45.62672" lon="6.68832">
        <ele>2229</ele>
        <time>2021-02-23T10:17:01.000Z</time>
      </trkpt>
      <trkpt lat="45.62674" lon="6.68834">
        <ele>2229.3999023438</ele>
        <time>2021-02-23T10:17:04.000Z</time>
      </trkpt>
      <trkpt lat="45.62676" lon="6.68833">
        <ele>2230.1999511719</ele>
        <time>2021-02-23T10:17:10.000Z</time>
      </trkpt>
      <trkpt lat="45.62677" lon="6.68832">
        <ele>2230.3999023438</ele>
        <time>2021-02-23T10:17:13.000Z</time>
      </trkpt>
      <trkpt lat="45.62679" lon="6.68832">
        <ele>2231.3999023438</ele>
        <time>2021-02-23T10:17:16.000Z</time>
      </trkpt>
      <trkpt lat="45.62681" lon="6.68831">
        <ele>2232.8000488281</ele>
        <time>2021-02-23T10:17:20.000Z</time>
      </trkpt>
      <trkpt lat="45.62682" lon="6.6883">
        <ele>2233</ele>
        <time>2021-02-23T10:17:21.000Z</time>
      </trkpt>
      <trkpt lat="45.62685" lon="6.6883">
        <ele>2233.8000488281</ele>
        <time>2021-02-23T10:17:27.000Z</time>
      </trkpt>
      <trkpt lat="45.62687" lon="6.6883">
        <ele>2234.3999023438</ele>
        <time>2021-02-23T10:17:30.000Z</time>
      </trkpt>
      <trkpt lat="45.62689" lon="6.68829">
        <ele>2235</ele>
        <time>2021-02-23T10:17:33.000Z</time>
      </trkpt>
      <trkpt lat="45.6269" lon="6.68829">
        <ele>2235.8000488281</ele>
        <time>2021-02-23T10:17:39.000Z</time>
      </trkpt>
      <trkpt lat="45.6269" lon="6.68829">
        <ele>2235.6000976562</ele>
        <time>2021-02-23T10:17:52.000Z</time>
      </trkpt>
      <trkpt lat="45.62693" lon="6.68827">
        <ele>2236.1999511719</ele>
        <time>2021-02-23T10:17:58.000Z</time>
      </trkpt>
      <trkpt lat="45.62694" lon="6.68826">
        <ele>2236.3999023438</ele>
        <time>2021-02-23T10:18:00.000Z</time>
      </trkpt>
      <trkpt lat="45.62696" lon="6.68822">
        <ele>2237.1999511719</ele>
        <time>2021-02-23T10:18:04.000Z</time>
      </trkpt>
      <trkpt lat="45.62698" lon="6.68819">
        <ele>2237.6000976562</ele>
        <time>2021-02-23T10:18:07.000Z</time>
      </trkpt>
      <trkpt lat="45.627" lon="6.68816">
        <ele>2238.1999511719</ele>
        <time>2021-02-23T10:18:10.000Z</time>
      </trkpt>
      <trkpt lat="45.62703" lon="6.68811">
        <ele>2239</ele>
        <time>2021-02-23T10:18:15.000Z</time>
      </trkpt>
      <trkpt lat="45.62703" lon="6.68809">
        <ele>2239.3999023438</ele>
        <time>2021-02-23T10:18:17.000Z</time>
      </trkpt>
      <trkpt lat="45.62707" lon="6.68804">
        <ele>2240.3999023438</ele>
        <time>2021-02-23T10:18:23.000Z</time>
      </trkpt>
      <trkpt lat="45.6271" lon="6.688">
        <ele>2241.3999023438</ele>
        <time>2021-02-23T10:18:29.000Z</time>
      </trkpt>
      <trkpt lat="45.62711" lon="6.68799">
        <ele>2241.6000976562</ele>
        <time>2021-02-23T10:18:31.000Z</time>
      </trkpt>
      <trkpt lat="45.62712" lon="6.68796">
        <ele>2242.6000976562</ele>
        <time>2021-02-23T10:18:35.000Z</time>
      </trkpt>
      <trkpt lat="45.62714" lon="6.68793">
        <ele>2243.6000976562</ele>
        <time>2021-02-23T10:18:40.000Z</time>
      </trkpt>
      <trkpt lat="45.62715" lon="6.68793">
        <ele>2243.8000488281</ele>
        <time>2021-02-23T10:18:42.000Z</time>
      </trkpt>
      <trkpt lat="45.62718" lon="6.68797">
        <ele>2244.3999023438</ele>
        <time>2021-02-23T10:18:47.000Z</time>
      </trkpt>
      <trkpt lat="45.62719" lon="6.68797">
        <ele>2244.8000488281</ele>
        <time>2021-02-23T10:18:48.000Z</time>
      </trkpt>
      <trkpt lat="45.62721" lon="6.68798">
        <ele>2246</ele>
        <time>2021-02-23T10:18:53.000Z</time>
      </trkpt>
      <trkpt lat="45.62721" lon="6.68798">
        <ele>2246.1999511719</ele>
        <time>2021-02-23T10:18:54.000Z</time>
      </trkpt>
      <trkpt lat="45.62723" lon="6.688">
        <ele>2246.3999023438</ele>
        <time>2021-02-23T10:19:03.000Z</time>
      </trkpt>
      <trkpt lat="45.62726" lon="6.68803">
        <ele>2247</ele>
        <time>2021-02-23T10:19:08.000Z</time>
      </trkpt>
      <trkpt lat="45.62727" lon="6.68804">
        <ele>2247.3999023438</ele>
        <time>2021-02-23T10:19:09.000Z</time>
      </trkpt>
      <trkpt lat="45.62729" lon="6.68807">
        <ele>2248</ele>
        <time>2021-02-23T10:19:13.000Z</time>
      </trkpt>
      <trkpt lat="45.62731" lon="6.68811">
        <ele>2248.8000488281</ele>
        <time>2021-02-23T10:19:17.000Z</time>
      </trkpt>
      <trkpt lat="45.62731" lon="6.68812">
        <ele>2249.1999511719</ele>
        <time>2021-02-23T10:19:18.000Z</time>
      </trkpt>
      <trkpt lat="45.62734" lon="6.68817">
        <ele>2250.1999511719</ele>
        <time>2021-02-23T10:19:23.000Z</time>
      </trkpt>
      <trkpt lat="45.62736" lon="6.68821">
        <ele>2251</ele>
        <time>2021-02-23T10:19:27.000Z</time>
      </trkpt>
      <trkpt lat="45.62736" lon="6.68822">
        <ele>2251.1999511719</ele>
        <time>2021-02-23T10:19:29.000Z</time>
      </trkpt>
      <trkpt lat="45.62738" lon="6.68825">
        <ele>2252.1999511719</ele>
        <time>2021-02-23T10:19:34.000Z</time>
      </trkpt>
      <trkpt lat="45.62741" lon="6.68823">
        <ele>2253.1999511719</ele>
        <time>2021-02-23T10:19:40.000Z</time>
      </trkpt>
      <trkpt lat="45.62742" lon="6.68823">
        <ele>2253.3999023438</ele>
        <time>2021-02-23T10:19:41.000Z</time>
      </trkpt>
      <trkpt lat="45.62743" lon="6.68821">
        <ele>2254.6000976562</ele>
        <time>2021-02-23T10:19:44.000Z</time>
      </trkpt>
      <trkpt lat="45.62746" lon="6.68817">
        <ele>2255.6000976562</ele>
        <time>2021-02-23T10:19:50.000Z</time>
      </trkpt>
      <trkpt lat="45.62748" lon="6.68813">
        <ele>2256.8000488281</ele>
        <time>2021-02-23T10:19:56.000Z</time>
      </trkpt>
      <trkpt lat="45.62748" lon="6.6881">
        <ele>2257</ele>
        <time>2021-02-23T10:19:59.000Z</time>
      </trkpt>
      <trkpt lat="45.6275" lon="6.68804">
        <ele>2257.8000488281</ele>
        <time>2021-02-23T10:20:05.000Z</time>
      </trkpt>
      <trkpt lat="45.6275" lon="6.68802">
        <ele>2258.1999511719</ele>
        <time>2021-02-23T10:20:07.000Z</time>
      </trkpt>
      <trkpt lat="45.6275" lon="6.688">
        <ele>2258.8000488281</ele>
        <time>2021-02-23T10:20:10.000Z</time>
      </trkpt>
      <trkpt lat="45.6275" lon="6.688">
        <ele>2259.6000976562</ele>
        <time>2021-02-23T10:20:13.000Z</time>
      </trkpt>
      <trkpt lat="45.6275" lon="6.688">
        <ele>2260</ele>
        <time>2021-02-23T10:20:15.000Z</time>
      </trkpt>
      <trkpt lat="45.62755" lon="6.68805">
        <ele>2261</ele>
        <time>2021-02-23T10:20:21.000Z</time>
      </trkpt>
      <trkpt lat="45.62756" lon="6.68806">
        <ele>2261.1999511719</ele>
        <time>2021-02-23T10:20:22.000Z</time>
      </trkpt>
      <trkpt lat="45.6276" lon="6.68811">
        <ele>2262.3999023438</ele>
        <time>2021-02-23T10:20:28.000Z</time>
      </trkpt>
      <trkpt lat="45.62761" lon="6.68812">
        <ele>2262.6000976562</ele>
        <time>2021-02-23T10:20:30.000Z</time>
      </trkpt>
      <trkpt lat="45.62763" lon="6.68815">
        <ele>2263.3999023438</ele>
        <time>2021-02-23T10:20:33.000Z</time>
      </trkpt>
      <trkpt lat="45.62765" lon="6.68819">
        <ele>2264.1999511719</ele>
        <time>2021-02-23T10:20:38.000Z</time>
      </trkpt>
      <trkpt lat="45.62765" lon="6.6882">
        <ele>2264.6000976562</ele>
        <time>2021-02-23T10:20:40.000Z</time>
      </trkpt>
      <trkpt lat="45.62766" lon="6.68826">
        <ele>2265.3999023438</ele>
        <time>2021-02-23T10:20:46.000Z</time>
      </trkpt>
      <trkpt lat="45.62766" lon="6.68826">
        <ele>2265.6000976562</ele>
        <time>2021-02-23T10:20:47.000Z</time>
      </trkpt>
      <trkpt lat="45.62765" lon="6.68833">
        <ele>2266.8000488281</ele>
        <time>2021-02-23T10:20:54.000Z</time>
      </trkpt>
      <trkpt lat="45.62765" lon="6.68834">
        <ele>2267</ele>
        <time>2021-02-23T10:20:55.000Z</time>
      </trkpt>
      <trkpt lat="45.62766" lon="6.68839">
        <ele>2268</ele>
        <time>2021-02-23T10:21:00.000Z</time>
      </trkpt>
      <trkpt lat="45.62766" lon="6.68843">
        <ele>2268.6000976562</ele>
        <time>2021-02-23T10:21:04.000Z</time>
      </trkpt>
      <trkpt lat="45.62766" lon="6.68844">
        <ele>2269</ele>
        <time>2021-02-23T10:21:05.000Z</time>
      </trkpt>
      <trkpt lat="45.62766" lon="6.68848">
        <ele>2270</ele>
        <time>2021-02-23T10:21:10.000Z</time>
      </trkpt>
      <trkpt lat="45.62766" lon="6.6885">
        <ele>2270.3999023438</ele>
        <time>2021-02-23T10:21:12.000Z</time>
      </trkpt>
      <trkpt lat="45.62767" lon="6.68851">
        <ele>2271</ele>
        <time>2021-02-23T10:21:15.000Z</time>
      </trkpt>
      <trkpt lat="45.62767" lon="6.68851">
        <ele>2271.6000976562</ele>
        <time>2021-02-23T10:21:19.000Z</time>
      </trkpt>
      <trkpt lat="45.62767" lon="6.68851">
        <ele>2272.1999511719</ele>
        <time>2021-02-23T10:21:25.000Z</time>
      </trkpt>
      <trkpt lat="45.62768" lon="6.6885">
        <ele>2272.8000488281</ele>
        <time>2021-02-23T10:21:27.000Z</time>
      </trkpt>
      <trkpt lat="45.6277" lon="6.68847">
        <ele>2273.1999511719</ele>
        <time>2021-02-23T10:21:31.000Z</time>
      </trkpt>
      <trkpt lat="45.62773" lon="6.68844">
        <ele>2274.3999023438</ele>
        <time>2021-02-23T10:21:36.000Z</time>
      </trkpt>
      <trkpt lat="45.62775" lon="6.68842">
        <ele>2275.3999023438</ele>
        <time>2021-02-23T10:21:41.000Z</time>
      </trkpt>
      <trkpt lat="45.62777" lon="6.68839">
        <ele>2276</ele>
        <time>2021-02-23T10:21:45.000Z</time>
      </trkpt>
      <trkpt lat="45.62778" lon="6.68838">
        <ele>2276.8000488281</ele>
        <time>2021-02-23T10:21:47.000Z</time>
      </trkpt>
      <trkpt lat="45.62782" lon="6.68834">
        <ele>2278</ele>
        <time>2021-02-23T10:21:54.000Z</time>
      </trkpt>
      <trkpt lat="45.62785" lon="6.68829">
        <ele>2279</ele>
        <time>2021-02-23T10:22:01.000Z</time>
      </trkpt>
      <trkpt lat="45.62786" lon="6.68829">
        <ele>2279.1999511719</ele>
        <time>2021-02-23T10:22:02.000Z</time>
      </trkpt>
      <trkpt lat="45.62788" lon="6.68825">
        <ele>2280.3999023438</ele>
        <time>2021-02-23T10:22:08.000Z</time>
      </trkpt>
      <trkpt lat="45.62791" lon="6.68822">
        <ele>2281.3999023438</ele>
        <time>2021-02-23T10:22:12.000Z</time>
      </trkpt>
      <trkpt lat="45.62791" lon="6.68822">
        <ele>2281.6000976562</ele>
        <time>2021-02-23T10:22:13.000Z</time>
      </trkpt>
      <trkpt lat="45.62794" lon="6.68818">
        <ele>2282.3999023438</ele>
        <time>2021-02-23T10:22:19.000Z</time>
      </trkpt>
      <trkpt lat="45.62796" lon="6.68814">
        <ele>2283.1999511719</ele>
        <time>2021-02-23T10:22:23.000Z</time>
      </trkpt>
      <trkpt lat="45.62797" lon="6.68812">
        <ele>2283.6000976562</ele>
        <time>2021-02-23T10:22:26.000Z</time>
      </trkpt>
      <trkpt lat="45.62799" lon="6.68806">
        <ele>2284.6000976562</ele>
        <time>2021-02-23T10:22:31.000Z</time>
      </trkpt>
      <trkpt lat="45.62799" lon="6.68805">
        <ele>2284.8000488281</ele>
        <time>2021-02-23T10:22:32.000Z</time>
      </trkpt>
      <trkpt lat="45.62799" lon="6.68804">
        <ele>2285.1999511719</ele>
        <time>2021-02-23T10:22:38.000Z</time>
      </trkpt>
      <trkpt lat="45.62799" lon="6.68804">
        <ele>2285.6000976562</ele>
        <time>2021-02-23T10:22:39.000Z</time>
      </trkpt>
      <trkpt lat="45.62805" lon="6.68809">
        <ele>2286.6000976562</ele>
        <time>2021-02-23T10:22:47.000Z</time>
      </trkpt>
      <trkpt lat="45.62808" lon="6.68812">
        <ele>2287.6000976562</ele>
        <time>2021-02-23T10:22:51.000Z</time>
      </trkpt>
      <trkpt lat="45.6281" lon="6.68816">
        <ele>2288.6000976562</ele>
        <time>2021-02-23T10:22:55.000Z</time>
      </trkpt>
      <trkpt lat="45.62811" lon="6.68816">
        <ele>2288.8000488281</ele>
        <time>2021-02-23T10:22:56.000Z</time>
      </trkpt>
      <trkpt lat="45.62814" lon="6.6882">
        <ele>2289.8000488281</ele>
        <time>2021-02-23T10:23:01.000Z</time>
      </trkpt>
      <trkpt lat="45.62816" lon="6.68823">
        <ele>2290.3999023438</ele>
        <time>2021-02-23T10:23:05.000Z</time>
      </trkpt>
      <trkpt lat="45.62817" lon="6.68825">
        <ele>2291</ele>
        <time>2021-02-23T10:23:08.000Z</time>
      </trkpt>
      <trkpt lat="45.6282" lon="6.68828">
        <ele>2292.1999511719</ele>
        <time>2021-02-23T10:23:12.000Z</time>
      </trkpt>
      <trkpt lat="45.6282" lon="6.68829">
        <ele>2292.3999023438</ele>
        <time>2021-02-23T10:23:13.000Z</time>
      </trkpt>
      <trkpt lat="45.62822" lon="6.68831">
        <ele>2293.1999511719</ele>
        <time>2021-02-23T10:23:16.000Z</time>
      </trkpt>
      <trkpt lat="45.62825" lon="6.68835">
        <ele>2294.1999511719</ele>
        <time>2021-02-23T10:23:21.000Z</time>
      </trkpt>
      <trkpt lat="45.62826" lon="6.68836">
        <ele>2294.1999511719</ele>
        <time>2021-02-23T10:23:22.000Z</time>
      </trkpt>
      <trkpt lat="45.6283" lon="6.68841">
        <ele>2295.1999511719</ele>
        <time>2021-02-23T10:23:28.000Z</time>
      </trkpt>
      <trkpt lat="45.6283" lon="6.68842">
        <ele>2295.1999511719</ele>
        <time>2021-02-23T10:23:29.000Z</time>
      </trkpt>
      <trkpt lat="45.62833" lon="6.68847">
        <ele>2296.1999511719</ele>
        <time>2021-02-23T10:23:34.000Z</time>
      </trkpt>
      <trkpt lat="45.62834" lon="6.6885">
        <ele>2297</ele>
        <time>2021-02-23T10:23:37.000Z</time>
      </trkpt>
      <trkpt lat="45.62836" lon="6.68851">
        <ele>2297.3999023438</ele>
        <time>2021-02-23T10:23:40.000Z</time>
      </trkpt>
      <trkpt lat="45.62837" lon="6.68853">
        <ele>2297.8000488281</ele>
        <time>2021-02-23T10:23:42.000Z</time>
      </trkpt>
      <trkpt lat="45.62838" lon="6.68855">
        <ele>2298.3999023438</ele>
        <time>2021-02-23T10:23:45.000Z</time>
      </trkpt>
      <trkpt lat="45.6284" lon="6.6886">
        <ele>2299.3999023438</ele>
        <time>2021-02-23T10:23:50.000Z</time>
      </trkpt>
      <trkpt lat="45.62841" lon="6.68861">
        <ele>2299.6000976562</ele>
        <time>2021-02-23T10:23:51.000Z</time>
      </trkpt>
      <trkpt lat="45.62843" lon="6.68866">
        <ele>2300.3999023438</ele>
        <time>2021-02-23T10:23:56.000Z</time>
      </trkpt>
      <trkpt lat="45.62844" lon="6.6887">
        <ele>2300.8000488281</ele>
        <time>2021-02-23T10:24:00.000Z</time>
      </trkpt>
      <trkpt lat="45.62847" lon="6.68876">
        <ele>2301.6000976562</ele>
        <time>2021-02-23T10:24:06.000Z</time>
      </trkpt>
      <trkpt lat="45.62849" lon="6.68879">
        <ele>2302.6000976562</ele>
        <time>2021-02-23T10:24:10.000Z</time>
      </trkpt>
      <trkpt lat="45.6285" lon="6.68884">
        <ele>2303.6000976562</ele>
        <time>2021-02-23T10:24:14.000Z</time>
      </trkpt>
      <trkpt lat="45.6285" lon="6.68885">
        <ele>2303.8000488281</ele>
        <time>2021-02-23T10:24:15.000Z</time>
      </trkpt>
      <trkpt lat="45.62852" lon="6.68891">
        <ele>2305</ele>
        <time>2021-02-23T10:24:21.000Z</time>
      </trkpt>
      <trkpt lat="45.62853" lon="6.68898">
        <ele>2306</ele>
        <time>2021-02-23T10:24:28.000Z</time>
      </trkpt>
      <trkpt lat="45.62853" lon="6.689">
        <ele>2306.1999511719</ele>
        <time>2021-02-23T10:24:30.000Z</time>
      </trkpt>
      <trkpt lat="45.62854" lon="6.68904">
        <ele>2307</ele>
        <time>2021-02-23T10:24:34.000Z</time>
      </trkpt>
      <trkpt lat="45.62856" lon="6.68906">
        <ele>2307.8000488281</ele>
        <time>2021-02-23T10:24:37.000Z</time>
      </trkpt>
      <trkpt lat="45.62858" lon="6.68905">
        <ele>2308</ele>
        <time>2021-02-23T10:24:40.000Z</time>
      </trkpt>
      <trkpt lat="45.62861" lon="6.68905">
        <ele>2309</ele>
        <time>2021-02-23T10:24:44.000Z</time>
      </trkpt>
      <trkpt lat="45.62863" lon="6.68904">
        <ele>2309.6000976562</ele>
        <time>2021-02-23T10:24:47.000Z</time>
      </trkpt>
      <trkpt lat="45.62864" lon="6.68904">
        <ele>2310.1999511719</ele>
        <time>2021-02-23T10:24:50.000Z</time>
      </trkpt>
      <trkpt lat="45.62864" lon="6.68904">
        <ele>2310.8000488281</ele>
        <time>2021-02-23T10:24:54.000Z</time>
      </trkpt>
      <trkpt lat="45.62864" lon="6.68904">
        <ele>2311</ele>
        <time>2021-02-23T10:25:03.000Z</time>
      </trkpt>
      <trkpt lat="45.62864" lon="6.68904">
        <ele>2311.3999023438</ele>
        <time>2021-02-23T10:25:04.000Z</time>
      </trkpt>
      <trkpt lat="45.62866" lon="6.68904">
        <ele>2312.1999511719</ele>
        <time>2021-02-23T10:25:11.000Z</time>
      </trkpt>
      <trkpt lat="45.62867" lon="6.68904">
        <ele>2312.6000976562</ele>
        <time>2021-02-23T10:25:12.000Z</time>
      </trkpt>
      <trkpt lat="45.62875" lon="6.68903">
        <ele>2313.3999023438</ele>
        <time>2021-02-23T10:25:21.000Z</time>
      </trkpt>
      <trkpt lat="45.62876" lon="6.68903">
        <ele>2313.6000976562</ele>
        <time>2021-02-23T10:25:22.000Z</time>
      </trkpt>
      <trkpt lat="45.62879" lon="6.68899">
        <ele>2314.6000976562</ele>
        <time>2021-02-23T10:25:27.000Z</time>
      </trkpt>
      <trkpt lat="45.6288" lon="6.68897">
        <ele>2315.1999511719</ele>
        <time>2021-02-23T10:25:29.000Z</time>
      </trkpt>
      <trkpt lat="45.6288" lon="6.68896">
        <ele>2315.6000976562</ele>
        <time>2021-02-23T10:25:31.000Z</time>
      </trkpt>
      <trkpt lat="45.62881" lon="6.68892">
        <ele>2316.8000488281</ele>
        <time>2021-02-23T10:25:35.000Z</time>
      </trkpt>
      <trkpt lat="45.62882" lon="6.6889">
        <ele>2317.1999511719</ele>
        <time>2021-02-23T10:25:37.000Z</time>
      </trkpt>
      <trkpt lat="45.62883" lon="6.68888">
        <ele>2317.8000488281</ele>
        <time>2021-02-23T10:25:40.000Z</time>
      </trkpt>
      <trkpt lat="45.62885" lon="6.68883">
        <ele>2318.6000976562</ele>
        <time>2021-02-23T10:25:46.000Z</time>
      </trkpt>
      <trkpt lat="45.62886" lon="6.6888">
        <ele>2318.8000488281</ele>
        <time>2021-02-23T10:25:51.000Z</time>
      </trkpt>
      <trkpt lat="45.62886" lon="6.6888">
        <ele>2319.6000976562</ele>
        <time>2021-02-23T10:25:55.000Z</time>
      </trkpt>
      <trkpt lat="45.62886" lon="6.6888">
        <ele>2320</ele>
        <time>2021-02-23T10:25:58.000Z</time>
      </trkpt>
      <trkpt lat="45.62886" lon="6.6888">
        <ele>2320.6000976562</ele>
        <time>2021-02-23T10:26:05.000Z</time>
      </trkpt>
      <trkpt lat="45.62886" lon="6.6888">
        <ele>2320.6000976562</ele>
        <time>2021-02-23T10:26:17.000Z</time>
      </trkpt>
      <trkpt lat="45.62886" lon="6.6888">
        <ele>2321</ele>
        <time>2021-02-23T10:26:23.000Z</time>
      </trkpt>
      <trkpt lat="45.62886" lon="6.6888">
        <ele>2321.3999023438</ele>
        <time>2021-02-23T10:26:26.000Z</time>
      </trkpt>
      <trkpt lat="45.62886" lon="6.6888">
        <ele>2322.1999511719</ele>
        <time>2021-02-23T10:26:30.000Z</time>
      </trkpt>
      <trkpt lat="45.62888" lon="6.68882">
        <ele>2323</ele>
        <time>2021-02-23T10:26:33.000Z</time>
      </trkpt>
      <trkpt lat="45.62888" lon="6.68882">
        <ele>2323.1999511719</ele>
        <time>2021-02-23T10:26:36.000Z</time>
      </trkpt>
      <trkpt lat="45.62888" lon="6.68882">
        <ele>2323.8000488281</ele>
        <time>2021-02-23T10:26:41.000Z</time>
      </trkpt>
      <trkpt lat="45.62888" lon="6.68882">
        <ele>2324.3999023438</ele>
        <time>2021-02-23T10:26:43.000Z</time>
      </trkpt>
      <trkpt lat="45.62888" lon="6.68882">
        <ele>2325.1999511719</ele>
        <time>2021-02-23T10:26:48.000Z</time>
      </trkpt>
      <trkpt lat="45.62888" lon="6.68882">
        <ele>2325.3999023438</ele>
        <time>2021-02-23T10:26:50.000Z</time>
      </trkpt>
      <trkpt lat="45.62896" lon="6.68892">
        <ele>2326.3999023438</ele>
        <time>2021-02-23T10:26:55.000Z</time>
      </trkpt>
      <trkpt lat="45.62898" lon="6.68894">
        <ele>2326.3999023438</ele>
        <time>2021-02-23T10:26:56.000Z</time>
      </trkpt>
      <trkpt lat="45.62906" lon="6.68903">
        <ele>2327.6000976562</ele>
        <time>2021-02-23T10:27:03.000Z</time>
      </trkpt>
      <trkpt lat="45.62911" lon="6.68912">
        <ele>2328.8000488281</ele>
        <time>2021-02-23T10:27:11.000Z</time>
      </trkpt>
      <trkpt lat="45.62913" lon="6.68918">
        <ele>2330</ele>
        <time>2021-02-23T10:27:18.000Z</time>
      </trkpt>
      <trkpt lat="45.62913" lon="6.68919">
        <ele>2330.1999511719</ele>
        <time>2021-02-23T10:27:19.000Z</time>
      </trkpt>
      <trkpt lat="45.62914" lon="6.68922">
        <ele>2331.1999511719</ele>
        <time>2021-02-23T10:27:22.000Z</time>
      </trkpt>
      <trkpt lat="45.62915" lon="6.68927">
        <ele>2331.8000488281</ele>
        <time>2021-02-23T10:27:27.000Z</time>
      </trkpt>
      <trkpt lat="45.62915" lon="6.6893">
        <ele>2332.1999511719</ele>
        <time>2021-02-23T10:27:30.000Z</time>
      </trkpt>
      <trkpt lat="45.62916" lon="6.68935">
        <ele>2333.1999511719</ele>
        <time>2021-02-23T10:27:35.000Z</time>
      </trkpt>
      <trkpt lat="45.62915" lon="6.6894">
        <ele>2333.8000488281</ele>
        <time>2021-02-23T10:27:39.000Z</time>
      </trkpt>
      <trkpt lat="45.62915" lon="6.68943">
        <ele>2334</ele>
        <time>2021-02-23T10:27:41.000Z</time>
      </trkpt>
      <trkpt lat="45.62915" lon="6.68944">
        <ele>2334.3999023438</ele>
        <time>2021-02-23T10:27:43.000Z</time>
      </trkpt>
      <trkpt lat="45.62914" lon="6.68948">
        <ele>2335.1999511719</ele>
        <time>2021-02-23T10:27:48.000Z</time>
      </trkpt>
      <trkpt lat="45.62914" lon="6.6895">
        <ele>2335.8000488281</ele>
        <time>2021-02-23T10:27:50.000Z</time>
      </trkpt>
      <trkpt lat="45.62914" lon="6.68956">
        <ele>2336.8000488281</ele>
        <time>2021-02-23T10:27:56.000Z</time>
      </trkpt>
      <trkpt lat="45.62915" lon="6.68959">
        <ele>2337.8000488281</ele>
        <time>2021-02-23T10:28:05.000Z</time>
      </trkpt>
      <trkpt lat="45.62915" lon="6.68959">
        <ele>2338</ele>
        <time>2021-02-23T10:28:08.000Z</time>
      </trkpt>
      <trkpt lat="45.62915" lon="6.68959">
        <ele>2338.1999511719</ele>
        <time>2021-02-23T10:28:12.000Z</time>
      </trkpt>
      <trkpt lat="45.62915" lon="6.68959">
        <ele>2339.3999023438</ele>
        <time>2021-02-23T10:28:19.000Z</time>
      </trkpt>
      <trkpt lat="45.62915" lon="6.68959">
        <ele>2340.1999511719</ele>
        <time>2021-02-23T10:28:22.000Z</time>
      </trkpt>
      <trkpt lat="45.62915" lon="6.68959">
        <ele>2340.6000976562</ele>
        <time>2021-02-23T10:28:23.000Z</time>
      </trkpt>
      <trkpt lat="45.62915" lon="6.68959">
        <ele>2341.8000488281</ele>
        <time>2021-02-23T10:28:31.000Z</time>
      </trkpt>
      <trkpt lat="45.62915" lon="6.68959">
        <ele>2342.1999511719</ele>
        <time>2021-02-23T10:28:33.000Z</time>
      </trkpt>
      <trkpt lat="45.62915" lon="6.68958">
        <ele>2342</ele>
        <time>2021-02-23T10:28:46.000Z</time>
      </trkpt>
      <trkpt lat="45.62915" lon="6.68958">
        <ele>2342.6000976562</ele>
        <time>2021-02-23T10:28:54.000Z</time>
      </trkpt>
      <trkpt lat="45.62915" lon="6.68958">
        <ele>2342.8000488281</ele>
        <time>2021-02-23T10:28:55.000Z</time>
      </trkpt>
      <trkpt lat="45.62915" lon="6.68958">
        <ele>2343.8000488281</ele>
        <time>2021-02-23T10:29:01.000Z</time>
      </trkpt>
      <trkpt lat="45.62915" lon="6.68958">
        <ele>2344.1999511719</ele>
        <time>2021-02-23T10:29:03.000Z</time>
      </trkpt>
      <trkpt lat="45.62915" lon="6.68958">
        <ele>2344.8000488281</ele>
        <time>2021-02-23T10:29:14.000Z</time>
      </trkpt>
      <trkpt lat="45.62915" lon="6.68958">
        <ele>2345</ele>
        <time>2021-02-23T10:29:15.000Z</time>
      </trkpt>
      <trkpt lat="45.62916" lon="6.68955">
        <ele>2346</ele>
        <time>2021-02-23T10:29:21.000Z</time>
      </trkpt>
      <trkpt lat="45.62916" lon="6.68955">
        <ele>2346.1999511719</ele>
        <time>2021-02-23T10:29:22.000Z</time>
      </trkpt>
      <trkpt lat="45.62916" lon="6.68955">
        <ele>2347.1999511719</ele>
        <time>2021-02-23T10:29:28.000Z</time>
      </trkpt>
      <trkpt lat="45.62916" lon="6.68955">
        <ele>2347.3999023438</ele>
        <time>2021-02-23T10:29:30.000Z</time>
      </trkpt>
      <trkpt lat="45.62916" lon="6.68955">
        <ele>2348.1999511719</ele>
        <time>2021-02-23T10:29:32.000Z</time>
      </trkpt>
      <trkpt lat="45.62916" lon="6.68955">
        <ele>2349.1999511719</ele>
        <time>2021-02-23T10:29:39.000Z</time>
      </trkpt>
      <trkpt lat="45.62916" lon="6.68955">
        <ele>2350.3999023438</ele>
        <time>2021-02-23T10:29:45.000Z</time>
      </trkpt>
      <trkpt lat="45.62916" lon="6.68955">
        <ele>2350.8000488281</ele>
        <time>2021-02-23T10:29:47.000Z</time>
      </trkpt>
      <trkpt lat="45.62916" lon="6.68955">
        <ele>2351.8000488281</ele>
        <time>2021-02-23T10:29:50.000Z</time>
      </trkpt>
      <trkpt lat="45.62916" lon="6.68955">
        <ele>2352.1999511719</ele>
        <time>2021-02-23T10:29:54.000Z</time>
      </trkpt>
      <trkpt lat="45.62916" lon="6.68955">
        <ele>2353</ele>
        <time>2021-02-23T10:29:57.000Z</time>
      </trkpt>
      <trkpt lat="45.62923" lon="6.68956">
        <ele>2353.8000488281</ele>
        <time>2021-02-23T10:30:02.000Z</time>
      </trkpt>
      <trkpt lat="45.62927" lon="6.68957">
        <ele>2354</ele>
        <time>2021-02-23T10:30:04.000Z</time>
      </trkpt>
      <trkpt lat="45.62935" lon="6.68958">
        <ele>2355.1999511719</ele>
        <time>2021-02-23T10:30:09.000Z</time>
      </trkpt>
      <trkpt lat="45.62937" lon="6.68958">
        <ele>2355.3999023438</ele>
        <time>2021-02-23T10:30:10.000Z</time>
      </trkpt>
      <trkpt lat="45.62942" lon="6.6896">
        <ele>2356.1999511719</ele>
        <time>2021-02-23T10:30:13.000Z</time>
      </trkpt>
      <trkpt lat="45.62948" lon="6.68961">
        <ele>2357</ele>
        <time>2021-02-23T10:30:18.000Z</time>
      </trkpt>
      <trkpt lat="45.62948" lon="6.68961">
        <ele>2357.1999511719</ele>
        <time>2021-02-23T10:30:19.000Z</time>
      </trkpt>
      <trkpt lat="45.62952" lon="6.68963">
        <ele>2357.3999023438</ele>
        <time>2021-02-23T10:30:26.000Z</time>
      </trkpt>
      <trkpt lat="45.6296" lon="6.68966">
        <ele>2358.3999023438</ele>
        <time>2021-02-23T10:30:32.000Z</time>
      </trkpt>
      <trkpt lat="45.62966" lon="6.68969">
        <ele>2359.3999023438</ele>
        <time>2021-02-23T10:30:38.000Z</time>
      </trkpt>
      <trkpt lat="45.62967" lon="6.6897">
        <ele>2359.8000488281</ele>
        <time>2021-02-23T10:30:40.000Z</time>
      </trkpt>
      <trkpt lat="45.62972" lon="6.68972">
        <ele>2360.3999023438</ele>
        <time>2021-02-23T10:30:45.000Z</time>
      </trkpt>
      <trkpt lat="45.62974" lon="6.68974">
        <ele>2361.1999511719</ele>
        <time>2021-02-23T10:30:50.000Z</time>
      </trkpt>
      <trkpt lat="45.62974" lon="6.68974">
        <ele>2361.3999023438</ele>
        <time>2021-02-23T10:30:52.000Z</time>
      </trkpt>
      <trkpt lat="45.62976" lon="6.68976">
        <ele>2361.6000976562</ele>
        <time>2021-02-23T10:30:58.000Z</time>
      </trkpt>
      <trkpt lat="45.62981" lon="6.6898">
        <ele>2362.8000488281</ele>
        <time>2021-02-23T10:31:04.000Z</time>
      </trkpt>
      <trkpt lat="45.62983" lon="6.68982">
        <ele>2363.1999511719</ele>
        <time>2021-02-23T10:31:08.000Z</time>
      </trkpt>
      <trkpt lat="45.62985" lon="6.68984">
        <ele>2363.8000488281</ele>
        <time>2021-02-23T10:31:11.000Z</time>
      </trkpt>
      <trkpt lat="45.62989" lon="6.68988">
        <ele>2364.6000976562</ele>
        <time>2021-02-23T10:31:16.000Z</time>
      </trkpt>
      <trkpt lat="45.62989" lon="6.68989">
        <ele>2365</ele>
        <time>2021-02-23T10:31:17.000Z</time>
      </trkpt>
      <trkpt lat="45.62992" lon="6.68991">
        <ele>2366</ele>
        <time>2021-02-23T10:31:21.000Z</time>
      </trkpt>
      <trkpt lat="45.62994" lon="6.68994">
        <ele>2366.3999023438</ele>
        <time>2021-02-23T10:31:24.000Z</time>
      </trkpt>
      <trkpt lat="45.62996" lon="6.68996">
        <ele>2367</ele>
        <time>2021-02-23T10:31:28.000Z</time>
      </trkpt>
      <trkpt lat="45.62999" lon="6.68998">
        <ele>2368</ele>
        <time>2021-02-23T10:31:33.000Z</time>
      </trkpt>
      <trkpt lat="45.62999" lon="6.68999">
        <ele>2368</ele>
        <time>2021-02-23T10:31:34.000Z</time>
      </trkpt>
      <trkpt lat="45.63002" lon="6.69003">
        <ele>2369.1999511719</ele>
        <time>2021-02-23T10:31:40.000Z</time>
      </trkpt>
      <trkpt lat="45.63004" lon="6.69004">
        <ele>2369.8000488281</ele>
        <time>2021-02-23T10:31:43.000Z</time>
      </trkpt>
      <trkpt lat="45.63006" lon="6.69006">
        <ele>2370.1999511719</ele>
        <time>2021-02-23T10:31:46.000Z</time>
      </trkpt>
      <trkpt lat="45.63008" lon="6.6901">
        <ele>2371.1999511719</ele>
        <time>2021-02-23T10:31:51.000Z</time>
      </trkpt>
      <trkpt lat="45.6301" lon="6.69012">
        <ele>2371.3999023438</ele>
        <time>2021-02-23T10:31:53.000Z</time>
      </trkpt>
      <trkpt lat="45.63013" lon="6.69015">
        <ele>2372.3999023438</ele>
        <time>2021-02-23T10:31:58.000Z</time>
      </trkpt>
      <trkpt lat="45.63015" lon="6.69021">
        <ele>2373.6000976562</ele>
        <time>2021-02-23T10:32:05.000Z</time>
      </trkpt>
      <trkpt lat="45.63016" lon="6.69022">
        <ele>2373.8000488281</ele>
        <time>2021-02-23T10:32:06.000Z</time>
      </trkpt>
      <trkpt lat="45.63018" lon="6.69023">
        <ele>2374.8000488281</ele>
        <time>2021-02-23T10:32:11.000Z</time>
      </trkpt>
      <trkpt lat="45.63019" lon="6.69022">
        <ele>2375.6000976562</ele>
        <time>2021-02-23T10:32:14.000Z</time>
      </trkpt>
      <trkpt lat="45.6302" lon="6.69021">
        <ele>2376</ele>
        <time>2021-02-23T10:32:17.000Z</time>
      </trkpt>
      <trkpt lat="45.63022" lon="6.69018">
        <ele>2377.1999511719</ele>
        <time>2021-02-23T10:32:24.000Z</time>
      </trkpt>
      <trkpt lat="45.63023" lon="6.69018">
        <ele>2377.6000976562</ele>
        <time>2021-02-23T10:32:25.000Z</time>
      </trkpt>
      <trkpt lat="45.63024" lon="6.69016">
        <ele>2378.3999023438</ele>
        <time>2021-02-23T10:32:28.000Z</time>
      </trkpt>
      <trkpt lat="45.63025" lon="6.69014">
        <ele>2379.6000976562</ele>
        <time>2021-02-23T10:32:33.000Z</time>
      </trkpt>
      <trkpt lat="45.63026" lon="6.69013">
        <ele>2379.8000488281</ele>
        <time>2021-02-23T10:32:34.000Z</time>
      </trkpt>
      <trkpt lat="45.63026" lon="6.6901">
        <ele>2380.8000488281</ele>
        <time>2021-02-23T10:32:38.000Z</time>
      </trkpt>
      <trkpt lat="45.63028" lon="6.69006">
        <ele>2381</ele>
        <time>2021-02-23T10:32:44.000Z</time>
      </trkpt>
      <trkpt lat="45.6303" lon="6.69001">
        <ele>2382</ele>
        <time>2021-02-23T10:32:50.000Z</time>
      </trkpt>
      <trkpt lat="45.6303" lon="6.68999">
        <ele>2383</ele>
        <time>2021-02-23T10:32:54.000Z</time>
      </trkpt>
      <trkpt lat="45.6303" lon="6.68999">
        <ele>2383.6000976562</ele>
        <time>2021-02-23T10:33:05.000Z</time>
      </trkpt>
      <trkpt lat="45.6303" lon="6.68999">
        <ele>2384.1999511719</ele>
        <time>2021-02-23T10:33:07.000Z</time>
      </trkpt>
      <trkpt lat="45.6303" lon="6.68997">
        <ele>2385.1999511719</ele>
        <time>2021-02-23T10:33:11.000Z</time>
      </trkpt>
      <trkpt lat="45.63031" lon="6.68995">
        <ele>2385.6000976562</ele>
        <time>2021-02-23T10:33:13.000Z</time>
      </trkpt>
      <trkpt lat="45.63032" lon="6.68987">
        <ele>2386.3999023438</ele>
        <time>2021-02-23T10:33:19.000Z</time>
      </trkpt>
      <trkpt lat="45.63033" lon="6.68986">
        <ele>2387</ele>
        <time>2021-02-23T10:33:21.000Z</time>
      </trkpt>
      <trkpt lat="45.63033" lon="6.68982">
        <ele>2387.3999023438</ele>
        <time>2021-02-23T10:33:24.000Z</time>
      </trkpt>
      <trkpt lat="45.63034" lon="6.68976">
        <ele>2388</ele>
        <time>2021-02-23T10:33:29.000Z</time>
      </trkpt>
      <trkpt lat="45.63034" lon="6.68973">
        <ele>2388.6000976562</ele>
        <time>2021-02-23T10:33:32.000Z</time>
      </trkpt>
      <trkpt lat="45.63034" lon="6.68972">
        <ele>2389.8000488281</ele>
        <time>2021-02-23T10:33:37.000Z</time>
      </trkpt>
      <trkpt lat="45.63036" lon="6.68972">
        <ele>2390.8000488281</ele>
        <time>2021-02-23T10:33:44.000Z</time>
      </trkpt>
      <trkpt lat="45.63042" lon="6.68975">
        <ele>2391.8000488281</ele>
        <time>2021-02-23T10:33:49.000Z</time>
      </trkpt>
      <trkpt lat="45.63048" lon="6.68979">
        <ele>2392.8000488281</ele>
        <time>2021-02-23T10:33:54.000Z</time>
      </trkpt>
      <trkpt lat="45.63049" lon="6.6898">
        <ele>2393</ele>
        <time>2021-02-23T10:33:55.000Z</time>
      </trkpt>
      <trkpt lat="45.63053" lon="6.68984">
        <ele>2394</ele>
        <time>2021-02-23T10:34:00.000Z</time>
      </trkpt>
      <trkpt lat="45.63054" lon="6.68985">
        <ele>2394.8000488281</ele>
        <time>2021-02-23T10:34:02.000Z</time>
      </trkpt>
      <trkpt lat="45.63055" lon="6.68986">
        <ele>2395.1999511719</ele>
        <time>2021-02-23T10:34:03.000Z</time>
      </trkpt>
      <trkpt lat="45.63057" lon="6.68987">
        <ele>2396.3999023438</ele>
        <time>2021-02-23T10:34:06.000Z</time>
      </trkpt>
      <trkpt lat="45.63058" lon="6.68988">
        <ele>2397</ele>
        <time>2021-02-23T10:34:10.000Z</time>
      </trkpt>
      <trkpt lat="45.63058" lon="6.68988">
        <ele>2397</ele>
        <time>2021-02-23T10:34:19.000Z</time>
      </trkpt>
      <trkpt lat="45.63058" lon="6.68988">
        <ele>2397.3999023438</ele>
        <time>2021-02-23T10:34:29.000Z</time>
      </trkpt>
      <trkpt lat="45.63058" lon="6.68988">
        <ele>2397.8000488281</ele>
        <time>2021-02-23T10:34:38.000Z</time>
      </trkpt>
      <trkpt lat="45.63058" lon="6.68988">
        <ele>2398.3999023438</ele>
        <time>2021-02-23T10:34:45.000Z</time>
      </trkpt>
      <trkpt lat="45.63058" lon="6.68987">
        <ele>2398.6000976562</ele>
        <time>2021-02-23T10:34:47.000Z</time>
      </trkpt>
      <trkpt lat="45.63058" lon="6.68984">
        <ele>2399.6000976562</ele>
        <time>2021-02-23T10:34:51.000Z</time>
      </trkpt>
      <trkpt lat="45.63058" lon="6.68984">
        <ele>2400.1999511719</ele>
        <time>2021-02-23T10:34:54.000Z</time>
      </trkpt>
      <trkpt lat="45.63058" lon="6.68984">
        <ele>2399.1999511719</ele>
        <time>2021-02-23T10:35:08.000Z</time>
      </trkpt>
      <trkpt lat="45.63058" lon="6.68984">
        <ele>2400.8000488281</ele>
        <time>2021-02-23T10:35:11.000Z</time>
      </trkpt>
      <trkpt lat="45.63058" lon="6.68984">
        <ele>2401.3999023438</ele>
        <time>2021-02-23T10:35:24.000Z</time>
      </trkpt>
      <trkpt lat="45.63064" lon="6.68979">
        <ele>2400.6000976562</ele>
        <time>2021-02-23T10:35:32.000Z</time>
      </trkpt>
      <trkpt lat="45.63073" lon="6.68971">
        <ele>2401.8000488281</ele>
        <time>2021-02-23T10:35:38.000Z</time>
      </trkpt>
      <trkpt lat="45.63074" lon="6.68968">
        <ele>2402</ele>
        <time>2021-02-23T10:35:40.000Z</time>
      </trkpt>
      <trkpt lat="45.63075" lon="6.68964">
        <ele>2402.8000488281</ele>
        <time>2021-02-23T10:35:43.000Z</time>
      </trkpt>
      <trkpt lat="45.63077" lon="6.68959">
        <ele>2404</ele>
        <time>2021-02-23T10:35:47.000Z</time>
      </trkpt>
      <trkpt lat="45.63079" lon="6.6895">
        <ele>2405</ele>
        <time>2021-02-23T10:35:54.000Z</time>
      </trkpt>
      <trkpt lat="45.63079" lon="6.68946">
        <ele>2405.3999023438</ele>
        <time>2021-02-23T10:35:57.000Z</time>
      </trkpt>
      <trkpt lat="45.63079" lon="6.68944">
        <ele>2406</ele>
        <time>2021-02-23T10:35:59.000Z</time>
      </trkpt>
      <trkpt lat="45.6308" lon="6.68937">
        <ele>2407.1999511719</ele>
        <time>2021-02-23T10:36:04.000Z</time>
      </trkpt>
      <trkpt lat="45.6308" lon="6.68932">
        <ele>2408.1999511719</ele>
        <time>2021-02-23T10:36:09.000Z</time>
      </trkpt>
      <trkpt lat="45.63082" lon="6.68929">
        <ele>2408.8000488281</ele>
        <time>2021-02-23T10:36:12.000Z</time>
      </trkpt>
      <trkpt lat="45.63082" lon="6.68925">
        <ele>2409.3999023438</ele>
        <time>2021-02-23T10:36:15.000Z</time>
      </trkpt>
      <trkpt lat="45.63081" lon="6.68918">
        <ele>2410.6000976562</ele>
        <time>2021-02-23T10:36:21.000Z</time>
      </trkpt>
      <trkpt lat="45.63081" lon="6.68917">
        <ele>2410.8000488281</ele>
        <time>2021-02-23T10:36:22.000Z</time>
      </trkpt>
      <trkpt lat="45.63081" lon="6.68915">
        <ele>2411.8000488281</ele>
        <time>2021-02-23T10:36:25.000Z</time>
      </trkpt>
      <trkpt lat="45.63081" lon="6.68915">
        <ele>2412</ele>
        <time>2021-02-23T10:36:31.000Z</time>
      </trkpt>
      <trkpt lat="45.63081" lon="6.68915">
        <ele>2413</ele>
        <time>2021-02-23T10:36:39.000Z</time>
      </trkpt>
      <trkpt lat="45.63081" lon="6.68915">
        <ele>2413.6000976562</ele>
        <time>2021-02-23T10:36:44.000Z</time>
      </trkpt>
      <trkpt lat="45.63081" lon="6.68915">
        <ele>2412.8000488281</ele>
        <time>2021-02-23T10:37:00.000Z</time>
      </trkpt>
      <trkpt lat="45.63082" lon="6.68917">
        <ele>2412.8000488281</ele>
        <time>2021-02-23T10:37:12.000Z</time>
      </trkpt>
      <trkpt lat="45.63082" lon="6.68917">
        <ele>2413.1999511719</ele>
        <time>2021-02-23T10:37:23.000Z</time>
      </trkpt>
      <trkpt lat="45.63083" lon="6.68916">
        <ele>2413.3999023438</ele>
        <time>2021-02-23T10:37:31.000Z</time>
      </trkpt>
      <trkpt lat="45.63083" lon="6.68916">
        <ele>2413.1999511719</ele>
        <time>2021-02-23T10:37:43.000Z</time>
      </trkpt>
      <trkpt lat="45.63083" lon="6.68916">
        <ele>2413</ele>
        <time>2021-02-23T10:38:07.000Z</time>
      </trkpt>
      <trkpt lat="45.63083" lon="6.68916">
        <ele>2413</ele>
        <time>2021-02-23T10:38:24.000Z</time>
      </trkpt>
      <trkpt lat="45.63083" lon="6.68916">
        <ele>2413</ele>
        <time>2021-02-23T10:38:36.000Z</time>
      </trkpt>
      <trkpt lat="45.63088" lon="6.6892">
        <ele>2413.8000488281</ele>
        <time>2021-02-23T10:38:46.000Z</time>
      </trkpt>
      <trkpt lat="45.63089" lon="6.68921">
        <ele>2414</ele>
        <time>2021-02-23T10:38:47.000Z</time>
      </trkpt>
      <trkpt lat="45.63093" lon="6.68923">
        <ele>2415.1999511719</ele>
        <time>2021-02-23T10:38:52.000Z</time>
      </trkpt>
      <trkpt lat="45.63096" lon="6.68926">
        <ele>2416.1999511719</ele>
        <time>2021-02-23T10:38:57.000Z</time>
      </trkpt>
      <trkpt lat="45.63099" lon="6.68928">
        <ele>2417.3999023438</ele>
        <time>2021-02-23T10:39:02.000Z</time>
      </trkpt>
      <trkpt lat="45.631" lon="6.68931">
        <ele>2418.1999511719</ele>
        <time>2021-02-23T10:39:06.000Z</time>
      </trkpt>
      <trkpt lat="45.631" lon="6.68931">
        <ele>2418.3999023438</ele>
        <time>2021-02-23T10:39:07.000Z</time>
      </trkpt>
      <trkpt lat="45.63101" lon="6.68934">
        <ele>2419.6000976562</ele>
        <time>2021-02-23T10:39:12.000Z</time>
      </trkpt>
      <trkpt lat="45.63102" lon="6.68937">
        <ele>2420.3999023438</ele>
        <time>2021-02-23T10:39:16.000Z</time>
      </trkpt>
      <trkpt lat="45.63102" lon="6.68939">
        <ele>2420.6000976562</ele>
        <time>2021-02-23T10:39:18.000Z</time>
      </trkpt>
      <trkpt lat="45.63106" lon="6.68944">
        <ele>2421.8000488281</ele>
        <time>2021-02-23T10:39:25.000Z</time>
      </trkpt>
      <trkpt lat="45.63107" lon="6.68944">
        <ele>2422</ele>
        <time>2021-02-23T10:39:26.000Z</time>
      </trkpt>
      <trkpt lat="45.63109" lon="6.68949">
        <ele>2423</ele>
        <time>2021-02-23T10:39:33.000Z</time>
      </trkpt>
      <trkpt lat="45.63112" lon="6.68951">
        <ele>2423.1999511719</ele>
        <time>2021-02-23T10:39:36.000Z</time>
      </trkpt>
      <trkpt lat="45.63115" lon="6.68954">
        <ele>2424</ele>
        <time>2021-02-23T10:39:41.000Z</time>
      </trkpt>
      <trkpt lat="45.63117" lon="6.68956">
        <ele>2424.8000488281</ele>
        <time>2021-02-23T10:39:45.000Z</time>
      </trkpt>
      <trkpt lat="45.63117" lon="6.68957">
        <ele>2425.6000976562</ele>
        <time>2021-02-23T10:39:47.000Z</time>
      </trkpt>
      <trkpt lat="45.63117" lon="6.68959">
        <ele>2426.6000976562</ele>
        <time>2021-02-23T10:39:51.000Z</time>
      </trkpt>
      <trkpt lat="45.63117" lon="6.68959">
        <ele>2427.1999511719</ele>
        <time>2021-02-23T10:39:54.000Z</time>
      </trkpt>
      <trkpt lat="45.63116" lon="6.68952">
        <ele>2427.8000488281</ele>
        <time>2021-02-23T10:40:02.000Z</time>
      </trkpt>
      <trkpt lat="45.63116" lon="6.68951">
        <ele>2428</ele>
        <time>2021-02-23T10:40:03.000Z</time>
      </trkpt>
      <trkpt lat="45.63116" lon="6.6895">
        <ele>2428.3999023438</ele>
        <time>2021-02-23T10:40:11.000Z</time>
      </trkpt>
      <trkpt lat="45.63116" lon="6.6895">
        <ele>2428.3999023438</ele>
        <time>2021-02-23T10:40:24.000Z</time>
      </trkpt>
      <trkpt lat="45.63116" lon="6.6895">
        <ele>2428.3999023438</ele>
        <time>2021-02-23T10:40:41.000Z</time>
      </trkpt>
      <trkpt lat="45.63116" lon="6.6895">
        <ele>2428.3999023438</ele>
        <time>2021-02-23T10:40:58.000Z</time>
      </trkpt>
      <trkpt lat="45.63117" lon="6.6895">
        <ele>2428.1999511719</ele>
        <time>2021-02-23T10:41:05.000Z</time>
      </trkpt>
      <trkpt lat="45.63117" lon="6.6895">
        <ele>2428.8000488281</ele>
        <time>2021-02-23T10:41:07.000Z</time>
      </trkpt>
      <trkpt lat="45.63116" lon="6.68947">
        <ele>2429.8000488281</ele>
        <time>2021-02-23T10:41:13.000Z</time>
      </trkpt>
      <trkpt lat="45.63117" lon="6.68944">
        <ele>2429.6000976562</ele>
        <time>2021-02-23T10:41:23.000Z</time>
      </trkpt>
      <trkpt lat="45.63118" lon="6.68937">
        <ele>2430.3999023438</ele>
        <time>2021-02-23T10:41:31.000Z</time>
      </trkpt>
      <trkpt lat="45.63119" lon="6.68935">
        <ele>2431</ele>
        <time>2021-02-23T10:41:33.000Z</time>
      </trkpt>
      <trkpt lat="45.63122" lon="6.6893">
        <ele>2432</ele>
        <time>2021-02-23T10:41:39.000Z</time>
      </trkpt>
      <trkpt lat="45.63122" lon="6.68925">
        <ele>2433.1999511719</ele>
        <time>2021-02-23T10:41:45.000Z</time>
      </trkpt>
      <trkpt lat="45.63122" lon="6.68925">
        <ele>2433.6000976562</ele>
        <time>2021-02-23T10:41:48.000Z</time>
      </trkpt>
      <trkpt lat="45.63123" lon="6.68921">
        <ele>2434</ele>
        <time>2021-02-23T10:41:56.000Z</time>
      </trkpt>
      <trkpt lat="45.63123" lon="6.68921">
        <ele>2434.1999511719</ele>
        <time>2021-02-23T10:41:57.000Z</time>
      </trkpt>
      <trkpt lat="45.63124" lon="6.6892">
        <ele>2435.3999023438</ele>
        <time>2021-02-23T10:42:01.000Z</time>
      </trkpt>
      <trkpt lat="45.63125" lon="6.68921">
        <ele>2435.6000976562</ele>
        <time>2021-02-23T10:42:03.000Z</time>
      </trkpt>
      <trkpt lat="45.63126" lon="6.68925">
        <ele>2436.1999511719</ele>
        <time>2021-02-23T10:42:12.000Z</time>
      </trkpt>
      <trkpt lat="45.63126" lon="6.68925">
        <ele>2436.3999023438</ele>
        <time>2021-02-23T10:42:14.000Z</time>
      </trkpt>
      <trkpt lat="45.63126" lon="6.68925">
        <ele>2436.8000488281</ele>
        <time>2021-02-23T10:42:27.000Z</time>
      </trkpt>
      <trkpt lat="45.63126" lon="6.68925">
        <ele>2436.6000976562</ele>
        <time>2021-02-23T10:42:42.000Z</time>
      </trkpt>
      <trkpt lat="45.63126" lon="6.68926">
        <ele>2436.8000488281</ele>
        <time>2021-02-23T10:42:56.000Z</time>
      </trkpt>
      <trkpt lat="45.6313" lon="6.68933">
        <ele>2437.8000488281</ele>
        <time>2021-02-23T10:43:03.000Z</time>
      </trkpt>
      <trkpt lat="45.63131" lon="6.68934">
        <ele>2438</ele>
        <time>2021-02-23T10:43:04.000Z</time>
      </trkpt>
      <trkpt lat="45.63131" lon="6.68935">
        <ele>2439</ele>
        <time>2021-02-23T10:43:13.000Z</time>
      </trkpt>
      <trkpt lat="45.63132" lon="6.68937">
        <ele>2439.1999511719</ele>
        <time>2021-02-23T10:43:15.000Z</time>
      </trkpt>
      <trkpt lat="45.63139" lon="6.68946">
        <ele>2440.3999023438</ele>
        <time>2021-02-23T10:43:23.000Z</time>
      </trkpt>
      <trkpt lat="45.6314" lon="6.68947">
        <ele>2440.8000488281</ele>
        <time>2021-02-23T10:43:25.000Z</time>
      </trkpt>
      <trkpt lat="45.63143" lon="6.68949">
        <ele>2441.6000976562</ele>
        <time>2021-02-23T10:43:28.000Z</time>
      </trkpt>
      <trkpt lat="45.63142" lon="6.6895">
        <ele>2442.1999511719</ele>
        <time>2021-02-23T10:43:33.000Z</time>
      </trkpt>
      <trkpt lat="45.63141" lon="6.68944">
        <ele>2442.6000976562</ele>
        <time>2021-02-23T10:43:40.000Z</time>
      </trkpt>
      <trkpt lat="45.63141" lon="6.68943">
        <ele>2443</ele>
        <time>2021-02-23T10:43:41.000Z</time>
      </trkpt>
      <trkpt lat="45.63141" lon="6.6894">
        <ele>2443.8000488281</ele>
        <time>2021-02-23T10:43:44.000Z</time>
      </trkpt>
      <trkpt lat="45.63142" lon="6.68938">
        <ele>2444.6000976562</ele>
        <time>2021-02-23T10:43:49.000Z</time>
      </trkpt>
      <trkpt lat="45.63142" lon="6.68938">
        <ele>2445</ele>
        <time>2021-02-23T10:43:50.000Z</time>
      </trkpt>
      <trkpt lat="45.63144" lon="6.68935">
        <ele>2445.8000488281</ele>
        <time>2021-02-23T10:43:59.000Z</time>
      </trkpt>
      <trkpt lat="45.63145" lon="6.68932">
        <ele>2446.1999511719</ele>
        <time>2021-02-23T10:44:02.000Z</time>
      </trkpt>
      <trkpt lat="45.63146" lon="6.68926">
        <ele>2447</ele>
        <time>2021-02-23T10:44:08.000Z</time>
      </trkpt>
      <trkpt lat="45.63147" lon="6.68925">
        <ele>2447.1999511719</ele>
        <time>2021-02-23T10:44:09.000Z</time>
      </trkpt>
      <trkpt lat="45.63148" lon="6.68921">
        <ele>2448.1999511719</ele>
        <time>2021-02-23T10:44:15.000Z</time>
      </trkpt>
      <trkpt lat="45.63148" lon="6.68921">
        <ele>2448.3999023438</ele>
        <time>2021-02-23T10:44:17.000Z</time>
      </trkpt>
      <trkpt lat="45.63149" lon="6.68919">
        <ele>2448.8000488281</ele>
        <time>2021-02-23T10:44:26.000Z</time>
      </trkpt>
      <trkpt lat="45.63149" lon="6.6892">
        <ele>2449.6000976562</ele>
        <time>2021-02-23T10:44:31.000Z</time>
      </trkpt>
      <trkpt lat="45.6315" lon="6.68923">
        <ele>2450</ele>
        <time>2021-02-23T10:44:33.000Z</time>
      </trkpt>
      <trkpt lat="45.63152" lon="6.68926">
        <ele>2450.6000976562</ele>
        <time>2021-02-23T10:44:38.000Z</time>
      </trkpt>
      <trkpt lat="45.63153" lon="6.68928">
        <ele>2451.6000976562</ele>
        <time>2021-02-23T10:44:41.000Z</time>
      </trkpt>
      <trkpt lat="45.63154" lon="6.68929">
        <ele>2451.8000488281</ele>
        <time>2021-02-23T10:44:42.000Z</time>
      </trkpt>
      <trkpt lat="45.63158" lon="6.68934">
        <ele>2452.8000488281</ele>
        <time>2021-02-23T10:44:49.000Z</time>
      </trkpt>
      <trkpt lat="45.63158" lon="6.68936">
        <ele>2453.1999511719</ele>
        <time>2021-02-23T10:44:51.000Z</time>
      </trkpt>
      <trkpt lat="45.63159" lon="6.68938">
        <ele>2454</ele>
        <time>2021-02-23T10:44:54.000Z</time>
      </trkpt>
      <trkpt lat="45.63159" lon="6.6894">
        <ele>2455</ele>
        <time>2021-02-23T10:44:57.000Z</time>
      </trkpt>
      <trkpt lat="45.63161" lon="6.68941">
        <ele>2456</ele>
        <time>2021-02-23T10:45:00.000Z</time>
      </trkpt>
      <trkpt lat="45.63161" lon="6.68942">
        <ele>2456.1999511719</ele>
        <time>2021-02-23T10:45:01.000Z</time>
      </trkpt>
      <trkpt lat="45.63161" lon="6.68942">
        <ele>2456.3999023438</ele>
        <time>2021-02-23T10:45:02.000Z</time>
      </trkpt>
      <trkpt lat="45.63161" lon="6.68943">
        <ele>2457.1999511719</ele>
        <time>2021-02-23T10:45:05.000Z</time>
      </trkpt>
      <trkpt lat="45.63162" lon="6.68941">
        <ele>2457.1999511719</ele>
        <time>2021-02-23T10:45:09.000Z</time>
      </trkpt>
      <trkpt lat="45.63164" lon="6.68933">
        <ele>2458.1999511719</ele>
        <time>2021-02-23T10:45:17.000Z</time>
      </trkpt>
      <trkpt lat="45.63165" lon="6.68932">
        <ele>2458.3999023438</ele>
        <time>2021-02-23T10:45:18.000Z</time>
      </trkpt>
      <trkpt lat="45.63167" lon="6.68927">
        <ele>2459.3999023438</ele>
        <time>2021-02-23T10:45:24.000Z</time>
      </trkpt>
      <trkpt lat="45.63169" lon="6.68924">
        <ele>2460.3999023438</ele>
        <time>2021-02-23T10:45:28.000Z</time>
      </trkpt>
      <trkpt lat="45.6317" lon="6.68923">
        <ele>2460.6000976562</ele>
        <time>2021-02-23T10:45:29.000Z</time>
      </trkpt>
      <trkpt lat="45.6317" lon="6.68916">
        <ele>2461.3999023438</ele>
        <time>2021-02-23T10:45:37.000Z</time>
      </trkpt>
      <trkpt lat="45.63171" lon="6.68914">
        <ele>2461.8000488281</ele>
        <time>2021-02-23T10:45:39.000Z</time>
      </trkpt>
      <trkpt lat="45.6317" lon="6.6891">
        <ele>2463</ele>
        <time>2021-02-23T10:45:45.000Z</time>
      </trkpt>
      <trkpt lat="45.6317" lon="6.68908">
        <ele>2464.1999511719</ele>
        <time>2021-02-23T10:45:48.000Z</time>
      </trkpt>
      <trkpt lat="45.63171" lon="6.68906">
        <ele>2464.8000488281</ele>
        <time>2021-02-23T10:45:52.000Z</time>
      </trkpt>
      <trkpt lat="45.63173" lon="6.68909">
        <ele>2465</ele>
        <time>2021-02-23T10:46:00.000Z</time>
      </trkpt>
      <trkpt lat="45.63175" lon="6.68913">
        <ele>2465.3999023438</ele>
        <time>2021-02-23T10:46:05.000Z</time>
      </trkpt>
      <trkpt lat="45.63175" lon="6.68915">
        <ele>2465.8000488281</ele>
        <time>2021-02-23T10:46:08.000Z</time>
      </trkpt>
      <trkpt lat="45.63177" lon="6.68918">
        <ele>2466.3999023438</ele>
        <time>2021-02-23T10:46:12.000Z</time>
      </trkpt>
      <trkpt lat="45.63178" lon="6.68921">
        <ele>2467.3999023438</ele>
        <time>2021-02-23T10:46:16.000Z</time>
      </trkpt>
      <trkpt lat="45.63178" lon="6.68921">
        <ele>2467.6000976562</ele>
        <time>2021-02-23T10:46:17.000Z</time>
      </trkpt>
      <trkpt lat="45.63181" lon="6.68927">
        <ele>2468.8000488281</ele>
        <time>2021-02-23T10:46:23.000Z</time>
      </trkpt>
      <trkpt lat="45.63182" lon="6.68928">
        <ele>2469.3999023438</ele>
        <time>2021-02-23T10:46:25.000Z</time>
      </trkpt>
      <trkpt lat="45.63183" lon="6.6893">
        <ele>2470</ele>
        <time>2021-02-23T10:46:28.000Z</time>
      </trkpt>
      <trkpt lat="45.63184" lon="6.68932">
        <ele>2471.1999511719</ele>
        <time>2021-02-23T10:46:32.000Z</time>
      </trkpt>
      <trkpt lat="45.63185" lon="6.68932">
        <ele>2472</ele>
        <time>2021-02-23T10:46:35.000Z</time>
      </trkpt>
      <trkpt lat="45.63186" lon="6.68932">
        <ele>2471.3999023438</ele>
        <time>2021-02-23T10:46:44.000Z</time>
      </trkpt>
      <trkpt lat="45.63186" lon="6.68929">
        <ele>2472.1999511719</ele>
        <time>2021-02-23T10:46:48.000Z</time>
      </trkpt>
      <trkpt lat="45.63188" lon="6.68926">
        <ele>2472.8000488281</ele>
        <time>2021-02-23T10:46:53.000Z</time>
      </trkpt>
      <trkpt lat="45.63188" lon="6.68922">
        <ele>2473.1999511719</ele>
        <time>2021-02-23T10:46:57.000Z</time>
      </trkpt>
      <trkpt lat="45.63188" lon="6.68919">
        <ele>2474</ele>
        <time>2021-02-23T10:47:02.000Z</time>
      </trkpt>
      <trkpt lat="45.63188" lon="6.68917">
        <ele>2474.1999511719</ele>
        <time>2021-02-23T10:47:03.000Z</time>
      </trkpt>
      <trkpt lat="45.63188" lon="6.68913">
        <ele>2475.3999023438</ele>
        <time>2021-02-23T10:47:07.000Z</time>
      </trkpt>
      <trkpt lat="45.63188" lon="6.68908">
        <ele>2476.1999511719</ele>
        <time>2021-02-23T10:47:12.000Z</time>
      </trkpt>
      <trkpt lat="45.63189" lon="6.68902">
        <ele>2476</ele>
        <time>2021-02-23T10:47:17.000Z</time>
      </trkpt>
      <trkpt lat="45.63189" lon="6.68897">
        <ele>2476.6000976562</ele>
        <time>2021-02-23T10:47:21.000Z</time>
      </trkpt>
      <trkpt lat="45.6319" lon="6.68896">
        <ele>2478.1999511719</ele>
        <time>2021-02-23T10:47:24.000Z</time>
      </trkpt>
      <trkpt lat="45.6319" lon="6.68894">
        <ele>2478.6000976562</ele>
        <time>2021-02-23T10:47:26.000Z</time>
      </trkpt>
      <trkpt lat="45.6319" lon="6.68891">
        <ele>2479.1999511719</ele>
        <time>2021-02-23T10:47:29.000Z</time>
      </trkpt>
      <trkpt lat="45.63189" lon="6.68885">
        <ele>2479.8000488281</ele>
        <time>2021-02-23T10:47:37.000Z</time>
      </trkpt>
      <trkpt lat="45.63189" lon="6.68884">
        <ele>2480.3999023438</ele>
        <time>2021-02-23T10:47:39.000Z</time>
      </trkpt>
      <trkpt lat="45.63189" lon="6.68884">
        <ele>2481.3999023438</ele>
        <time>2021-02-23T10:47:45.000Z</time>
      </trkpt>
      <trkpt lat="45.63189" lon="6.68884">
        <ele>2481.6000976562</ele>
        <time>2021-02-23T10:47:47.000Z</time>
      </trkpt>
      <trkpt lat="45.63191" lon="6.68887">
        <ele>2481.6000976562</ele>
        <time>2021-02-23T10:47:52.000Z</time>
      </trkpt>
      <trkpt lat="45.63193" lon="6.6889">
        <ele>2482.6000976562</ele>
        <time>2021-02-23T10:47:56.000Z</time>
      </trkpt>
      <trkpt lat="45.63195" lon="6.68893">
        <ele>2483</ele>
        <time>2021-02-23T10:47:59.000Z</time>
      </trkpt>
      <trkpt lat="45.63196" lon="6.68894">
        <ele>2483.6000976562</ele>
        <time>2021-02-23T10:48:02.000Z</time>
      </trkpt>
      <trkpt lat="45.632" lon="6.68898">
        <ele>2484</ele>
        <time>2021-02-23T10:48:08.000Z</time>
      </trkpt>
      <trkpt lat="45.63203" lon="6.68902">
        <ele>2484.8000488281</ele>
        <time>2021-02-23T10:48:14.000Z</time>
      </trkpt>
      <trkpt lat="45.63204" lon="6.68907">
        <ele>2485.8000488281</ele>
        <time>2021-02-23T10:48:18.000Z</time>
      </trkpt>
      <trkpt lat="45.63205" lon="6.68908">
        <ele>2486</ele>
        <time>2021-02-23T10:48:19.000Z</time>
      </trkpt>
      <trkpt lat="45.63208" lon="6.68911">
        <ele>2487.1999511719</ele>
        <time>2021-02-23T10:48:27.000Z</time>
      </trkpt>
      <trkpt lat="45.63211" lon="6.68915">
        <ele>2488.3999023438</ele>
        <time>2021-02-23T10:48:33.000Z</time>
      </trkpt>
      <trkpt lat="45.63213" lon="6.68919">
        <ele>2489.3999023438</ele>
        <time>2021-02-23T10:48:37.000Z</time>
      </trkpt>
      <trkpt lat="45.63214" lon="6.6892">
        <ele>2490.1999511719</ele>
        <time>2021-02-23T10:48:45.000Z</time>
      </trkpt>
      <trkpt lat="45.63213" lon="6.68913">
        <ele>2490.6000976562</ele>
        <time>2021-02-23T10:48:54.000Z</time>
      </trkpt>
      <trkpt lat="45.63213" lon="6.68908">
        <ele>2492</ele>
        <time>2021-02-23T10:48:59.000Z</time>
      </trkpt>
      <trkpt lat="45.63214" lon="6.68905">
        <ele>2493</ele>
        <time>2021-02-23T10:49:04.000Z</time>
      </trkpt>
      <trkpt lat="45.63215" lon="6.68898">
        <ele>2494.1999511719</ele>
        <time>2021-02-23T10:49:10.000Z</time>
      </trkpt>
      <trkpt lat="45.63214" lon="6.68893">
        <ele>2495</ele>
        <time>2021-02-23T10:49:15.000Z</time>
      </trkpt>
      <trkpt lat="45.63214" lon="6.68891">
        <ele>2495.3999023438</ele>
        <time>2021-02-23T10:49:17.000Z</time>
      </trkpt>
      <trkpt lat="45.63215" lon="6.68886">
        <ele>2496.3999023438</ele>
        <time>2021-02-23T10:49:22.000Z</time>
      </trkpt>
      <trkpt lat="45.63215" lon="6.68885">
        <ele>2497</ele>
        <time>2021-02-23T10:49:24.000Z</time>
      </trkpt>
      <trkpt lat="45.63215" lon="6.68884">
        <ele>2497.3999023438</ele>
        <time>2021-02-23T10:49:25.000Z</time>
      </trkpt>
      <trkpt lat="45.63215" lon="6.68881">
        <ele>2498.1999511719</ele>
        <time>2021-02-23T10:49:34.000Z</time>
      </trkpt>
      <trkpt lat="45.63215" lon="6.68881">
        <ele>2498.3999023438</ele>
        <time>2021-02-23T10:49:35.000Z</time>
      </trkpt>
      <trkpt lat="45.63219" lon="6.68886">
        <ele>2498.6000976562</ele>
        <time>2021-02-23T10:49:41.000Z</time>
      </trkpt>
      <trkpt lat="45.63224" lon="6.68891">
        <ele>2499.3999023438</ele>
        <time>2021-02-23T10:49:47.000Z</time>
      </trkpt>
      <trkpt lat="45.63226" lon="6.68893">
        <ele>2499.8000488281</ele>
        <time>2021-02-23T10:49:50.000Z</time>
      </trkpt>
      <trkpt lat="45.63228" lon="6.68897">
        <ele>2500.6000976562</ele>
        <time>2021-02-23T10:49:55.000Z</time>
      </trkpt>
      <trkpt lat="45.63231" lon="6.689">
        <ele>2501.6000976562</ele>
        <time>2021-02-23T10:49:59.000Z</time>
      </trkpt>
      <trkpt lat="45.63232" lon="6.68901">
        <ele>2502</ele>
        <time>2021-02-23T10:50:01.000Z</time>
      </trkpt>
      <trkpt lat="45.63234" lon="6.68904">
        <ele>2502.8000488281</ele>
        <time>2021-02-23T10:50:04.000Z</time>
      </trkpt>
      <trkpt lat="45.63235" lon="6.68911">
        <ele>2504</ele>
        <time>2021-02-23T10:50:10.000Z</time>
      </trkpt>
      <trkpt lat="45.63236" lon="6.68914">
        <ele>2505.1999511719</ele>
        <time>2021-02-23T10:50:13.000Z</time>
      </trkpt>
      <trkpt lat="45.63237" lon="6.68915">
        <ele>2505.1999511719</ele>
        <time>2021-02-23T10:50:14.000Z</time>
      </trkpt>
      <trkpt lat="45.63239" lon="6.68919">
        <ele>2506.3999023438</ele>
        <time>2021-02-23T10:50:19.000Z</time>
      </trkpt>
      <trkpt lat="45.6324" lon="6.68923">
        <ele>2507.3999023438</ele>
        <time>2021-02-23T10:50:23.000Z</time>
      </trkpt>
      <trkpt lat="45.63239" lon="6.68923">
        <ele>2507.6000976562</ele>
        <time>2021-02-23T10:50:24.000Z</time>
      </trkpt>
      <trkpt lat="45.6324" lon="6.68923">
        <ele>2508</ele>
        <time>2021-02-23T10:50:31.000Z</time>
      </trkpt>
      <trkpt lat="45.63239" lon="6.6892">
        <ele>2508.1999511719</ele>
        <time>2021-02-23T10:50:37.000Z</time>
      </trkpt>
      <trkpt lat="45.63239" lon="6.68919">
        <ele>2508.3999023438</ele>
        <time>2021-02-23T10:50:38.000Z</time>
      </trkpt>
      <trkpt lat="45.63239" lon="6.68915">
        <ele>2509.6000976562</ele>
        <time>2021-02-23T10:50:43.000Z</time>
      </trkpt>
      <trkpt lat="45.63239" lon="6.6891">
        <ele>2510.6000976562</ele>
        <time>2021-02-23T10:50:47.000Z</time>
      </trkpt>
      <trkpt lat="45.6324" lon="6.68909">
        <ele>2510.8000488281</ele>
        <time>2021-02-23T10:50:48.000Z</time>
      </trkpt>
      <trkpt lat="45.6324" lon="6.68904">
        <ele>2511.6000976562</ele>
        <time>2021-02-23T10:50:56.000Z</time>
      </trkpt>
      <trkpt lat="45.6324" lon="6.68904">
        <ele>2512</ele>
        <time>2021-02-23T10:50:58.000Z</time>
      </trkpt>
      <trkpt lat="45.6324" lon="6.68904">
        <ele>2513</ele>
        <time>2021-02-23T10:51:05.000Z</time>
      </trkpt>
      <trkpt lat="45.6324" lon="6.68904">
        <ele>2513</ele>
        <time>2021-02-23T10:51:06.000Z</time>
      </trkpt>
      <trkpt lat="45.63241" lon="6.68905">
        <ele>2514</ele>
        <time>2021-02-23T10:51:12.000Z</time>
      </trkpt>
      <trkpt lat="45.63244" lon="6.68908">
        <ele>2514.8000488281</ele>
        <time>2021-02-23T10:51:16.000Z</time>
      </trkpt>
      <trkpt lat="45.63245" lon="6.68909">
        <ele>2515</ele>
        <time>2021-02-23T10:51:17.000Z</time>
      </trkpt>
      <trkpt lat="45.63249" lon="6.68915">
        <ele>2516.3999023438</ele>
        <time>2021-02-23T10:51:23.000Z</time>
      </trkpt>
      <trkpt lat="45.6325" lon="6.68917">
        <ele>2516.8000488281</ele>
        <time>2021-02-23T10:51:26.000Z</time>
      </trkpt>
      <trkpt lat="45.63251" lon="6.68922">
        <ele>2517.8000488281</ele>
        <time>2021-02-23T10:51:31.000Z</time>
      </trkpt>
      <trkpt lat="45.63252" lon="6.68923">
        <ele>2518.6000976562</ele>
        <time>2021-02-23T10:51:35.000Z</time>
      </trkpt>
      <trkpt lat="45.63254" lon="6.6892">
        <ele>2519</ele>
        <time>2021-02-23T10:51:44.000Z</time>
      </trkpt>
      <trkpt lat="45.63256" lon="6.68914">
        <ele>2520.3999023438</ele>
        <time>2021-02-23T10:51:53.000Z</time>
      </trkpt>
      <trkpt lat="45.63256" lon="6.68904">
        <ele>2521.1999511719</ele>
        <time>2021-02-23T10:52:02.000Z</time>
      </trkpt>
      <trkpt lat="45.63256" lon="6.68901">
        <ele>2521.6000976562</ele>
        <time>2021-02-23T10:52:06.000Z</time>
      </trkpt>
      <trkpt lat="45.63257" lon="6.68901">
        <ele>2522.8000488281</ele>
        <time>2021-02-23T10:52:10.000Z</time>
      </trkpt>
      <trkpt lat="45.63261" lon="6.68906">
        <ele>2523.6000976562</ele>
        <time>2021-02-23T10:52:19.000Z</time>
      </trkpt>
      <trkpt lat="45.63261" lon="6.68907">
        <ele>2523.8000488281</ele>
        <time>2021-02-23T10:52:20.000Z</time>
      </trkpt>
      <trkpt lat="45.63262" lon="6.6891">
        <ele>2524.8000488281</ele>
        <time>2021-02-23T10:52:24.000Z</time>
      </trkpt>
      <trkpt lat="45.63263" lon="6.68913">
        <ele>2525.6000976562</ele>
        <time>2021-02-23T10:52:29.000Z</time>
      </trkpt>
      <trkpt lat="45.63263" lon="6.68913">
        <ele>2525.8000488281</ele>
        <time>2021-02-23T10:52:30.000Z</time>
      </trkpt>
      <trkpt lat="45.63263" lon="6.68913">
        <ele>2527</ele>
        <time>2021-02-23T10:52:35.000Z</time>
      </trkpt>
      <trkpt lat="45.63263" lon="6.68914">
        <ele>2527.6000976562</ele>
        <time>2021-02-23T10:52:39.000Z</time>
      </trkpt>
      <trkpt lat="45.63263" lon="6.68915">
        <ele>2528</ele>
        <time>2021-02-23T10:52:41.000Z</time>
      </trkpt>
      <trkpt lat="45.63267" lon="6.68918">
        <ele>2529.1999511719</ele>
        <time>2021-02-23T10:52:49.000Z</time>
      </trkpt>
      <trkpt lat="45.63272" lon="6.6892">
        <ele>2530.1999511719</ele>
        <time>2021-02-23T10:52:56.000Z</time>
      </trkpt>
      <trkpt lat="45.63273" lon="6.68921">
        <ele>2530.6000976562</ele>
        <time>2021-02-23T10:52:59.000Z</time>
      </trkpt>
      <trkpt lat="45.63275" lon="6.68921">
        <ele>2531.1999511719</ele>
        <time>2021-02-23T10:53:02.000Z</time>
      </trkpt>
      <trkpt lat="45.63276" lon="6.68923">
        <ele>2532.3999023438</ele>
        <time>2021-02-23T10:53:05.000Z</time>
      </trkpt>
      <trkpt lat="45.63276" lon="6.68925">
        <ele>2533.1999511719</ele>
        <time>2021-02-23T10:53:08.000Z</time>
      </trkpt>
      <trkpt lat="45.63276" lon="6.68926">
        <ele>2533.3999023438</ele>
        <time>2021-02-23T10:53:12.000Z</time>
      </trkpt>
      <trkpt lat="45.63276" lon="6.68926">
        <ele>2533.6000976562</ele>
        <time>2021-02-23T10:53:18.000Z</time>
      </trkpt>
      <trkpt lat="45.63275" lon="6.68924">
        <ele>2534</ele>
        <time>2021-02-23T10:53:25.000Z</time>
      </trkpt>
      <trkpt lat="45.63275" lon="6.6892">
        <ele>2534.6000976562</ele>
        <time>2021-02-23T10:53:30.000Z</time>
      </trkpt>
      <trkpt lat="45.63276" lon="6.68914">
        <ele>2535</ele>
        <time>2021-02-23T10:53:37.000Z</time>
      </trkpt>
      <trkpt lat="45.63276" lon="6.68912">
        <ele>2535.8000488281</ele>
        <time>2021-02-23T10:53:40.000Z</time>
      </trkpt>
      <trkpt lat="45.63275" lon="6.68908">
        <ele>2536.8000488281</ele>
        <time>2021-02-23T10:53:45.000Z</time>
      </trkpt>
      <trkpt lat="45.63275" lon="6.68908">
        <ele>2536.8000488281</ele>
        <time>2021-02-23T10:53:46.000Z</time>
      </trkpt>
      <trkpt lat="45.63275" lon="6.68906">
        <ele>2538</ele>
        <time>2021-02-23T10:53:52.000Z</time>
      </trkpt>
      <trkpt lat="45.63275" lon="6.68905">
        <ele>2539</ele>
        <time>2021-02-23T10:53:55.000Z</time>
      </trkpt>
      <trkpt lat="45.63275" lon="6.68904">
        <ele>2539</ele>
        <time>2021-02-23T10:53:56.000Z</time>
      </trkpt>
      <trkpt lat="45.63275" lon="6.68904">
        <ele>2539.6000976562</ele>
        <time>2021-02-23T10:54:06.000Z</time>
      </trkpt>
      <trkpt lat="45.63275" lon="6.68904">
        <ele>2540</ele>
        <time>2021-02-23T10:54:18.000Z</time>
      </trkpt>
      <trkpt lat="45.63276" lon="6.68905">
        <ele>2540.1999511719</ele>
        <time>2021-02-23T10:54:20.000Z</time>
      </trkpt>
      <trkpt lat="45.63279" lon="6.68907">
        <ele>2541.1999511719</ele>
        <time>2021-02-23T10:54:29.000Z</time>
      </trkpt>
      <trkpt lat="45.6328" lon="6.68909">
        <ele>2541.6000976562</ele>
        <time>2021-02-23T10:54:31.000Z</time>
      </trkpt>
      <trkpt lat="45.63282" lon="6.6891">
        <ele>2542.3999023438</ele>
        <time>2021-02-23T10:54:35.000Z</time>
      </trkpt>
      <trkpt lat="45.63283" lon="6.68911">
        <ele>2543.6000976562</ele>
        <time>2021-02-23T10:54:38.000Z</time>
      </trkpt>
      <trkpt lat="45.63283" lon="6.68911">
        <ele>2544.6000976562</ele>
        <time>2021-02-23T10:54:42.000Z</time>
      </trkpt>
      <trkpt lat="45.63284" lon="6.68915">
        <ele>2546</ele>
        <time>2021-02-23T10:54:47.000Z</time>
      </trkpt>
      <trkpt lat="45.63285" lon="6.68916">
        <ele>2546.8000488281</ele>
        <time>2021-02-23T10:54:52.000Z</time>
      </trkpt>
      <trkpt lat="45.63288" lon="6.68918">
        <ele>2547</ele>
        <time>2021-02-23T10:54:54.000Z</time>
      </trkpt>
      <trkpt lat="45.63291" lon="6.68919">
        <ele>2548</ele>
        <time>2021-02-23T10:54:59.000Z</time>
      </trkpt>
      <trkpt lat="45.63292" lon="6.68919">
        <ele>2548.3999023438</ele>
        <time>2021-02-23T10:55:02.000Z</time>
      </trkpt>
      <trkpt lat="45.63293" lon="6.6892">
        <ele>2549.1999511719</ele>
        <time>2021-02-23T10:55:05.000Z</time>
      </trkpt>
      <trkpt lat="45.63294" lon="6.68923">
        <ele>2550.1999511719</ele>
        <time>2021-02-23T10:55:08.000Z</time>
      </trkpt>
      <trkpt lat="45.63296" lon="6.68926">
        <ele>2550.6000976562</ele>
        <time>2021-02-23T10:55:12.000Z</time>
      </trkpt>
      <trkpt lat="45.63298" lon="6.6893">
        <ele>2551.1999511719</ele>
        <time>2021-02-23T10:55:19.000Z</time>
      </trkpt>
      <trkpt lat="45.63299" lon="6.6893">
        <ele>2552.6000976562</ele>
        <time>2021-02-23T10:55:24.000Z</time>
      </trkpt>
      <trkpt lat="45.633" lon="6.68931">
        <ele>2552.6000976562</ele>
        <time>2021-02-23T10:55:35.000Z</time>
      </trkpt>
      <trkpt lat="45.63299" lon="6.68928">
        <ele>2553</ele>
        <time>2021-02-23T10:55:45.000Z</time>
      </trkpt>
      <trkpt lat="45.633" lon="6.68923">
        <ele>2553.8000488281</ele>
        <time>2021-02-23T10:55:50.000Z</time>
      </trkpt>
      <trkpt lat="45.633" lon="6.6892">
        <ele>2555</ele>
        <time>2021-02-23T10:55:54.000Z</time>
      </trkpt>
      <trkpt lat="45.63301" lon="6.68914">
        <ele>2555.8000488281</ele>
        <time>2021-02-23T10:56:04.000Z</time>
      </trkpt>
      <trkpt lat="45.63301" lon="6.68913">
        <ele>2556.6000976562</ele>
        <time>2021-02-23T10:56:12.000Z</time>
      </trkpt>
      <trkpt lat="45.63301" lon="6.68913">
        <ele>2557.3999023438</ele>
        <time>2021-02-23T10:56:15.000Z</time>
      </trkpt>
      <trkpt lat="45.63303" lon="6.68916">
        <ele>2556.3999023438</ele>
        <time>2021-02-23T10:56:23.000Z</time>
      </trkpt>
      <trkpt lat="45.63306" lon="6.68922">
        <ele>2557.8000488281</ele>
        <time>2021-02-23T10:56:30.000Z</time>
      </trkpt>
      <trkpt lat="45.63307" lon="6.68924">
        <ele>2558.6000976562</ele>
        <time>2021-02-23T10:56:33.000Z</time>
      </trkpt>
      <trkpt lat="45.63308" lon="6.68925">
        <ele>2559</ele>
        <time>2021-02-23T10:56:34.000Z</time>
      </trkpt>
      <trkpt lat="45.63309" lon="6.68927">
        <ele>2560</ele>
        <time>2021-02-23T10:56:39.000Z</time>
      </trkpt>
      <trkpt lat="45.6331" lon="6.68929">
        <ele>2560.3999023438</ele>
        <time>2021-02-23T10:56:41.000Z</time>
      </trkpt>
      <trkpt lat="45.6331" lon="6.68929">
        <ele>2560.6000976562</ele>
        <time>2021-02-23T10:56:52.000Z</time>
      </trkpt>
      <trkpt lat="45.6331" lon="6.68927">
        <ele>2561.1999511719</ele>
        <time>2021-02-23T10:57:02.000Z</time>
      </trkpt>
      <trkpt lat="45.6331" lon="6.68926">
        <ele>2561.3999023438</ele>
        <time>2021-02-23T10:57:03.000Z</time>
      </trkpt>
      <trkpt lat="45.6331" lon="6.68924">
        <ele>2562.3999023438</ele>
        <time>2021-02-23T10:57:06.000Z</time>
      </trkpt>
      <trkpt lat="45.63311" lon="6.68922">
        <ele>2562.6000976562</ele>
        <time>2021-02-23T10:57:14.000Z</time>
      </trkpt>
      <trkpt lat="45.63311" lon="6.68922">
        <ele>2563.3999023438</ele>
        <time>2021-02-23T10:57:21.000Z</time>
      </trkpt>
      <trkpt lat="45.63311" lon="6.68922">
        <ele>2564</ele>
        <time>2021-02-23T10:57:23.000Z</time>
      </trkpt>
      <trkpt lat="45.63314" lon="6.68927">
        <ele>2564</ele>
        <time>2021-02-23T10:57:30.000Z</time>
      </trkpt>
      <trkpt lat="45.63317" lon="6.68928">
        <ele>2564.6000976562</ele>
        <time>2021-02-23T10:57:33.000Z</time>
      </trkpt>
      <trkpt lat="45.63318" lon="6.68931">
        <ele>2565.3999023438</ele>
        <time>2021-02-23T10:57:38.000Z</time>
      </trkpt>
      <trkpt lat="45.63318" lon="6.68932">
        <ele>2565.6000976562</ele>
        <time>2021-02-23T10:57:39.000Z</time>
      </trkpt>
      <trkpt lat="45.6332" lon="6.68936">
        <ele>2566.8000488281</ele>
        <time>2021-02-23T10:57:48.000Z</time>
      </trkpt>
      <trkpt lat="45.6332" lon="6.68936">
        <ele>2567.1999511719</ele>
        <time>2021-02-23T10:58:00.000Z</time>
      </trkpt>
      <trkpt lat="45.6332" lon="6.68932">
        <ele>2567.8000488281</ele>
        <time>2021-02-23T10:58:06.000Z</time>
      </trkpt>
      <trkpt lat="45.6332" lon="6.68931">
        <ele>2568</ele>
        <time>2021-02-23T10:58:09.000Z</time>
      </trkpt>
      <trkpt lat="45.63319" lon="6.68929">
        <ele>2568.8000488281</ele>
        <time>2021-02-23T10:58:17.000Z</time>
      </trkpt>
      <trkpt lat="45.63319" lon="6.68929">
        <ele>2569</ele>
        <time>2021-02-23T10:58:18.000Z</time>
      </trkpt>
      <trkpt lat="45.6332" lon="6.6893">
        <ele>2569.8000488281</ele>
        <time>2021-02-23T10:58:26.000Z</time>
      </trkpt>
      <trkpt lat="45.6332" lon="6.6893">
        <ele>2570</ele>
        <time>2021-02-23T10:58:30.000Z</time>
      </trkpt>
      <trkpt lat="45.6332" lon="6.68927">
        <ele>2570.6000976562</ele>
        <time>2021-02-23T10:58:38.000Z</time>
      </trkpt>
      <trkpt lat="45.63319" lon="6.68926">
        <ele>2571</ele>
        <time>2021-02-23T10:58:44.000Z</time>
      </trkpt>
      <trkpt lat="45.63319" lon="6.68926">
        <ele>2571.3999023438</ele>
        <time>2021-02-23T10:58:46.000Z</time>
      </trkpt>
      <trkpt lat="45.63319" lon="6.68926">
        <ele>2569.6000976562</ele>
        <time>2021-02-23T10:58:54.000Z</time>
      </trkpt>
      <trkpt lat="45.63319" lon="6.68926">
        <ele>2568.3999023438</ele>
        <time>2021-02-23T10:58:55.000Z</time>
      </trkpt>
      <trkpt lat="45.63318" lon="6.68923">
        <ele>2572.8000488281</ele>
        <time>2021-02-23T10:59:00.000Z</time>
      </trkpt>
      <trkpt lat="45.63318" lon="6.68922">
        <ele>2574</ele>
        <time>2021-02-23T10:59:01.000Z</time>
      </trkpt>
      <trkpt lat="45.63318" lon="6.68921">
        <ele>2572.3999023438</ele>
        <time>2021-02-23T10:59:05.000Z</time>
      </trkpt>
      <trkpt lat="45.63318" lon="6.68921">
        <ele>2569</ele>
        <time>2021-02-23T10:59:06.000Z</time>
      </trkpt>
      <trkpt lat="45.63318" lon="6.68921">
        <ele>2567.1999511719</ele>
        <time>2021-02-23T10:59:07.000Z</time>
      </trkpt>
      <trkpt lat="45.63318" lon="6.68919">
        <ele>2565.6000976562</ele>
        <time>2021-02-23T10:59:09.000Z</time>
      </trkpt>
      <trkpt lat="45.63318" lon="6.68917">
        <ele>2567.1999511719</ele>
        <time>2021-02-23T10:59:10.000Z</time>
      </trkpt>
      <trkpt lat="45.63319" lon="6.68916">
        <ele>2571.3999023438</ele>
        <time>2021-02-23T10:59:11.000Z</time>
      </trkpt>
      <trkpt lat="45.63319" lon="6.68916">
        <ele>2573.8000488281</ele>
        <time>2021-02-23T10:59:12.000Z</time>
      </trkpt>
      <trkpt lat="45.63319" lon="6.68916">
        <ele>2575.1999511719</ele>
        <time>2021-02-23T10:59:13.000Z</time>
      </trkpt>
      <trkpt lat="45.63319" lon="6.68916">
        <ele>2573.6000976562</ele>
        <time>2021-02-23T10:59:16.000Z</time>
      </trkpt>
      <trkpt lat="45.63319" lon="6.68916">
        <ele>2572.3999023438</ele>
        <time>2021-02-23T10:59:18.000Z</time>
      </trkpt>
      <trkpt lat="45.63319" lon="6.68916">
        <ele>2571.3999023438</ele>
        <time>2021-02-23T10:59:23.000Z</time>
      </trkpt>
      <trkpt lat="45.6332" lon="6.68917">
        <ele>2572.1999511719</ele>
        <time>2021-02-23T10:59:30.000Z</time>
      </trkpt>
      <trkpt lat="45.63322" lon="6.68918">
        <ele>2572.3999023438</ele>
        <time>2021-02-23T10:59:34.000Z</time>
      </trkpt>
      <trkpt lat="45.63324" lon="6.68917">
        <ele>2573.8000488281</ele>
        <time>2021-02-23T10:59:38.000Z</time>
      </trkpt>
      <trkpt lat="45.63325" lon="6.68917">
        <ele>2574.3999023438</ele>
        <time>2021-02-23T10:59:40.000Z</time>
      </trkpt>
      <trkpt lat="45.63325" lon="6.68917">
        <ele>2575</ele>
        <time>2021-02-23T10:59:44.000Z</time>
      </trkpt>
      <trkpt lat="45.63326" lon="6.68917">
        <ele>2576.3999023438</ele>
        <time>2021-02-23T10:59:48.000Z</time>
      </trkpt>
      <trkpt lat="45.63326" lon="6.68917">
        <ele>2576.6000976562</ele>
        <time>2021-02-23T10:59:50.000Z</time>
      </trkpt>
      <trkpt lat="45.63326" lon="6.68917">
        <ele>2577.3999023438</ele>
        <time>2021-02-23T10:59:55.000Z</time>
      </trkpt>
      <trkpt lat="45.63326" lon="6.68917">
        <ele>2578.6000976562</ele>
        <time>2021-02-23T11:00:01.000Z</time>
      </trkpt>
      <trkpt lat="45.63326" lon="6.68917">
        <ele>2578.8000488281</ele>
        <time>2021-02-23T11:00:02.000Z</time>
      </trkpt>
      <trkpt lat="45.63326" lon="6.68917">
        <ele>2579.6000976562</ele>
        <time>2021-02-23T11:00:05.000Z</time>
      </trkpt>
      <trkpt lat="45.63326" lon="6.68917">
        <ele>2580.3999023438</ele>
        <time>2021-02-23T11:00:13.000Z</time>
      </trkpt>
      <trkpt lat="45.63326" lon="6.68917">
        <ele>2580.8000488281</ele>
        <time>2021-02-23T11:00:15.000Z</time>
      </trkpt>
      <trkpt lat="45.63328" lon="6.68916">
        <ele>2581.8000488281</ele>
        <time>2021-02-23T11:00:21.000Z</time>
      </trkpt>
      <trkpt lat="45.63329" lon="6.68915">
        <ele>2581.8000488281</ele>
        <time>2021-02-23T11:00:23.000Z</time>
      </trkpt>
      <trkpt lat="45.63329" lon="6.68915">
        <ele>2583</ele>
        <time>2021-02-23T11:00:31.000Z</time>
      </trkpt>
      <trkpt lat="45.63329" lon="6.68915">
        <ele>2583.3999023438</ele>
        <time>2021-02-23T11:00:35.000Z</time>
      </trkpt>
      <trkpt lat="45.63329" lon="6.68915">
        <ele>2584.1999511719</ele>
        <time>2021-02-23T11:00:41.000Z</time>
      </trkpt>
      <trkpt lat="45.63329" lon="6.68915">
        <ele>2584.6000976562</ele>
        <time>2021-02-23T11:00:48.000Z</time>
      </trkpt>
      <trkpt lat="45.63329" lon="6.68915">
        <ele>2585.6000976562</ele>
        <time>2021-02-23T11:00:54.000Z</time>
      </trkpt>
      <trkpt lat="45.6333" lon="6.68914">
        <ele>2586.1999511719</ele>
        <time>2021-02-23T11:00:58.000Z</time>
      </trkpt>
      <trkpt lat="45.6333" lon="6.68913">
        <ele>2586.6000976562</ele>
        <time>2021-02-23T11:01:03.000Z</time>
      </trkpt>
      <trkpt lat="45.6333" lon="6.68913">
        <ele>2587.8000488281</ele>
        <time>2021-02-23T11:01:07.000Z</time>
      </trkpt>
      <trkpt lat="45.6333" lon="6.68913">
        <ele>2588</ele>
        <time>2021-02-23T11:01:08.000Z</time>
      </trkpt>
      <trkpt lat="45.6333" lon="6.68913">
        <ele>2588.3999023438</ele>
        <time>2021-02-23T11:01:17.000Z</time>
      </trkpt>
      <trkpt lat="45.6333" lon="6.68913">
        <ele>2589</ele>
        <time>2021-02-23T11:01:22.000Z</time>
      </trkpt>
      <trkpt lat="45.6333" lon="6.68913">
        <ele>2589.8000488281</ele>
        <time>2021-02-23T11:01:26.000Z</time>
      </trkpt>
      <trkpt lat="45.6333" lon="6.68913">
        <ele>2590</ele>
        <time>2021-02-23T11:01:28.000Z</time>
      </trkpt>
      <trkpt lat="45.6333" lon="6.68913">
        <ele>2591</ele>
        <time>2021-02-23T11:01:37.000Z</time>
      </trkpt>
      <trkpt lat="45.63331" lon="6.68913">
        <ele>2591</ele>
        <time>2021-02-23T11:01:38.000Z</time>
      </trkpt>
      <trkpt lat="45.63333" lon="6.68911">
        <ele>2592</ele>
        <time>2021-02-23T11:01:43.000Z</time>
      </trkpt>
      <trkpt lat="45.63333" lon="6.68911">
        <ele>2593.1999511719</ele>
        <time>2021-02-23T11:01:45.000Z</time>
      </trkpt>
      <trkpt lat="45.63333" lon="6.68911">
        <ele>2593.8000488281</ele>
        <time>2021-02-23T11:01:48.000Z</time>
      </trkpt>
      <trkpt lat="45.63333" lon="6.68911">
        <ele>2593.1999511719</ele>
        <time>2021-02-23T11:02:00.000Z</time>
      </trkpt>
      <trkpt lat="45.63333" lon="6.68911">
        <ele>2593.3999023438</ele>
        <time>2021-02-23T11:02:13.000Z</time>
      </trkpt>
      <trkpt lat="45.63334" lon="6.68912">
        <ele>2593.3999023438</ele>
        <time>2021-02-23T11:02:27.000Z</time>
      </trkpt>
      <trkpt lat="45.63334" lon="6.68912">
        <ele>2593.8000488281</ele>
        <time>2021-02-23T11:02:42.000Z</time>
      </trkpt>
      <trkpt lat="45.63334" lon="6.68912">
        <ele>2594.1999511719</ele>
        <time>2021-02-23T11:02:52.000Z</time>
      </trkpt>
      <trkpt lat="45.63334" lon="6.68912">
        <ele>2594</ele>
        <time>2021-02-23T11:02:53.000Z</time>
      </trkpt>
      <trkpt lat="45.63334" lon="6.68912">
        <ele>2595.3999023438</ele>
        <time>2021-02-23T11:03:00.000Z</time>
      </trkpt>
      <trkpt lat="45.63334" lon="6.68912">
        <ele>2594.6000976562</ele>
        <time>2021-02-23T11:03:03.000Z</time>
      </trkpt>
      <trkpt lat="45.63335" lon="6.68912">
        <ele>2595</ele>
        <time>2021-02-23T11:03:16.000Z</time>
      </trkpt>
      <trkpt lat="45.63335" lon="6.68912">
        <ele>2595</ele>
        <time>2021-02-23T11:03:17.000Z</time>
      </trkpt>
      <trkpt lat="45.63335" lon="6.68912">
        <ele>2595</ele>
        <time>2021-02-23T11:03:31.000Z</time>
      </trkpt>
      <trkpt lat="45.63335" lon="6.68913">
        <ele>2595</ele>
        <time>2021-02-23T11:03:46.000Z</time>
      </trkpt>
      <trkpt lat="45.63335" lon="6.68913">
        <ele>2595.3999023438</ele>
        <time>2021-02-23T11:03:58.000Z</time>
      </trkpt>
      <trkpt lat="45.63335" lon="6.68913">
        <ele>2595.6000976562</ele>
        <time>2021-02-23T11:04:11.000Z</time>
      </trkpt>
      <trkpt lat="45.63335" lon="6.68913">
        <ele>2595.3999023438</ele>
        <time>2021-02-23T11:04:29.000Z</time>
      </trkpt>
      <trkpt lat="45.63335" lon="6.68913">
        <ele>2595.3999023438</ele>
        <time>2021-02-23T11:04:44.000Z</time>
      </trkpt>
      <trkpt lat="45.63335" lon="6.68913">
        <ele>2595.1999511719</ele>
        <time>2021-02-23T11:04:57.000Z</time>
      </trkpt>
      <trkpt lat="45.63336" lon="6.68913">
        <ele>2595</ele>
        <time>2021-02-23T11:05:16.000Z</time>
      </trkpt>
      <trkpt lat="45.63336" lon="6.68913">
        <ele>2595</ele>
        <time>2021-02-23T11:05:34.000Z</time>
      </trkpt>
      <trkpt lat="45.63336" lon="6.68913">
        <ele>2595</ele>
        <time>2021-02-23T11:05:52.000Z</time>
      </trkpt>
      <trkpt lat="45.63336" lon="6.68913">
        <ele>2595.1999511719</ele>
        <time>2021-02-23T11:06:07.000Z</time>
      </trkpt>
      <trkpt lat="45.63337" lon="6.68913">
        <ele>2595</ele>
        <time>2021-02-23T11:06:29.000Z</time>
      </trkpt>
      <trkpt lat="45.63337" lon="6.68913">
        <ele>2594.8000488281</ele>
        <time>2021-02-23T11:06:43.000Z</time>
      </trkpt>
      <trkpt lat="45.63337" lon="6.68913">
        <ele>2594.8000488281</ele>
        <time>2021-02-23T11:06:57.000Z</time>
      </trkpt>
      <trkpt lat="45.63337" lon="6.68913">
        <ele>2594.8000488281</ele>
        <time>2021-02-23T11:07:07.000Z</time>
      </trkpt>
      <trkpt lat="45.63338" lon="6.68916">
        <ele>2595</ele>
        <time>2021-02-23T11:07:17.000Z</time>
      </trkpt>
      <trkpt lat="45.63339" lon="6.68918">
        <ele>2596.6000976562</ele>
        <time>2021-02-23T11:07:25.000Z</time>
      </trkpt>
      <trkpt lat="45.6334" lon="6.68919">
        <ele>2596.8000488281</ele>
        <time>2021-02-23T11:07:26.000Z</time>
      </trkpt>
      <trkpt lat="45.63341" lon="6.68921">
        <ele>2597.1999511719</ele>
        <time>2021-02-23T11:07:30.000Z</time>
      </trkpt>
      <trkpt lat="45.63341" lon="6.68922">
        <ele>2597.6000976562</ele>
        <time>2021-02-23T11:07:36.000Z</time>
      </trkpt>
      <trkpt lat="45.63342" lon="6.68923">
        <ele>2598.6000976562</ele>
        <time>2021-02-23T11:07:41.000Z</time>
      </trkpt>
      <trkpt lat="45.63342" lon="6.68923">
        <ele>2598.8000488281</ele>
        <time>2021-02-23T11:07:44.000Z</time>
      </trkpt>
      <trkpt lat="45.63344" lon="6.68926">
        <ele>2600</ele>
        <time>2021-02-23T11:07:49.000Z</time>
      </trkpt>
      <trkpt lat="45.63344" lon="6.68926">
        <ele>2600.8000488281</ele>
        <time>2021-02-23T11:07:52.000Z</time>
      </trkpt>
      <trkpt lat="45.63344" lon="6.68926">
        <ele>2601.1999511719</ele>
        <time>2021-02-23T11:07:55.000Z</time>
      </trkpt>
      <trkpt lat="45.63346" lon="6.68928">
        <ele>2601.1999511719</ele>
        <time>2021-02-23T11:08:02.000Z</time>
      </trkpt>
      <trkpt lat="45.63347" lon="6.68928">
        <ele>2602.3999023438</ele>
        <time>2021-02-23T11:08:12.000Z</time>
      </trkpt>
      <trkpt lat="45.63347" lon="6.68928">
        <ele>2602.8000488281</ele>
        <time>2021-02-23T11:08:13.000Z</time>
      </trkpt>
      <trkpt lat="45.63347" lon="6.68928">
        <ele>2603.3999023438</ele>
        <time>2021-02-23T11:08:17.000Z</time>
      </trkpt>
      <trkpt lat="45.63347" lon="6.68928">
        <ele>2603.6000976562</ele>
        <time>2021-02-23T11:08:22.000Z</time>
      </trkpt>
      <trkpt lat="45.63348" lon="6.68932">
        <ele>2604.3999023438</ele>
        <time>2021-02-23T11:08:27.000Z</time>
      </trkpt>
      <trkpt lat="45.63348" lon="6.68932">
        <ele>2605.1999511719</ele>
        <time>2021-02-23T11:08:32.000Z</time>
      </trkpt>
      <trkpt lat="45.63348" lon="6.68932">
        <ele>2605.8000488281</ele>
        <time>2021-02-23T11:08:34.000Z</time>
      </trkpt>
      <trkpt lat="45.63348" lon="6.68932">
        <ele>2607</ele>
        <time>2021-02-23T11:08:42.000Z</time>
      </trkpt>
      <trkpt lat="45.63348" lon="6.68932">
        <ele>2608</ele>
        <time>2021-02-23T11:08:50.000Z</time>
      </trkpt>
      <trkpt lat="45.63348" lon="6.68932">
        <ele>2608.1999511719</ele>
        <time>2021-02-23T11:08:52.000Z</time>
      </trkpt>
      <trkpt lat="45.63348" lon="6.68932">
        <ele>2608.6000976562</ele>
        <time>2021-02-23T11:09:03.000Z</time>
      </trkpt>
      <trkpt lat="45.6335" lon="6.68933">
        <ele>2607.8000488281</ele>
        <time>2021-02-23T11:09:13.000Z</time>
      </trkpt>
      <trkpt lat="45.6335" lon="6.68933">
        <ele>2607</ele>
        <time>2021-02-23T11:09:21.000Z</time>
      </trkpt>
      <trkpt lat="45.6335" lon="6.68933">
        <ele>2606.8000488281</ele>
        <time>2021-02-23T11:09:22.000Z</time>
      </trkpt>
      <trkpt lat="45.6335" lon="6.68933">
        <ele>2606.1999511719</ele>
        <time>2021-02-23T11:09:34.000Z</time>
      </trkpt>
      <trkpt lat="45.6335" lon="6.68933">
        <ele>2606.3999023438</ele>
        <time>2021-02-23T11:09:44.000Z</time>
      </trkpt>
      <trkpt lat="45.6335" lon="6.68932">
        <ele>2606.1999511719</ele>
        <time>2021-02-23T11:09:53.000Z</time>
      </trkpt>
      <trkpt lat="45.6335" lon="6.68932">
        <ele>2606.6000976562</ele>
        <time>2021-02-23T11:10:05.000Z</time>
      </trkpt>
      <trkpt lat="45.6335" lon="6.68932">
        <ele>2606.1999511719</ele>
        <time>2021-02-23T11:10:15.000Z</time>
      </trkpt>
      <trkpt lat="45.6335" lon="6.68932">
        <ele>2606.3999023438</ele>
        <time>2021-02-23T11:10:28.000Z</time>
      </trkpt>
      <trkpt lat="45.6335" lon="6.68932">
        <ele>2606.1999511719</ele>
        <time>2021-02-23T11:10:40.000Z</time>
      </trkpt>
      <trkpt lat="45.6335" lon="6.68932">
        <ele>2606.6000976562</ele>
        <time>2021-02-23T11:10:55.000Z</time>
      </trkpt>
      <trkpt lat="45.63349" lon="6.68932">
        <ele>2606.3999023438</ele>
        <time>2021-02-23T11:11:13.000Z</time>
      </trkpt>
      <trkpt lat="45.63349" lon="6.68932">
        <ele>2606.1999511719</ele>
        <time>2021-02-23T11:11:24.000Z</time>
      </trkpt>
      <trkpt lat="45.63349" lon="6.68932">
        <ele>2606.1999511719</ele>
        <time>2021-02-23T11:11:37.000Z</time>
      </trkpt>
      <trkpt lat="45.63349" lon="6.68932">
        <ele>2606.1999511719</ele>
        <time>2021-02-23T11:11:51.000Z</time>
      </trkpt>
      <trkpt lat="45.6335" lon="6.68932">
        <ele>2606</ele>
        <time>2021-02-23T11:12:08.000Z</time>
      </trkpt>
      <trkpt lat="45.6335" lon="6.68932">
        <ele>2606.1999511719</ele>
        <time>2021-02-23T11:12:18.000Z</time>
      </trkpt>
      <trkpt lat="45.6335" lon="6.68932">
        <ele>2606.1999511719</ele>
        <time>2021-02-23T11:12:32.000Z</time>
      </trkpt>
      <trkpt lat="45.6335" lon="6.68932">
        <ele>2606</ele>
        <time>2021-02-23T11:12:38.000Z</time>
      </trkpt>
      <trkpt lat="45.6335" lon="6.68932">
        <ele>2606</ele>
        <time>2021-02-23T11:12:43.000Z</time>
      </trkpt>
      <trkpt lat="45.6335" lon="6.68932">
        <ele>2606</ele>
        <time>2021-02-23T11:12:46.000Z</time>
      </trkpt>
      <trkpt lat="45.6335" lon="6.68932">
        <ele>2605.8000488281</ele>
        <time>2021-02-23T11:12:54.000Z</time>
      </trkpt>
      <trkpt lat="45.6335" lon="6.68932">
        <ele>2605.6000976562</ele>
        <time>2021-02-23T11:13:06.000Z</time>
      </trkpt>
      <trkpt lat="45.63349" lon="6.68933">
        <ele>2604.6000976562</ele>
        <time>2021-02-23T11:13:14.000Z</time>
      </trkpt>
      <trkpt lat="45.63349" lon="6.68933">
        <ele>2604.3999023438</ele>
        <time>2021-02-23T11:13:15.000Z</time>
      </trkpt>
      <trkpt lat="45.63349" lon="6.68933">
        <ele>2603.8000488281</ele>
        <time>2021-02-23T11:13:27.000Z</time>
      </trkpt>
      <trkpt lat="45.63349" lon="6.68933">
        <ele>2603.3999023438</ele>
        <time>2021-02-23T11:13:37.000Z</time>
      </trkpt>
      <trkpt lat="45.63349" lon="6.68933">
        <ele>2604.3999023438</ele>
        <time>2021-02-23T11:13:41.000Z</time>
      </trkpt>
      <trkpt lat="45.63349" lon="6.68933">
        <ele>2605.1999511719</ele>
        <time>2021-02-23T11:13:42.000Z</time>
      </trkpt>
      <trkpt lat="45.63349" lon="6.68933">
        <ele>2604</ele>
        <time>2021-02-23T11:13:49.000Z</time>
      </trkpt>
      <trkpt lat="45.63349" lon="6.68933">
        <ele>2603.8000488281</ele>
        <time>2021-02-23T11:13:53.000Z</time>
      </trkpt>
      <trkpt lat="45.63349" lon="6.68934">
        <ele>2604</ele>
        <time>2021-02-23T11:14:04.000Z</time>
      </trkpt>
      <trkpt lat="45.63349" lon="6.68934">
        <ele>2604</ele>
        <time>2021-02-23T11:14:16.000Z</time>
      </trkpt>
      <trkpt lat="45.63349" lon="6.68934">
        <ele>2604.3999023438</ele>
        <time>2021-02-23T11:14:27.000Z</time>
      </trkpt>
      <trkpt lat="45.63349" lon="6.68934">
        <ele>2604</ele>
        <time>2021-02-23T11:14:40.000Z</time>
      </trkpt>
      <trkpt lat="45.63348" lon="6.68934">
        <ele>2604</ele>
        <time>2021-02-23T11:14:53.000Z</time>
      </trkpt>
      <trkpt lat="45.63348" lon="6.68934">
        <ele>2603.3999023438</ele>
        <time>2021-02-23T11:15:07.000Z</time>
      </trkpt>
      <trkpt lat="45.63348" lon="6.68934">
        <ele>2603</ele>
        <time>2021-02-23T11:15:09.000Z</time>
      </trkpt>
      <trkpt lat="45.63349" lon="6.68933">
        <ele>2604</ele>
        <time>2021-02-23T11:15:15.000Z</time>
      </trkpt>
      <trkpt lat="45.63349" lon="6.68933">
        <ele>2604.1999511719</ele>
        <time>2021-02-23T11:15:18.000Z</time>
      </trkpt>
      <trkpt lat="45.6335" lon="6.68933">
        <ele>2605</ele>
        <time>2021-02-23T11:15:27.000Z</time>
      </trkpt>
      <trkpt lat="45.6335" lon="6.68933">
        <ele>2604.3999023438</ele>
        <time>2021-02-23T11:15:29.000Z</time>
      </trkpt>
      <trkpt lat="45.6335" lon="6.68933">
        <ele>2603.8000488281</ele>
        <time>2021-02-23T11:15:31.000Z</time>
      </trkpt>
      <trkpt lat="45.6335" lon="6.68931">
        <ele>2605</ele>
        <time>2021-02-23T11:15:40.000Z</time>
      </trkpt>
      <trkpt lat="45.6335" lon="6.68931">
        <ele>2604.8000488281</ele>
        <time>2021-02-23T11:15:52.000Z</time>
      </trkpt>
      <trkpt lat="45.6335" lon="6.68931">
        <ele>2604.3999023438</ele>
        <time>2021-02-23T11:16:03.000Z</time>
      </trkpt>
      <trkpt lat="45.63349" lon="6.68932">
        <ele>2604.3999023438</ele>
        <time>2021-02-23T11:16:17.000Z</time>
      </trkpt>
      <trkpt lat="45.63349" lon="6.68932">
        <ele>2604.1999511719</ele>
        <time>2021-02-23T11:16:29.000Z</time>
      </trkpt>
      <trkpt lat="45.63349" lon="6.68932">
        <ele>2604.3999023438</ele>
        <time>2021-02-23T11:16:42.000Z</time>
      </trkpt>
      <trkpt lat="45.63349" lon="6.68932">
        <ele>2604</ele>
        <time>2021-02-23T11:16:45.000Z</time>
      </trkpt>
      <trkpt lat="45.63349" lon="6.68932">
        <ele>2605.1999511719</ele>
        <time>2021-02-23T11:16:51.000Z</time>
      </trkpt>
      <trkpt lat="45.63348" lon="6.68933">
        <ele>2604.8000488281</ele>
        <time>2021-02-23T11:16:54.000Z</time>
      </trkpt>
      <trkpt lat="45.63348" lon="6.68933">
        <ele>2604</ele>
        <time>2021-02-23T11:16:58.000Z</time>
      </trkpt>
      <trkpt lat="45.63348" lon="6.68933">
        <ele>2604.6000976562</ele>
        <time>2021-02-23T11:17:03.000Z</time>
      </trkpt>
      <trkpt lat="45.63348" lon="6.68933">
        <ele>2604.6000976562</ele>
        <time>2021-02-23T11:17:17.000Z</time>
      </trkpt>
      <trkpt lat="45.63348" lon="6.68933">
        <ele>2604.3999023438</ele>
        <time>2021-02-23T11:17:33.000Z</time>
      </trkpt>
      <trkpt lat="45.63348" lon="6.68933">
        <ele>2604.6000976562</ele>
        <time>2021-02-23T11:17:45.000Z</time>
      </trkpt>
      <trkpt lat="45.63348" lon="6.68933">
        <ele>2604.6000976562</ele>
        <time>2021-02-23T11:17:58.000Z</time>
      </trkpt>
      <trkpt lat="45.63348" lon="6.68933">
        <ele>2604.3999023438</ele>
        <time>2021-02-23T11:18:09.000Z</time>
      </trkpt>
      <trkpt lat="45.63348" lon="6.68933">
        <ele>2604</ele>
        <time>2021-02-23T11:18:26.000Z</time>
      </trkpt>
      <trkpt lat="45.63348" lon="6.68933">
        <ele>2604.6000976562</ele>
        <time>2021-02-23T11:18:40.000Z</time>
      </trkpt>
      <trkpt lat="45.63349" lon="6.68933">
        <ele>2604.3999023438</ele>
        <time>2021-02-23T11:18:59.000Z</time>
      </trkpt>
      <trkpt lat="45.63349" lon="6.68933">
        <ele>2604.3999023438</ele>
        <time>2021-02-23T11:19:19.000Z</time>
      </trkpt>
      <trkpt lat="45.63349" lon="6.68933">
        <ele>2604.3999023438</ele>
        <time>2021-02-23T11:19:37.000Z</time>
      </trkpt>
      <trkpt lat="45.63349" lon="6.68933">
        <ele>2604.3999023438</ele>
        <time>2021-02-23T11:19:53.000Z</time>
      </trkpt>
      <trkpt lat="45.63349" lon="6.68933">
        <ele>2604.6000976562</ele>
        <time>2021-02-23T11:20:09.000Z</time>
      </trkpt>
      <trkpt lat="45.63349" lon="6.68933">
        <ele>2604.3999023438</ele>
        <time>2021-02-23T11:20:24.000Z</time>
      </trkpt>
      <trkpt lat="45.63349" lon="6.68933">
        <ele>2604.3999023438</ele>
        <time>2021-02-23T11:20:25.000Z</time>
      </trkpt>
      <trkpt lat="45.63349" lon="6.68934">
        <ele>2604.3999023438</ele>
        <time>2021-02-23T11:20:36.000Z</time>
      </trkpt>
      <trkpt lat="45.63349" lon="6.68934">
        <ele>2604.6000976562</ele>
        <time>2021-02-23T11:20:50.000Z</time>
      </trkpt>
      <trkpt lat="45.63349" lon="6.68934">
        <ele>2605.1999511719</ele>
        <time>2021-02-23T11:21:00.000Z</time>
      </trkpt>
      <trkpt lat="45.63349" lon="6.68934">
        <ele>2605.3999023438</ele>
        <time>2021-02-23T11:21:01.000Z</time>
      </trkpt>
      <trkpt lat="45.63349" lon="6.68934">
        <ele>2604.8000488281</ele>
        <time>2021-02-23T11:21:15.000Z</time>
      </trkpt>
      <trkpt lat="45.63349" lon="6.68934">
        <ele>2604.6000976562</ele>
        <time>2021-02-23T11:21:30.000Z</time>
      </trkpt>
      <trkpt lat="45.63349" lon="6.68934">
        <ele>2604.3999023438</ele>
        <time>2021-02-23T11:21:48.000Z</time>
      </trkpt>
      <trkpt lat="45.63349" lon="6.68934">
        <ele>2604.6000976562</ele>
        <time>2021-02-23T11:22:04.000Z</time>
      </trkpt>
      <trkpt lat="45.63349" lon="6.68934">
        <ele>2604.8000488281</ele>
        <time>2021-02-23T11:22:19.000Z</time>
      </trkpt>
      <trkpt lat="45.63349" lon="6.68934">
        <ele>2604.8000488281</ele>
        <time>2021-02-23T11:22:36.000Z</time>
      </trkpt>
      <trkpt lat="45.63349" lon="6.68934">
        <ele>2604.6000976562</ele>
        <time>2021-02-23T11:22:51.000Z</time>
      </trkpt>
      <trkpt lat="45.63349" lon="6.68934">
        <ele>2604.6000976562</ele>
        <time>2021-02-23T11:23:04.000Z</time>
      </trkpt>
      <trkpt lat="45.63349" lon="6.68934">
        <ele>2604.3999023438</ele>
        <time>2021-02-23T11:23:17.000Z</time>
      </trkpt>
      <trkpt lat="45.63349" lon="6.68934">
        <ele>2604.3999023438</ele>
        <time>2021-02-23T11:23:31.000Z</time>
      </trkpt>
      <trkpt lat="45.63349" lon="6.68934">
        <ele>2604.1999511719</ele>
        <time>2021-02-23T11:23:37.000Z</time>
      </trkpt>
      <trkpt lat="45.63349" lon="6.68934">
        <ele>2604.6000976562</ele>
        <time>2021-02-23T11:23:45.000Z</time>
      </trkpt>
      <trkpt lat="45.63349" lon="6.68934">
        <ele>2604.6000976562</ele>
        <time>2021-02-23T11:24:00.000Z</time>
      </trkpt>
      <trkpt lat="45.63349" lon="6.68934">
        <ele>2604.6000976562</ele>
        <time>2021-02-23T11:24:13.000Z</time>
      </trkpt>
      <trkpt lat="45.63349" lon="6.68934">
        <ele>2604.6000976562</ele>
        <time>2021-02-23T11:24:25.000Z</time>
      </trkpt>
      <trkpt lat="45.6335" lon="6.68934">
        <ele>2603</ele>
        <time>2021-02-23T11:24:40.000Z</time>
      </trkpt>
      <trkpt lat="45.6335" lon="6.68934">
        <ele>2602</ele>
        <time>2021-02-23T11:24:43.000Z</time>
      </trkpt>
      <trkpt lat="45.6335" lon="6.68934">
        <ele>2603.1999511719</ele>
        <time>2021-02-23T11:24:46.000Z</time>
      </trkpt>
      <trkpt lat="45.6335" lon="6.68934">
        <ele>2604</ele>
        <time>2021-02-23T11:24:54.000Z</time>
      </trkpt>
      <trkpt lat="45.6335" lon="6.68934">
        <ele>2604.3999023438</ele>
        <time>2021-02-23T11:24:55.000Z</time>
      </trkpt>
      <trkpt lat="45.6335" lon="6.68934">
        <ele>2605.6000976562</ele>
        <time>2021-02-23T11:24:57.000Z</time>
      </trkpt>
      <trkpt lat="45.6335" lon="6.68934">
        <ele>2606.8000488281</ele>
        <time>2021-02-23T11:24:59.000Z</time>
      </trkpt>
      <trkpt lat="45.6335" lon="6.68934">
        <ele>2605</ele>
        <time>2021-02-23T11:25:03.000Z</time>
      </trkpt>
      <trkpt lat="45.6335" lon="6.68934">
        <ele>2604</ele>
        <time>2021-02-23T11:25:07.000Z</time>
      </trkpt>
      <trkpt lat="45.6335" lon="6.68934">
        <ele>2604.6000976562</ele>
        <time>2021-02-23T11:25:21.000Z</time>
      </trkpt>
      <trkpt lat="45.6335" lon="6.68934">
        <ele>2604.3999023438</ele>
        <time>2021-02-23T11:25:38.000Z</time>
      </trkpt>
      <trkpt lat="45.6335" lon="6.68934">
        <ele>2604.3999023438</ele>
        <time>2021-02-23T11:25:43.000Z</time>
      </trkpt>
      <trkpt lat="45.6335" lon="6.68934">
        <ele>2604.3999023438</ele>
        <time>2021-02-23T11:25:53.000Z</time>
      </trkpt>
      <trkpt lat="45.63351" lon="6.68933">
        <ele>2604.3999023438</ele>
        <time>2021-02-23T11:26:04.000Z</time>
      </trkpt>
      <trkpt lat="45.63351" lon="6.68933">
        <ele>2604.3999023438</ele>
        <time>2021-02-23T11:26:23.000Z</time>
      </trkpt>
      <trkpt lat="45.63351" lon="6.68933">
        <ele>2604.6000976562</ele>
        <time>2021-02-23T11:26:35.000Z</time>
      </trkpt>
      <trkpt lat="45.63351" lon="6.68933">
        <ele>2605</ele>
        <time>2021-02-23T11:26:37.000Z</time>
      </trkpt>
      <trkpt lat="45.63351" lon="6.68933">
        <ele>2604</ele>
        <time>2021-02-23T11:26:49.000Z</time>
      </trkpt>
      <trkpt lat="45.63351" lon="6.68933">
        <ele>2604</ele>
        <time>2021-02-23T11:26:51.000Z</time>
      </trkpt>
      <trkpt lat="45.63351" lon="6.68933">
        <ele>2604.6000976562</ele>
        <time>2021-02-23T11:27:05.000Z</time>
      </trkpt>
      <trkpt lat="45.63351" lon="6.68933">
        <ele>2604.1999511719</ele>
        <time>2021-02-23T11:27:17.000Z</time>
      </trkpt>
      <trkpt lat="45.63351" lon="6.68933">
        <ele>2604.1999511719</ele>
        <time>2021-02-23T11:27:31.000Z</time>
      </trkpt>
      <trkpt lat="45.63351" lon="6.68933">
        <ele>2604</ele>
        <time>2021-02-23T11:27:40.000Z</time>
      </trkpt>
      <trkpt lat="45.63351" lon="6.68933">
        <ele>2603</ele>
        <time>2021-02-23T11:27:47.000Z</time>
      </trkpt>
      <trkpt lat="45.63351" lon="6.68933">
        <ele>2602.8000488281</ele>
        <time>2021-02-23T11:27:51.000Z</time>
      </trkpt>
      <trkpt lat="45.63351" lon="6.68933">
        <ele>2602.6000976562</ele>
        <time>2021-02-23T11:28:01.000Z</time>
      </trkpt>
      <trkpt lat="45.63351" lon="6.68933">
        <ele>2602.6000976562</ele>
        <time>2021-02-23T11:28:15.000Z</time>
      </trkpt>
      <trkpt lat="45.63351" lon="6.68933">
        <ele>2601.6000976562</ele>
        <time>2021-02-23T11:28:18.000Z</time>
      </trkpt>
      <trkpt lat="45.63351" lon="6.68933">
        <ele>2600.6000976562</ele>
        <time>2021-02-23T11:28:21.000Z</time>
      </trkpt>
      <trkpt lat="45.63351" lon="6.68933">
        <ele>2602</ele>
        <time>2021-02-23T11:28:23.000Z</time>
      </trkpt>
      <trkpt lat="45.63351" lon="6.68933">
        <ele>2603.1999511719</ele>
        <time>2021-02-23T11:28:24.000Z</time>
      </trkpt>
      <trkpt lat="45.63351" lon="6.68933">
        <ele>2604.1999511719</ele>
        <time>2021-02-23T11:28:27.000Z</time>
      </trkpt>
      <trkpt lat="45.63351" lon="6.68933">
        <ele>2603.6000976562</ele>
        <time>2021-02-23T11:28:29.000Z</time>
      </trkpt>
      <trkpt lat="45.63351" lon="6.68933">
        <ele>2603.1999511719</ele>
        <time>2021-02-23T11:28:33.000Z</time>
      </trkpt>
      <trkpt lat="45.63351" lon="6.68932">
        <ele>2603</ele>
        <time>2021-02-23T11:28:42.000Z</time>
      </trkpt>
      <trkpt lat="45.63351" lon="6.68932">
        <ele>2603</ele>
        <time>2021-02-23T11:28:56.000Z</time>
      </trkpt>
      <trkpt lat="45.63351" lon="6.68932">
        <ele>2603.1999511719</ele>
        <time>2021-02-23T11:29:16.000Z</time>
      </trkpt>
      <trkpt lat="45.63351" lon="6.68931">
        <ele>2601</ele>
        <time>2021-02-23T11:29:26.000Z</time>
      </trkpt>
      <trkpt lat="45.63351" lon="6.68931">
        <ele>2602.6000976562</ele>
        <time>2021-02-23T11:29:29.000Z</time>
      </trkpt>
      <trkpt lat="45.63351" lon="6.68931">
        <ele>2604.6000976562</ele>
        <time>2021-02-23T11:29:30.000Z</time>
      </trkpt>
      <trkpt lat="45.63351" lon="6.68931">
        <ele>2606</ele>
        <time>2021-02-23T11:29:32.000Z</time>
      </trkpt>
      <trkpt lat="45.63351" lon="6.68931">
        <ele>2604.8000488281</ele>
        <time>2021-02-23T11:29:34.000Z</time>
      </trkpt>
      <trkpt lat="45.63351" lon="6.68931">
        <ele>2603.8000488281</ele>
        <time>2021-02-23T11:29:37.000Z</time>
      </trkpt>
      <trkpt lat="45.63351" lon="6.68931">
        <ele>2603.6000976562</ele>
        <time>2021-02-23T11:29:42.000Z</time>
      </trkpt>
      <trkpt lat="45.63351" lon="6.68931">
        <ele>2603.8000488281</ele>
        <time>2021-02-23T11:29:49.000Z</time>
      </trkpt>
      <trkpt lat="45.63351" lon="6.68931">
        <ele>2603.8000488281</ele>
        <time>2021-02-23T11:30:03.000Z</time>
      </trkpt>
      <trkpt lat="45.63351" lon="6.68931">
        <ele>2604</ele>
        <time>2021-02-23T11:30:21.000Z</time>
      </trkpt>
      <trkpt lat="45.63351" lon="6.68931">
        <ele>2604.3999023438</ele>
        <time>2021-02-23T11:30:32.000Z</time>
      </trkpt>
      <trkpt lat="45.6335" lon="6.6893">
        <ele>2604.6000976562</ele>
        <time>2021-02-23T11:30:47.000Z</time>
      </trkpt>
      <trkpt lat="45.6335" lon="6.6893">
        <ele>2604.6000976562</ele>
        <time>2021-02-23T11:31:00.000Z</time>
      </trkpt>
      <trkpt lat="45.6335" lon="6.6893">
        <ele>2604.8000488281</ele>
        <time>2021-02-23T11:31:14.000Z</time>
      </trkpt>
      <trkpt lat="45.6335" lon="6.6893">
        <ele>2604.8000488281</ele>
        <time>2021-02-23T11:31:15.000Z</time>
      </trkpt>
      <trkpt lat="45.6335" lon="6.6893">
        <ele>2604.8000488281</ele>
        <time>2021-02-23T11:31:26.000Z</time>
      </trkpt>
      <trkpt lat="45.6335" lon="6.6893">
        <ele>2603.6000976562</ele>
        <time>2021-02-23T11:31:35.000Z</time>
      </trkpt>
      <trkpt lat="45.6335" lon="6.6893">
        <ele>2603.3999023438</ele>
        <time>2021-02-23T11:31:36.000Z</time>
      </trkpt>
      <trkpt lat="45.6335" lon="6.6893">
        <ele>2604.8000488281</ele>
        <time>2021-02-23T11:31:41.000Z</time>
      </trkpt>
      <trkpt lat="45.6335" lon="6.6893">
        <ele>2603.6000976562</ele>
        <time>2021-02-23T11:31:44.000Z</time>
      </trkpt>
      <trkpt lat="45.6335" lon="6.6893">
        <ele>2602</ele>
        <time>2021-02-23T11:31:46.000Z</time>
      </trkpt>
      <trkpt lat="45.6335" lon="6.6893">
        <ele>2600.8000488281</ele>
        <time>2021-02-23T11:31:47.000Z</time>
      </trkpt>
      <trkpt lat="45.6335" lon="6.6893">
        <ele>2600.6000976562</ele>
        <time>2021-02-23T11:31:49.000Z</time>
      </trkpt>
      <trkpt lat="45.6335" lon="6.6893">
        <ele>2601.8000488281</ele>
        <time>2021-02-23T11:31:50.000Z</time>
      </trkpt>
      <trkpt lat="45.6335" lon="6.6893">
        <ele>2604</ele>
        <time>2021-02-23T11:31:52.000Z</time>
      </trkpt>
      <trkpt lat="45.6335" lon="6.68931">
        <ele>2605</ele>
        <time>2021-02-23T11:31:56.000Z</time>
      </trkpt>
      <trkpt lat="45.6335" lon="6.68931">
        <ele>2606.3999023438</ele>
        <time>2021-02-23T11:31:59.000Z</time>
      </trkpt>
      <trkpt lat="45.6335" lon="6.68931">
        <ele>2607.6000976562</ele>
        <time>2021-02-23T11:32:01.000Z</time>
      </trkpt>
      <trkpt lat="45.6335" lon="6.68931">
        <ele>2607.8000488281</ele>
        <time>2021-02-23T11:32:03.000Z</time>
      </trkpt>
      <trkpt lat="45.6335" lon="6.68932">
        <ele>2606</ele>
        <time>2021-02-23T11:32:05.000Z</time>
      </trkpt>
      <trkpt lat="45.6335" lon="6.68933">
        <ele>2605</ele>
        <time>2021-02-23T11:32:09.000Z</time>
      </trkpt>
      <trkpt lat="45.6335" lon="6.68933">
        <ele>2605.3999023438</ele>
        <time>2021-02-23T11:32:15.000Z</time>
      </trkpt>
      <trkpt lat="45.6335" lon="6.68933">
        <ele>2604.6000976562</ele>
        <time>2021-02-23T11:32:28.000Z</time>
      </trkpt>
      <trkpt lat="45.6335" lon="6.68933">
        <ele>2603.6000976562</ele>
        <time>2021-02-23T11:32:37.000Z</time>
      </trkpt>
      <trkpt lat="45.6335" lon="6.68933">
        <ele>2603.1999511719</ele>
        <time>2021-02-23T11:32:38.000Z</time>
      </trkpt>
      <trkpt lat="45.6335" lon="6.68933">
        <ele>2602.3999023438</ele>
        <time>2021-02-23T11:32:40.000Z</time>
      </trkpt>
      <trkpt lat="45.6335" lon="6.68933">
        <ele>2603.3999023438</ele>
        <time>2021-02-23T11:32:43.000Z</time>
      </trkpt>
      <trkpt lat="45.6335" lon="6.68933">
        <ele>2605.1999511719</ele>
        <time>2021-02-23T11:32:45.000Z</time>
      </trkpt>
      <trkpt lat="45.6335" lon="6.68933">
        <ele>2606.6000976562</ele>
        <time>2021-02-23T11:32:46.000Z</time>
      </trkpt>
      <trkpt lat="45.6335" lon="6.68933">
        <ele>2607.1999511719</ele>
        <time>2021-02-23T11:32:47.000Z</time>
      </trkpt>
      <trkpt lat="45.6335" lon="6.68933">
        <ele>2607.6000976562</ele>
        <time>2021-02-23T11:32:48.000Z</time>
      </trkpt>
      <trkpt lat="45.6335" lon="6.68933">
        <ele>2606</ele>
        <time>2021-02-23T11:32:51.000Z</time>
      </trkpt>
      <trkpt lat="45.6335" lon="6.68933">
        <ele>2604.8000488281</ele>
        <time>2021-02-23T11:32:55.000Z</time>
      </trkpt>
      <trkpt lat="45.6335" lon="6.68933">
        <ele>2604.8000488281</ele>
        <time>2021-02-23T11:33:01.000Z</time>
      </trkpt>
      <trkpt lat="45.6335" lon="6.68933">
        <ele>2603.8000488281</ele>
        <time>2021-02-23T11:33:09.000Z</time>
      </trkpt>
      <trkpt lat="45.6335" lon="6.68933">
        <ele>2605</ele>
        <time>2021-02-23T11:33:13.000Z</time>
      </trkpt>
      <trkpt lat="45.6335" lon="6.68933">
        <ele>2605.3999023438</ele>
        <time>2021-02-23T11:33:16.000Z</time>
      </trkpt>
      <trkpt lat="45.6335" lon="6.68932">
        <ele>2604.3999023438</ele>
        <time>2021-02-23T11:33:30.000Z</time>
      </trkpt>
      <trkpt lat="45.6335" lon="6.68932">
        <ele>2604.8000488281</ele>
        <time>2021-02-23T11:33:43.000Z</time>
      </trkpt>
      <trkpt lat="45.6335" lon="6.68932">
        <ele>2604.6000976562</ele>
        <time>2021-02-23T11:33:59.000Z</time>
      </trkpt>
      <trkpt lat="45.6335" lon="6.68933">
        <ele>2604.8000488281</ele>
        <time>2021-02-23T11:34:13.000Z</time>
      </trkpt>
      <trkpt lat="45.6335" lon="6.68933">
        <ele>2604.8000488281</ele>
        <time>2021-02-23T11:34:29.000Z</time>
      </trkpt>
      <trkpt lat="45.6335" lon="6.68933">
        <ele>2603</ele>
        <time>2021-02-23T11:34:40.000Z</time>
      </trkpt>
      <trkpt lat="45.6335" lon="6.68933">
        <ele>2603</ele>
        <time>2021-02-23T11:34:43.000Z</time>
      </trkpt>
      <trkpt lat="45.6335" lon="6.68933">
        <ele>2604.1999511719</ele>
        <time>2021-02-23T11:34:45.000Z</time>
      </trkpt>
      <trkpt lat="45.6335" lon="6.68933">
        <ele>2602.8000488281</ele>
        <time>2021-02-23T11:34:49.000Z</time>
      </trkpt>
      <trkpt lat="45.6335" lon="6.68933">
        <ele>2601.3999023438</ele>
        <time>2021-02-23T11:34:52.000Z</time>
      </trkpt>
      <trkpt lat="45.6335" lon="6.68933">
        <ele>2602.6000976562</ele>
        <time>2021-02-23T11:34:57.000Z</time>
      </trkpt>
      <trkpt lat="45.6335" lon="6.68933">
        <ele>2603.8000488281</ele>
        <time>2021-02-23T11:34:59.000Z</time>
      </trkpt>
      <trkpt lat="45.6335" lon="6.68933">
        <ele>2606</ele>
        <time>2021-02-23T11:35:00.000Z</time>
      </trkpt>
      <trkpt lat="45.6335" lon="6.68933">
        <ele>2608.6000976562</ele>
        <time>2021-02-23T11:35:01.000Z</time>
      </trkpt>
      <trkpt lat="45.6335" lon="6.68933">
        <ele>2609.8000488281</ele>
        <time>2021-02-23T11:35:02.000Z</time>
      </trkpt>
      <trkpt lat="45.6335" lon="6.68933">
        <ele>2607.6000976562</ele>
        <time>2021-02-23T11:35:05.000Z</time>
      </trkpt>
      <trkpt lat="45.6335" lon="6.68933">
        <ele>2606.3999023438</ele>
        <time>2021-02-23T11:35:06.000Z</time>
      </trkpt>
      <trkpt lat="45.6335" lon="6.68933">
        <ele>2605.3999023438</ele>
        <time>2021-02-23T11:35:08.000Z</time>
      </trkpt>
      <trkpt lat="45.6335" lon="6.68933">
        <ele>2604.8000488281</ele>
        <time>2021-02-23T11:35:16.000Z</time>
      </trkpt>
      <trkpt lat="45.6335" lon="6.68933">
        <ele>2604.6000976562</ele>
        <time>2021-02-23T11:35:31.000Z</time>
      </trkpt>
      <trkpt lat="45.6335" lon="6.68933">
        <ele>2604.3999023438</ele>
        <time>2021-02-23T11:35:33.000Z</time>
      </trkpt>
      <trkpt lat="45.6335" lon="6.68933">
        <ele>2604.8000488281</ele>
        <time>2021-02-23T11:35:43.000Z</time>
      </trkpt>
      <trkpt lat="45.6335" lon="6.68933">
        <ele>2605</ele>
        <time>2021-02-23T11:35:56.000Z</time>
      </trkpt>
      <trkpt lat="45.6335" lon="6.68933">
        <ele>2604.8000488281</ele>
        <time>2021-02-23T11:36:08.000Z</time>
      </trkpt>
      <trkpt lat="45.6335" lon="6.68935">
        <ele>2604.6000976562</ele>
        <time>2021-02-23T11:36:16.000Z</time>
      </trkpt>
      <trkpt lat="45.63349" lon="6.68939">
        <ele>2603.8000488281</ele>
        <time>2021-02-23T11:36:24.000Z</time>
      </trkpt>
      <trkpt lat="45.63349" lon="6.68939">
        <ele>2603.3999023438</ele>
        <time>2021-02-23T11:36:26.000Z</time>
      </trkpt>
      <trkpt lat="45.63349" lon="6.6894">
        <ele>2602.1999511719</ele>
        <time>2021-02-23T11:36:34.000Z</time>
      </trkpt>
      <trkpt lat="45.63349" lon="6.6894">
        <ele>2601.1999511719</ele>
        <time>2021-02-23T11:36:39.000Z</time>
      </trkpt>
      <trkpt lat="45.63348" lon="6.6894">
        <ele>2600.8000488281</ele>
        <time>2021-02-23T11:36:44.000Z</time>
      </trkpt>
      <trkpt lat="45.63348" lon="6.6894">
        <ele>2600.1999511719</ele>
        <time>2021-02-23T11:36:47.000Z</time>
      </trkpt>
      <trkpt lat="45.63346" lon="6.68937">
        <ele>2599.1999511719</ele>
        <time>2021-02-23T11:36:50.000Z</time>
      </trkpt>
      <trkpt lat="45.63346" lon="6.68937">
        <ele>2598.8000488281</ele>
        <time>2021-02-23T11:36:51.000Z</time>
      </trkpt>
      <trkpt lat="45.63345" lon="6.68936">
        <ele>2598</ele>
        <time>2021-02-23T11:36:54.000Z</time>
      </trkpt>
      <trkpt lat="45.63345" lon="6.68936">
        <ele>2596</ele>
        <time>2021-02-23T11:36:56.000Z</time>
      </trkpt>
      <trkpt lat="45.63345" lon="6.68936">
        <ele>2595</ele>
        <time>2021-02-23T11:36:57.000Z</time>
      </trkpt>
      <trkpt lat="45.63345" lon="6.68936">
        <ele>2593.8000488281</ele>
        <time>2021-02-23T11:36:59.000Z</time>
      </trkpt>
      <trkpt lat="45.63345" lon="6.68936">
        <ele>2595</ele>
        <time>2021-02-23T11:37:01.000Z</time>
      </trkpt>
      <trkpt lat="45.63345" lon="6.68936">
        <ele>2597.6000976562</ele>
        <time>2021-02-23T11:37:02.000Z</time>
      </trkpt>
      <trkpt lat="45.63345" lon="6.68936">
        <ele>2599.6000976562</ele>
        <time>2021-02-23T11:37:03.000Z</time>
      </trkpt>
      <trkpt lat="45.63345" lon="6.68936">
        <ele>2601.1999511719</ele>
        <time>2021-02-23T11:37:04.000Z</time>
      </trkpt>
      <trkpt lat="45.63345" lon="6.68936">
        <ele>2599.1999511719</ele>
        <time>2021-02-23T11:37:06.000Z</time>
      </trkpt>
      <trkpt lat="45.63345" lon="6.68937">
        <ele>2597.6000976562</ele>
        <time>2021-02-23T11:37:08.000Z</time>
      </trkpt>
      <trkpt lat="45.63345" lon="6.68937">
        <ele>2598.6000976562</ele>
        <time>2021-02-23T11:37:13.000Z</time>
      </trkpt>
      <trkpt lat="45.63344" lon="6.68937">
        <ele>2597.3999023438</ele>
        <time>2021-02-23T11:37:15.000Z</time>
      </trkpt>
      <trkpt lat="45.63344" lon="6.68937">
        <ele>2596</ele>
        <time>2021-02-23T11:37:16.000Z</time>
      </trkpt>
      <trkpt lat="45.63343" lon="6.68935">
        <ele>2594.1999511719</ele>
        <time>2021-02-23T11:37:18.000Z</time>
      </trkpt>
      <trkpt lat="45.63343" lon="6.68935">
        <ele>2593.1999511719</ele>
        <time>2021-02-23T11:37:19.000Z</time>
      </trkpt>
      <trkpt lat="45.63343" lon="6.68935">
        <ele>2591.8000488281</ele>
        <time>2021-02-23T11:37:20.000Z</time>
      </trkpt>
      <trkpt lat="45.63343" lon="6.68935">
        <ele>2593.1999511719</ele>
        <time>2021-02-23T11:37:23.000Z</time>
      </trkpt>
      <trkpt lat="45.63342" lon="6.68938">
        <ele>2594</ele>
        <time>2021-02-23T11:37:24.000Z</time>
      </trkpt>
      <trkpt lat="45.63341" lon="6.68941">
        <ele>2594.6000976562</ele>
        <time>2021-02-23T11:37:25.000Z</time>
      </trkpt>
      <trkpt lat="45.63341" lon="6.68944">
        <ele>2595</ele>
        <time>2021-02-23T11:37:26.000Z</time>
      </trkpt>
      <trkpt lat="45.63341" lon="6.68947">
        <ele>2593.1999511719</ele>
        <time>2021-02-23T11:37:28.000Z</time>
      </trkpt>
      <trkpt lat="45.63341" lon="6.68948">
        <ele>2591.1999511719</ele>
        <time>2021-02-23T11:37:29.000Z</time>
      </trkpt>
      <trkpt lat="45.63341" lon="6.68948">
        <ele>2589.8000488281</ele>
        <time>2021-02-23T11:37:30.000Z</time>
      </trkpt>
      <trkpt lat="45.63341" lon="6.68949">
        <ele>2589</ele>
        <time>2021-02-23T11:37:31.000Z</time>
      </trkpt>
      <trkpt lat="45.63341" lon="6.68949">
        <ele>2588.3999023438</ele>
        <time>2021-02-23T11:37:32.000Z</time>
      </trkpt>
      <trkpt lat="45.63339" lon="6.6895">
        <ele>2588</ele>
        <time>2021-02-23T11:37:34.000Z</time>
      </trkpt>
      <trkpt lat="45.63338" lon="6.68945">
        <ele>2587.6000976562</ele>
        <time>2021-02-23T11:37:36.000Z</time>
      </trkpt>
      <trkpt lat="45.63338" lon="6.68944">
        <ele>2586.8000488281</ele>
        <time>2021-02-23T11:37:37.000Z</time>
      </trkpt>
      <trkpt lat="45.63337" lon="6.68944">
        <ele>2585</ele>
        <time>2021-02-23T11:37:39.000Z</time>
      </trkpt>
      <trkpt lat="45.63337" lon="6.68944">
        <ele>2584.1999511719</ele>
        <time>2021-02-23T11:37:40.000Z</time>
      </trkpt>
      <trkpt lat="45.63337" lon="6.68944">
        <ele>2583.1999511719</ele>
        <time>2021-02-23T11:37:41.000Z</time>
      </trkpt>
      <trkpt lat="45.63337" lon="6.68944">
        <ele>2584.3999023438</ele>
        <time>2021-02-23T11:37:50.000Z</time>
      </trkpt>
      <trkpt lat="45.63336" lon="6.68945">
        <ele>2583.1999511719</ele>
        <time>2021-02-23T11:37:53.000Z</time>
      </trkpt>
      <trkpt lat="45.63335" lon="6.68947">
        <ele>2582.8000488281</ele>
        <time>2021-02-23T11:38:05.000Z</time>
      </trkpt>
      <trkpt lat="45.63335" lon="6.68947">
        <ele>2582.1999511719</ele>
        <time>2021-02-23T11:38:19.000Z</time>
      </trkpt>
      <trkpt lat="45.63335" lon="6.68947">
        <ele>2580.8000488281</ele>
        <time>2021-02-23T11:38:21.000Z</time>
      </trkpt>
      <trkpt lat="45.63335" lon="6.68947">
        <ele>2580.3999023438</ele>
        <time>2021-02-23T11:38:22.000Z</time>
      </trkpt>
      <trkpt lat="45.63335" lon="6.68947">
        <ele>2583</ele>
        <time>2021-02-23T11:38:24.000Z</time>
      </trkpt>
      <trkpt lat="45.63335" lon="6.68947">
        <ele>2584.3999023438</ele>
        <time>2021-02-23T11:38:25.000Z</time>
      </trkpt>
      <trkpt lat="45.63335" lon="6.68947">
        <ele>2585.6000976562</ele>
        <time>2021-02-23T11:38:27.000Z</time>
      </trkpt>
      <trkpt lat="45.63335" lon="6.68947">
        <ele>2584.1999511719</ele>
        <time>2021-02-23T11:38:29.000Z</time>
      </trkpt>
      <trkpt lat="45.63335" lon="6.68947">
        <ele>2583.1999511719</ele>
        <time>2021-02-23T11:38:33.000Z</time>
      </trkpt>
      <trkpt lat="45.63334" lon="6.68945">
        <ele>2582.6000976562</ele>
        <time>2021-02-23T11:38:35.000Z</time>
      </trkpt>
      <trkpt lat="45.63331" lon="6.6895">
        <ele>2582</ele>
        <time>2021-02-23T11:38:37.000Z</time>
      </trkpt>
      <trkpt lat="45.6333" lon="6.68952">
        <ele>2581.6000976562</ele>
        <time>2021-02-23T11:38:38.000Z</time>
      </trkpt>
      <trkpt lat="45.63327" lon="6.68948">
        <ele>2579.6000976562</ele>
        <time>2021-02-23T11:38:40.000Z</time>
      </trkpt>
      <trkpt lat="45.63324" lon="6.68951">
        <ele>2577.8000488281</ele>
        <time>2021-02-23T11:38:41.000Z</time>
      </trkpt>
      <trkpt lat="45.63323" lon="6.68954">
        <ele>2576.1999511719</ele>
        <time>2021-02-23T11:38:42.000Z</time>
      </trkpt>
      <trkpt lat="45.63321" lon="6.68957">
        <ele>2574.8000488281</ele>
        <time>2021-02-23T11:38:43.000Z</time>
      </trkpt>
      <trkpt lat="45.6332" lon="6.68957">
        <ele>2574</ele>
        <time>2021-02-23T11:38:44.000Z</time>
      </trkpt>
      <trkpt lat="45.63319" lon="6.68957">
        <ele>2573.1999511719</ele>
        <time>2021-02-23T11:38:45.000Z</time>
      </trkpt>
      <trkpt lat="45.63317" lon="6.68956">
        <ele>2571.6000976562</ele>
        <time>2021-02-23T11:38:46.000Z</time>
      </trkpt>
      <trkpt lat="45.63312" lon="6.6896">
        <ele>2570.1999511719</ele>
        <time>2021-02-23T11:38:48.000Z</time>
      </trkpt>
      <trkpt lat="45.63309" lon="6.68963">
        <ele>2568.1999511719</ele>
        <time>2021-02-23T11:38:49.000Z</time>
      </trkpt>
      <trkpt lat="45.63307" lon="6.68965">
        <ele>2566</ele>
        <time>2021-02-23T11:38:50.000Z</time>
      </trkpt>
      <trkpt lat="45.63306" lon="6.68966">
        <ele>2564.8000488281</ele>
        <time>2021-02-23T11:38:51.000Z</time>
      </trkpt>
      <trkpt lat="45.63304" lon="6.68967">
        <ele>2564.1999511719</ele>
        <time>2021-02-23T11:38:52.000Z</time>
      </trkpt>
      <trkpt lat="45.63303" lon="6.68968">
        <ele>2563.6000976562</ele>
        <time>2021-02-23T11:38:53.000Z</time>
      </trkpt>
      <trkpt lat="45.63298" lon="6.68973">
        <ele>2562.6000976562</ele>
        <time>2021-02-23T11:38:55.000Z</time>
      </trkpt>
      <trkpt lat="45.63296" lon="6.6898">
        <ele>2562</ele>
        <time>2021-02-23T11:38:56.000Z</time>
      </trkpt>
      <trkpt lat="45.63295" lon="6.68987">
        <ele>2561.1999511719</ele>
        <time>2021-02-23T11:38:57.000Z</time>
      </trkpt>
      <trkpt lat="45.63294" lon="6.68995">
        <ele>2559.8000488281</ele>
        <time>2021-02-23T11:38:58.000Z</time>
      </trkpt>
      <trkpt lat="45.63294" lon="6.69001">
        <ele>2558</ele>
        <time>2021-02-23T11:38:59.000Z</time>
      </trkpt>
      <trkpt lat="45.63294" lon="6.69007">
        <ele>2556.1999511719</ele>
        <time>2021-02-23T11:39:00.000Z</time>
      </trkpt>
      <trkpt lat="45.63293" lon="6.69009">
        <ele>2554.6000976562</ele>
        <time>2021-02-23T11:39:01.000Z</time>
      </trkpt>
      <trkpt lat="45.63292" lon="6.6901">
        <ele>2553.1999511719</ele>
        <time>2021-02-23T11:39:02.000Z</time>
      </trkpt>
      <trkpt lat="45.63292" lon="6.69011">
        <ele>2552.1999511719</ele>
        <time>2021-02-23T11:39:03.000Z</time>
      </trkpt>
      <trkpt lat="45.63293" lon="6.6901">
        <ele>2551.3999023438</ele>
        <time>2021-02-23T11:39:04.000Z</time>
      </trkpt>
      <trkpt lat="45.63293" lon="6.6901">
        <ele>2551.1999511719</ele>
        <time>2021-02-23T11:39:08.000Z</time>
      </trkpt>
      <trkpt lat="45.63293" lon="6.69005">
        <ele>2549.6000976562</ele>
        <time>2021-02-23T11:39:12.000Z</time>
      </trkpt>
      <trkpt lat="45.63293" lon="6.69005">
        <ele>2548.6000976562</ele>
        <time>2021-02-23T11:39:14.000Z</time>
      </trkpt>
      <trkpt lat="45.63293" lon="6.69005">
        <ele>2549.6000976562</ele>
        <time>2021-02-23T11:39:24.000Z</time>
      </trkpt>
      <trkpt lat="45.63293" lon="6.69005">
        <ele>2550.1999511719</ele>
        <time>2021-02-23T11:39:26.000Z</time>
      </trkpt>
      <trkpt lat="45.63293" lon="6.69005">
        <ele>2548.3999023438</ele>
        <time>2021-02-23T11:39:37.000Z</time>
      </trkpt>
      <trkpt lat="45.63293" lon="6.69005">
        <ele>2547.3999023438</ele>
        <time>2021-02-23T11:39:41.000Z</time>
      </trkpt>
      <trkpt lat="45.63293" lon="6.69005">
        <ele>2548.3999023438</ele>
        <time>2021-02-23T11:39:44.000Z</time>
      </trkpt>
      <trkpt lat="45.63293" lon="6.69005">
        <ele>2549.3999023438</ele>
        <time>2021-02-23T11:39:45.000Z</time>
      </trkpt>
      <trkpt lat="45.63293" lon="6.69005">
        <ele>2549.8000488281</ele>
        <time>2021-02-23T11:39:46.000Z</time>
      </trkpt>
      <trkpt lat="45.63291" lon="6.69003">
        <ele>2549.3999023438</ele>
        <time>2021-02-23T11:39:51.000Z</time>
      </trkpt>
      <trkpt lat="45.6329" lon="6.69006">
        <ele>2549.8000488281</ele>
        <time>2021-02-23T11:39:52.000Z</time>
      </trkpt>
      <trkpt lat="45.63282" lon="6.69003">
        <ele>2547.8000488281</ele>
        <time>2021-02-23T11:39:56.000Z</time>
      </trkpt>
      <trkpt lat="45.63279" lon="6.69003">
        <ele>2546</ele>
        <time>2021-02-23T11:39:57.000Z</time>
      </trkpt>
      <trkpt lat="45.63276" lon="6.69006">
        <ele>2544.3999023438</ele>
        <time>2021-02-23T11:39:58.000Z</time>
      </trkpt>
      <trkpt lat="45.63275" lon="6.69013">
        <ele>2543.6000976562</ele>
        <time>2021-02-23T11:39:59.000Z</time>
      </trkpt>
      <trkpt lat="45.63273" lon="6.69018">
        <ele>2542.6000976562</ele>
        <time>2021-02-23T11:40:00.000Z</time>
      </trkpt>
      <trkpt lat="45.63272" lon="6.69022">
        <ele>2541</ele>
        <time>2021-02-23T11:40:01.000Z</time>
      </trkpt>
      <trkpt lat="45.6327" lon="6.69025">
        <ele>2539.1999511719</ele>
        <time>2021-02-23T11:40:02.000Z</time>
      </trkpt>
      <trkpt lat="45.63269" lon="6.69028">
        <ele>2537.6000976562</ele>
        <time>2021-02-23T11:40:03.000Z</time>
      </trkpt>
      <trkpt lat="45.63268" lon="6.69032">
        <ele>2536.3999023438</ele>
        <time>2021-02-23T11:40:04.000Z</time>
      </trkpt>
      <trkpt lat="45.63266" lon="6.69038">
        <ele>2535.3999023438</ele>
        <time>2021-02-23T11:40:06.000Z</time>
      </trkpt>
      <trkpt lat="45.63263" lon="6.69045">
        <ele>2534.1999511719</ele>
        <time>2021-02-23T11:40:09.000Z</time>
      </trkpt>
      <trkpt lat="45.63262" lon="6.69046">
        <ele>2533.1999511719</ele>
        <time>2021-02-23T11:40:13.000Z</time>
      </trkpt>
      <trkpt lat="45.63262" lon="6.69046">
        <ele>2533.1999511719</ele>
        <time>2021-02-23T11:40:14.000Z</time>
      </trkpt>
      <trkpt lat="45.63262" lon="6.69046">
        <ele>2532.8000488281</ele>
        <time>2021-02-23T11:40:33.000Z</time>
      </trkpt>
      <trkpt lat="45.63261" lon="6.69045">
        <ele>2532.3999023438</ele>
        <time>2021-02-23T11:40:42.000Z</time>
      </trkpt>
      <trkpt lat="45.63261" lon="6.69039">
        <ele>2532</ele>
        <time>2021-02-23T11:40:43.000Z</time>
      </trkpt>
      <trkpt lat="45.63256" lon="6.69039">
        <ele>2530.8000488281</ele>
        <time>2021-02-23T11:40:45.000Z</time>
      </trkpt>
      <trkpt lat="45.63253" lon="6.69034">
        <ele>2530.1999511719</ele>
        <time>2021-02-23T11:40:46.000Z</time>
      </trkpt>
      <trkpt lat="45.6325" lon="6.69026">
        <ele>2529.1999511719</ele>
        <time>2021-02-23T11:40:47.000Z</time>
      </trkpt>
      <trkpt lat="45.63246" lon="6.69023">
        <ele>2527</ele>
        <time>2021-02-23T11:40:48.000Z</time>
      </trkpt>
      <trkpt lat="45.63243" lon="6.69024">
        <ele>2524.6000976562</ele>
        <time>2021-02-23T11:40:49.000Z</time>
      </trkpt>
      <trkpt lat="45.63238" lon="6.69029">
        <ele>2522.6000976562</ele>
        <time>2021-02-23T11:40:50.000Z</time>
      </trkpt>
      <trkpt lat="45.63234" lon="6.69036">
        <ele>2521</ele>
        <time>2021-02-23T11:40:51.000Z</time>
      </trkpt>
      <trkpt lat="45.63231" lon="6.69043">
        <ele>2519</ele>
        <time>2021-02-23T11:40:52.000Z</time>
      </trkpt>
      <trkpt lat="45.63228" lon="6.6905">
        <ele>2516.3999023438</ele>
        <time>2021-02-23T11:40:53.000Z</time>
      </trkpt>
      <trkpt lat="45.63226" lon="6.69053">
        <ele>2513.8000488281</ele>
        <time>2021-02-23T11:40:54.000Z</time>
      </trkpt>
      <trkpt lat="45.63224" lon="6.69055">
        <ele>2511.8000488281</ele>
        <time>2021-02-23T11:40:55.000Z</time>
      </trkpt>
      <trkpt lat="45.6322" lon="6.69055">
        <ele>2509.8000488281</ele>
        <time>2021-02-23T11:40:56.000Z</time>
      </trkpt>
      <trkpt lat="45.63216" lon="6.69058">
        <ele>2507.8000488281</ele>
        <time>2021-02-23T11:40:57.000Z</time>
      </trkpt>
      <trkpt lat="45.63212" lon="6.69057">
        <ele>2506.1999511719</ele>
        <time>2021-02-23T11:40:58.000Z</time>
      </trkpt>
      <trkpt lat="45.6321" lon="6.69051">
        <ele>2504.8000488281</ele>
        <time>2021-02-23T11:40:59.000Z</time>
      </trkpt>
      <trkpt lat="45.63208" lon="6.69049">
        <ele>2503</ele>
        <time>2021-02-23T11:41:00.000Z</time>
      </trkpt>
      <trkpt lat="45.63203" lon="6.69052">
        <ele>2500.3999023438</ele>
        <time>2021-02-23T11:41:01.000Z</time>
      </trkpt>
      <trkpt lat="45.63199" lon="6.69051">
        <ele>2498.1999511719</ele>
        <time>2021-02-23T11:41:02.000Z</time>
      </trkpt>
      <trkpt lat="45.63197" lon="6.69047">
        <ele>2496.6000976562</ele>
        <time>2021-02-23T11:41:03.000Z</time>
      </trkpt>
      <trkpt lat="45.63192" lon="6.69042">
        <ele>2491.1999511719</ele>
        <time>2021-02-23T11:41:04.000Z</time>
      </trkpt>
      <trkpt lat="45.63187" lon="6.6904">
        <ele>2487.3999023438</ele>
        <time>2021-02-23T11:41:05.000Z</time>
      </trkpt>
      <trkpt lat="45.63184" lon="6.69038">
        <ele>2484.6000976562</ele>
        <time>2021-02-23T11:41:06.000Z</time>
      </trkpt>
      <trkpt lat="45.6318" lon="6.69035">
        <ele>2483</ele>
        <time>2021-02-23T11:41:07.000Z</time>
      </trkpt>
      <trkpt lat="45.63176" lon="6.6903">
        <ele>2481.6000976562</ele>
        <time>2021-02-23T11:41:08.000Z</time>
      </trkpt>
      <trkpt lat="45.63172" lon="6.69027">
        <ele>2479.8000488281</ele>
        <time>2021-02-23T11:41:09.000Z</time>
      </trkpt>
      <trkpt lat="45.63168" lon="6.69027">
        <ele>2478</ele>
        <time>2021-02-23T11:41:10.000Z</time>
      </trkpt>
      <trkpt lat="45.63163" lon="6.69028">
        <ele>2476.3999023438</ele>
        <time>2021-02-23T11:41:11.000Z</time>
      </trkpt>
      <trkpt lat="45.63159" lon="6.69025">
        <ele>2474</ele>
        <time>2021-02-23T11:41:12.000Z</time>
      </trkpt>
      <trkpt lat="45.63156" lon="6.69022">
        <ele>2470.1999511719</ele>
        <time>2021-02-23T11:41:13.000Z</time>
      </trkpt>
      <trkpt lat="45.63151" lon="6.69023">
        <ele>2466.1999511719</ele>
        <time>2021-02-23T11:41:14.000Z</time>
      </trkpt>
      <trkpt lat="45.63146" lon="6.69025">
        <ele>2463.6000976562</ele>
        <time>2021-02-23T11:41:15.000Z</time>
      </trkpt>
      <trkpt lat="45.63143" lon="6.69027">
        <ele>2462.1999511719</ele>
        <time>2021-02-23T11:41:16.000Z</time>
      </trkpt>
      <trkpt lat="45.63142" lon="6.69029">
        <ele>2460.8000488281</ele>
        <time>2021-02-23T11:41:17.000Z</time>
      </trkpt>
      <trkpt lat="45.63142" lon="6.6903">
        <ele>2458.8000488281</ele>
        <time>2021-02-23T11:41:18.000Z</time>
      </trkpt>
      <trkpt lat="45.63141" lon="6.69031">
        <ele>2456.6000976562</ele>
        <time>2021-02-23T11:41:19.000Z</time>
      </trkpt>
      <trkpt lat="45.63141" lon="6.69032">
        <ele>2454.8000488281</ele>
        <time>2021-02-23T11:41:20.000Z</time>
      </trkpt>
      <trkpt lat="45.63141" lon="6.69033">
        <ele>2453.6000976562</ele>
        <time>2021-02-23T11:41:21.000Z</time>
      </trkpt>
      <trkpt lat="45.63141" lon="6.69033">
        <ele>2452.3999023438</ele>
        <time>2021-02-23T11:41:23.000Z</time>
      </trkpt>
      <trkpt lat="45.63141" lon="6.69033">
        <ele>2452</ele>
        <time>2021-02-23T11:41:27.000Z</time>
      </trkpt>
      <trkpt lat="45.63141" lon="6.69033">
        <ele>2452</ele>
        <time>2021-02-23T11:41:40.000Z</time>
      </trkpt>
      <trkpt lat="45.63141" lon="6.69033">
        <ele>2452</ele>
        <time>2021-02-23T11:41:52.000Z</time>
      </trkpt>
      <trkpt lat="45.63139" lon="6.69033">
        <ele>2451.8000488281</ele>
        <time>2021-02-23T11:42:06.000Z</time>
      </trkpt>
      <trkpt lat="45.63139" lon="6.69033">
        <ele>2452</ele>
        <time>2021-02-23T11:42:19.000Z</time>
      </trkpt>
      <trkpt lat="45.63139" lon="6.69033">
        <ele>2451.8000488281</ele>
        <time>2021-02-23T11:42:31.000Z</time>
      </trkpt>
      <trkpt lat="45.63139" lon="6.69032">
        <ele>2451.6000976562</ele>
        <time>2021-02-23T11:42:46.000Z</time>
      </trkpt>
      <trkpt lat="45.63139" lon="6.69032">
        <ele>2452</ele>
        <time>2021-02-23T11:42:58.000Z</time>
      </trkpt>
      <trkpt lat="45.63139" lon="6.69032">
        <ele>2452</ele>
        <time>2021-02-23T11:43:10.000Z</time>
      </trkpt>
      <trkpt lat="45.63137" lon="6.69032">
        <ele>2451.8000488281</ele>
        <time>2021-02-23T11:43:22.000Z</time>
      </trkpt>
      <trkpt lat="45.63137" lon="6.69032">
        <ele>2452</ele>
        <time>2021-02-23T11:43:37.000Z</time>
      </trkpt>
      <trkpt lat="45.63137" lon="6.69032">
        <ele>2452</ele>
        <time>2021-02-23T11:43:52.000Z</time>
      </trkpt>
      <trkpt lat="45.63134" lon="6.69036">
        <ele>2451.8000488281</ele>
        <time>2021-02-23T11:44:01.000Z</time>
      </trkpt>
      <trkpt lat="45.63128" lon="6.69055">
        <ele>2451.1999511719</ele>
        <time>2021-02-23T11:44:04.000Z</time>
      </trkpt>
      <trkpt lat="45.63124" lon="6.6906">
        <ele>2450.6000976562</ele>
        <time>2021-02-23T11:44:05.000Z</time>
      </trkpt>
      <trkpt lat="45.6312" lon="6.69067">
        <ele>2450</ele>
        <time>2021-02-23T11:44:06.000Z</time>
      </trkpt>
      <trkpt lat="45.63117" lon="6.69074">
        <ele>2449.6000976562</ele>
        <time>2021-02-23T11:44:07.000Z</time>
      </trkpt>
      <trkpt lat="45.63115" lon="6.69079">
        <ele>2448.8000488281</ele>
        <time>2021-02-23T11:44:08.000Z</time>
      </trkpt>
      <trkpt lat="45.63113" lon="6.69084">
        <ele>2448</ele>
        <time>2021-02-23T11:44:09.000Z</time>
      </trkpt>
      <trkpt lat="45.63111" lon="6.69088">
        <ele>2447.1999511719</ele>
        <time>2021-02-23T11:44:10.000Z</time>
      </trkpt>
      <trkpt lat="45.63108" lon="6.69097">
        <ele>2445.8000488281</ele>
        <time>2021-02-23T11:44:12.000Z</time>
      </trkpt>
      <trkpt lat="45.63105" lon="6.69103">
        <ele>2444.6000976562</ele>
        <time>2021-02-23T11:44:14.000Z</time>
      </trkpt>
      <trkpt lat="45.63105" lon="6.69105">
        <ele>2444</ele>
        <time>2021-02-23T11:44:15.000Z</time>
      </trkpt>
      <trkpt lat="45.63104" lon="6.69106">
        <ele>2443.3999023438</ele>
        <time>2021-02-23T11:44:16.000Z</time>
      </trkpt>
      <trkpt lat="45.63103" lon="6.69099">
        <ele>2442</ele>
        <time>2021-02-23T11:44:18.000Z</time>
      </trkpt>
      <trkpt lat="45.631" lon="6.69096">
        <ele>2440.6000976562</ele>
        <time>2021-02-23T11:44:20.000Z</time>
      </trkpt>
      <trkpt lat="45.63097" lon="6.69099">
        <ele>2439.6000976562</ele>
        <time>2021-02-23T11:44:21.000Z</time>
      </trkpt>
      <trkpt lat="45.63093" lon="6.69103">
        <ele>2438.1999511719</ele>
        <time>2021-02-23T11:44:22.000Z</time>
      </trkpt>
      <trkpt lat="45.6309" lon="6.69108">
        <ele>2436.6000976562</ele>
        <time>2021-02-23T11:44:23.000Z</time>
      </trkpt>
      <trkpt lat="45.63087" lon="6.69111">
        <ele>2435.6000976562</ele>
        <time>2021-02-23T11:44:24.000Z</time>
      </trkpt>
      <trkpt lat="45.63084" lon="6.6911">
        <ele>2433.8000488281</ele>
        <time>2021-02-23T11:44:25.000Z</time>
      </trkpt>
      <trkpt lat="45.63078" lon="6.69113">
        <ele>2431.8000488281</ele>
        <time>2021-02-23T11:44:26.000Z</time>
      </trkpt>
      <trkpt lat="45.63074" lon="6.69116">
        <ele>2429.8000488281</ele>
        <time>2021-02-23T11:44:27.000Z</time>
      </trkpt>
      <trkpt lat="45.63067" lon="6.69115">
        <ele>2427.8000488281</ele>
        <time>2021-02-23T11:44:28.000Z</time>
      </trkpt>
      <trkpt lat="45.63062" lon="6.69112">
        <ele>2425.1999511719</ele>
        <time>2021-02-23T11:44:29.000Z</time>
      </trkpt>
      <trkpt lat="45.63055" lon="6.69111">
        <ele>2422</ele>
        <time>2021-02-23T11:44:30.000Z</time>
      </trkpt>
      <trkpt lat="45.63049" lon="6.69112">
        <ele>2419.3999023438</ele>
        <time>2021-02-23T11:44:31.000Z</time>
      </trkpt>
      <trkpt lat="45.63043" lon="6.69114">
        <ele>2417.8000488281</ele>
        <time>2021-02-23T11:44:32.000Z</time>
      </trkpt>
      <trkpt lat="45.63039" lon="6.69117">
        <ele>2416</ele>
        <time>2021-02-23T11:44:33.000Z</time>
      </trkpt>
      <trkpt lat="45.63035" lon="6.69121">
        <ele>2413.6000976562</ele>
        <time>2021-02-23T11:44:34.000Z</time>
      </trkpt>
      <trkpt lat="45.63033" lon="6.69124">
        <ele>2411.1999511719</ele>
        <time>2021-02-23T11:44:35.000Z</time>
      </trkpt>
      <trkpt lat="45.6303" lon="6.69125">
        <ele>2408.8000488281</ele>
        <time>2021-02-23T11:44:36.000Z</time>
      </trkpt>
      <trkpt lat="45.63025" lon="6.69126">
        <ele>2407</ele>
        <time>2021-02-23T11:44:37.000Z</time>
      </trkpt>
      <trkpt lat="45.63017" lon="6.6913">
        <ele>2405.6000976562</ele>
        <time>2021-02-23T11:44:38.000Z</time>
      </trkpt>
      <trkpt lat="45.63012" lon="6.69132">
        <ele>2404.3999023438</ele>
        <time>2021-02-23T11:44:39.000Z</time>
      </trkpt>
      <trkpt lat="45.6301" lon="6.69135">
        <ele>2403</ele>
        <time>2021-02-23T11:44:40.000Z</time>
      </trkpt>
      <trkpt lat="45.63005" lon="6.69137">
        <ele>2397.6000976562</ele>
        <time>2021-02-23T11:44:41.000Z</time>
      </trkpt>
      <trkpt lat="45.62999" lon="6.69136">
        <ele>2395.6000976562</ele>
        <time>2021-02-23T11:44:42.000Z</time>
      </trkpt>
      <trkpt lat="45.62993" lon="6.69134">
        <ele>2394</ele>
        <time>2021-02-23T11:44:43.000Z</time>
      </trkpt>
      <trkpt lat="45.62988" lon="6.69135">
        <ele>2392.1999511719</ele>
        <time>2021-02-23T11:44:44.000Z</time>
      </trkpt>
      <trkpt lat="45.62983" lon="6.69136">
        <ele>2389.8000488281</ele>
        <time>2021-02-23T11:44:45.000Z</time>
      </trkpt>
      <trkpt lat="45.62978" lon="6.69136">
        <ele>2387.3999023438</ele>
        <time>2021-02-23T11:44:46.000Z</time>
      </trkpt>
      <trkpt lat="45.62974" lon="6.69137">
        <ele>2385.8000488281</ele>
        <time>2021-02-23T11:44:47.000Z</time>
      </trkpt>
      <trkpt lat="45.62967" lon="6.69136">
        <ele>2384.1999511719</ele>
        <time>2021-02-23T11:44:49.000Z</time>
      </trkpt>
      <trkpt lat="45.62963" lon="6.69135">
        <ele>2383.6000976562</ele>
        <time>2021-02-23T11:44:51.000Z</time>
      </trkpt>
      <trkpt lat="45.62969" lon="6.69132">
        <ele>2383.1999511719</ele>
        <time>2021-02-23T11:44:55.000Z</time>
      </trkpt>
      <trkpt lat="45.62971" lon="6.69132">
        <ele>2383.1999511719</ele>
        <time>2021-02-23T11:44:56.000Z</time>
      </trkpt>
      <trkpt lat="45.62972" lon="6.69121">
        <ele>2383.1999511719</ele>
        <time>2021-02-23T11:45:02.000Z</time>
      </trkpt>
      <trkpt lat="45.62977" lon="6.69116">
        <ele>2383.1999511719</ele>
        <time>2021-02-23T11:45:13.000Z</time>
      </trkpt>
      <trkpt lat="45.62977" lon="6.69116">
        <ele>2383.1999511719</ele>
        <time>2021-02-23T11:45:26.000Z</time>
      </trkpt>
      <trkpt lat="45.62977" lon="6.69116">
        <ele>2383</ele>
        <time>2021-02-23T11:45:43.000Z</time>
      </trkpt>
      <trkpt lat="45.62979" lon="6.69115">
        <ele>2382.8000488281</ele>
        <time>2021-02-23T11:45:54.000Z</time>
      </trkpt>
      <trkpt lat="45.62958" lon="6.69117">
        <ele>2382.1999511719</ele>
        <time>2021-02-23T11:45:58.000Z</time>
      </trkpt>
      <trkpt lat="45.6295" lon="6.69113">
        <ele>2380.8000488281</ele>
        <time>2021-02-23T11:46:00.000Z</time>
      </trkpt>
      <trkpt lat="45.62948" lon="6.69107">
        <ele>2380.1999511719</ele>
        <time>2021-02-23T11:46:01.000Z</time>
      </trkpt>
      <trkpt lat="45.62943" lon="6.69105">
        <ele>2379.3999023438</ele>
        <time>2021-02-23T11:46:02.000Z</time>
      </trkpt>
      <trkpt lat="45.62939" lon="6.69102">
        <ele>2378.3999023438</ele>
        <time>2021-02-23T11:46:03.000Z</time>
      </trkpt>
      <trkpt lat="45.62936" lon="6.69096">
        <ele>2376.8000488281</ele>
        <time>2021-02-23T11:46:04.000Z</time>
      </trkpt>
      <trkpt lat="45.6293" lon="6.69094">
        <ele>2375</ele>
        <time>2021-02-23T11:46:05.000Z</time>
      </trkpt>
      <trkpt lat="45.62925" lon="6.69087">
        <ele>2373</ele>
        <time>2021-02-23T11:46:06.000Z</time>
      </trkpt>
      <trkpt lat="45.6292" lon="6.69078">
        <ele>2370.8000488281</ele>
        <time>2021-02-23T11:46:07.000Z</time>
      </trkpt>
      <trkpt lat="45.62914" lon="6.69072">
        <ele>2368.1999511719</ele>
        <time>2021-02-23T11:46:08.000Z</time>
      </trkpt>
      <trkpt lat="45.62908" lon="6.69069">
        <ele>2365.6000976562</ele>
        <time>2021-02-23T11:46:09.000Z</time>
      </trkpt>
      <trkpt lat="45.62902" lon="6.69068">
        <ele>2363.1999511719</ele>
        <time>2021-02-23T11:46:10.000Z</time>
      </trkpt>
      <trkpt lat="45.62894" lon="6.69069">
        <ele>2361</ele>
        <time>2021-02-23T11:46:11.000Z</time>
      </trkpt>
      <trkpt lat="45.62886" lon="6.69064">
        <ele>2359</ele>
        <time>2021-02-23T11:46:12.000Z</time>
      </trkpt>
      <trkpt lat="45.62879" lon="6.69063">
        <ele>2357</ele>
        <time>2021-02-23T11:46:13.000Z</time>
      </trkpt>
      <trkpt lat="45.62873" lon="6.69065">
        <ele>2354.8000488281</ele>
        <time>2021-02-23T11:46:14.000Z</time>
      </trkpt>
      <trkpt lat="45.62867" lon="6.69067">
        <ele>2352.3999023438</ele>
        <time>2021-02-23T11:46:15.000Z</time>
      </trkpt>
      <trkpt lat="45.6286" lon="6.69067">
        <ele>2350</ele>
        <time>2021-02-23T11:46:16.000Z</time>
      </trkpt>
      <trkpt lat="45.62852" lon="6.69067">
        <ele>2345.6000976562</ele>
        <time>2021-02-23T11:46:17.000Z</time>
      </trkpt>
      <trkpt lat="45.62846" lon="6.69066">
        <ele>2343.1999511719</ele>
        <time>2021-02-23T11:46:18.000Z</time>
      </trkpt>
      <trkpt lat="45.62842" lon="6.69068">
        <ele>2341.1999511719</ele>
        <time>2021-02-23T11:46:19.000Z</time>
      </trkpt>
      <trkpt lat="45.62837" lon="6.69071">
        <ele>2339.8000488281</ele>
        <time>2021-02-23T11:46:20.000Z</time>
      </trkpt>
      <trkpt lat="45.62829" lon="6.69076">
        <ele>2337.6000976562</ele>
        <time>2021-02-23T11:46:22.000Z</time>
      </trkpt>
      <trkpt lat="45.62825" lon="6.69073">
        <ele>2335.6000976562</ele>
        <time>2021-02-23T11:46:23.000Z</time>
      </trkpt>
      <trkpt lat="45.62822" lon="6.69067">
        <ele>2333.8000488281</ele>
        <time>2021-02-23T11:46:24.000Z</time>
      </trkpt>
      <trkpt lat="45.62819" lon="6.69064">
        <ele>2332.6000976562</ele>
        <time>2021-02-23T11:46:25.000Z</time>
      </trkpt>
      <trkpt lat="45.62813" lon="6.69061">
        <ele>2331.1999511719</ele>
        <time>2021-02-23T11:46:27.000Z</time>
      </trkpt>
      <trkpt lat="45.62808" lon="6.69062">
        <ele>2330.1999511719</ele>
        <time>2021-02-23T11:46:28.000Z</time>
      </trkpt>
      <trkpt lat="45.62802" lon="6.69067">
        <ele>2329.1999511719</ele>
        <time>2021-02-23T11:46:29.000Z</time>
      </trkpt>
      <trkpt lat="45.62796" lon="6.69071">
        <ele>2328</ele>
        <time>2021-02-23T11:46:30.000Z</time>
      </trkpt>
      <trkpt lat="45.6279" lon="6.69076">
        <ele>2326.1999511719</ele>
        <time>2021-02-23T11:46:31.000Z</time>
      </trkpt>
      <trkpt lat="45.62784" lon="6.69081">
        <ele>2324.1999511719</ele>
        <time>2021-02-23T11:46:32.000Z</time>
      </trkpt>
      <trkpt lat="45.62777" lon="6.69082">
        <ele>2322.1999511719</ele>
        <time>2021-02-23T11:46:33.000Z</time>
      </trkpt>
      <trkpt lat="45.62771" lon="6.69082">
        <ele>2320.6000976562</ele>
        <time>2021-02-23T11:46:34.000Z</time>
      </trkpt>
      <trkpt lat="45.62768" lon="6.69076">
        <ele>2318.8000488281</ele>
        <time>2021-02-23T11:46:35.000Z</time>
      </trkpt>
      <trkpt lat="45.62763" lon="6.69074">
        <ele>2317</ele>
        <time>2021-02-23T11:46:36.000Z</time>
      </trkpt>
      <trkpt lat="45.62756" lon="6.69074">
        <ele>2315.3999023438</ele>
        <time>2021-02-23T11:46:37.000Z</time>
      </trkpt>
      <trkpt lat="45.62749" lon="6.69073">
        <ele>2314</ele>
        <time>2021-02-23T11:46:38.000Z</time>
      </trkpt>
      <trkpt lat="45.62742" lon="6.69066">
        <ele>2312.3999023438</ele>
        <time>2021-02-23T11:46:39.000Z</time>
      </trkpt>
      <trkpt lat="45.62739" lon="6.69061">
        <ele>2311</ele>
        <time>2021-02-23T11:46:40.000Z</time>
      </trkpt>
      <trkpt lat="45.62734" lon="6.69057">
        <ele>2307.3999023438</ele>
        <time>2021-02-23T11:46:41.000Z</time>
      </trkpt>
      <trkpt lat="45.62728" lon="6.69057">
        <ele>2306.1999511719</ele>
        <time>2021-02-23T11:46:42.000Z</time>
      </trkpt>
      <trkpt lat="45.62721" lon="6.69057">
        <ele>2305</ele>
        <time>2021-02-23T11:46:43.000Z</time>
      </trkpt>
      <trkpt lat="45.62714" lon="6.69053">
        <ele>2303.3999023438</ele>
        <time>2021-02-23T11:46:44.000Z</time>
      </trkpt>
      <trkpt lat="45.62707" lon="6.69048">
        <ele>2300.8000488281</ele>
        <time>2021-02-23T11:46:45.000Z</time>
      </trkpt>
      <trkpt lat="45.627" lon="6.69042">
        <ele>2298.1999511719</ele>
        <time>2021-02-23T11:46:46.000Z</time>
      </trkpt>
      <trkpt lat="45.62693" lon="6.69033">
        <ele>2296.3999023438</ele>
        <time>2021-02-23T11:46:47.000Z</time>
      </trkpt>
      <trkpt lat="45.62686" lon="6.69028">
        <ele>2295.1999511719</ele>
        <time>2021-02-23T11:46:48.000Z</time>
      </trkpt>
      <trkpt lat="45.62679" lon="6.69026">
        <ele>2293.3999023438</ele>
        <time>2021-02-23T11:46:49.000Z</time>
      </trkpt>
      <trkpt lat="45.62672" lon="6.69026">
        <ele>2291</ele>
        <time>2021-02-23T11:46:50.000Z</time>
      </trkpt>
      <trkpt lat="45.62665" lon="6.69028">
        <ele>2288.6000976562</ele>
        <time>2021-02-23T11:46:51.000Z</time>
      </trkpt>
      <trkpt lat="45.62658" lon="6.69027">
        <ele>2286.6000976562</ele>
        <time>2021-02-23T11:46:52.000Z</time>
      </trkpt>
      <trkpt lat="45.62653" lon="6.69027">
        <ele>2284.8000488281</ele>
        <time>2021-02-23T11:46:53.000Z</time>
      </trkpt>
      <trkpt lat="45.62646" lon="6.69024">
        <ele>2282.8000488281</ele>
        <time>2021-02-23T11:46:54.000Z</time>
      </trkpt>
      <trkpt lat="45.6264" lon="6.69023">
        <ele>2280.8000488281</ele>
        <time>2021-02-23T11:46:55.000Z</time>
      </trkpt>
      <trkpt lat="45.62635" lon="6.69023">
        <ele>2279</ele>
        <time>2021-02-23T11:46:56.000Z</time>
      </trkpt>
      <trkpt lat="45.62629" lon="6.69022">
        <ele>2277.6000976562</ele>
        <time>2021-02-23T11:46:57.000Z</time>
      </trkpt>
      <trkpt lat="45.62627" lon="6.69026">
        <ele>2276.3999023438</ele>
        <time>2021-02-23T11:46:58.000Z</time>
      </trkpt>
      <trkpt lat="45.62623" lon="6.69031">
        <ele>2275.1999511719</ele>
        <time>2021-02-23T11:46:59.000Z</time>
      </trkpt>
      <trkpt lat="45.62619" lon="6.69035">
        <ele>2273.8000488281</ele>
        <time>2021-02-23T11:47:00.000Z</time>
      </trkpt>
      <trkpt lat="45.62617" lon="6.69041">
        <ele>2272.6000976562</ele>
        <time>2021-02-23T11:47:01.000Z</time>
      </trkpt>
      <trkpt lat="45.62615" lon="6.69046">
        <ele>2271.3999023438</ele>
        <time>2021-02-23T11:47:02.000Z</time>
      </trkpt>
      <trkpt lat="45.62615" lon="6.6905">
        <ele>2269.3999023438</ele>
        <time>2021-02-23T11:47:04.000Z</time>
      </trkpt>
      <trkpt lat="45.62613" lon="6.69042">
        <ele>2266.6000976562</ele>
        <time>2021-02-23T11:47:05.000Z</time>
      </trkpt>
      <trkpt lat="45.62606" lon="6.69043">
        <ele>2264.8000488281</ele>
        <time>2021-02-23T11:47:07.000Z</time>
      </trkpt>
      <trkpt lat="45.62602" lon="6.6904">
        <ele>2263.8000488281</ele>
        <time>2021-02-23T11:47:08.000Z</time>
      </trkpt>
      <trkpt lat="45.62598" lon="6.69036">
        <ele>2261.6000976562</ele>
        <time>2021-02-23T11:47:09.000Z</time>
      </trkpt>
      <trkpt lat="45.62595" lon="6.69034">
        <ele>2259</ele>
        <time>2021-02-23T11:47:10.000Z</time>
      </trkpt>
      <trkpt lat="45.62592" lon="6.69032">
        <ele>2256.8000488281</ele>
        <time>2021-02-23T11:47:11.000Z</time>
      </trkpt>
      <trkpt lat="45.6259" lon="6.69032">
        <ele>2255.3999023438</ele>
        <time>2021-02-23T11:47:12.000Z</time>
      </trkpt>
      <trkpt lat="45.62589" lon="6.69031">
        <ele>2254.1999511719</ele>
        <time>2021-02-23T11:47:13.000Z</time>
      </trkpt>
      <trkpt lat="45.62586" lon="6.69029">
        <ele>2252.8000488281</ele>
        <time>2021-02-23T11:47:14.000Z</time>
      </trkpt>
      <trkpt lat="45.62584" lon="6.69028">
        <ele>2251.6000976562</ele>
        <time>2021-02-23T11:47:15.000Z</time>
      </trkpt>
      <trkpt lat="45.62583" lon="6.69026">
        <ele>2250</ele>
        <time>2021-02-23T11:47:17.000Z</time>
      </trkpt>
      <trkpt lat="45.62583" lon="6.69026">
        <ele>2249.6000976562</ele>
        <time>2021-02-23T11:47:20.000Z</time>
      </trkpt>
      <trkpt lat="45.62582" lon="6.69026">
        <ele>2249</ele>
        <time>2021-02-23T11:47:34.000Z</time>
      </trkpt>
      <trkpt lat="45.62579" lon="6.69026">
        <ele>2249</ele>
        <time>2021-02-23T11:47:35.000Z</time>
      </trkpt>
      <trkpt lat="45.62568" lon="6.69035">
        <ele>2248.1999511719</ele>
        <time>2021-02-23T11:47:38.000Z</time>
      </trkpt>
      <trkpt lat="45.62565" lon="6.69036">
        <ele>2247.6000976562</ele>
        <time>2021-02-23T11:47:39.000Z</time>
      </trkpt>
      <trkpt lat="45.62562" lon="6.6904">
        <ele>2245.8000488281</ele>
        <time>2021-02-23T11:47:41.000Z</time>
      </trkpt>
      <trkpt lat="45.6256" lon="6.69041">
        <ele>2245</ele>
        <time>2021-02-23T11:47:42.000Z</time>
      </trkpt>
      <trkpt lat="45.62559" lon="6.69044">
        <ele>2244.3999023438</ele>
        <time>2021-02-23T11:47:43.000Z</time>
      </trkpt>
      <trkpt lat="45.6256" lon="6.69046">
        <ele>2243.6000976562</ele>
        <time>2021-02-23T11:47:47.000Z</time>
      </trkpt>
      <trkpt lat="45.6256" lon="6.69046">
        <ele>2243.3999023438</ele>
        <time>2021-02-23T11:47:48.000Z</time>
      </trkpt>
      <trkpt lat="45.62556" lon="6.6904">
        <ele>2243</ele>
        <time>2021-02-23T11:47:55.000Z</time>
      </trkpt>
      <trkpt lat="45.62543" lon="6.69039">
        <ele>2242.6000976562</ele>
        <time>2021-02-23T11:47:57.000Z</time>
      </trkpt>
      <trkpt lat="45.62536" lon="6.69039">
        <ele>2242</ele>
        <time>2021-02-23T11:47:58.000Z</time>
      </trkpt>
      <trkpt lat="45.6253" lon="6.69037">
        <ele>2240.8000488281</ele>
        <time>2021-02-23T11:47:59.000Z</time>
      </trkpt>
      <trkpt lat="45.62524" lon="6.69036">
        <ele>2239.3999023438</ele>
        <time>2021-02-23T11:48:00.000Z</time>
      </trkpt>
      <trkpt lat="45.62518" lon="6.69034">
        <ele>2238</ele>
        <time>2021-02-23T11:48:01.000Z</time>
      </trkpt>
      <trkpt lat="45.62512" lon="6.69033">
        <ele>2237</ele>
        <time>2021-02-23T11:48:02.000Z</time>
      </trkpt>
      <trkpt lat="45.62501" lon="6.69029">
        <ele>2235.1999511719</ele>
        <time>2021-02-23T11:48:04.000Z</time>
      </trkpt>
      <trkpt lat="45.62491" lon="6.69025">
        <ele>2233.8000488281</ele>
        <time>2021-02-23T11:48:06.000Z</time>
      </trkpt>
      <trkpt lat="45.62486" lon="6.69024">
        <ele>2233</ele>
        <time>2021-02-23T11:48:07.000Z</time>
      </trkpt>
      <trkpt lat="45.62482" lon="6.69023">
        <ele>2232.3999023438</ele>
        <time>2021-02-23T11:48:08.000Z</time>
      </trkpt>
      <trkpt lat="45.62473" lon="6.69022">
        <ele>2231</ele>
        <time>2021-02-23T11:48:10.000Z</time>
      </trkpt>
      <trkpt lat="45.62462" lon="6.6902">
        <ele>2229.8000488281</ele>
        <time>2021-02-23T11:48:13.000Z</time>
      </trkpt>
      <trkpt lat="45.62458" lon="6.6902">
        <ele>2229.6000976562</ele>
        <time>2021-02-23T11:48:14.000Z</time>
      </trkpt>
      <trkpt lat="45.62453" lon="6.69014">
        <ele>2229</ele>
        <time>2021-02-23T11:48:16.000Z</time>
      </trkpt>
      <trkpt lat="45.62452" lon="6.69009">
        <ele>2227.8000488281</ele>
        <time>2021-02-23T11:48:17.000Z</time>
      </trkpt>
      <trkpt lat="45.62452" lon="6.69005">
        <ele>2226.3999023438</ele>
        <time>2021-02-23T11:48:18.000Z</time>
      </trkpt>
      <trkpt lat="45.62452" lon="6.69002">
        <ele>2225.1999511719</ele>
        <time>2021-02-23T11:48:19.000Z</time>
      </trkpt>
      <trkpt lat="45.62453" lon="6.68995">
        <ele>2224.3999023438</ele>
        <time>2021-02-23T11:48:20.000Z</time>
      </trkpt>
      <trkpt lat="45.62449" lon="6.68991">
        <ele>2223.8000488281</ele>
        <time>2021-02-23T11:48:21.000Z</time>
      </trkpt>
      <trkpt lat="45.62444" lon="6.68986">
        <ele>2223.1999511719</ele>
        <time>2021-02-23T11:48:22.000Z</time>
      </trkpt>
      <trkpt lat="45.62439" lon="6.68982">
        <ele>2222.3999023438</ele>
        <time>2021-02-23T11:48:23.000Z</time>
      </trkpt>
      <trkpt lat="45.62433" lon="6.68976">
        <ele>2221.1999511719</ele>
        <time>2021-02-23T11:48:24.000Z</time>
      </trkpt>
      <trkpt lat="45.62427" lon="6.6897">
        <ele>2219.3999023438</ele>
        <time>2021-02-23T11:48:25.000Z</time>
      </trkpt>
      <trkpt lat="45.6242" lon="6.68966">
        <ele>2217.6000976562</ele>
        <time>2021-02-23T11:48:26.000Z</time>
      </trkpt>
      <trkpt lat="45.62414" lon="6.68962">
        <ele>2215.8000488281</ele>
        <time>2021-02-23T11:48:27.000Z</time>
      </trkpt>
      <trkpt lat="45.62407" lon="6.68959">
        <ele>2214.1999511719</ele>
        <time>2021-02-23T11:48:28.000Z</time>
      </trkpt>
      <trkpt lat="45.62403" lon="6.68952">
        <ele>2213</ele>
        <time>2021-02-23T11:48:29.000Z</time>
      </trkpt>
      <trkpt lat="45.62399" lon="6.68946">
        <ele>2212</ele>
        <time>2021-02-23T11:48:30.000Z</time>
      </trkpt>
      <trkpt lat="45.62396" lon="6.68941">
        <ele>2210.8000488281</ele>
        <time>2021-02-23T11:48:31.000Z</time>
      </trkpt>
      <trkpt lat="45.62396" lon="6.68933">
        <ele>2209.1999511719</ele>
        <time>2021-02-23T11:48:32.000Z</time>
      </trkpt>
      <trkpt lat="45.62394" lon="6.68925">
        <ele>2208.1999511719</ele>
        <time>2021-02-23T11:48:33.000Z</time>
      </trkpt>
      <trkpt lat="45.62386" lon="6.68918">
        <ele>2206.8000488281</ele>
        <time>2021-02-23T11:48:35.000Z</time>
      </trkpt>
      <trkpt lat="45.62384" lon="6.6891">
        <ele>2205.6000976562</ele>
        <time>2021-02-23T11:48:36.000Z</time>
      </trkpt>
      <trkpt lat="45.6238" lon="6.68902">
        <ele>2203.8000488281</ele>
        <time>2021-02-23T11:48:37.000Z</time>
      </trkpt>
      <trkpt lat="45.62374" lon="6.68896">
        <ele>2202</ele>
        <time>2021-02-23T11:48:38.000Z</time>
      </trkpt>
      <trkpt lat="45.62367" lon="6.68895">
        <ele>2200.1999511719</ele>
        <time>2021-02-23T11:48:39.000Z</time>
      </trkpt>
      <trkpt lat="45.62359" lon="6.68896">
        <ele>2198.6000976562</ele>
        <time>2021-02-23T11:48:40.000Z</time>
      </trkpt>
      <trkpt lat="45.62352" lon="6.68892">
        <ele>2195.3999023438</ele>
        <time>2021-02-23T11:48:41.000Z</time>
      </trkpt>
      <trkpt lat="45.62345" lon="6.68888">
        <ele>2193.3999023438</ele>
        <time>2021-02-23T11:48:42.000Z</time>
      </trkpt>
      <trkpt lat="45.62339" lon="6.68881">
        <ele>2191.6000976562</ele>
        <time>2021-02-23T11:48:43.000Z</time>
      </trkpt>
      <trkpt lat="45.62334" lon="6.68875">
        <ele>2190</ele>
        <time>2021-02-23T11:48:44.000Z</time>
      </trkpt>
      <trkpt lat="45.62332" lon="6.68866">
        <ele>2189</ele>
        <time>2021-02-23T11:48:45.000Z</time>
      </trkpt>
      <trkpt lat="45.62326" lon="6.68862">
        <ele>2188</ele>
        <time>2021-02-23T11:48:46.000Z</time>
      </trkpt>
      <trkpt lat="45.62321" lon="6.68859">
        <ele>2187</ele>
        <time>2021-02-23T11:48:47.000Z</time>
      </trkpt>
      <trkpt lat="45.62314" lon="6.68856">
        <ele>2185.3999023438</ele>
        <time>2021-02-23T11:48:48.000Z</time>
      </trkpt>
      <trkpt lat="45.62308" lon="6.68849">
        <ele>2183.6000976562</ele>
        <time>2021-02-23T11:48:49.000Z</time>
      </trkpt>
      <trkpt lat="45.62301" lon="6.68844">
        <ele>2182</ele>
        <time>2021-02-23T11:48:50.000Z</time>
      </trkpt>
      <trkpt lat="45.62295" lon="6.6884">
        <ele>2180.3999023438</ele>
        <time>2021-02-23T11:48:51.000Z</time>
      </trkpt>
      <trkpt lat="45.6229" lon="6.68836">
        <ele>2179</ele>
        <time>2021-02-23T11:48:52.000Z</time>
      </trkpt>
      <trkpt lat="45.62286" lon="6.68834">
        <ele>2177.8000488281</ele>
        <time>2021-02-23T11:48:53.000Z</time>
      </trkpt>
      <trkpt lat="45.62281" lon="6.68833">
        <ele>2176.8000488281</ele>
        <time>2021-02-23T11:48:54.000Z</time>
      </trkpt>
      <trkpt lat="45.62277" lon="6.68833">
        <ele>2175.6000976562</ele>
        <time>2021-02-23T11:48:55.000Z</time>
      </trkpt>
      <trkpt lat="45.62276" lon="6.68832">
        <ele>2174.6000976562</ele>
        <time>2021-02-23T11:48:56.000Z</time>
      </trkpt>
      <trkpt lat="45.62273" lon="6.68829">
        <ele>2173.6000976562</ele>
        <time>2021-02-23T11:48:58.000Z</time>
      </trkpt>
      <trkpt lat="45.62268" lon="6.68821">
        <ele>2173</ele>
        <time>2021-02-23T11:49:01.000Z</time>
      </trkpt>
      <trkpt lat="45.62264" lon="6.68816">
        <ele>2172.3999023438</ele>
        <time>2021-02-23T11:49:03.000Z</time>
      </trkpt>
      <trkpt lat="45.62258" lon="6.68808">
        <ele>2171.1999511719</ele>
        <time>2021-02-23T11:49:06.000Z</time>
      </trkpt>
      <trkpt lat="45.62252" lon="6.68805">
        <ele>2170.6000976562</ele>
        <time>2021-02-23T11:49:09.000Z</time>
      </trkpt>
      <trkpt lat="45.6225" lon="6.68805">
        <ele>2170</ele>
        <time>2021-02-23T11:49:11.000Z</time>
      </trkpt>
      <trkpt lat="45.62249" lon="6.68806">
        <ele>2169.6000976562</ele>
        <time>2021-02-23T11:49:14.000Z</time>
      </trkpt>
      <trkpt lat="45.62249" lon="6.68806">
        <ele>2169</ele>
        <time>2021-02-23T11:49:26.000Z</time>
      </trkpt>
      <trkpt lat="45.62249" lon="6.68806">
        <ele>2169</ele>
        <time>2021-02-23T11:49:38.000Z</time>
      </trkpt>
      <trkpt lat="45.62249" lon="6.68806">
        <ele>2168.8000488281</ele>
        <time>2021-02-23T11:49:45.000Z</time>
      </trkpt>
      <trkpt lat="45.62251" lon="6.68804">
        <ele>2168</ele>
        <time>2021-02-23T11:49:48.000Z</time>
      </trkpt>
      <trkpt lat="45.62251" lon="6.68797">
        <ele>2167</ele>
        <time>2021-02-23T11:49:50.000Z</time>
      </trkpt>
      <trkpt lat="45.6225" lon="6.68796">
        <ele>2166.8000488281</ele>
        <time>2021-02-23T11:49:51.000Z</time>
      </trkpt>
      <trkpt lat="45.62248" lon="6.68797">
        <ele>2164.1999511719</ele>
        <time>2021-02-23T11:49:53.000Z</time>
      </trkpt>
      <trkpt lat="45.62246" lon="6.68798">
        <ele>2163.8000488281</ele>
        <time>2021-02-23T11:49:54.000Z</time>
      </trkpt>
      <trkpt lat="45.62242" lon="6.688">
        <ele>2162.8000488281</ele>
        <time>2021-02-23T11:49:55.000Z</time>
      </trkpt>
      <trkpt lat="45.62234" lon="6.68806">
        <ele>2160.8000488281</ele>
        <time>2021-02-23T11:49:57.000Z</time>
      </trkpt>
      <trkpt lat="45.62231" lon="6.68811">
        <ele>2159.3999023438</ele>
        <time>2021-02-23T11:49:58.000Z</time>
      </trkpt>
      <trkpt lat="45.62228" lon="6.68815">
        <ele>2157.6000976562</ele>
        <time>2021-02-23T11:49:59.000Z</time>
      </trkpt>
      <trkpt lat="45.62224" lon="6.68819">
        <ele>2155.6000976562</ele>
        <time>2021-02-23T11:50:00.000Z</time>
      </trkpt>
      <trkpt lat="45.6222" lon="6.68823">
        <ele>2154</ele>
        <time>2021-02-23T11:50:01.000Z</time>
      </trkpt>
      <trkpt lat="45.62216" lon="6.68827">
        <ele>2152.3999023438</ele>
        <time>2021-02-23T11:50:02.000Z</time>
      </trkpt>
      <trkpt lat="45.62213" lon="6.68829">
        <ele>2150.8000488281</ele>
        <time>2021-02-23T11:50:03.000Z</time>
      </trkpt>
      <trkpt lat="45.6221" lon="6.68829">
        <ele>2149.1999511719</ele>
        <time>2021-02-23T11:50:04.000Z</time>
      </trkpt>
      <trkpt lat="45.62209" lon="6.68826">
        <ele>2147.1999511719</ele>
        <time>2021-02-23T11:50:05.000Z</time>
      </trkpt>
      <trkpt lat="45.62207" lon="6.68821">
        <ele>2145</ele>
        <time>2021-02-23T11:50:06.000Z</time>
      </trkpt>
      <trkpt lat="45.62204" lon="6.68818">
        <ele>2143</ele>
        <time>2021-02-23T11:50:07.000Z</time>
      </trkpt>
      <trkpt lat="45.622" lon="6.68816">
        <ele>2141.6000976562</ele>
        <time>2021-02-23T11:50:08.000Z</time>
      </trkpt>
      <trkpt lat="45.62196" lon="6.68815">
        <ele>2140.3999023438</ele>
        <time>2021-02-23T11:50:09.000Z</time>
      </trkpt>
      <trkpt lat="45.62193" lon="6.68816">
        <ele>2139</ele>
        <time>2021-02-23T11:50:10.000Z</time>
      </trkpt>
      <trkpt lat="45.62189" lon="6.68816">
        <ele>2136.6000976562</ele>
        <time>2021-02-23T11:50:11.000Z</time>
      </trkpt>
      <trkpt lat="45.62187" lon="6.68816">
        <ele>2134</ele>
        <time>2021-02-23T11:50:12.000Z</time>
      </trkpt>
      <trkpt lat="45.62184" lon="6.68817">
        <ele>2131.8000488281</ele>
        <time>2021-02-23T11:50:13.000Z</time>
      </trkpt>
      <trkpt lat="45.62182" lon="6.68818">
        <ele>2130.1999511719</ele>
        <time>2021-02-23T11:50:14.000Z</time>
      </trkpt>
      <trkpt lat="45.62181" lon="6.68817">
        <ele>2129.3999023438</ele>
        <time>2021-02-23T11:50:15.000Z</time>
      </trkpt>
      <trkpt lat="45.62179" lon="6.68817">
        <ele>2129</ele>
        <time>2021-02-23T11:50:16.000Z</time>
      </trkpt>
      <trkpt lat="45.62181" lon="6.68817">
        <ele>2128.1999511719</ele>
        <time>2021-02-23T11:50:20.000Z</time>
      </trkpt>
      <trkpt lat="45.62183" lon="6.68814">
        <ele>2128</ele>
        <time>2021-02-23T11:50:33.000Z</time>
      </trkpt>
      <trkpt lat="45.62184" lon="6.6881">
        <ele>2127.8000488281</ele>
        <time>2021-02-23T11:50:34.000Z</time>
      </trkpt>
      <trkpt lat="45.62181" lon="6.68806">
        <ele>2126.8000488281</ele>
        <time>2021-02-23T11:50:37.000Z</time>
      </trkpt>
      <trkpt lat="45.6218" lon="6.68806">
        <ele>2126.3999023438</ele>
        <time>2021-02-23T11:50:38.000Z</time>
      </trkpt>
      <trkpt lat="45.62178" lon="6.68805">
        <ele>2125.8000488281</ele>
        <time>2021-02-23T11:50:40.000Z</time>
      </trkpt>
      <trkpt lat="45.62177" lon="6.68802">
        <ele>2124.1999511719</ele>
        <time>2021-02-23T11:50:41.000Z</time>
      </trkpt>
      <trkpt lat="45.62177" lon="6.68799">
        <ele>2123.3999023438</ele>
        <time>2021-02-23T11:50:42.000Z</time>
      </trkpt>
      <trkpt lat="45.62177" lon="6.68796">
        <ele>2122.6000976562</ele>
        <time>2021-02-23T11:50:43.000Z</time>
      </trkpt>
      <trkpt lat="45.62174" lon="6.68792">
        <ele>2121.1999511719</ele>
        <time>2021-02-23T11:50:45.000Z</time>
      </trkpt>
      <trkpt lat="45.62167" lon="6.68791">
        <ele>2120</ele>
        <time>2021-02-23T11:50:47.000Z</time>
      </trkpt>
      <trkpt lat="45.62164" lon="6.68786">
        <ele>2118.6000976562</ele>
        <time>2021-02-23T11:50:49.000Z</time>
      </trkpt>
      <trkpt lat="45.62164" lon="6.68782">
        <ele>2116.8000488281</ele>
        <time>2021-02-23T11:50:50.000Z</time>
      </trkpt>
      <trkpt lat="45.62163" lon="6.68779">
        <ele>2115.3999023438</ele>
        <time>2021-02-23T11:50:51.000Z</time>
      </trkpt>
      <trkpt lat="45.62162" lon="6.68776">
        <ele>2113.6000976562</ele>
        <time>2021-02-23T11:50:52.000Z</time>
      </trkpt>
      <trkpt lat="45.62162" lon="6.68772">
        <ele>2112.1999511719</ele>
        <time>2021-02-23T11:50:53.000Z</time>
      </trkpt>
      <trkpt lat="45.62157" lon="6.68766">
        <ele>2111</ele>
        <time>2021-02-23T11:50:55.000Z</time>
      </trkpt>
      <trkpt lat="45.62151" lon="6.6876">
        <ele>2109.6000976562</ele>
        <time>2021-02-23T11:50:57.000Z</time>
      </trkpt>
      <trkpt lat="45.6215" lon="6.68755">
        <ele>2108.3999023438</ele>
        <time>2021-02-23T11:50:58.000Z</time>
      </trkpt>
      <trkpt lat="45.6215" lon="6.68751">
        <ele>2106.6000976562</ele>
        <time>2021-02-23T11:50:59.000Z</time>
      </trkpt>
      <trkpt lat="45.6215" lon="6.68747">
        <ele>2104</ele>
        <time>2021-02-23T11:51:00.000Z</time>
      </trkpt>
      <trkpt lat="45.62152" lon="6.68742">
        <ele>2102.6000976562</ele>
        <time>2021-02-23T11:51:01.000Z</time>
      </trkpt>
      <trkpt lat="45.62151" lon="6.68737">
        <ele>2101.8000488281</ele>
        <time>2021-02-23T11:51:02.000Z</time>
      </trkpt>
      <trkpt lat="45.62149" lon="6.68733">
        <ele>2100.1999511719</ele>
        <time>2021-02-23T11:51:03.000Z</time>
      </trkpt>
      <trkpt lat="45.62145" lon="6.6873">
        <ele>2098.3999023438</ele>
        <time>2021-02-23T11:51:04.000Z</time>
      </trkpt>
      <trkpt lat="45.62139" lon="6.68729">
        <ele>2097</ele>
        <time>2021-02-23T11:51:05.000Z</time>
      </trkpt>
      <trkpt lat="45.62131" lon="6.6873">
        <ele>2094.6000976562</ele>
        <time>2021-02-23T11:51:07.000Z</time>
      </trkpt>
      <trkpt lat="45.62127" lon="6.6873">
        <ele>2092.8000488281</ele>
        <time>2021-02-23T11:51:08.000Z</time>
      </trkpt>
      <trkpt lat="45.62123" lon="6.68731">
        <ele>2091.3999023438</ele>
        <time>2021-02-23T11:51:09.000Z</time>
      </trkpt>
      <trkpt lat="45.62119" lon="6.68731">
        <ele>2090.3999023438</ele>
        <time>2021-02-23T11:51:10.000Z</time>
      </trkpt>
      <trkpt lat="45.62111" lon="6.68732">
        <ele>2088.6000976562</ele>
        <time>2021-02-23T11:51:12.000Z</time>
      </trkpt>
      <trkpt lat="45.62104" lon="6.68734">
        <ele>2086.6000976562</ele>
        <time>2021-02-23T11:51:14.000Z</time>
      </trkpt>
      <trkpt lat="45.621" lon="6.68737">
        <ele>2084.8000488281</ele>
        <time>2021-02-23T11:51:16.000Z</time>
      </trkpt>
      <trkpt lat="45.62103" lon="6.68736">
        <ele>2083.6000976562</ele>
        <time>2021-02-23T11:51:19.000Z</time>
      </trkpt>
      <trkpt lat="45.62102" lon="6.68733">
        <ele>2082.8000488281</ele>
        <time>2021-02-23T11:51:29.000Z</time>
      </trkpt>
      <trkpt lat="45.62102" lon="6.68731">
        <ele>2082.3999023438</ele>
        <time>2021-02-23T11:51:30.000Z</time>
      </trkpt>
      <trkpt lat="45.62098" lon="6.68723">
        <ele>2081.1999511719</ele>
        <time>2021-02-23T11:51:33.000Z</time>
      </trkpt>
      <trkpt lat="45.62094" lon="6.68722">
        <ele>2079.6000976562</ele>
        <time>2021-02-23T11:51:35.000Z</time>
      </trkpt>
      <trkpt lat="45.62092" lon="6.6872">
        <ele>2078.8000488281</ele>
        <time>2021-02-23T11:51:37.000Z</time>
      </trkpt>
      <trkpt lat="45.62092" lon="6.6872">
        <ele>2077.6000976562</ele>
        <time>2021-02-23T11:51:38.000Z</time>
      </trkpt>
      <trkpt lat="45.62092" lon="6.6872">
        <ele>2076.3999023438</ele>
        <time>2021-02-23T11:51:39.000Z</time>
      </trkpt>
      <trkpt lat="45.62092" lon="6.6872">
        <ele>2075.3999023438</ele>
        <time>2021-02-23T11:51:41.000Z</time>
      </trkpt>
      <trkpt lat="45.62092" lon="6.6872">
        <ele>2074.3999023438</ele>
        <time>2021-02-23T11:51:43.000Z</time>
      </trkpt>
      <trkpt lat="45.62092" lon="6.6872">
        <ele>2074.1999511719</ele>
        <time>2021-02-23T11:51:44.000Z</time>
      </trkpt>
      <trkpt lat="45.62092" lon="6.68718">
        <ele>2073.6000976562</ele>
        <time>2021-02-23T11:51:48.000Z</time>
      </trkpt>
      <trkpt lat="45.62093" lon="6.68715">
        <ele>2073.6000976562</ele>
        <time>2021-02-23T11:51:49.000Z</time>
      </trkpt>
      <trkpt lat="45.62092" lon="6.68709">
        <ele>2073</ele>
        <time>2021-02-23T11:51:52.000Z</time>
      </trkpt>
      <trkpt lat="45.6209" lon="6.6871">
        <ele>2071.8000488281</ele>
        <time>2021-02-23T11:51:53.000Z</time>
      </trkpt>
      <trkpt lat="45.62087" lon="6.68705">
        <ele>2071</ele>
        <time>2021-02-23T11:51:55.000Z</time>
      </trkpt>
      <trkpt lat="45.62086" lon="6.68698">
        <ele>2070.1999511719</ele>
        <time>2021-02-23T11:51:56.000Z</time>
      </trkpt>
      <trkpt lat="45.62088" lon="6.68691">
        <ele>2068.8000488281</ele>
        <time>2021-02-23T11:51:57.000Z</time>
      </trkpt>
      <trkpt lat="45.6209" lon="6.68685">
        <ele>2067.1999511719</ele>
        <time>2021-02-23T11:51:58.000Z</time>
      </trkpt>
      <trkpt lat="45.62093" lon="6.6868">
        <ele>2065.8000488281</ele>
        <time>2021-02-23T11:51:59.000Z</time>
      </trkpt>
      <trkpt lat="45.62096" lon="6.68677">
        <ele>2064.6000976562</ele>
        <time>2021-02-23T11:52:00.000Z</time>
      </trkpt>
      <trkpt lat="45.62098" lon="6.68675">
        <ele>2063.6000976562</ele>
        <time>2021-02-23T11:52:01.000Z</time>
      </trkpt>
      <trkpt lat="45.62099" lon="6.68673">
        <ele>2062.8000488281</ele>
        <time>2021-02-23T11:52:02.000Z</time>
      </trkpt>
      <trkpt lat="45.62098" lon="6.6867">
        <ele>2061.1999511719</ele>
        <time>2021-02-23T11:52:04.000Z</time>
      </trkpt>
      <trkpt lat="45.62094" lon="6.68666">
        <ele>2059.6000976562</ele>
        <time>2021-02-23T11:52:06.000Z</time>
      </trkpt>
      <trkpt lat="45.62093" lon="6.68662">
        <ele>2059.1999511719</ele>
        <time>2021-02-23T11:52:07.000Z</time>
      </trkpt>
      <trkpt lat="45.62093" lon="6.68658">
        <ele>2058.1999511719</ele>
        <time>2021-02-23T11:52:08.000Z</time>
      </trkpt>
      <trkpt lat="45.62095" lon="6.68654">
        <ele>2056.3999023438</ele>
        <time>2021-02-23T11:52:09.000Z</time>
      </trkpt>
      <trkpt lat="45.62097" lon="6.68651">
        <ele>2054.6000976562</ele>
        <time>2021-02-23T11:52:10.000Z</time>
      </trkpt>
      <trkpt lat="45.62098" lon="6.68648">
        <ele>2053.1999511719</ele>
        <time>2021-02-23T11:52:11.000Z</time>
      </trkpt>
      <trkpt lat="45.62097" lon="6.68645">
        <ele>2051.8000488281</ele>
        <time>2021-02-23T11:52:12.000Z</time>
      </trkpt>
      <trkpt lat="45.62096" lon="6.68642">
        <ele>2050.8000488281</ele>
        <time>2021-02-23T11:52:13.000Z</time>
      </trkpt>
      <trkpt lat="45.62094" lon="6.68641">
        <ele>2049.1999511719</ele>
        <time>2021-02-23T11:52:14.000Z</time>
      </trkpt>
      <trkpt lat="45.62091" lon="6.6864">
        <ele>2047.5999755859</ele>
        <time>2021-02-23T11:52:15.000Z</time>
      </trkpt>
      <trkpt lat="45.62089" lon="6.68638">
        <ele>2046.4000244141</ele>
        <time>2021-02-23T11:52:16.000Z</time>
      </trkpt>
      <trkpt lat="45.62088" lon="6.68635">
        <ele>2043.4000244141</ele>
        <time>2021-02-23T11:52:17.000Z</time>
      </trkpt>
      <trkpt lat="45.62089" lon="6.68634">
        <ele>2041.5999755859</ele>
        <time>2021-02-23T11:52:18.000Z</time>
      </trkpt>
      <trkpt lat="45.62089" lon="6.68633">
        <ele>2039.5999755859</ele>
        <time>2021-02-23T11:52:19.000Z</time>
      </trkpt>
      <trkpt lat="45.6209" lon="6.68631">
        <ele>2037.8000488281</ele>
        <time>2021-02-23T11:52:20.000Z</time>
      </trkpt>
      <trkpt lat="45.62089" lon="6.68628">
        <ele>2036.8000488281</ele>
        <time>2021-02-23T11:52:21.000Z</time>
      </trkpt>
      <trkpt lat="45.62087" lon="6.68626">
        <ele>2036.1999511719</ele>
        <time>2021-02-23T11:52:22.000Z</time>
      </trkpt>
      <trkpt lat="45.62086" lon="6.68625">
        <ele>2035.5999755859</ele>
        <time>2021-02-23T11:52:23.000Z</time>
      </trkpt>
      <trkpt lat="45.62082" lon="6.68625">
        <ele>2033.1999511719</ele>
        <time>2021-02-23T11:52:25.000Z</time>
      </trkpt>
      <trkpt lat="45.62081" lon="6.68623">
        <ele>2031.5999755859</ele>
        <time>2021-02-23T11:52:26.000Z</time>
      </trkpt>
      <trkpt lat="45.62081" lon="6.68621">
        <ele>2030.1999511719</ele>
        <time>2021-02-23T11:52:27.000Z</time>
      </trkpt>
      <trkpt lat="45.62081" lon="6.68619">
        <ele>2029</ele>
        <time>2021-02-23T11:52:28.000Z</time>
      </trkpt>
      <trkpt lat="45.62081" lon="6.68616">
        <ele>2027</ele>
        <time>2021-02-23T11:52:29.000Z</time>
      </trkpt>
      <trkpt lat="45.62081" lon="6.68612">
        <ele>2026</ele>
        <time>2021-02-23T11:52:30.000Z</time>
      </trkpt>
      <trkpt lat="45.6208" lon="6.68607">
        <ele>2023.1999511719</ele>
        <time>2021-02-23T11:52:32.000Z</time>
      </trkpt>
      <trkpt lat="45.62079" lon="6.68606">
        <ele>2020.5999755859</ele>
        <time>2021-02-23T11:52:33.000Z</time>
      </trkpt>
      <trkpt lat="45.62079" lon="6.68604">
        <ele>2018.8000488281</ele>
        <time>2021-02-23T11:52:34.000Z</time>
      </trkpt>
      <trkpt lat="45.6208" lon="6.686">
        <ele>2018</ele>
        <time>2021-02-23T11:52:35.000Z</time>
      </trkpt>
      <trkpt lat="45.62079" lon="6.68593">
        <ele>2016.8000488281</ele>
        <time>2021-02-23T11:52:37.000Z</time>
      </trkpt>
      <trkpt lat="45.6208" lon="6.68589">
        <ele>2015</ele>
        <time>2021-02-23T11:52:38.000Z</time>
      </trkpt>
      <trkpt lat="45.62081" lon="6.68586">
        <ele>2012.1999511719</ele>
        <time>2021-02-23T11:52:39.000Z</time>
      </trkpt>
      <trkpt lat="45.6208" lon="6.68582">
        <ele>2010.1999511719</ele>
        <time>2021-02-23T11:52:40.000Z</time>
      </trkpt>
      <trkpt lat="45.62079" lon="6.6858">
        <ele>2005.8000488281</ele>
        <time>2021-02-23T11:52:41.000Z</time>
      </trkpt>
      <trkpt lat="45.62077" lon="6.68578">
        <ele>2003.8000488281</ele>
        <time>2021-02-23T11:52:42.000Z</time>
      </trkpt>
      <trkpt lat="45.62075" lon="6.68576">
        <ele>2002.1999511719</ele>
        <time>2021-02-23T11:52:43.000Z</time>
      </trkpt>
      <trkpt lat="45.62075" lon="6.68575">
        <ele>2000.4000244141</ele>
        <time>2021-02-23T11:52:44.000Z</time>
      </trkpt>
      <trkpt lat="45.62074" lon="6.68573">
        <ele>1999.5999755859</ele>
        <time>2021-02-23T11:52:45.000Z</time>
      </trkpt>
      <trkpt lat="45.62074" lon="6.68573">
        <ele>1998</ele>
        <time>2021-02-23T11:52:46.000Z</time>
      </trkpt>
      <trkpt lat="45.62074" lon="6.68573">
        <ele>1996</ele>
        <time>2021-02-23T11:52:47.000Z</time>
      </trkpt>
      <trkpt lat="45.62074" lon="6.68572">
        <ele>1994.1999511719</ele>
        <time>2021-02-23T11:52:48.000Z</time>
      </trkpt>
      <trkpt lat="45.62075" lon="6.6857">
        <ele>1993</ele>
        <time>2021-02-23T11:52:50.000Z</time>
      </trkpt>
      <trkpt lat="45.62075" lon="6.68569">
        <ele>1992.4000244141</ele>
        <time>2021-02-23T11:52:51.000Z</time>
      </trkpt>
      <trkpt lat="45.62074" lon="6.68569">
        <ele>1991.8000488281</ele>
        <time>2021-02-23T11:52:52.000Z</time>
      </trkpt>
      <trkpt lat="45.62075" lon="6.68568">
        <ele>1990.8000488281</ele>
        <time>2021-02-23T11:52:57.000Z</time>
      </trkpt>
      <trkpt lat="45.62075" lon="6.68567">
        <ele>1990.5999755859</ele>
        <time>2021-02-23T11:53:03.000Z</time>
      </trkpt>
      <trkpt lat="45.62078" lon="6.68563">
        <ele>1990.5999755859</ele>
        <time>2021-02-23T11:53:04.000Z</time>
      </trkpt>
      <trkpt lat="45.62083" lon="6.68554">
        <ele>1990.4000244141</ele>
        <time>2021-02-23T11:53:06.000Z</time>
      </trkpt>
      <trkpt lat="45.6209" lon="6.68532">
        <ele>1989.1999511719</ele>
        <time>2021-02-23T11:53:09.000Z</time>
      </trkpt>
      <trkpt lat="45.62093" lon="6.68528">
        <ele>1987.1999511719</ele>
        <time>2021-02-23T11:53:11.000Z</time>
      </trkpt>
      <trkpt lat="45.62093" lon="6.68527">
        <ele>1986.4000244141</ele>
        <time>2021-02-23T11:53:12.000Z</time>
      </trkpt>
      <trkpt lat="45.62094" lon="6.68524">
        <ele>1985.8000488281</ele>
        <time>2021-02-23T11:53:13.000Z</time>
      </trkpt>
      <trkpt lat="45.62095" lon="6.68513">
        <ele>1985</ele>
        <time>2021-02-23T11:53:15.000Z</time>
      </trkpt>
      <trkpt lat="45.62093" lon="6.68502">
        <ele>1984.4000244141</ele>
        <time>2021-02-23T11:53:17.000Z</time>
      </trkpt>
      <trkpt lat="45.62092" lon="6.68499">
        <ele>1983.4000244141</ele>
        <time>2021-02-23T11:53:18.000Z</time>
      </trkpt>
      <trkpt lat="45.62089" lon="6.68495">
        <ele>1982.4000244141</ele>
        <time>2021-02-23T11:53:19.000Z</time>
      </trkpt>
      <trkpt lat="45.62086" lon="6.68492">
        <ele>1981.1999511719</ele>
        <time>2021-02-23T11:53:20.000Z</time>
      </trkpt>
      <trkpt lat="45.62084" lon="6.68487">
        <ele>1980.1999511719</ele>
        <time>2021-02-23T11:53:21.000Z</time>
      </trkpt>
      <trkpt lat="45.62082" lon="6.68481">
        <ele>1978.8000488281</ele>
        <time>2021-02-23T11:53:22.000Z</time>
      </trkpt>
      <trkpt lat="45.6208" lon="6.68474">
        <ele>1977.1999511719</ele>
        <time>2021-02-23T11:53:23.000Z</time>
      </trkpt>
      <trkpt lat="45.62078" lon="6.68467">
        <ele>1975.8000488281</ele>
        <time>2021-02-23T11:53:24.000Z</time>
      </trkpt>
      <trkpt lat="45.62074" lon="6.68462">
        <ele>1975</ele>
        <time>2021-02-23T11:53:25.000Z</time>
      </trkpt>
      <trkpt lat="45.62068" lon="6.6846">
        <ele>1974.4000244141</ele>
        <time>2021-02-23T11:53:26.000Z</time>
      </trkpt>
      <trkpt lat="45.6206" lon="6.6846">
        <ele>1972.8000488281</ele>
        <time>2021-02-23T11:53:28.000Z</time>
      </trkpt>
      <trkpt lat="45.62057" lon="6.68462">
        <ele>1969.8000488281</ele>
        <time>2021-02-23T11:53:29.000Z</time>
      </trkpt>
      <trkpt lat="45.62053" lon="6.68461">
        <ele>1968.4000244141</ele>
        <time>2021-02-23T11:53:30.000Z</time>
      </trkpt>
      <trkpt lat="45.62051" lon="6.68458">
        <ele>1967</ele>
        <time>2021-02-23T11:53:31.000Z</time>
      </trkpt>
      <trkpt lat="45.6205" lon="6.68454">
        <ele>1965.5999755859</ele>
        <time>2021-02-23T11:53:32.000Z</time>
      </trkpt>
      <trkpt lat="45.62051" lon="6.68447">
        <ele>1964.1999511719</ele>
        <time>2021-02-23T11:53:33.000Z</time>
      </trkpt>
      <trkpt lat="45.62052" lon="6.68442">
        <ele>1963.1999511719</ele>
        <time>2021-02-23T11:53:34.000Z</time>
      </trkpt>
      <trkpt lat="45.62054" lon="6.68432">
        <ele>1961.4000244141</ele>
        <time>2021-02-23T11:53:36.000Z</time>
      </trkpt>
      <trkpt lat="45.62053" lon="6.6843">
        <ele>1960.1999511719</ele>
        <time>2021-02-23T11:53:37.000Z</time>
      </trkpt>
      <trkpt lat="45.62052" lon="6.68429">
        <ele>1958.8000488281</ele>
        <time>2021-02-23T11:53:38.000Z</time>
      </trkpt>
      <trkpt lat="45.62051" lon="6.68427">
        <ele>1957.5999755859</ele>
        <time>2021-02-23T11:53:39.000Z</time>
      </trkpt>
      <trkpt lat="45.62049" lon="6.68421">
        <ele>1955.4000244141</ele>
        <time>2021-02-23T11:53:41.000Z</time>
      </trkpt>
      <trkpt lat="45.62048" lon="6.68419">
        <ele>1953.4000244141</ele>
        <time>2021-02-23T11:53:42.000Z</time>
      </trkpt>
      <trkpt lat="45.62047" lon="6.68416">
        <ele>1951.4000244141</ele>
        <time>2021-02-23T11:53:43.000Z</time>
      </trkpt>
      <trkpt lat="45.62046" lon="6.68413">
        <ele>1950</ele>
        <time>2021-02-23T11:53:44.000Z</time>
      </trkpt>
      <trkpt lat="45.62045" lon="6.68411">
        <ele>1948.4000244141</ele>
        <time>2021-02-23T11:53:45.000Z</time>
      </trkpt>
      <trkpt lat="45.62043" lon="6.68409">
        <ele>1946.5999755859</ele>
        <time>2021-02-23T11:53:46.000Z</time>
      </trkpt>
      <trkpt lat="45.62042" lon="6.68408">
        <ele>1944.4000244141</ele>
        <time>2021-02-23T11:53:47.000Z</time>
      </trkpt>
      <trkpt lat="45.62041" lon="6.68406">
        <ele>1942.5999755859</ele>
        <time>2021-02-23T11:53:48.000Z</time>
      </trkpt>
      <trkpt lat="45.62041" lon="6.68402">
        <ele>1941.1999511719</ele>
        <time>2021-02-23T11:53:49.000Z</time>
      </trkpt>
      <trkpt lat="45.6204" lon="6.684">
        <ele>1940</ele>
        <time>2021-02-23T11:53:50.000Z</time>
      </trkpt>
      <trkpt lat="45.62038" lon="6.68399">
        <ele>1938.4000244141</ele>
        <time>2021-02-23T11:53:51.000Z</time>
      </trkpt>
      <trkpt lat="45.62036" lon="6.68399">
        <ele>1936.8000488281</ele>
        <time>2021-02-23T11:53:52.000Z</time>
      </trkpt>
      <trkpt lat="45.62034" lon="6.68397">
        <ele>1934.8000488281</ele>
        <time>2021-02-23T11:53:53.000Z</time>
      </trkpt>
      <trkpt lat="45.62032" lon="6.68396">
        <ele>1933.1999511719</ele>
        <time>2021-02-23T11:53:54.000Z</time>
      </trkpt>
      <trkpt lat="45.6203" lon="6.68395">
        <ele>1931</ele>
        <time>2021-02-23T11:53:55.000Z</time>
      </trkpt>
      <trkpt lat="45.62029" lon="6.68394">
        <ele>1928.5999755859</ele>
        <time>2021-02-23T11:53:56.000Z</time>
      </trkpt>
      <trkpt lat="45.62026" lon="6.68394">
        <ele>1927</ele>
        <time>2021-02-23T11:53:57.000Z</time>
      </trkpt>
      <trkpt lat="45.62024" lon="6.68394">
        <ele>1925.5999755859</ele>
        <time>2021-02-23T11:53:58.000Z</time>
      </trkpt>
      <trkpt lat="45.62022" lon="6.68394">
        <ele>1924.1999511719</ele>
        <time>2021-02-23T11:53:59.000Z</time>
      </trkpt>
      <trkpt lat="45.62021" lon="6.68395">
        <ele>1922.8000488281</ele>
        <time>2021-02-23T11:54:00.000Z</time>
      </trkpt>
      <trkpt lat="45.62019" lon="6.68394">
        <ele>1921.5999755859</ele>
        <time>2021-02-23T11:54:01.000Z</time>
      </trkpt>
      <trkpt lat="45.6202" lon="6.68389">
        <ele>1920.5999755859</ele>
        <time>2021-02-23T11:54:04.000Z</time>
      </trkpt>
      <trkpt lat="45.62021" lon="6.68385">
        <ele>1920.1999511719</ele>
        <time>2021-02-23T11:54:06.000Z</time>
      </trkpt>
      <trkpt lat="45.62019" lon="6.68382">
        <ele>1919.8000488281</ele>
        <time>2021-02-23T11:54:14.000Z</time>
      </trkpt>
      <trkpt lat="45.62017" lon="6.68383">
        <ele>1919.8000488281</ele>
        <time>2021-02-23T11:54:15.000Z</time>
      </trkpt>
      <trkpt lat="45.62004" lon="6.68386">
        <ele>1919.4000244141</ele>
        <time>2021-02-23T11:54:18.000Z</time>
      </trkpt>
      <trkpt lat="45.61996" lon="6.68388">
        <ele>1918</ele>
        <time>2021-02-23T11:54:20.000Z</time>
      </trkpt>
      <trkpt lat="45.61993" lon="6.68388">
        <ele>1916.5999755859</ele>
        <time>2021-02-23T11:54:21.000Z</time>
      </trkpt>
      <trkpt lat="45.6199" lon="6.68389">
        <ele>1915.4000244141</ele>
        <time>2021-02-23T11:54:22.000Z</time>
      </trkpt>
      <trkpt lat="45.61987" lon="6.68388">
        <ele>1914</ele>
        <time>2021-02-23T11:54:23.000Z</time>
      </trkpt>
      <trkpt lat="45.61984" lon="6.68385">
        <ele>1912.8000488281</ele>
        <time>2021-02-23T11:54:24.000Z</time>
      </trkpt>
      <trkpt lat="45.61981" lon="6.68382">
        <ele>1911.4000244141</ele>
        <time>2021-02-23T11:54:25.000Z</time>
      </trkpt>
      <trkpt lat="45.61979" lon="6.68379">
        <ele>1910.1999511719</ele>
        <time>2021-02-23T11:54:26.000Z</time>
      </trkpt>
      <trkpt lat="45.61971" lon="6.68376">
        <ele>1908.5999755859</ele>
        <time>2021-02-23T11:54:28.000Z</time>
      </trkpt>
      <trkpt lat="45.61968" lon="6.68376">
        <ele>1908</ele>
        <time>2021-02-23T11:54:29.000Z</time>
      </trkpt>
      <trkpt lat="45.61966" lon="6.68375">
        <ele>1907</ele>
        <time>2021-02-23T11:54:30.000Z</time>
      </trkpt>
      <trkpt lat="45.61965" lon="6.68373">
        <ele>1905</ele>
        <time>2021-02-23T11:54:31.000Z</time>
      </trkpt>
      <trkpt lat="45.61963" lon="6.68369">
        <ele>1902.4000244141</ele>
        <time>2021-02-23T11:54:32.000Z</time>
      </trkpt>
      <trkpt lat="45.61961" lon="6.68365">
        <ele>1900</ele>
        <time>2021-02-23T11:54:33.000Z</time>
      </trkpt>
      <trkpt lat="45.61959" lon="6.68361">
        <ele>1898.1999511719</ele>
        <time>2021-02-23T11:54:34.000Z</time>
      </trkpt>
      <trkpt lat="45.61954" lon="6.68359">
        <ele>1897.1999511719</ele>
        <time>2021-02-23T11:54:35.000Z</time>
      </trkpt>
      <trkpt lat="45.61949" lon="6.68358">
        <ele>1896.4000244141</ele>
        <time>2021-02-23T11:54:36.000Z</time>
      </trkpt>
      <trkpt lat="45.61944" lon="6.68358">
        <ele>1895.1999511719</ele>
        <time>2021-02-23T11:54:37.000Z</time>
      </trkpt>
      <trkpt lat="45.6194" lon="6.68359">
        <ele>1893.4000244141</ele>
        <time>2021-02-23T11:54:38.000Z</time>
      </trkpt>
      <trkpt lat="45.61937" lon="6.6836">
        <ele>1891</ele>
        <time>2021-02-23T11:54:39.000Z</time>
      </trkpt>
      <trkpt lat="45.61935" lon="6.68362">
        <ele>1888.8000488281</ele>
        <time>2021-02-23T11:54:40.000Z</time>
      </trkpt>
      <trkpt lat="45.61934" lon="6.68363">
        <ele>1885.8000488281</ele>
        <time>2021-02-23T11:54:41.000Z</time>
      </trkpt>
      <trkpt lat="45.61934" lon="6.68364">
        <ele>1885</ele>
        <time>2021-02-23T11:54:42.000Z</time>
      </trkpt>
      <trkpt lat="45.61933" lon="6.68365">
        <ele>1884.5999755859</ele>
        <time>2021-02-23T11:54:43.000Z</time>
      </trkpt>
      <trkpt lat="45.61934" lon="6.68368">
        <ele>1884.1999511719</ele>
        <time>2021-02-23T11:54:51.000Z</time>
      </trkpt>
      <trkpt lat="45.61934" lon="6.68367">
        <ele>1884.5999755859</ele>
        <time>2021-02-23T11:55:01.000Z</time>
      </trkpt>
      <trkpt lat="45.61934" lon="6.68367">
        <ele>1884</ele>
        <time>2021-02-23T11:55:17.000Z</time>
      </trkpt>
      <trkpt lat="45.61934" lon="6.68367">
        <ele>1884.1999511719</ele>
        <time>2021-02-23T11:55:36.000Z</time>
      </trkpt>
      <trkpt lat="45.61932" lon="6.68362">
        <ele>1883.5999755859</ele>
        <time>2021-02-23T11:55:43.000Z</time>
      </trkpt>
      <trkpt lat="45.61929" lon="6.68359">
        <ele>1883.5999755859</ele>
        <time>2021-02-23T11:55:44.000Z</time>
      </trkpt>
      <trkpt lat="45.61923" lon="6.68353">
        <ele>1883.1999511719</ele>
        <time>2021-02-23T11:55:46.000Z</time>
      </trkpt>
      <trkpt lat="45.6192" lon="6.68348">
        <ele>1882.5999755859</ele>
        <time>2021-02-23T11:55:47.000Z</time>
      </trkpt>
      <trkpt lat="45.61918" lon="6.68343">
        <ele>1881.4000244141</ele>
        <time>2021-02-23T11:55:48.000Z</time>
      </trkpt>
      <trkpt lat="45.61915" lon="6.68339">
        <ele>1879.5999755859</ele>
        <time>2021-02-23T11:55:49.000Z</time>
      </trkpt>
      <trkpt lat="45.61913" lon="6.68334">
        <ele>1877.4000244141</ele>
        <time>2021-02-23T11:55:50.000Z</time>
      </trkpt>
      <trkpt lat="45.6191" lon="6.68329">
        <ele>1875.5999755859</ele>
        <time>2021-02-23T11:55:51.000Z</time>
      </trkpt>
      <trkpt lat="45.61906" lon="6.68326">
        <ele>1874.8000488281</ele>
        <time>2021-02-23T11:55:52.000Z</time>
      </trkpt>
      <trkpt lat="45.61901" lon="6.68326">
        <ele>1872.1999511719</ele>
        <time>2021-02-23T11:55:53.000Z</time>
      </trkpt>
      <trkpt lat="45.61897" lon="6.68326">
        <ele>1870.4000244141</ele>
        <time>2021-02-23T11:55:54.000Z</time>
      </trkpt>
      <trkpt lat="45.61893" lon="6.68325">
        <ele>1868.5999755859</ele>
        <time>2021-02-23T11:55:55.000Z</time>
      </trkpt>
      <trkpt lat="45.6189" lon="6.68323">
        <ele>1867</ele>
        <time>2021-02-23T11:55:56.000Z</time>
      </trkpt>
      <trkpt lat="45.61887" lon="6.68321">
        <ele>1865.1999511719</ele>
        <time>2021-02-23T11:55:57.000Z</time>
      </trkpt>
      <trkpt lat="45.61885" lon="6.68316">
        <ele>1863.8000488281</ele>
        <time>2021-02-23T11:55:58.000Z</time>
      </trkpt>
      <trkpt lat="45.61883" lon="6.68312">
        <ele>1862.1999511719</ele>
        <time>2021-02-23T11:55:59.000Z</time>
      </trkpt>
      <trkpt lat="45.61881" lon="6.68309">
        <ele>1860.8000488281</ele>
        <time>2021-02-23T11:56:00.000Z</time>
      </trkpt>
      <trkpt lat="45.6188" lon="6.68304">
        <ele>1859.1999511719</ele>
        <time>2021-02-23T11:56:02.000Z</time>
      </trkpt>
      <trkpt lat="45.6188" lon="6.68303">
        <ele>1858.1999511719</ele>
        <time>2021-02-23T11:56:03.000Z</time>
      </trkpt>
      <trkpt lat="45.6188" lon="6.68302">
        <ele>1856.8000488281</ele>
        <time>2021-02-23T11:56:04.000Z</time>
      </trkpt>
      <trkpt lat="45.6188" lon="6.68302">
        <ele>1855.5999755859</ele>
        <time>2021-02-23T11:56:05.000Z</time>
      </trkpt>
      <trkpt lat="45.6188" lon="6.683">
        <ele>1854.8000488281</ele>
        <time>2021-02-23T11:56:06.000Z</time>
      </trkpt>
      <trkpt lat="45.61881" lon="6.68297">
        <ele>1854.4000244141</ele>
        <time>2021-02-23T11:56:07.000Z</time>
      </trkpt>
      <trkpt lat="45.61882" lon="6.68292">
        <ele>1854</ele>
        <time>2021-02-23T11:56:08.000Z</time>
      </trkpt>
      <trkpt lat="45.61881" lon="6.68288">
        <ele>1853.1999511719</ele>
        <time>2021-02-23T11:56:09.000Z</time>
      </trkpt>
      <trkpt lat="45.61881" lon="6.68278">
        <ele>1851.1999511719</ele>
        <time>2021-02-23T11:56:11.000Z</time>
      </trkpt>
      <trkpt lat="45.6188" lon="6.68272">
        <ele>1848.8000488281</ele>
        <time>2021-02-23T11:56:12.000Z</time>
      </trkpt>
      <trkpt lat="45.61879" lon="6.68267">
        <ele>1847.5999755859</ele>
        <time>2021-02-23T11:56:13.000Z</time>
      </trkpt>
      <trkpt lat="45.61877" lon="6.68263">
        <ele>1844.4000244141</ele>
        <time>2021-02-23T11:56:14.000Z</time>
      </trkpt>
      <trkpt lat="45.61876" lon="6.68258">
        <ele>1841.1999511719</ele>
        <time>2021-02-23T11:56:15.000Z</time>
      </trkpt>
      <trkpt lat="45.61874" lon="6.68254">
        <ele>1839</ele>
        <time>2021-02-23T11:56:16.000Z</time>
      </trkpt>
      <trkpt lat="45.61873" lon="6.68251">
        <ele>1836.1999511719</ele>
        <time>2021-02-23T11:56:17.000Z</time>
      </trkpt>
      <trkpt lat="45.61871" lon="6.68246">
        <ele>1833.8000488281</ele>
        <time>2021-02-23T11:56:18.000Z</time>
      </trkpt>
      <trkpt lat="45.61868" lon="6.68243">
        <ele>1831.1999511719</ele>
        <time>2021-02-23T11:56:19.000Z</time>
      </trkpt>
      <trkpt lat="45.61865" lon="6.68239">
        <ele>1829.1999511719</ele>
        <time>2021-02-23T11:56:20.000Z</time>
      </trkpt>
      <trkpt lat="45.61862" lon="6.68235">
        <ele>1828</ele>
        <time>2021-02-23T11:56:21.000Z</time>
      </trkpt>
      <trkpt lat="45.6186" lon="6.68231">
        <ele>1826.5999755859</ele>
        <time>2021-02-23T11:56:22.000Z</time>
      </trkpt>
      <trkpt lat="45.61859" lon="6.68226">
        <ele>1824.1999511719</ele>
        <time>2021-02-23T11:56:23.000Z</time>
      </trkpt>
      <trkpt lat="45.6186" lon="6.68221">
        <ele>1821.1999511719</ele>
        <time>2021-02-23T11:56:24.000Z</time>
      </trkpt>
      <trkpt lat="45.6186" lon="6.68216">
        <ele>1818.8000488281</ele>
        <time>2021-02-23T11:56:25.000Z</time>
      </trkpt>
      <trkpt lat="45.61861" lon="6.68212">
        <ele>1817</ele>
        <time>2021-02-23T11:56:26.000Z</time>
      </trkpt>
      <trkpt lat="45.6186" lon="6.68212">
        <ele>1815.8000488281</ele>
        <time>2021-02-23T11:56:27.000Z</time>
      </trkpt>
      <trkpt lat="45.61859" lon="6.68213">
        <ele>1814.4000244141</ele>
        <time>2021-02-23T11:56:28.000Z</time>
      </trkpt>
      <trkpt lat="45.61859" lon="6.68213">
        <ele>1812.1999511719</ele>
        <time>2021-02-23T11:56:29.000Z</time>
      </trkpt>
      <trkpt lat="45.61859" lon="6.68214">
        <ele>1810</ele>
        <time>2021-02-23T11:56:30.000Z</time>
      </trkpt>
      <trkpt lat="45.61859" lon="6.68214">
        <ele>1808.5999755859</ele>
        <time>2021-02-23T11:56:31.000Z</time>
      </trkpt>
      <trkpt lat="45.61859" lon="6.68214">
        <ele>1807.1999511719</ele>
        <time>2021-02-23T11:56:33.000Z</time>
      </trkpt>
      <trkpt lat="45.61859" lon="6.68214">
        <ele>1806.8000488281</ele>
        <time>2021-02-23T11:56:35.000Z</time>
      </trkpt>
      <trkpt lat="45.61859" lon="6.68214">
        <ele>1806.1999511719</ele>
        <time>2021-02-23T11:56:46.000Z</time>
      </trkpt>
      <trkpt lat="45.61859" lon="6.68214">
        <ele>1806.1999511719</ele>
        <time>2021-02-23T11:56:47.000Z</time>
      </trkpt>
      <trkpt lat="45.61859" lon="6.68214">
        <ele>1806</ele>
        <time>2021-02-23T11:56:58.000Z</time>
      </trkpt>
      <trkpt lat="45.61859" lon="6.68214">
        <ele>1806.4000244141</ele>
        <time>2021-02-23T11:57:08.000Z</time>
      </trkpt>
      <trkpt lat="45.61858" lon="6.68214">
        <ele>1806.1999511719</ele>
        <time>2021-02-23T11:57:24.000Z</time>
      </trkpt>
      <trkpt lat="45.61857" lon="6.68213">
        <ele>1806.1999511719</ele>
        <time>2021-02-23T11:57:32.000Z</time>
      </trkpt>
      <trkpt lat="45.61854" lon="6.68213">
        <ele>1806.1999511719</ele>
        <time>2021-02-23T11:57:33.000Z</time>
      </trkpt>
      <trkpt lat="45.6184" lon="6.68215">
        <ele>1805.8000488281</ele>
        <time>2021-02-23T11:57:36.000Z</time>
      </trkpt>
      <trkpt lat="45.61837" lon="6.68214">
        <ele>1805.1999511719</ele>
        <time>2021-02-23T11:57:37.000Z</time>
      </trkpt>
      <trkpt lat="45.61831" lon="6.68213">
        <ele>1803.5999755859</ele>
        <time>2021-02-23T11:57:39.000Z</time>
      </trkpt>
      <trkpt lat="45.6183" lon="6.6821">
        <ele>1802.8000488281</ele>
        <time>2021-02-23T11:57:40.000Z</time>
      </trkpt>
      <trkpt lat="45.61831" lon="6.68206">
        <ele>1802.1999511719</ele>
        <time>2021-02-23T11:57:41.000Z</time>
      </trkpt>
      <trkpt lat="45.61832" lon="6.68203">
        <ele>1801</ele>
        <time>2021-02-23T11:57:42.000Z</time>
      </trkpt>
      <trkpt lat="45.61834" lon="6.682">
        <ele>1799.1999511719</ele>
        <time>2021-02-23T11:57:43.000Z</time>
      </trkpt>
      <trkpt lat="45.61835" lon="6.68196">
        <ele>1798</ele>
        <time>2021-02-23T11:57:44.000Z</time>
      </trkpt>
      <trkpt lat="45.61833" lon="6.68186">
        <ele>1796</ele>
        <time>2021-02-23T11:57:46.000Z</time>
      </trkpt>
      <trkpt lat="45.61832" lon="6.68181">
        <ele>1794.1999511719</ele>
        <time>2021-02-23T11:57:47.000Z</time>
      </trkpt>
      <trkpt lat="45.6183" lon="6.68174">
        <ele>1792.4000244141</ele>
        <time>2021-02-23T11:57:48.000Z</time>
      </trkpt>
      <trkpt lat="45.61831" lon="6.68167">
        <ele>1790.5999755859</ele>
        <time>2021-02-23T11:57:49.000Z</time>
      </trkpt>
      <trkpt lat="45.61832" lon="6.68161">
        <ele>1787.8000488281</ele>
        <time>2021-02-23T11:57:50.000Z</time>
      </trkpt>
      <trkpt lat="45.6183" lon="6.68156">
        <ele>1785.5999755859</ele>
        <time>2021-02-23T11:57:51.000Z</time>
      </trkpt>
      <trkpt lat="45.61827" lon="6.68153">
        <ele>1784.4000244141</ele>
        <time>2021-02-23T11:57:52.000Z</time>
      </trkpt>
      <trkpt lat="45.61823" lon="6.6815">
        <ele>1782.1999511719</ele>
        <time>2021-02-23T11:57:53.000Z</time>
      </trkpt>
      <trkpt lat="45.61818" lon="6.68148">
        <ele>1780.1999511719</ele>
        <time>2021-02-23T11:57:54.000Z</time>
      </trkpt>
      <trkpt lat="45.61814" lon="6.68145">
        <ele>1778</ele>
        <time>2021-02-23T11:57:55.000Z</time>
      </trkpt>
      <trkpt lat="45.61809" lon="6.68142">
        <ele>1776</ele>
        <time>2021-02-23T11:57:56.000Z</time>
      </trkpt>
      <trkpt lat="45.61807" lon="6.68142">
        <ele>1774.5999755859</ele>
        <time>2021-02-23T11:57:57.000Z</time>
      </trkpt>
      <trkpt lat="45.61805" lon="6.68141">
        <ele>1773.5999755859</ele>
        <time>2021-02-23T11:57:58.000Z</time>
      </trkpt>
      <trkpt lat="45.61804" lon="6.68136">
        <ele>1772.4000244141</ele>
        <time>2021-02-23T11:58:00.000Z</time>
      </trkpt>
      <trkpt lat="45.61805" lon="6.68132">
        <ele>1771.8000488281</ele>
        <time>2021-02-23T11:58:01.000Z</time>
      </trkpt>
      <trkpt lat="45.6181" lon="6.68128">
        <ele>1771.1999511719</ele>
        <time>2021-02-23T11:58:02.000Z</time>
      </trkpt>
      <trkpt lat="45.61821" lon="6.68122">
        <ele>1770</ele>
        <time>2021-02-23T11:58:04.000Z</time>
      </trkpt>
      <trkpt lat="45.61826" lon="6.68121">
        <ele>1769.1999511719</ele>
        <time>2021-02-23T11:58:05.000Z</time>
      </trkpt>
      <trkpt lat="45.61831" lon="6.6812">
        <ele>1768.4000244141</ele>
        <time>2021-02-23T11:58:06.000Z</time>
      </trkpt>
      <trkpt lat="45.61836" lon="6.68118">
        <ele>1767</ele>
        <time>2021-02-23T11:58:07.000Z</time>
      </trkpt>
      <trkpt lat="45.61838" lon="6.68114">
        <ele>1765.5999755859</ele>
        <time>2021-02-23T11:58:08.000Z</time>
      </trkpt>
      <trkpt lat="45.61839" lon="6.68109">
        <ele>1764.8000488281</ele>
        <time>2021-02-23T11:58:09.000Z</time>
      </trkpt>
      <trkpt lat="45.6184" lon="6.68101">
        <ele>1764</ele>
        <time>2021-02-23T11:58:10.000Z</time>
      </trkpt>
      <trkpt lat="45.6184" lon="6.68094">
        <ele>1763</ele>
        <time>2021-02-23T11:58:11.000Z</time>
      </trkpt>
      <trkpt lat="45.61838" lon="6.68088">
        <ele>1761.1999511719</ele>
        <time>2021-02-23T11:58:12.000Z</time>
      </trkpt>
      <trkpt lat="45.61837" lon="6.68083">
        <ele>1759.1999511719</ele>
        <time>2021-02-23T11:58:13.000Z</time>
      </trkpt>
      <trkpt lat="45.61836" lon="6.68076">
        <ele>1757.5999755859</ele>
        <time>2021-02-23T11:58:14.000Z</time>
      </trkpt>
      <trkpt lat="45.61835" lon="6.68069">
        <ele>1756</ele>
        <time>2021-02-23T11:58:15.000Z</time>
      </trkpt>
      <trkpt lat="45.61835" lon="6.68063">
        <ele>1754.4000244141</ele>
        <time>2021-02-23T11:58:16.000Z</time>
      </trkpt>
      <trkpt lat="45.61834" lon="6.68057">
        <ele>1750.8000488281</ele>
        <time>2021-02-23T11:58:17.000Z</time>
      </trkpt>
      <trkpt lat="45.61834" lon="6.68053">
        <ele>1748.8000488281</ele>
        <time>2021-02-23T11:58:18.000Z</time>
      </trkpt>
      <trkpt lat="45.61834" lon="6.68048">
        <ele>1746.4000244141</ele>
        <time>2021-02-23T11:58:19.000Z</time>
      </trkpt>
      <trkpt lat="45.61833" lon="6.68044">
        <ele>1744.4000244141</ele>
        <time>2021-02-23T11:58:20.000Z</time>
      </trkpt>
      <trkpt lat="45.6183" lon="6.6804">
        <ele>1742.1999511719</ele>
        <time>2021-02-23T11:58:21.000Z</time>
      </trkpt>
      <trkpt lat="45.61829" lon="6.68034">
        <ele>1740.5999755859</ele>
        <time>2021-02-23T11:58:22.000Z</time>
      </trkpt>
      <trkpt lat="45.61829" lon="6.68029">
        <ele>1739</ele>
        <time>2021-02-23T11:58:23.000Z</time>
      </trkpt>
      <trkpt lat="45.61829" lon="6.68024">
        <ele>1738</ele>
        <time>2021-02-23T11:58:24.000Z</time>
      </trkpt>
      <trkpt lat="45.61829" lon="6.68015">
        <ele>1736.1999511719</ele>
        <time>2021-02-23T11:58:26.000Z</time>
      </trkpt>
      <trkpt lat="45.61829" lon="6.68012">
        <ele>1735</ele>
        <time>2021-02-23T11:58:27.000Z</time>
      </trkpt>
      <trkpt lat="45.61824" lon="6.68011">
        <ele>1733.5999755859</ele>
        <time>2021-02-23T11:58:28.000Z</time>
      </trkpt>
      <trkpt lat="45.61818" lon="6.68011">
        <ele>1732.4000244141</ele>
        <time>2021-02-23T11:58:29.000Z</time>
      </trkpt>
      <trkpt lat="45.61816" lon="6.68008">
        <ele>1731.1999511719</ele>
        <time>2021-02-23T11:58:30.000Z</time>
      </trkpt>
      <trkpt lat="45.61817" lon="6.68">
        <ele>1729.4000244141</ele>
        <time>2021-02-23T11:58:31.000Z</time>
      </trkpt>
      <trkpt lat="45.61817" lon="6.67993">
        <ele>1728.1999511719</ele>
        <time>2021-02-23T11:58:32.000Z</time>
      </trkpt>
      <trkpt lat="45.61819" lon="6.67978">
        <ele>1726</ele>
        <time>2021-02-23T11:58:34.000Z</time>
      </trkpt>
      <trkpt lat="45.6182" lon="6.67972">
        <ele>1724.4000244141</ele>
        <time>2021-02-23T11:58:35.000Z</time>
      </trkpt>
      <trkpt lat="45.61822" lon="6.67966">
        <ele>1723</ele>
        <time>2021-02-23T11:58:36.000Z</time>
      </trkpt>
      <trkpt lat="45.61823" lon="6.67961">
        <ele>1720.4000244141</ele>
        <time>2021-02-23T11:58:37.000Z</time>
      </trkpt>
      <trkpt lat="45.61825" lon="6.67957">
        <ele>1718</ele>
        <time>2021-02-23T11:58:38.000Z</time>
      </trkpt>
      <trkpt lat="45.61828" lon="6.67953">
        <ele>1716</ele>
        <time>2021-02-23T11:58:39.000Z</time>
      </trkpt>
      <trkpt lat="45.61718" lon="6.6806">
        <ele>1714.5999755859</ele>
        <time>2021-02-23T11:58:40.000Z</time>
      </trkpt>
      <trkpt lat="45.61716" lon="6.68057">
        <ele>1712.8000488281</ele>
        <time>2021-02-23T11:58:41.000Z</time>
      </trkpt>
      <trkpt lat="45.61714" lon="6.68056">
        <ele>1712.1999511719</ele>
        <time>2021-02-23T11:58:42.000Z</time>
      </trkpt>
      <trkpt lat="45.61713" lon="6.68051">
        <ele>1711.4000244141</ele>
        <time>2021-02-23T11:58:43.000Z</time>
      </trkpt>
      <trkpt lat="45.6171" lon="6.6804">
        <ele>1710</ele>
        <time>2021-02-23T11:58:45.000Z</time>
      </trkpt>
      <trkpt lat="45.61708" lon="6.68033">
        <ele>1708.5999755859</ele>
        <time>2021-02-23T11:58:46.000Z</time>
      </trkpt>
      <trkpt lat="45.61708" lon="6.68026">
        <ele>1706.5999755859</ele>
        <time>2021-02-23T11:58:47.000Z</time>
      </trkpt>
      <trkpt lat="45.61707" lon="6.68019">
        <ele>1704.5999755859</ele>
        <time>2021-02-23T11:58:48.000Z</time>
      </trkpt>
      <trkpt lat="45.61706" lon="6.68013">
        <ele>1702</ele>
        <time>2021-02-23T11:58:49.000Z</time>
      </trkpt>
      <trkpt lat="45.61706" lon="6.68007">
        <ele>1699.8000488281</ele>
        <time>2021-02-23T11:58:50.000Z</time>
      </trkpt>
      <trkpt lat="45.61704" lon="6.68002">
        <ele>1698.1999511719</ele>
        <time>2021-02-23T11:58:51.000Z</time>
      </trkpt>
      <trkpt lat="45.61702" lon="6.67996">
        <ele>1696.5999755859</ele>
        <time>2021-02-23T11:58:52.000Z</time>
      </trkpt>
      <trkpt lat="45.61701" lon="6.67992">
        <ele>1694.5999755859</ele>
        <time>2021-02-23T11:58:53.000Z</time>
      </trkpt>
      <trkpt lat="45.61701" lon="6.67987">
        <ele>1691.4000244141</ele>
        <time>2021-02-23T11:58:54.000Z</time>
      </trkpt>
      <trkpt lat="45.617" lon="6.67984">
        <ele>1689.1999511719</ele>
        <time>2021-02-23T11:58:55.000Z</time>
      </trkpt>
      <trkpt lat="45.61699" lon="6.6798">
        <ele>1688</ele>
        <time>2021-02-23T11:58:56.000Z</time>
      </trkpt>
      <trkpt lat="45.61699" lon="6.67976">
        <ele>1686.4000244141</ele>
        <time>2021-02-23T11:58:57.000Z</time>
      </trkpt>
      <trkpt lat="45.61699" lon="6.67971">
        <ele>1684.1999511719</ele>
        <time>2021-02-23T11:58:58.000Z</time>
      </trkpt>
      <trkpt lat="45.61699" lon="6.67965">
        <ele>1683.1999511719</ele>
        <time>2021-02-23T11:58:59.000Z</time>
      </trkpt>
      <trkpt lat="45.61699" lon="6.67958">
        <ele>1682.5999755859</ele>
        <time>2021-02-23T11:59:00.000Z</time>
      </trkpt>
      <trkpt lat="45.61698" lon="6.6795">
        <ele>1681.4000244141</ele>
        <time>2021-02-23T11:59:01.000Z</time>
      </trkpt>
      <trkpt lat="45.61698" lon="6.67943">
        <ele>1680</ele>
        <time>2021-02-23T11:59:02.000Z</time>
      </trkpt>
      <trkpt lat="45.61697" lon="6.67936">
        <ele>1677.5999755859</ele>
        <time>2021-02-23T11:59:03.000Z</time>
      </trkpt>
      <trkpt lat="45.61697" lon="6.67929">
        <ele>1675.4000244141</ele>
        <time>2021-02-23T11:59:04.000Z</time>
      </trkpt>
      <trkpt lat="45.61697" lon="6.67922">
        <ele>1672.1999511719</ele>
        <time>2021-02-23T11:59:05.000Z</time>
      </trkpt>
      <trkpt lat="45.61696" lon="6.67916">
        <ele>1671.1999511719</ele>
        <time>2021-02-23T11:59:06.000Z</time>
      </trkpt>
      <trkpt lat="45.61695" lon="6.6791">
        <ele>1669.8000488281</ele>
        <time>2021-02-23T11:59:07.000Z</time>
      </trkpt>
      <trkpt lat="45.61695" lon="6.67905">
        <ele>1668.5999755859</ele>
        <time>2021-02-23T11:59:08.000Z</time>
      </trkpt>
      <trkpt lat="45.61696" lon="6.67903">
        <ele>1667.1999511719</ele>
        <time>2021-02-23T11:59:09.000Z</time>
      </trkpt>
      <trkpt lat="45.61698" lon="6.67902">
        <ele>1666.1999511719</ele>
        <time>2021-02-23T11:59:10.000Z</time>
      </trkpt>
      <trkpt lat="45.61701" lon="6.67901">
        <ele>1665</ele>
        <time>2021-02-23T11:59:12.000Z</time>
      </trkpt>
      <trkpt lat="45.61703" lon="6.67901">
        <ele>1664.1999511719</ele>
        <time>2021-02-23T11:59:17.000Z</time>
      </trkpt>
      <trkpt lat="45.61703" lon="6.67901">
        <ele>1664</ele>
        <time>2021-02-23T11:59:33.000Z</time>
      </trkpt>
      <trkpt lat="45.61701" lon="6.67907">
        <ele>1664</ele>
        <time>2021-02-23T11:59:45.000Z</time>
      </trkpt>
      <trkpt lat="45.61701" lon="6.67907">
        <ele>1664</ele>
        <time>2021-02-23T12:00:03.000Z</time>
      </trkpt>
      <trkpt lat="45.61701" lon="6.67907">
        <ele>1664</ele>
        <time>2021-02-23T12:00:19.000Z</time>
      </trkpt>
      <trkpt lat="45.61698" lon="6.67909">
        <ele>1664</ele>
        <time>2021-02-23T12:00:32.000Z</time>
      </trkpt>
      <trkpt lat="45.61694" lon="6.67908">
        <ele>1664</ele>
        <time>2021-02-23T12:00:40.000Z</time>
      </trkpt>
      <trkpt lat="45.61693" lon="6.67928">
        <ele>1662.8000488281</ele>
        <time>2021-02-23T12:00:44.000Z</time>
      </trkpt>
      <trkpt lat="45.61689" lon="6.67934">
        <ele>1661.4000244141</ele>
        <time>2021-02-23T12:00:46.000Z</time>
      </trkpt>
      <trkpt lat="45.61687" lon="6.67936">
        <ele>1660.8000488281</ele>
        <time>2021-02-23T12:00:47.000Z</time>
      </trkpt>
      <trkpt lat="45.61686" lon="6.67936">
        <ele>1659.8000488281</ele>
        <time>2021-02-23T12:00:48.000Z</time>
      </trkpt>
      <trkpt lat="45.61685" lon="6.67934">
        <ele>1658.1999511719</ele>
        <time>2021-02-23T12:00:50.000Z</time>
      </trkpt>
      <trkpt lat="45.61684" lon="6.67931">
        <ele>1657.5999755859</ele>
        <time>2021-02-23T12:00:51.000Z</time>
      </trkpt>
      <trkpt lat="45.61682" lon="6.67927">
        <ele>1656.4000244141</ele>
        <time>2021-02-23T12:00:52.000Z</time>
      </trkpt>
      <trkpt lat="45.61677" lon="6.67922">
        <ele>1655</ele>
        <time>2021-02-23T12:00:53.000Z</time>
      </trkpt>
      <trkpt lat="45.61671" lon="6.67917">
        <ele>1653.4000244141</ele>
        <time>2021-02-23T12:00:54.000Z</time>
      </trkpt>
      <trkpt lat="45.61665" lon="6.67911">
        <ele>1651.4000244141</ele>
        <time>2021-02-23T12:00:55.000Z</time>
      </trkpt>
      <trkpt lat="45.61658" lon="6.67906">
        <ele>1649.5999755859</ele>
        <time>2021-02-23T12:00:56.000Z</time>
      </trkpt>
      <trkpt lat="45.61652" lon="6.67901">
        <ele>1648.1999511719</ele>
        <time>2021-02-23T12:00:57.000Z</time>
      </trkpt>
      <trkpt lat="45.61646" lon="6.67896">
        <ele>1647.1999511719</ele>
        <time>2021-02-23T12:00:58.000Z</time>
      </trkpt>
      <trkpt lat="45.61639" lon="6.67892">
        <ele>1646</ele>
        <time>2021-02-23T12:00:59.000Z</time>
      </trkpt>
      <trkpt lat="45.61624" lon="6.67884">
        <ele>1644.4000244141</ele>
        <time>2021-02-23T12:01:01.000Z</time>
      </trkpt>
      <trkpt lat="45.61608" lon="6.67876">
        <ele>1642.8000488281</ele>
        <time>2021-02-23T12:01:03.000Z</time>
      </trkpt>
      <trkpt lat="45.61592" lon="6.67866">
        <ele>1640.1999511719</ele>
        <time>2021-02-23T12:01:05.000Z</time>
      </trkpt>
      <trkpt lat="45.61577" lon="6.67856">
        <ele>1638.8000488281</ele>
        <time>2021-02-23T12:01:07.000Z</time>
      </trkpt>
      <trkpt lat="45.61561" lon="6.67847">
        <ele>1637.1999511719</ele>
        <time>2021-02-23T12:01:09.000Z</time>
      </trkpt>
      <trkpt lat="45.61546" lon="6.67839">
        <ele>1636</ele>
        <time>2021-02-23T12:01:11.000Z</time>
      </trkpt>
      <trkpt lat="45.61522" lon="6.67828">
        <ele>1634.8000488281</ele>
        <time>2021-02-23T12:01:14.000Z</time>
      </trkpt>
      <trkpt lat="45.61514" lon="6.67825">
        <ele>1634.4000244141</ele>
        <time>2021-02-23T12:01:15.000Z</time>
      </trkpt>
      <trkpt lat="45.61498" lon="6.67818">
        <ele>1633.1999511719</ele>
        <time>2021-02-23T12:01:17.000Z</time>
      </trkpt>
      <trkpt lat="45.61482" lon="6.67813">
        <ele>1632</ele>
        <time>2021-02-23T12:01:19.000Z</time>
      </trkpt>
      <trkpt lat="45.61465" lon="6.6781">
        <ele>1630.8000488281</ele>
        <time>2021-02-23T12:01:21.000Z</time>
      </trkpt>
      <trkpt lat="45.61456" lon="6.67808">
        <ele>1630.1999511719</ele>
        <time>2021-02-23T12:01:22.000Z</time>
      </trkpt>
      <trkpt lat="45.61448" lon="6.67806">
        <ele>1629.5999755859</ele>
        <time>2021-02-23T12:01:23.000Z</time>
      </trkpt>
      <trkpt lat="45.61439" lon="6.67804">
        <ele>1628.4000244141</ele>
        <time>2021-02-23T12:01:24.000Z</time>
      </trkpt>
      <trkpt lat="45.6143" lon="6.67802">
        <ele>1627.1999511719</ele>
        <time>2021-02-23T12:01:25.000Z</time>
      </trkpt>
      <trkpt lat="45.61421" lon="6.678">
        <ele>1625.8000488281</ele>
        <time>2021-02-23T12:01:26.000Z</time>
      </trkpt>
      <trkpt lat="45.61404" lon="6.67797">
        <ele>1624.1999511719</ele>
        <time>2021-02-23T12:01:28.000Z</time>
      </trkpt>
      <trkpt lat="45.61386" lon="6.67791">
        <ele>1623.1999511719</ele>
        <time>2021-02-23T12:01:30.000Z</time>
      </trkpt>
      <trkpt lat="45.61368" lon="6.67786">
        <ele>1622.8000488281</ele>
        <time>2021-02-23T12:01:32.000Z</time>
      </trkpt>
      <trkpt lat="45.61334" lon="6.67777">
        <ele>1622.1999511719</ele>
        <time>2021-02-23T12:01:36.000Z</time>
      </trkpt>
      <trkpt lat="45.61327" lon="6.67774">
        <ele>1621.4000244141</ele>
        <time>2021-02-23T12:01:37.000Z</time>
      </trkpt>
      <trkpt lat="45.6132" lon="6.67773">
        <ele>1620.4000244141</ele>
        <time>2021-02-23T12:01:38.000Z</time>
      </trkpt>
      <trkpt lat="45.61306" lon="6.67768">
        <ele>1618.8000488281</ele>
        <time>2021-02-23T12:01:40.000Z</time>
      </trkpt>
      <trkpt lat="45.61292" lon="6.67764">
        <ele>1617.8000488281</ele>
        <time>2021-02-23T12:01:42.000Z</time>
      </trkpt>
      <trkpt lat="45.61285" lon="6.67761">
        <ele>1616.5999755859</ele>
        <time>2021-02-23T12:01:43.000Z</time>
      </trkpt>
      <trkpt lat="45.61278" lon="6.67759">
        <ele>1615.4000244141</ele>
        <time>2021-02-23T12:01:44.000Z</time>
      </trkpt>
      <trkpt lat="45.61264" lon="6.67755">
        <ele>1613.8000488281</ele>
        <time>2021-02-23T12:01:46.000Z</time>
      </trkpt>
      <trkpt lat="45.61251" lon="6.6775">
        <ele>1612.5999755859</ele>
        <time>2021-02-23T12:01:48.000Z</time>
      </trkpt>
      <trkpt lat="45.61232" lon="6.67745">
        <ele>1613</ele>
        <time>2021-02-23T12:01:51.000Z</time>
      </trkpt>
      <trkpt lat="45.61212" lon="6.67743">
        <ele>1611.5999755859</ele>
        <time>2021-02-23T12:01:54.000Z</time>
      </trkpt>
      <trkpt lat="45.61199" lon="6.67742">
        <ele>1610.4000244141</ele>
        <time>2021-02-23T12:01:56.000Z</time>
      </trkpt>
      <trkpt lat="45.61186" lon="6.67743">
        <ele>1609.4000244141</ele>
        <time>2021-02-23T12:01:58.000Z</time>
      </trkpt>
      <trkpt lat="45.6118" lon="6.67743">
        <ele>1608.8000488281</ele>
        <time>2021-02-23T12:01:59.000Z</time>
      </trkpt>
      <trkpt lat="45.61156" lon="6.67734">
        <ele>1607.8000488281</ele>
        <time>2021-02-23T12:02:03.000Z</time>
      </trkpt>
      <trkpt lat="45.61151" lon="6.6773">
        <ele>1607.5999755859</ele>
        <time>2021-02-23T12:02:04.000Z</time>
      </trkpt>
      <trkpt lat="45.61135" lon="6.67724">
        <ele>1606.8000488281</ele>
        <time>2021-02-23T12:02:07.000Z</time>
      </trkpt>
      <trkpt lat="45.61114" lon="6.67716">
        <ele>1605.5999755859</ele>
        <time>2021-02-23T12:02:11.000Z</time>
      </trkpt>
      <trkpt lat="45.6111" lon="6.67712">
        <ele>1605.4000244141</ele>
        <time>2021-02-23T12:02:12.000Z</time>
      </trkpt>
      <trkpt lat="45.61105" lon="6.67708">
        <ele>1604.5999755859</ele>
        <time>2021-02-23T12:02:13.000Z</time>
      </trkpt>
      <trkpt lat="45.61086" lon="6.67696">
        <ele>1603.1999511719</ele>
        <time>2021-02-23T12:02:17.000Z</time>
      </trkpt>
      <trkpt lat="45.61061" lon="6.67684">
        <ele>1603.5999755859</ele>
        <time>2021-02-23T12:02:23.000Z</time>
      </trkpt>
      <trkpt lat="45.61053" lon="6.67681">
        <ele>1603.5999755859</ele>
        <time>2021-02-23T12:02:25.000Z</time>
      </trkpt>
      <trkpt lat="45.61038" lon="6.67678">
        <ele>1603</ele>
        <time>2021-02-23T12:02:29.000Z</time>
      </trkpt>
      <trkpt lat="45.61034" lon="6.67677">
        <ele>1602.1999511719</ele>
        <time>2021-02-23T12:02:30.000Z</time>
      </trkpt>
      <trkpt lat="45.61024" lon="6.67674">
        <ele>1601.1999511719</ele>
        <time>2021-02-23T12:02:33.000Z</time>
      </trkpt>
      <trkpt lat="45.61019" lon="6.67671">
        <ele>1602.1999511719</ele>
        <time>2021-02-23T12:02:35.000Z</time>
      </trkpt>
      <trkpt lat="45.61017" lon="6.67669">
        <ele>1603.1999511719</ele>
        <time>2021-02-23T12:02:36.000Z</time>
      </trkpt>
      <trkpt lat="45.61015" lon="6.67666">
        <ele>1603.5999755859</ele>
        <time>2021-02-23T12:02:37.000Z</time>
      </trkpt>
      <trkpt lat="45.6101" lon="6.6766">
        <ele>1604.1999511719</ele>
        <time>2021-02-23T12:02:41.000Z</time>
      </trkpt>
      <trkpt lat="45.61007" lon="6.67657">
        <ele>1603.8000488281</ele>
        <time>2021-02-23T12:02:48.000Z</time>
      </trkpt>
      <trkpt lat="45.61006" lon="6.67656">
        <ele>1603.4000244141</ele>
        <time>2021-02-23T12:02:52.000Z</time>
      </trkpt>
      <trkpt lat="45.61002" lon="6.67654">
        <ele>1603.4000244141</ele>
        <time>2021-02-23T12:02:55.000Z</time>
      </trkpt>
      <trkpt lat="45.60989" lon="6.67646">
        <ele>1603</ele>
        <time>2021-02-23T12:03:00.000Z</time>
      </trkpt>
      <trkpt lat="45.60979" lon="6.6764">
        <ele>1602.5999755859</ele>
        <time>2021-02-23T12:03:02.000Z</time>
      </trkpt>
      <trkpt lat="45.60967" lon="6.67635">
        <ele>1601.4000244141</ele>
        <time>2021-02-23T12:03:04.000Z</time>
      </trkpt>
      <trkpt lat="45.60959" lon="6.67632">
        <ele>1600.8000488281</ele>
        <time>2021-02-23T12:03:05.000Z</time>
      </trkpt>
      <trkpt lat="45.60952" lon="6.67629">
        <ele>1599.1999511719</ele>
        <time>2021-02-23T12:03:06.000Z</time>
      </trkpt>
      <trkpt lat="45.60946" lon="6.67627">
        <ele>1598</ele>
        <time>2021-02-23T12:03:07.000Z</time>
      </trkpt>
      <trkpt lat="45.60932" lon="6.67622">
        <ele>1596.4000244141</ele>
        <time>2021-02-23T12:03:09.000Z</time>
      </trkpt>
      <trkpt lat="45.60917" lon="6.67619">
        <ele>1595.4000244141</ele>
        <time>2021-02-23T12:03:11.000Z</time>
      </trkpt>
      <trkpt lat="45.60903" lon="6.67614">
        <ele>1593.4000244141</ele>
        <time>2021-02-23T12:03:13.000Z</time>
      </trkpt>
      <trkpt lat="45.60889" lon="6.67609">
        <ele>1591.8000488281</ele>
        <time>2021-02-23T12:03:15.000Z</time>
      </trkpt>
      <trkpt lat="45.60876" lon="6.67602">
        <ele>1590.8000488281</ele>
        <time>2021-02-23T12:03:17.000Z</time>
      </trkpt>
      <trkpt lat="45.60864" lon="6.67593">
        <ele>1589.5999755859</ele>
        <time>2021-02-23T12:03:19.000Z</time>
      </trkpt>
      <trkpt lat="45.60853" lon="6.67584">
        <ele>1588.4000244141</ele>
        <time>2021-02-23T12:03:21.000Z</time>
      </trkpt>
      <trkpt lat="45.60842" lon="6.67576">
        <ele>1587.5999755859</ele>
        <time>2021-02-23T12:03:23.000Z</time>
      </trkpt>
      <trkpt lat="45.60836" lon="6.67571">
        <ele>1587.4000244141</ele>
        <time>2021-02-23T12:03:24.000Z</time>
      </trkpt>
      <trkpt lat="45.60829" lon="6.67568">
        <ele>1586.8000488281</ele>
        <time>2021-02-23T12:03:25.000Z</time>
      </trkpt>
      <trkpt lat="45.60822" lon="6.67565">
        <ele>1586.1999511719</ele>
        <time>2021-02-23T12:03:26.000Z</time>
      </trkpt>
      <trkpt lat="45.60811" lon="6.67559">
        <ele>1585.1999511719</ele>
        <time>2021-02-23T12:03:28.000Z</time>
      </trkpt>
      <trkpt lat="45.60802" lon="6.67552">
        <ele>1584</ele>
        <time>2021-02-23T12:03:30.000Z</time>
      </trkpt>
      <trkpt lat="45.6079" lon="6.67539">
        <ele>1583</ele>
        <time>2021-02-23T12:03:34.000Z</time>
      </trkpt>
      <trkpt lat="45.60789" lon="6.67537">
        <ele>1582.8000488281</ele>
        <time>2021-02-23T12:03:35.000Z</time>
      </trkpt>
      <trkpt lat="45.60783" lon="6.6753">
        <ele>1582.8000488281</ele>
        <time>2021-02-23T12:03:40.000Z</time>
      </trkpt>
      <trkpt lat="45.60772" lon="6.67532">
        <ele>1583</ele>
        <time>2021-02-23T12:03:47.000Z</time>
      </trkpt>
      <trkpt lat="45.60759" lon="6.67535">
        <ele>1582.4000244141</ele>
        <time>2021-02-23T12:03:53.000Z</time>
      </trkpt>
      <trkpt lat="45.60754" lon="6.67535">
        <ele>1582</ele>
        <time>2021-02-23T12:03:54.000Z</time>
      </trkpt>
      <trkpt lat="45.60747" lon="6.67535">
        <ele>1581.5999755859</ele>
        <time>2021-02-23T12:03:55.000Z</time>
      </trkpt>
      <trkpt lat="45.60733" lon="6.67533">
        <ele>1580.1999511719</ele>
        <time>2021-02-23T12:03:57.000Z</time>
      </trkpt>
      <trkpt lat="45.60718" lon="6.67528">
        <ele>1578.8000488281</ele>
        <time>2021-02-23T12:03:59.000Z</time>
      </trkpt>
      <trkpt lat="45.60704" lon="6.67524">
        <ele>1577.1999511719</ele>
        <time>2021-02-23T12:04:01.000Z</time>
      </trkpt>
      <trkpt lat="45.60689" lon="6.67516">
        <ele>1575.8000488281</ele>
        <time>2021-02-23T12:04:03.000Z</time>
      </trkpt>
      <trkpt lat="45.60682" lon="6.67513">
        <ele>1575.4000244141</ele>
        <time>2021-02-23T12:04:04.000Z</time>
      </trkpt>
      <trkpt lat="45.60667" lon="6.67506">
        <ele>1574.5999755859</ele>
        <time>2021-02-23T12:04:06.000Z</time>
      </trkpt>
      <trkpt lat="45.60652" lon="6.67493">
        <ele>1573.5999755859</ele>
        <time>2021-02-23T12:04:09.000Z</time>
      </trkpt>
      <trkpt lat="45.60649" lon="6.67489">
        <ele>1573.4000244141</ele>
        <time>2021-02-23T12:04:10.000Z</time>
      </trkpt>
      <trkpt lat="45.60637" lon="6.67482">
        <ele>1572.1999511719</ele>
        <time>2021-02-23T12:04:13.000Z</time>
      </trkpt>
      <trkpt lat="45.6063" lon="6.6748">
        <ele>1571.8000488281</ele>
        <time>2021-02-23T12:04:15.000Z</time>
      </trkpt>
      <trkpt lat="45.60619" lon="6.67481">
        <ele>1571.1999511719</ele>
        <time>2021-02-23T12:04:18.000Z</time>
      </trkpt>
      <trkpt lat="45.60608" lon="6.67483">
        <ele>1570.5999755859</ele>
        <time>2021-02-23T12:04:22.000Z</time>
      </trkpt>
      <trkpt lat="45.60602" lon="6.67485">
        <ele>1570</ele>
        <time>2021-02-23T12:04:24.000Z</time>
      </trkpt>
      <trkpt lat="45.60594" lon="6.67484">
        <ele>1569.5999755859</ele>
        <time>2021-02-23T12:04:28.000Z</time>
      </trkpt>
      <trkpt lat="45.60588" lon="6.67472">
        <ele>1570.1999511719</ele>
        <time>2021-02-23T12:04:35.000Z</time>
      </trkpt>
      <trkpt lat="45.60574" lon="6.67459">
        <ele>1570.8000488281</ele>
        <time>2021-02-23T12:04:43.000Z</time>
      </trkpt>
      <trkpt lat="45.60571" lon="6.67455">
        <ele>1571.1999511719</ele>
        <time>2021-02-23T12:04:45.000Z</time>
      </trkpt>
      <trkpt lat="45.60567" lon="6.67448">
        <ele>1572.1999511719</ele>
        <time>2021-02-23T12:04:49.000Z</time>
      </trkpt>
      <trkpt lat="45.60566" lon="6.67446">
        <ele>1572.5999755859</ele>
        <time>2021-02-23T12:04:50.000Z</time>
      </trkpt>
      <trkpt lat="45.60565" lon="6.67444">
        <ele>1573.4000244141</ele>
        <time>2021-02-23T12:04:52.000Z</time>
      </trkpt>
      <trkpt lat="45.60564" lon="6.67443">
        <ele>1573.8000488281</ele>
        <time>2021-02-23T12:04:55.000Z</time>
      </trkpt>
      <trkpt lat="45.60564" lon="6.67443">
        <ele>1573.4000244141</ele>
        <time>2021-02-23T12:05:13.000Z</time>
      </trkpt>
      <trkpt lat="45.60564" lon="6.67443">
        <ele>1574</ele>
        <time>2021-02-23T12:05:26.000Z</time>
      </trkpt>
      <trkpt lat="45.60564" lon="6.67443">
        <ele>1573.8000488281</ele>
        <time>2021-02-23T12:05:36.000Z</time>
      </trkpt>
      <trkpt lat="45.60564" lon="6.67443">
        <ele>1573.5999755859</ele>
        <time>2021-02-23T12:05:50.000Z</time>
      </trkpt>
      <trkpt lat="45.60564" lon="6.67443">
        <ele>1571.8000488281</ele>
        <time>2021-02-23T12:05:52.000Z</time>
      </trkpt>
      <trkpt lat="45.60564" lon="6.67443">
        <ele>1570</ele>
        <time>2021-02-23T12:05:53.000Z</time>
      </trkpt>
      <trkpt lat="45.60564" lon="6.67443">
        <ele>1568.4000244141</ele>
        <time>2021-02-23T12:05:54.000Z</time>
      </trkpt>
      <trkpt lat="45.60564" lon="6.67443">
        <ele>1570.5999755859</ele>
        <time>2021-02-23T12:05:57.000Z</time>
      </trkpt>
      <trkpt lat="45.60564" lon="6.67443">
        <ele>1571.5999755859</ele>
        <time>2021-02-23T12:05:58.000Z</time>
      </trkpt>
      <trkpt lat="45.60564" lon="6.67443">
        <ele>1573</ele>
        <time>2021-02-23T12:06:00.000Z</time>
      </trkpt>
      <trkpt lat="45.60564" lon="6.67443">
        <ele>1575</ele>
        <time>2021-02-23T12:06:01.000Z</time>
      </trkpt>
      <trkpt lat="45.60564" lon="6.67443">
        <ele>1576.5999755859</ele>
        <time>2021-02-23T12:06:02.000Z</time>
      </trkpt>
      <trkpt lat="45.60564" lon="6.67443">
        <ele>1577.8000488281</ele>
        <time>2021-02-23T12:06:05.000Z</time>
      </trkpt>
      <trkpt lat="45.60564" lon="6.67443">
        <ele>1576.1999511719</ele>
        <time>2021-02-23T12:06:06.000Z</time>
      </trkpt>
      <trkpt lat="45.60564" lon="6.67443">
        <ele>1575</ele>
        <time>2021-02-23T12:06:07.000Z</time>
      </trkpt>
      <trkpt lat="45.60563" lon="6.67443">
        <ele>1573.8000488281</ele>
        <time>2021-02-23T12:06:09.000Z</time>
      </trkpt>
      <trkpt lat="45.60563" lon="6.67443">
        <ele>1574</ele>
        <time>2021-02-23T12:06:12.000Z</time>
      </trkpt>
      <trkpt lat="45.60563" lon="6.67443">
        <ele>1573.8000488281</ele>
        <time>2021-02-23T12:06:27.000Z</time>
      </trkpt>
      <trkpt lat="45.60563" lon="6.67443">
        <ele>1573.5999755859</ele>
        <time>2021-02-23T12:06:37.000Z</time>
      </trkpt>
      <trkpt lat="45.60558" lon="6.67442">
        <ele>1573.8000488281</ele>
        <time>2021-02-23T12:06:47.000Z</time>
      </trkpt>
      <trkpt lat="45.60556" lon="6.6744">
        <ele>1573.5999755859</ele>
        <time>2021-02-23T12:06:48.000Z</time>
      </trkpt>
      <trkpt lat="45.60539" lon="6.6743">
        <ele>1572.5999755859</ele>
        <time>2021-02-23T12:06:54.000Z</time>
      </trkpt>
      <trkpt lat="45.6053" lon="6.67422">
        <ele>1571.4000244141</ele>
        <time>2021-02-23T12:06:57.000Z</time>
      </trkpt>
      <trkpt lat="45.60517" lon="6.67414">
        <ele>1570.1999511719</ele>
        <time>2021-02-23T12:07:01.000Z</time>
      </trkpt>
      <trkpt lat="45.60509" lon="6.67408">
        <ele>1569.1999511719</ele>
        <time>2021-02-23T12:07:03.000Z</time>
      </trkpt>
      <trkpt lat="45.60505" lon="6.67404">
        <ele>1568.8000488281</ele>
        <time>2021-02-23T12:07:04.000Z</time>
      </trkpt>
      <trkpt lat="45.605" lon="6.674">
        <ele>1568.1999511719</ele>
        <time>2021-02-23T12:07:05.000Z</time>
      </trkpt>
      <trkpt lat="45.60495" lon="6.67396">
        <ele>1567</ele>
        <time>2021-02-23T12:07:06.000Z</time>
      </trkpt>
      <trkpt lat="45.60484" lon="6.67387">
        <ele>1565.5999755859</ele>
        <time>2021-02-23T12:07:08.000Z</time>
      </trkpt>
      <trkpt lat="45.60472" lon="6.67377">
        <ele>1564</ele>
        <time>2021-02-23T12:07:10.000Z</time>
      </trkpt>
      <trkpt lat="45.60458" lon="6.67366">
        <ele>1562.4000244141</ele>
        <time>2021-02-23T12:07:12.000Z</time>
      </trkpt>
      <trkpt lat="45.6045" lon="6.67361">
        <ele>1561.1999511719</ele>
        <time>2021-02-23T12:07:13.000Z</time>
      </trkpt>
      <trkpt lat="45.60443" lon="6.67356">
        <ele>1559.8000488281</ele>
        <time>2021-02-23T12:07:14.000Z</time>
      </trkpt>
      <trkpt lat="45.60435" lon="6.6735">
        <ele>1558.4000244141</ele>
        <time>2021-02-23T12:07:15.000Z</time>
      </trkpt>
      <trkpt lat="45.60428" lon="6.67345">
        <ele>1557.4000244141</ele>
        <time>2021-02-23T12:07:16.000Z</time>
      </trkpt>
      <trkpt lat="45.60413" lon="6.67335">
        <ele>1556.4000244141</ele>
        <time>2021-02-23T12:07:18.000Z</time>
      </trkpt>
      <trkpt lat="45.60397" lon="6.67328">
        <ele>1555.5999755859</ele>
        <time>2021-02-23T12:07:20.000Z</time>
      </trkpt>
      <trkpt lat="45.60377" lon="6.67318">
        <ele>1556.1999511719</ele>
        <time>2021-02-23T12:07:23.000Z</time>
      </trkpt>
      <trkpt lat="45.60371" lon="6.67313">
        <ele>1556.4000244141</ele>
        <time>2021-02-23T12:07:24.000Z</time>
      </trkpt>
      <trkpt lat="45.60366" lon="6.67311">
        <ele>1556</ele>
        <time>2021-02-23T12:07:25.000Z</time>
      </trkpt>
      <trkpt lat="45.60354" lon="6.67306">
        <ele>1555.1999511719</ele>
        <time>2021-02-23T12:07:27.000Z</time>
      </trkpt>
      <trkpt lat="45.60343" lon="6.67301">
        <ele>1553.8000488281</ele>
        <time>2021-02-23T12:07:29.000Z</time>
      </trkpt>
      <trkpt lat="45.60337" lon="6.67299">
        <ele>1552.8000488281</ele>
        <time>2021-02-23T12:07:30.000Z</time>
      </trkpt>
      <trkpt lat="45.60331" lon="6.67298">
        <ele>1552.1999511719</ele>
        <time>2021-02-23T12:07:31.000Z</time>
      </trkpt>
      <trkpt lat="45.60324" lon="6.67296">
        <ele>1551.5999755859</ele>
        <time>2021-02-23T12:07:32.000Z</time>
      </trkpt>
      <trkpt lat="45.60309" lon="6.67292">
        <ele>1550.4000244141</ele>
        <time>2021-02-23T12:07:34.000Z</time>
      </trkpt>
      <trkpt lat="45.60294" lon="6.67286">
        <ele>1548.5999755859</ele>
        <time>2021-02-23T12:07:36.000Z</time>
      </trkpt>
      <trkpt lat="45.60278" lon="6.67278">
        <ele>1547</ele>
        <time>2021-02-23T12:07:38.000Z</time>
      </trkpt>
      <trkpt lat="45.60262" lon="6.6727">
        <ele>1545.5999755859</ele>
        <time>2021-02-23T12:07:40.000Z</time>
      </trkpt>
      <trkpt lat="45.60246" lon="6.67262">
        <ele>1544</ele>
        <time>2021-02-23T12:07:42.000Z</time>
      </trkpt>
      <trkpt lat="45.6023" lon="6.67256">
        <ele>1542.5999755859</ele>
        <time>2021-02-23T12:07:44.000Z</time>
      </trkpt>
      <trkpt lat="45.60214" lon="6.6725">
        <ele>1541.1999511719</ele>
        <time>2021-02-23T12:07:46.000Z</time>
      </trkpt>
      <trkpt lat="45.60199" lon="6.67245">
        <ele>1540</ele>
        <time>2021-02-23T12:07:48.000Z</time>
      </trkpt>
      <trkpt lat="45.60186" lon="6.6724">
        <ele>1538.8000488281</ele>
        <time>2021-02-23T12:07:50.000Z</time>
      </trkpt>
      <trkpt lat="45.60174" lon="6.67235">
        <ele>1537.4000244141</ele>
        <time>2021-02-23T12:07:52.000Z</time>
      </trkpt>
      <trkpt lat="45.60169" lon="6.67231">
        <ele>1536.8000488281</ele>
        <time>2021-02-23T12:07:53.000Z</time>
      </trkpt>
      <trkpt lat="45.60164" lon="6.67226">
        <ele>1536.1999511719</ele>
        <time>2021-02-23T12:07:54.000Z</time>
      </trkpt>
      <trkpt lat="45.60154" lon="6.67213">
        <ele>1534.5999755859</ele>
        <time>2021-02-23T12:07:56.000Z</time>
      </trkpt>
      <trkpt lat="45.60145" lon="6.67204">
        <ele>1533.1999511719</ele>
        <time>2021-02-23T12:07:58.000Z</time>
      </trkpt>
      <trkpt lat="45.60138" lon="6.67197">
        <ele>1532.4000244141</ele>
        <time>2021-02-23T12:08:00.000Z</time>
      </trkpt>
      <trkpt lat="45.60135" lon="6.67194">
        <ele>1532</ele>
        <time>2021-02-23T12:08:01.000Z</time>
      </trkpt>
      <trkpt lat="45.60133" lon="6.67187">
        <ele>1530.8000488281</ele>
        <time>2021-02-23T12:08:03.000Z</time>
      </trkpt>
      <trkpt lat="45.60133" lon="6.67183">
        <ele>1530</ele>
        <time>2021-02-23T12:08:04.000Z</time>
      </trkpt>
      <trkpt lat="45.60133" lon="6.67177">
        <ele>1529.5999755859</ele>
        <time>2021-02-23T12:08:05.000Z</time>
      </trkpt>
      <trkpt lat="45.60134" lon="6.67153">
        <ele>1528.1999511719</ele>
        <time>2021-02-23T12:08:08.000Z</time>
      </trkpt>
      <trkpt lat="45.6013" lon="6.6713">
        <ele>1526.5999755859</ele>
        <time>2021-02-23T12:08:11.000Z</time>
      </trkpt>
      <trkpt lat="45.60129" lon="6.67123">
        <ele>1525.4000244141</ele>
        <time>2021-02-23T12:08:12.000Z</time>
      </trkpt>
      <trkpt lat="45.6013" lon="6.67114">
        <ele>1524</ele>
        <time>2021-02-23T12:08:13.000Z</time>
      </trkpt>
      <trkpt lat="45.60127" lon="6.67109">
        <ele>1522.4000244141</ele>
        <time>2021-02-23T12:08:14.000Z</time>
      </trkpt>
      <trkpt lat="45.60123" lon="6.67106">
        <ele>1521</ele>
        <time>2021-02-23T12:08:15.000Z</time>
      </trkpt>
      <trkpt lat="45.60117" lon="6.67103">
        <ele>1519.5999755859</ele>
        <time>2021-02-23T12:08:16.000Z</time>
      </trkpt>
      <trkpt lat="45.60111" lon="6.67103">
        <ele>1518.4000244141</ele>
        <time>2021-02-23T12:08:17.000Z</time>
      </trkpt>
      <trkpt lat="45.60105" lon="6.67103">
        <ele>1517.4000244141</ele>
        <time>2021-02-23T12:08:18.000Z</time>
      </trkpt>
      <trkpt lat="45.60099" lon="6.67104">
        <ele>1513.4000244141</ele>
        <time>2021-02-23T12:08:19.000Z</time>
      </trkpt>
      <trkpt lat="45.60094" lon="6.67103">
        <ele>1511.4000244141</ele>
        <time>2021-02-23T12:08:20.000Z</time>
      </trkpt>
      <trkpt lat="45.60088" lon="6.67106">
        <ele>1510</ele>
        <time>2021-02-23T12:08:21.000Z</time>
      </trkpt>
      <trkpt lat="45.6008" lon="6.67104">
        <ele>1508</ele>
        <time>2021-02-23T12:08:23.000Z</time>
      </trkpt>
      <trkpt lat="45.60075" lon="6.67107">
        <ele>1506.5999755859</ele>
        <time>2021-02-23T12:08:24.000Z</time>
      </trkpt>
      <trkpt lat="45.60072" lon="6.67111">
        <ele>1505</ele>
        <time>2021-02-23T12:08:25.000Z</time>
      </trkpt>
      <trkpt lat="45.6007" lon="6.67116">
        <ele>1504</ele>
        <time>2021-02-23T12:08:26.000Z</time>
      </trkpt>
      <trkpt lat="45.60065" lon="6.67123">
        <ele>1502.1999511719</ele>
        <time>2021-02-23T12:08:28.000Z</time>
      </trkpt>
      <trkpt lat="45.60062" lon="6.67127">
        <ele>1501</ele>
        <time>2021-02-23T12:08:29.000Z</time>
      </trkpt>
      <trkpt lat="45.6006" lon="6.67129">
        <ele>1499.4000244141</ele>
        <time>2021-02-23T12:08:30.000Z</time>
      </trkpt>
      <trkpt lat="45.60059" lon="6.6713">
        <ele>1498.4000244141</ele>
        <time>2021-02-23T12:08:31.000Z</time>
      </trkpt>
      <trkpt lat="45.60058" lon="6.67127">
        <ele>1497</ele>
        <time>2021-02-23T12:08:32.000Z</time>
      </trkpt>
      <trkpt lat="45.60057" lon="6.67121">
        <ele>1496</ele>
        <time>2021-02-23T12:08:33.000Z</time>
      </trkpt>
      <trkpt lat="45.60056" lon="6.67111">
        <ele>1495.1999511719</ele>
        <time>2021-02-23T12:08:34.000Z</time>
      </trkpt>
      <trkpt lat="45.60055" lon="6.67102">
        <ele>1494.8000488281</ele>
        <time>2021-02-23T12:08:35.000Z</time>
      </trkpt>
      <trkpt lat="45.60053" lon="6.67092">
        <ele>1494.1999511719</ele>
        <time>2021-02-23T12:08:36.000Z</time>
      </trkpt>
      <trkpt lat="45.60051" lon="6.67082">
        <ele>1493.5999755859</ele>
        <time>2021-02-23T12:08:37.000Z</time>
      </trkpt>
      <trkpt lat="45.60048" lon="6.67073">
        <ele>1493</ele>
        <time>2021-02-23T12:08:38.000Z</time>
      </trkpt>
      <trkpt lat="45.60046" lon="6.67065">
        <ele>1492.1999511719</ele>
        <time>2021-02-23T12:08:39.000Z</time>
      </trkpt>
      <trkpt lat="45.60037" lon="6.6705">
        <ele>1491</ele>
        <time>2021-02-23T12:08:41.000Z</time>
      </trkpt>
      <trkpt lat="45.60031" lon="6.67043">
        <ele>1490.1999511719</ele>
        <time>2021-02-23T12:08:42.000Z</time>
      </trkpt>
      <trkpt lat="45.60024" lon="6.67036">
        <ele>1488.5999755859</ele>
        <time>2021-02-23T12:08:43.000Z</time>
      </trkpt>
      <trkpt lat="45.60012" lon="6.67024">
        <ele>1487.4000244141</ele>
        <time>2021-02-23T12:08:45.000Z</time>
      </trkpt>
      <trkpt lat="45.6" lon="6.67015">
        <ele>1486.1999511719</ele>
        <time>2021-02-23T12:08:47.000Z</time>
      </trkpt>
      <trkpt lat="45.59994" lon="6.67012">
        <ele>1485.4000244141</ele>
        <time>2021-02-23T12:08:48.000Z</time>
      </trkpt>
      <trkpt lat="45.59988" lon="6.67012">
        <ele>1484.5999755859</ele>
        <time>2021-02-23T12:08:49.000Z</time>
      </trkpt>
      <trkpt lat="45.59976" lon="6.67011">
        <ele>1482.8000488281</ele>
        <time>2021-02-23T12:08:51.000Z</time>
      </trkpt>
      <trkpt lat="45.59964" lon="6.67011">
        <ele>1481.1999511719</ele>
        <time>2021-02-23T12:08:53.000Z</time>
      </trkpt>
      <trkpt lat="45.59951" lon="6.67011">
        <ele>1480</ele>
        <time>2021-02-23T12:08:55.000Z</time>
      </trkpt>
      <trkpt lat="45.59938" lon="6.67006">
        <ele>1478.8000488281</ele>
        <time>2021-02-23T12:08:57.000Z</time>
      </trkpt>
      <trkpt lat="45.59926" lon="6.66998">
        <ele>1477.1999511719</ele>
        <time>2021-02-23T12:08:59.000Z</time>
      </trkpt>
      <trkpt lat="45.59921" lon="6.66992">
        <ele>1476.4000244141</ele>
        <time>2021-02-23T12:09:00.000Z</time>
      </trkpt>
      <trkpt lat="45.59917" lon="6.66987">
        <ele>1475.5999755859</ele>
        <time>2021-02-23T12:09:01.000Z</time>
      </trkpt>
      <trkpt lat="45.59903" lon="6.66976">
        <ele>1474</ele>
        <time>2021-02-23T12:09:03.000Z</time>
      </trkpt>
      <trkpt lat="45.59887" lon="6.66968">
        <ele>1472</ele>
        <time>2021-02-23T12:09:05.000Z</time>
      </trkpt>
      <trkpt lat="45.59873" lon="6.6696">
        <ele>1469.4000244141</ele>
        <time>2021-02-23T12:09:07.000Z</time>
      </trkpt>
      <trkpt lat="45.59865" lon="6.66958">
        <ele>1468.4000244141</ele>
        <time>2021-02-23T12:09:08.000Z</time>
      </trkpt>
      <trkpt lat="45.59858" lon="6.66957">
        <ele>1467.1999511719</ele>
        <time>2021-02-23T12:09:09.000Z</time>
      </trkpt>
      <trkpt lat="45.59848" lon="6.66956">
        <ele>1466.1999511719</ele>
        <time>2021-02-23T12:09:10.000Z</time>
      </trkpt>
      <trkpt lat="45.59839" lon="6.66956">
        <ele>1465.4000244141</ele>
        <time>2021-02-23T12:09:11.000Z</time>
      </trkpt>
      <trkpt lat="45.59822" lon="6.66958">
        <ele>1464.4000244141</ele>
        <time>2021-02-23T12:09:13.000Z</time>
      </trkpt>
      <trkpt lat="45.59786" lon="6.66973">
        <ele>1463.1999511719</ele>
        <time>2021-02-23T12:09:17.000Z</time>
      </trkpt>
      <trkpt lat="45.5976" lon="6.66973">
        <ele>1461.8000488281</ele>
        <time>2021-02-23T12:09:20.000Z</time>
      </trkpt>
      <trkpt lat="45.59755" lon="6.66971">
        <ele>1460.8000488281</ele>
        <time>2021-02-23T12:09:21.000Z</time>
      </trkpt>
      <trkpt lat="45.5975" lon="6.66968">
        <ele>1459.8000488281</ele>
        <time>2021-02-23T12:09:22.000Z</time>
      </trkpt>
      <trkpt lat="45.59743" lon="6.66948">
        <ele>1458</ele>
        <time>2021-02-23T12:09:24.000Z</time>
      </trkpt>
      <trkpt lat="45.5974" lon="6.66937">
        <ele>1457.1999511719</ele>
        <time>2021-02-23T12:09:25.000Z</time>
      </trkpt>
      <trkpt lat="45.59737" lon="6.66928">
        <ele>1456.4000244141</ele>
        <time>2021-02-23T12:09:26.000Z</time>
      </trkpt>
      <trkpt lat="45.59731" lon="6.66906">
        <ele>1455.1999511719</ele>
        <time>2021-02-23T12:09:28.000Z</time>
      </trkpt>
      <trkpt lat="45.59729" lon="6.66897">
        <ele>1454.4000244141</ele>
        <time>2021-02-23T12:09:29.000Z</time>
      </trkpt>
      <trkpt lat="45.59727" lon="6.66888">
        <ele>1453.4000244141</ele>
        <time>2021-02-23T12:09:30.000Z</time>
      </trkpt>
      <trkpt lat="45.59726" lon="6.6688">
        <ele>1452</ele>
        <time>2021-02-23T12:09:31.000Z</time>
      </trkpt>
      <trkpt lat="45.59719" lon="6.66864">
        <ele>1450.5999755859</ele>
        <time>2021-02-23T12:09:33.000Z</time>
      </trkpt>
      <trkpt lat="45.59715" lon="6.66856">
        <ele>1449.8000488281</ele>
        <time>2021-02-23T12:09:34.000Z</time>
      </trkpt>
      <trkpt lat="45.59711" lon="6.66847">
        <ele>1449</ele>
        <time>2021-02-23T12:09:35.000Z</time>
      </trkpt>
      <trkpt lat="45.59706" lon="6.66839">
        <ele>1448.1999511719</ele>
        <time>2021-02-23T12:09:36.000Z</time>
      </trkpt>
      <trkpt lat="45.59702" lon="6.66833">
        <ele>1447.4000244141</ele>
        <time>2021-02-23T12:09:37.000Z</time>
      </trkpt>
      <trkpt lat="45.59697" lon="6.66827">
        <ele>1446.5999755859</ele>
        <time>2021-02-23T12:09:38.000Z</time>
      </trkpt>
      <trkpt lat="45.59691" lon="6.66822">
        <ele>1446</ele>
        <time>2021-02-23T12:09:39.000Z</time>
      </trkpt>
      <trkpt lat="45.59678" lon="6.66811">
        <ele>1444.5999755859</ele>
        <time>2021-02-23T12:09:41.000Z</time>
      </trkpt>
      <trkpt lat="45.59673" lon="6.66807">
        <ele>1443.8000488281</ele>
        <time>2021-02-23T12:09:42.000Z</time>
      </trkpt>
      <trkpt lat="45.59669" lon="6.66803">
        <ele>1443</ele>
        <time>2021-02-23T12:09:43.000Z</time>
      </trkpt>
      <trkpt lat="45.5966" lon="6.66793">
        <ele>1442.1999511719</ele>
        <time>2021-02-23T12:09:44.000Z</time>
      </trkpt>
      <trkpt lat="45.59653" lon="6.66787">
        <ele>1441.5999755859</ele>
        <time>2021-02-23T12:09:45.000Z</time>
      </trkpt>
      <trkpt lat="45.59646" lon="6.66781">
        <ele>1440.8000488281</ele>
        <time>2021-02-23T12:09:46.000Z</time>
      </trkpt>
      <trkpt lat="45.59645" lon="6.66777">
        <ele>1440.1999511719</ele>
        <time>2021-02-23T12:09:47.000Z</time>
      </trkpt>
      <trkpt lat="45.59645" lon="6.66774">
        <ele>1439.1999511719</ele>
        <time>2021-02-23T12:09:50.000Z</time>
      </trkpt>
      <trkpt lat="45.59647" lon="6.66777">
        <ele>1438.5999755859</ele>
        <time>2021-02-23T12:09:52.000Z</time>
      </trkpt>
      <trkpt lat="45.59648" lon="6.66778">
        <ele>1438</ele>
        <time>2021-02-23T12:09:53.000Z</time>
      </trkpt>
      <trkpt lat="45.59648" lon="6.6678">
        <ele>1437.4000244141</ele>
        <time>2021-02-23T12:09:54.000Z</time>
      </trkpt>
      <trkpt lat="45.59648" lon="6.66782">
        <ele>1435.5999755859</ele>
        <time>2021-02-23T12:09:55.000Z</time>
      </trkpt>
      <trkpt lat="45.59647" lon="6.66786">
        <ele>1434.8000488281</ele>
        <time>2021-02-23T12:09:56.000Z</time>
      </trkpt>
      <trkpt lat="45.59645" lon="6.6679">
        <ele>1434</ele>
        <time>2021-02-23T12:09:57.000Z</time>
      </trkpt>
      <trkpt lat="45.59643" lon="6.6679">
        <ele>1433.5999755859</ele>
        <time>2021-02-23T12:09:58.000Z</time>
      </trkpt>
      <trkpt lat="45.5964" lon="6.66796">
        <ele>1432.5999755859</ele>
        <time>2021-02-23T12:10:00.000Z</time>
      </trkpt>
      <trkpt lat="45.59638" lon="6.66809">
        <ele>1431.1999511719</ele>
        <time>2021-02-23T12:10:02.000Z</time>
      </trkpt>
      <trkpt lat="45.59637" lon="6.66827">
        <ele>1429.5999755859</ele>
        <time>2021-02-23T12:10:04.000Z</time>
      </trkpt>
      <trkpt lat="45.59636" lon="6.66845">
        <ele>1428</ele>
        <time>2021-02-23T12:10:06.000Z</time>
      </trkpt>
      <trkpt lat="45.59636" lon="6.66862">
        <ele>1426.5999755859</ele>
        <time>2021-02-23T12:10:08.000Z</time>
      </trkpt>
      <trkpt lat="45.59635" lon="6.66882">
        <ele>1425.4000244141</ele>
        <time>2021-02-23T12:10:10.000Z</time>
      </trkpt>
      <trkpt lat="45.59634" lon="6.66902">
        <ele>1424.1999511719</ele>
        <time>2021-02-23T12:10:12.000Z</time>
      </trkpt>
      <trkpt lat="45.59635" lon="6.66914">
        <ele>1423.4000244141</ele>
        <time>2021-02-23T12:10:13.000Z</time>
      </trkpt>
      <trkpt lat="45.59638" lon="6.66925">
        <ele>1422.4000244141</ele>
        <time>2021-02-23T12:10:14.000Z</time>
      </trkpt>
      <trkpt lat="45.59641" lon="6.66933">
        <ele>1421.5999755859</ele>
        <time>2021-02-23T12:10:15.000Z</time>
      </trkpt>
      <trkpt lat="45.59644" lon="6.6694">
        <ele>1420.8000488281</ele>
        <time>2021-02-23T12:10:16.000Z</time>
      </trkpt>
      <trkpt lat="45.59647" lon="6.66962">
        <ele>1419.5999755859</ele>
        <time>2021-02-23T12:10:18.000Z</time>
      </trkpt>
      <trkpt lat="45.59648" lon="6.66973">
        <ele>1418.4000244141</ele>
        <time>2021-02-23T12:10:19.000Z</time>
      </trkpt>
      <trkpt lat="45.59648" lon="6.66982">
        <ele>1417.8000488281</ele>
        <time>2021-02-23T12:10:20.000Z</time>
      </trkpt>
      <trkpt lat="45.59646" lon="6.66991">
        <ele>1417.1999511719</ele>
        <time>2021-02-23T12:10:21.000Z</time>
      </trkpt>
      <trkpt lat="45.59639" lon="6.67012">
        <ele>1416</ele>
        <time>2021-02-23T12:10:23.000Z</time>
      </trkpt>
      <trkpt lat="45.59622" lon="6.6703">
        <ele>1415</ele>
        <time>2021-02-23T12:10:26.000Z</time>
      </trkpt>
      <trkpt lat="45.59616" lon="6.67035">
        <ele>1414.4000244141</ele>
        <time>2021-02-23T12:10:27.000Z</time>
      </trkpt>
      <trkpt lat="45.5961" lon="6.67038">
        <ele>1413.8000488281</ele>
        <time>2021-02-23T12:10:28.000Z</time>
      </trkpt>
      <trkpt lat="45.59601" lon="6.67046">
        <ele>1412.5999755859</ele>
        <time>2021-02-23T12:10:30.000Z</time>
      </trkpt>
      <trkpt lat="45.59593" lon="6.67049">
        <ele>1411.5999755859</ele>
        <time>2021-02-23T12:10:32.000Z</time>
      </trkpt>
      <trkpt lat="45.59589" lon="6.6705">
        <ele>1411.1999511719</ele>
        <time>2021-02-23T12:10:33.000Z</time>
      </trkpt>
      <trkpt lat="45.59578" lon="6.67052">
        <ele>1410.4000244141</ele>
        <time>2021-02-23T12:10:36.000Z</time>
      </trkpt>
      <trkpt lat="45.59565" lon="6.67053">
        <ele>1409.1999511719</ele>
        <time>2021-02-23T12:10:39.000Z</time>
      </trkpt>
      <trkpt lat="45.5956" lon="6.67053">
        <ele>1408.8000488281</ele>
        <time>2021-02-23T12:10:40.000Z</time>
      </trkpt>
      <trkpt lat="45.5955" lon="6.67052">
        <ele>1407.8000488281</ele>
        <time>2021-02-23T12:10:42.000Z</time>
      </trkpt>
      <trkpt lat="45.59534" lon="6.67048">
        <ele>1406.8000488281</ele>
        <time>2021-02-23T12:10:45.000Z</time>
      </trkpt>
      <trkpt lat="45.59525" lon="6.67046">
        <ele>1406.4000244141</ele>
        <time>2021-02-23T12:10:47.000Z</time>
      </trkpt>
      <trkpt lat="45.59517" lon="6.67047">
        <ele>1405.8000488281</ele>
        <time>2021-02-23T12:10:49.000Z</time>
      </trkpt>
      <trkpt lat="45.59504" lon="6.67051">
        <ele>1404.8000488281</ele>
        <time>2021-02-23T12:10:52.000Z</time>
      </trkpt>
      <trkpt lat="45.59497" lon="6.67055">
        <ele>1404.5999755859</ele>
        <time>2021-02-23T12:10:54.000Z</time>
      </trkpt>
      <trkpt lat="45.59482" lon="6.67064">
        <ele>1403.5999755859</ele>
        <time>2021-02-23T12:10:58.000Z</time>
      </trkpt>
      <trkpt lat="45.59478" lon="6.67066">
        <ele>1403.1999511719</ele>
        <time>2021-02-23T12:10:59.000Z</time>
      </trkpt>
      <trkpt lat="45.59464" lon="6.67071">
        <ele>1402.4000244141</ele>
        <time>2021-02-23T12:11:02.000Z</time>
      </trkpt>
      <trkpt lat="45.59454" lon="6.67074">
        <ele>1401.4000244141</ele>
        <time>2021-02-23T12:11:04.000Z</time>
      </trkpt>
      <trkpt lat="45.5944" lon="6.67079">
        <ele>1399.5999755859</ele>
        <time>2021-02-23T12:11:07.000Z</time>
      </trkpt>
      <trkpt lat="45.59434" lon="6.67083">
        <ele>1399</ele>
        <time>2021-02-23T12:11:08.000Z</time>
      </trkpt>
      <trkpt lat="45.59387" lon="6.67098">
        <ele>1398.1999511719</ele>
        <time>2021-02-23T12:11:17.000Z</time>
      </trkpt>
      <trkpt lat="45.59367" lon="6.67101">
        <ele>1397.1999511719</ele>
        <time>2021-02-23T12:11:21.000Z</time>
      </trkpt>
      <trkpt lat="45.59357" lon="6.671">
        <ele>1397</ele>
        <time>2021-02-23T12:11:23.000Z</time>
      </trkpt>
      <trkpt lat="45.59328" lon="6.67091">
        <ele>1396.4000244141</ele>
        <time>2021-02-23T12:11:30.000Z</time>
      </trkpt>
      <trkpt lat="45.59302" lon="6.67079">
        <ele>1396</ele>
        <time>2021-02-23T12:11:37.000Z</time>
      </trkpt>
      <trkpt lat="45.59283" lon="6.67079">
        <ele>1395.8000488281</ele>
        <time>2021-02-23T12:11:44.000Z</time>
      </trkpt>
      <trkpt lat="45.59268" lon="6.67078">
        <ele>1395.4000244141</ele>
        <time>2021-02-23T12:11:51.000Z</time>
      </trkpt>
      <trkpt lat="45.59258" lon="6.67077">
        <ele>1395.1999511719</ele>
        <time>2021-02-23T12:11:59.000Z</time>
      </trkpt>
      <trkpt lat="45.59255" lon="6.67078">
        <ele>1395</ele>
        <time>2021-02-23T12:12:02.000Z</time>
      </trkpt>
      <trkpt lat="45.59243" lon="6.67079">
        <ele>1395.1999511719</ele>
        <time>2021-02-23T12:12:08.000Z</time>
      </trkpt>
      <trkpt lat="45.59231" lon="6.67076">
        <ele>1395</ele>
        <time>2021-02-23T12:12:16.000Z</time>
      </trkpt>
      <trkpt lat="45.59214" lon="6.67072">
        <ele>1395.1999511719</ele>
        <time>2021-02-23T12:12:24.000Z</time>
      </trkpt>
      <trkpt lat="45.5921" lon="6.67074">
        <ele>1394.4000244141</ele>
        <time>2021-02-23T12:12:26.000Z</time>
      </trkpt>
      <trkpt lat="45.59205" lon="6.67076">
        <ele>1394</ele>
        <time>2021-02-23T12:12:28.000Z</time>
      </trkpt>
      <trkpt lat="45.59199" lon="6.67087">
        <ele>1395</ele>
        <time>2021-02-23T12:12:33.000Z</time>
      </trkpt>
      <trkpt lat="45.59199" lon="6.67087">
        <ele>1394.4000244141</ele>
        <time>2021-02-23T12:12:42.000Z</time>
      </trkpt>
      <trkpt lat="45.59199" lon="6.67087">
        <ele>1392.5999755859</ele>
        <time>2021-02-23T12:12:49.000Z</time>
      </trkpt>
      <trkpt lat="45.59199" lon="6.67087">
        <ele>1390.5999755859</ele>
        <time>2021-02-23T12:12:50.000Z</time>
      </trkpt>
      <trkpt lat="45.59199" lon="6.67087">
        <ele>1389.1999511719</ele>
        <time>2021-02-23T12:12:51.000Z</time>
      </trkpt>
      <trkpt lat="45.59199" lon="6.67087">
        <ele>1388.4000244141</ele>
        <time>2021-02-23T12:12:52.000Z</time>
      </trkpt>
      <trkpt lat="45.59199" lon="6.67087">
        <ele>1388.1999511719</ele>
        <time>2021-02-23T12:12:53.000Z</time>
      </trkpt>
      <trkpt lat="45.59199" lon="6.67087">
        <ele>1389.4000244141</ele>
        <time>2021-02-23T12:12:55.000Z</time>
      </trkpt>
      <trkpt lat="45.59199" lon="6.67087">
        <ele>1392.4000244141</ele>
        <time>2021-02-23T12:12:56.000Z</time>
      </trkpt>
      <trkpt lat="45.59199" lon="6.67087">
        <ele>1395.1999511719</ele>
        <time>2021-02-23T12:12:57.000Z</time>
      </trkpt>
      <trkpt lat="45.59199" lon="6.67087">
        <ele>1396.8000488281</ele>
        <time>2021-02-23T12:12:58.000Z</time>
      </trkpt>
      <trkpt lat="45.59199" lon="6.67087">
        <ele>1398.8000488281</ele>
        <time>2021-02-23T12:13:00.000Z</time>
      </trkpt>
      <trkpt lat="45.59199" lon="6.67087">
        <ele>1397.1999511719</ele>
        <time>2021-02-23T12:13:02.000Z</time>
      </trkpt>
      <trkpt lat="45.59199" lon="6.67087">
        <ele>1396.1999511719</ele>
        <time>2021-02-23T12:13:03.000Z</time>
      </trkpt>
      <trkpt lat="45.59199" lon="6.67087">
        <ele>1395.5999755859</ele>
        <time>2021-02-23T12:13:04.000Z</time>
      </trkpt>
      <trkpt lat="45.59196" lon="6.6709">
        <ele>1394.8000488281</ele>
        <time>2021-02-23T12:13:10.000Z</time>
      </trkpt>
      <trkpt lat="45.59184" lon="6.671">
        <ele>1394.5999755859</ele>
        <time>2021-02-23T12:13:18.000Z</time>
      </trkpt>
      <trkpt lat="45.59181" lon="6.67106">
        <ele>1394.5999755859</ele>
        <time>2021-02-23T12:13:24.000Z</time>
      </trkpt>
      <trkpt lat="45.59183" lon="6.671">
        <ele>1394.4000244141</ele>
        <time>2021-02-23T12:13:34.000Z</time>
      </trkpt>
      <trkpt lat="45.59183" lon="6.67099">
        <ele>1394.1999511719</ele>
        <time>2021-02-23T12:13:44.000Z</time>
      </trkpt>
      <trkpt lat="45.59183" lon="6.67099">
        <ele>1394.4000244141</ele>
        <time>2021-02-23T12:13:55.000Z</time>
      </trkpt>
      <trkpt lat="45.59183" lon="6.67099">
        <ele>1394.4000244141</ele>
        <time>2021-02-23T12:14:08.000Z</time>
      </trkpt>
    </trkseg>
  </trk>
</gpx>